# Wetter Temperatur Luftdruck Luftfeuchtigkeit Sichtweite Windgeschwindigkeit Windrichtung Zeit
1 Rain 27 1010 83 10000 2.57 200 16:45 01.02.2023
2 Rain 25 1012 79 10000 1.66 159 14:21 01.02.2023
3 Rain 25 1012 79 10000 1.66 159 14:21 01.02.2023
4 Rain 25 1010 80 10000 1.7 168 13:19 01.02.2023
5 Rain 25 1010 80 10000 1.7 168 13:19 01.02.2023
6 Rain 25 1010 81 10000 1.41 169 12:26 01.02.2023
7 Rain 25 1010 82 10000 1.35 191 10:46 01.02.2023
8 Rain 25 1011 83 10000 2.26 184 08:26 01.02.2023
9 Rain 28 1007 74 10000 3.09 110 22:41 31.01.2023
10 Drizzle 27 1009 83 6000 1.03 10 20:53 31.01.2023
11 Rain 28 1009 78 10000 1.54 190 19:24 31.01.2023
12 Rain 27 1010 83 10000 1.03 0 17:31 31.01.2023
13 Rain 27 1010 83 10000 1.03 130 15:36 31.01.2023
14 Clouds 27 1010 83 10000 1.03 130 15:18 31.01.2023
15 Rain 25 1010 83 10000 0.8 250 12:56 31.01.2023
16 Rain 25 1010 83 10000 0.93 239 11:27 31.01.2023
17 Rain 24 1010 85 9691 1.05 246 09:55 31.01.2023
18 Rain 25 1010 85 9058 0.82 245 09:25 31.01.2023
19 Rain 25 1010 85 9058 0.82 245 08:35 31.01.2023
20 Clouds 25 1012 84 10000 0.56 71 06:23 31.01.2023
21 Rain 25 1010 79 10000 0.74 135 00:54 31.01.2023
22 Rain 27 1007 83 10000 2.57 170 23:24 30.01.2023
23 Rain 28 1007 83 10000 2.06 180 22:47 30.01.2023
24 Rain 27 1007 83 10000 3.09 190 21:30 30.01.2023
25 Drizzle 27 1009 83 10000 3.6 190 20:42 30.01.2023
26 Rain 29 1010 74 10000 4.63 160 18:26 30.01.2023
27 Clouds 27 1010 83 10000 4.12 140 16:56 30.01.2023
28 Clouds 25 1011 85 10000 0.96 128 14:28 30.01.2023
29 Clouds 25 1011 85 10000 0.96 128 13:33 30.01.2023
30 Clouds 25 1009 85 10000 1.18 145 11:28 30.01.2023
31 Clouds 25 1009 84 10000 1.28 146 09:55 30.01.2023
32 Clouds 25 1009 84 10000 1.38 143 08:59 30.01.2023
33 Rain 25 1010 85 10000 1.79 141 07:36 30.01.2023
34 Clouds 26 1010 84 10000 3.1 144 01:42 30.01.2023
35 Rain 25 1007 94 10000 1.03 240 23:35 29.01.2023
36 Rain 25 1007 94 8000 1.54 330 22:37 29.01.2023
37 Drizzle 26 1008 89 8000 2.06 200 21:41 29.01.2023
38 Rain 28 1008 78 10000 4.12 150 20:50 29.01.2023
39 Rain 27 1009 83 10000 3.09 180 19:50 29.01.2023
40 Rain 27 1009 83 10000 3.09 180 19:27 29.01.2023
41 Rain 27 1010 83 10000 3.6 150 17:49 29.01.2023
42 Rain 27 1010 83 10000 3.09 130 16:21 29.01.2023
43 Rain 25 1012 85 10000 2.85 135 14:53 29.01.2023
44 Clouds 25 1011 86 10000 2.18 128 13:30 29.01.2023
45 Clouds 25 1010 86 10000 2.25 131 12:44 29.01.2023
46 Clouds 25 1009 85 10000 2.19 135 12:23 29.01.2023
47 Clouds 25 1009 85 10000 2.19 135 11:51 29.01.2023
48 Rain 25 1009 85 10000 2.06 135 11:26 29.01.2023
49 Rain 25 1009 85 10000 1.97 123 09:57 29.01.2023
50 Rain 25 1010 87 10000 2.81 129 07:19 29.01.2023
51 Clouds 25 1011 86 10000 2.61 125 03:39 29.01.2023
52 Drizzle 25 1006 94 8000 3.09 140 23:27 28.01.2023
53 Rain 26 1007 89 10000 2.06 170 20:38 28.01.2023
54 Rain 27 1008 83 10000 2.57 150 19:52 28.01.2023
55 Rain 28 1009 78 10000 3.6 160 18:27 28.01.2023
56 Clouds 27 1009 83 10000 2.57 170 16:59 28.01.2023
57 Clouds 27 1009 83 10000 2.57 170 16:20 28.01.2023
58 Clouds 26 1009 89 10000 3.09 160 15:49 28.01.2023
59 Clouds 25 1010 85 10000 1.65 179 14:26 28.01.2023
60 Clouds 25 1010 86 10000 1.11 192 12:50 28.01.2023
61 Clouds 25 1009 86 10000 1.49 207 11:54 28.01.2023
62 Clouds 25 1008 86 10000 1.54 194 10:34 28.01.2023
63 Clouds 25 1010 87 10000 1.78 202 07:21 28.01.2023
64 Clouds 25 1009 86 10000 2.75 202 01:40 28.01.2023
65 Clouds 25 1008 83 10000 4.31 208 00:25 28.01.2023
66 Clouds 29 1007 74 10000 4.12 190 20:59 27.01.2023
67 Clouds 28 1009 78 10000 4.12 190 18:25 27.01.2023
68 Clouds 28 1009 78 10000 5.14 190 17:57 27.01.2023
69 Clouds 28 1009 78 10000 5.14 190 17:18 27.01.2023
70 Clouds 27 1010 83 10000 2.57 160 16:35 27.01.2023
71 Clear 25 1011 82 10000 2.55 220 14:57 27.01.2023
72 Clear 24 1011 83 10000 2.46 216 14:25 27.01.2023
73 Clouds 24 1010 89 10000 2.92 223 12:57 27.01.2023
74 Clouds 24 1009 89 10000 2.47 220 08:42 27.01.2023
75 Clouds 24 1012 88 10000 2.32 210 05:58 27.01.2023
76 Clouds 28 1006 78 10000 3.6 190 22:55 26.01.2023
77 Clouds 28 1007 78 10000 4.12 160 21:40 26.01.2023
78 Clouds 29 1008 74 10000 3.09 190 20:36 26.01.2023
79 Clouds 29 1009 79 10000 3.09 210 19:21 26.01.2023
80 Clouds 27 1010 83 10000 2.06 240 17:42 26.01.2023
81 Clouds 26 1010 89 10000 1.54 220 16:27 26.01.2023
82 Clouds 25 1010 94 10000 2.06 240 15:55 26.01.2023
83 Clouds 25 1010 94 10000 2.06 240 15:31 26.01.2023
84 Clouds 24 1012 87 10000 3.32 218 14:50 26.01.2023
85 Clouds 24 1010 89 10000 3.1 220 12:48 26.01.2023
86 Clouds 24 1010 90 10000 3.41 220 11:31 26.01.2023
87 Clouds 24 1010 90 10000 3.88 223 10:30 26.01.2023
88 Clouds 24 1010 90 10000 3.75 223 09:44 26.01.2023
89 Clouds 24 1010 90 10000 3.58 218 08:25 26.01.2023
90 Clouds 25 1010 86 10000 4.47 209 02:26 26.01.2023
91 Clouds 28 1007 78 10000 4.12 210 23:38 25.01.2023
92 Clouds 29 1008 74 10000 6.17 180 21:59 25.01.2023
93 Clouds 29 1008 74 10000 6.17 180 21:21 25.01.2023
94 Clouds 28 1010 78 10000 5.66 190 18:59 25.01.2023
95 Clouds 28 1010 78 10000 5.66 190 18:22 25.01.2023
96 Clouds 26 1010 89 10000 4.63 180 15:50 25.01.2023
97 Clouds 24 1011 88 10000 3.68 187 12:59 25.01.2023
98 Clouds 24 1010 87 10000 2.74 198 11:21 25.01.2023
99 Clouds 24 1010 88 10000 2.57 204 09:48 25.01.2023
100 Clear 24 1011 87 10000 2.08 196 07:45 25.01.2023
101 Clouds 24 1010 82 10000 2.29 175 01:36 25.01.2023
102 Clouds 25 1009 78 10000 2.02 200 00:23 25.01.2023
103 Clouds 27 1008 78 10000 6.17 180 21:34 24.01.2023
104 Clouds 27 1009 78 10000 4.12 190 20:19 24.01.2023
105 Clouds 27 1009 78 10000 4.12 190 20:19 24.01.2023
106 Clouds 26 1010 83 10000 2.06 360 18:46 24.01.2023
107 Clouds 28 1011 74 10000 2.57 300 17:31 24.01.2023
108 Clouds 27 1011 78 10000 2.06 20 16:53 24.01.2023
109 Clouds 27 1011 78 10000 2.06 20 16:26 24.01.2023
110 Clouds 24 1012 83 10000 2.65 139 13:41 24.01.2023
111 Clouds 23 1011 83 10000 1.81 130 11:30 24.01.2023
112 Clouds 24 1010 83 10000 1.36 79 08:38 24.01.2023
113 Clouds 24 1011 83 10000 1.21 83 08:18 24.01.2023
114 Clouds 24 1011 83 10000 1.21 83 07:47 24.01.2023
115 Clouds 24 1011 82 10000 2.05 79 02:39 24.01.2023
116 Clouds 25 1009 78 10000 2.06 80 00:36 24.01.2023
117 Rain 26 1007 83 10000 3.09 330 22:28 23.01.2023
118 Clouds 28 1009 74 10000 3.6 360 19:58 23.01.2023
119 Clouds 27 1010 78 10000 3.09 330 18:58 23.01.2023
120 Clouds 27 1010 78 10000 1.54 330 16:40 23.01.2023
121 Clouds 26 1010 83 10000 2.06 60 15:26 23.01.2023
122 Clouds 23 1012 87 10000 2.36 115 13:55 23.01.2023
123 Clouds 23 1011 88 10000 2.14 118 12:55 23.01.2023
124 Clouds 23 1010 88 10000 2.19 115 11:45 23.01.2023
125 Clouds 23 1009 88 10000 2.36 115 10:40 23.01.2023
126 Clouds 24 1010 88 10000 2.24 129 08:24 23.01.2023
127 Clouds 28 1005 83 10000 4.63 130 23:53 22.01.2023
128 Clouds 28 1007 78 10000 7.72 170 21:50 22.01.2023
129 Clouds 28 1008 78 10000 6.69 150 20:58 22.01.2023
130 Clouds 28 1009 74 10000 7.72 160 19:54 22.01.2023
131 Clouds 28 1009 74 10000 7.72 160 19:21 22.01.2023
132 Clouds 28 1009 74 10000 6.17 160 18:25 22.01.2023
133 Clouds 28 1010 74 10000 6.69 160 17:55 22.01.2023
134 Clouds 28 1010 74 10000 6.69 160 17:23 22.01.2023
135 Clouds 26 1010 83 10000 4.12 160 15:23 22.01.2023
136 Clouds 24 1011 86 10000 3.07 149 14:20 22.01.2023
137 Clouds 24 1011 87 10000 2.84 156 13:26 22.01.2023
138 Clouds 24 1010 87 10000 2.94 161 12:28 22.01.2023
139 Clouds 24 1010 87 10000 2.73 167 11:23 22.01.2023
140 Clouds 24 1009 88 10000 2.3 168 09:34 22.01.2023
141 Clouds 24 1011 87 10000 3.81 150 02:58 22.01.2023
142 Clouds 27 1007 89 10000 5.66 140 23:43 21.01.2023
143 Clouds 28 1007 83 10000 3.09 130 22:48 21.01.2023
144 Clouds 29 1008 74 10000 7.2 140 21:28 21.01.2023
145 Clouds 27 1011 83 10000 4.63 160 18:50 21.01.2023
146 Rain 24 1011 94 10000 2.06 210 15:36 21.01.2023
147 Clouds 24 1012 86 10000 3.57 132 13:31 21.01.2023
148 Clear 24 1012 88 10000 2.76 137 12:52 21.01.2023
149 Clear 24 1011 88 10000 3.15 147 11:28 21.01.2023
150 Clear 24 1011 88 10000 3.15 147 10:47 21.01.2023
151 Clear 24 1012 89 10000 3.08 147 08:28 21.01.2023
152 Clouds 25 1011 82 10000 3.02 148 01:19 21.01.2023
153 Clouds 27 1009 83 10000 4.12 170 22:27 20.01.2023
154 Clouds 26 1010 83 10000 5.14 120 21:36 20.01.2023
155 Clouds 26 1011 83 10000 4.63 120 20:42 20.01.2023
156 Drizzle 26 1012 83 10000 5.14 140 18:29 20.01.2023
157 Clouds 25 1012 83 10000 3.09 130 15:45 20.01.2023
158 Clear 24 1014 86 10000 3.16 128 14:33 20.01.2023
159 Clear 24 1012 90 10000 3.08 130 12:24 20.01.2023
160 Clear 24 1012 89 10000 3.06 136 08:59 20.01.2023
161 Clear 24 1012 89 10000 3.17 131 07:43 20.01.2023
162 Clouds 24 1013 86 10000 3.35 151 02:33 20.01.2023
163 Clouds 27 1009 78 10000 3.09 180 22:38 19.01.2023
164 Clouds 27 1009 78 10000 3.09 180 22:38 19.01.2023
165 Clouds 27 1009 78 10000 3.09 180 22:18 19.01.2023
166 Clouds 26 1011 83 10000 2.06 210 20:21 19.01.2023
167 Rain 24 1012 94 10000 2.06 270 18:57 19.01.2023
168 Drizzle 23 1012 94 8000 3.09 130 15:35 19.01.2023
169 Clouds 24 1011 85 10000 2.61 181 10:52 19.01.2023
170 Clouds 24 1011 86 10000 3.39 185 08:59 19.01.2023
171 Clouds 27 1008 74 10000 4.63 140 23:30 18.01.2023
172 Clouds 27 1010 74 10000 6.69 160 20:54 18.01.2023
173 Clouds 27 1010 74 10000 6.69 160 20:18 18.01.2023
174 Clouds 28 1010 74 10000 7.2 150 19:36 18.01.2023
175 Clouds 27 1011 78 10000 6.69 130 17:32 18.01.2023
176 Clouds 24 1013 88 10000 3.41 157 14:41 18.01.2023
177 Clouds 24 1012 90 10000 3.42 169 12:53 18.01.2023
178 Clouds 23 1011 91 10000 2.89 174 10:29 18.01.2023
179 Clouds 23 1011 91 10000 3.01 169 07:36 18.01.2023
180 Clouds 24 1011 87 10000 4.29 161 01:26 18.01.2023
181 Clouds 27 1008 78 10000 7.2 160 22:49 17.01.2023
182 Clouds 28 1010 78 10000 7.72 170 20:27 17.01.2023
183 Clouds 27 1010 78 10000 8.23 150 19:18 17.01.2023
184 Clouds 25 1012 88 10000 6.17 170 17:53 17.01.2023
185 Rain 24 1012 94 8000 4.12 160 15:38 17.01.2023
186 Rain 24 1013 85 10000 2.86 146 14:52 17.01.2023
187 Rain 24 1013 89 10000 3.13 146 13:34 17.01.2023
188 Clouds 23 1011 90 10000 3.12 152 11:50 17.01.2023
189 Clouds 23 1011 89 10000 2.77 148 10:35 17.01.2023
190 Clear 23 1011 90 10000 2.74 149 09:27 17.01.2023
191 Clear 24 1012 89 10000 2.84 148 07:38 17.01.2023
192 Clouds 24 1013 88 10000 3.1 129 03:50 17.01.2023
193 Clouds 24 1011 85 10000 3.02 145 00:51 17.01.2023
194 Clouds 28 1008 74 10000 7.2 170 22:40 16.01.2023
195 Clouds 29 1010 70 10000 7.72 150 21:46 16.01.2023
196 Clouds 28 1011 74 10000 6.17 160 19:56 16.01.2023
197 Clouds 28 1011 74 10000 6.17 160 19:25 16.01.2023
198 Clouds 27 1012 78 10000 5.14 170 18:48 16.01.2023
199 Clouds 27 1012 78 10000 5.14 170 18:19 16.01.2023
200 Clouds 26 1012 83 10000 4.63 180 17:20 16.01.2023
201 Clouds 24 1013 87 10000 2.27 139 14:27 16.01.2023
202 Clouds 24 1013 87 10000 2.27 139 13:36 16.01.2023
203 Clear 24 1011 89 10000 2.72 148 10:26 16.01.2023
204 Clear 24 1011 89 10000 2.74 150 08:32 16.01.2023
205 Clouds 29 1009 70 10000 6.17 160 22:49 15.01.2023
206 Clouds 29 1010 70 10000 6.69 170 21:24 15.01.2023
207 Clouds 29 1010 70 10000 6.69 160 20:31 15.01.2023
208 Clouds 28 1011 74 10000 4.63 180 19:34 15.01.2023
209 Clouds 27 1012 78 10000 4.63 160 17:38 15.01.2023
210 Clouds 24 1014 86 10000 2.99 152 14:59 15.01.2023
211 Clouds 23 1013 87 10000 2.92 181 12:25 15.01.2023
212 Clouds 23 1013 87 10000 3.15 187 11:29 15.01.2023
213 Rain 23 1013 88 10000 2.99 186 10:24 15.01.2023
214 Rain 23 1013 89 10000 2.87 188 08:29 15.01.2023
215 Clouds 27 1009 74 10000 5.14 170 23:56 14.01.2023
216 Clouds 28 1009 65 10000 6.69 160 22:44 14.01.2023
217 Clouds 28 1009 65 10000 6.17 180 21:36 14.01.2023
218 Clouds 28 1009 65 10000 6.17 180 21:18 14.01.2023
219 Clouds 29 1010 65 10000 6.69 150 20:56 14.01.2023
220 Clouds 29 1010 65 10000 6.69 150 20:26 14.01.2023
221 Clouds 27 1012 74 10000 4.63 180 17:53 14.01.2023
222 Clouds 24 1012 88 10000 2.57 180 15:38 14.01.2023
223 Clouds 24 1012 88 10000 2.57 180 15:19 14.01.2023
224 Clouds 23 1013 81 10000 3.08 220 14:19 14.01.2023
225 Clouds 23 1013 82 10000 3.17 221 12:49 14.01.2023
226 Clouds 23 1012 82 10000 3.55 206 10:49 14.01.2023
227 Clouds 23 1012 84 10000 3.13 215 08:22 14.01.2023
228 Clouds 24 1012 81 10000 2.97 199 02:35 14.01.2023
229 Clouds 26 1009 78 10000 4.63 210 22:59 13.01.2023
230 Clouds 26 1009 78 10000 4.63 210 22:41 13.01.2023
231 Clouds 24 1010 88 10000 3.09 220 21:57 13.01.2023
232 Clouds 24 1010 88 10000 4.63 240 20:33 13.01.2023
233 Drizzle 23 1011 100 10000 3.09 210 19:27 13.01.2023
234 Rain 24 1012 88 10000 3.09 190 16:58 13.01.2023
235 Rain 24 1012 88 10000 3.09 190 16:58 13.01.2023
236 Clouds 23 1014 80 10000 3.99 183 14:52 13.01.2023
237 Clouds 23 1012 82 10000 4.13 168 12:22 13.01.2023
238 Clouds 23 1012 83 10000 4.25 172 10:37 13.01.2023
239 Clouds 23 1012 84 10000 4.19 170 10:18 13.01.2023
240 Clouds 23 1012 84 10000 4.19 170 09:39 13.01.2023
241 Clouds 23 1012 84 10000 4.23 165 08:49 13.01.2023
242 Clouds 23 1012 84 10000 4.23 165 08:49 13.01.2023
243 Clouds 23 1013 89 10000 3.88 170 06:56 13.01.2023
244 Clouds 23 1014 89 10000 3.97 170 05:45 13.01.2023
245 Clouds 24 1012 80 10000 4.11 185 00:55 13.01.2023
246 Clouds 28 1010 69 10000 5.14 200 22:46 12.01.2023
247 Clouds 29 1010 65 10000 6.69 170 21:19 12.01.2023
248 Clouds 29 1011 65 10000 5.66 200 20:46 12.01.2023
249 Clouds 27 1013 74 10000 6.17 170 18:26 12.01.2023
250 Clouds 26 1013 78 10000 7.2 150 16:59 12.01.2023
251 Clouds 24 1015 79 10000 4.29 166 14:54 12.01.2023
252 Clouds 24 1014 79 10000 4.17 169 14:26 12.01.2023
253 Clouds 24 1014 79 10000 4.17 169 13:38 12.01.2023
254 Clouds 23 1013 80 10000 4.31 163 11:44 12.01.2023
255 Clouds 23 1013 81 10000 3.83 164 10:24 12.01.2023
256 Clouds 23 1014 83 10000 2.29 167 06:45 12.01.2023
257 Clouds 23 1012 80 10000 4.5 162 00:31 12.01.2023
258 Clouds 27 1010 74 10000 5.66 190 23:48 11.01.2023
259 Clouds 27 1010 74 10000 5.66 190 23:30 11.01.2023
260 Clouds 27 1010 74 10000 5.66 190 23:30 11.01.2023
261 Clouds 27 1010 74 10000 7.72 190 22:50 11.01.2023
262 Clouds 28 1012 69 10000 8.23 190 20:59 11.01.2023
263 Clouds 27 1013 69 10000 7.2 160 18:50 11.01.2023
264 Clouds 27 1013 69 10000 5.14 180 17:30 11.01.2023
265 Clouds 23 1016 81 10000 3.08 180 15:31 11.01.2023
266 Clouds 22 1015 83 10000 2.78 182 13:53 11.01.2023
267 Clouds 23 1014 82 10000 2.72 176 12:21 11.01.2023
268 Clear 23 1013 82 10000 2.53 185 10:47 11.01.2023
269 Clear 23 1013 81 10000 2.1 160 08:21 11.01.2023
270 Clouds 23 1014 80 10000 2.29 145 07:26 11.01.2023
271 Clouds 23 1015 82 10000 2.75 162 03:56 11.01.2023
272 Clouds 26 1010 73 10000 5.14 180 22:46 10.01.2023
273 Clouds 26 1011 73 10000 5.66 180 21:44 10.01.2023
274 Clouds 26 1011 73 10000 5.14 180 20:43 10.01.2023
275 Clouds 26 1012 69 10000 6.17 180 19:48 10.01.2023
276 Clouds 26 1013 73 10000 6.17 180 18:48 10.01.2023
277 Clouds 26 1014 73 10000 4.63 180 17:59 10.01.2023
278 Clouds 25 1014 73 10000 4.12 180 16:42 10.01.2023
279 Clouds 24 1014 83 10000 3.09 160 15:31 10.01.2023
280 Clouds 24 1014 83 10000 3.09 160 15:31 10.01.2023
281 Clouds 23 1016 79 10000 2.73 178 14:32 10.01.2023
282 Clouds 22 1014 80 10000 2.47 185 12:25 10.01.2023
283 Clouds 22 1013 81 10000 2.59 187 09:26 10.01.2023
284 Clouds 22 1013 82 10000 2.57 182 08:29 10.01.2023
285 Clouds 23 1015 82 10000 2.82 183 07:27 10.01.2023
286 Clouds 23 1016 82 10000 2.77 177 04:54 10.01.2023
287 Clouds 26 1011 69 10000 5.14 200 23:29 09.01.2023
288 Clouds 28 1012 57 10000 7.2 150 21:51 09.01.2023
289 Clouds 27 1013 65 10000 6.69 180 20:45 09.01.2023
290 Clouds 27 1013 65 10000 6.69 150 19:22 09.01.2023
291 Clouds 26 1014 73 10000 7.2 160 17:54 09.01.2023
292 Clouds 26 1014 73 10000 7.2 160 17:24 09.01.2023
293 Clouds 26 1014 73 10000 6.69 160 16:32 09.01.2023
294 Clouds 26 1014 73 10000 6.69 160 16:32 09.01.2023
295 Clouds 25 1014 78 10000 6.17 170 15:28 09.01.2023
296 Clouds 23 1016 82 10000 4.09 165 14:45 09.01.2023
297 Clouds 22 1015 84 10000 4.09 169 13:25 09.01.2023
298 Clouds 22 1015 84 10000 4.09 169 12:49 09.01.2023
299 Clear 22 1014 85 10000 4.46 168 11:21 09.01.2023
300 Clear 22 1013 85 10000 4.09 172 08:43 09.01.2023
301 Clear 22 1015 85 10000 3.67 168 06:39 09.01.2023
302 Clear 23 1015 83 10000 3.75 175 02:54 09.01.2023
303 Clouds 23 1013 78 10000 4.16 173 22:54 08.01.2023
304 Clouds 28 1011 57 10000 7.2 150 21:23 08.01.2023
305 Clouds 29 1012 54 10000 7.2 150 20:57 08.01.2023
306 Clouds 29 1013 58 10000 6.17 160 19:44 08.01.2023
307 Clouds 23 1016 80 10000 4.23 157 17:41 08.01.2023
308 Clear 23 1016 81 10000 4.01 149 17:19 08.01.2023
309 Clear 23 1016 85 10000 2.95 144 15:39 08.01.2023
310 Clear 22 1015 88 10000 3.2 153 14:20 08.01.2023
311 Clear 22 1015 88 10000 3.2 153 13:32 08.01.2023
312 Clear 22 1015 88 10000 3.25 157 12:59 08.01.2023
313 Clear 22 1014 88 10000 2.9 163 11:37 08.01.2023
314 Clear 22 1013 89 10000 2.78 167 09:37 08.01.2023
315 Clear 22 1014 89 10000 2.85 160 08:31 08.01.2023
316 Clear 23 1014 86 10000 3.32 146 02:43 08.01.2023
317 Clouds 23 1011 84 10000 5.7 152 22:55 07.01.2023
318 Clouds 23 1011 84 10000 5.7 152 22:34 07.01.2023
319 Clouds 23 1011 83 10000 6.03 149 21:51 07.01.2023
320 Clouds 23 1012 84 10000 6.04 147 20:58 07.01.2023
321 Clouds 24 1012 84 10000 5.98 144 20:25 07.01.2023
322 Clouds 29 1012 61 10000 7.72 150 19:19 07.01.2023
323 Clouds 28 1012 65 10000 7.72 160 18:18 07.01.2023
324 Clouds 27 1013 69 10000 7.2 150 17:39 07.01.2023
325 Clouds 27 1013 69 10000 6.17 140 16:39 07.01.2023
326 Clouds 25 1013 78 10000 6.69 160 15:52 07.01.2023
327 Clouds 25 1013 78 10000 6.69 160 15:31 07.01.2023
328 Clouds 23 1015 85 10000 3.11 137 14:47 07.01.2023
329 Clouds 23 1014 86 10000 3.31 128 13:54 07.01.2023
330 Clouds 23 1014 86 10000 3.31 128 13:35 07.01.2023
331 Clouds 23 1013 87 10000 3.1 132 12:23 07.01.2023
332 Clouds 23 1013 87 10000 3.1 132 11:52 07.01.2023
333 Clouds 23 1013 87 10000 2.82 149 10:26 07.01.2023
334 Clear 23 1013 87 10000 2.62 157 08:46 07.01.2023
335 Clear 23 1014 87 10000 2.62 157 07:46 07.01.2023
336 Clouds 23 1015 87 10000 2.93 156 07:20 07.01.2023
337 Clouds 23 1015 86 10000 3.46 135 04:49 07.01.2023
338 Clouds 28 1010 65 10000 7.72 160 22:38 06.01.2023
339 Clouds 28 1010 65 10000 7.72 160 22:19 06.01.2023
340 Clouds 28 1010 65 10000 7.72 150 21:27 06.01.2023
341 Clouds 29 1011 61 10000 7.2 120 19:58 06.01.2023
342 Clouds 29 1011 61 10000 7.2 120 19:40 06.01.2023
343 Clouds 29 1011 61 10000 7.2 120 19:22 06.01.2023
344 Clouds 28 1012 65 10000 7.2 140 18:42 06.01.2023
345 Clouds 28 1013 65 10000 5.14 160 17:21 06.01.2023
346 Clouds 25 1013 83 10000 4.63 150 16:32 06.01.2023
347 Clouds 25 1013 83 10000 3.6 150 15:56 06.01.2023
348 Clouds 25 1013 83 10000 3.6 150 15:38 06.01.2023
349 Clouds 23 1015 85 10000 3.43 141 14:52 06.01.2023
350 Clouds 23 1014 86 10000 3.93 149 12:37 06.01.2023
351 Clouds 23 1013 86 10000 4.61 149 10:58 06.01.2023
352 Clear 23 1013 87 10000 4.82 149 08:55 06.01.2023
353 Clouds 23 1014 88 10000 4.31 151 06:42 06.01.2023
354 Clouds 24 1012 81 10000 4.45 164 00:18 06.01.2023
355 Clouds 27 1010 65 10000 7.2 160 22:55 05.01.2023
356 Clouds 23 1012 81 10000 3.98 175 21:42 05.01.2023
357 Clouds 28 1012 61 10000 5.14 160 19:29 05.01.2023
358 Clouds 27 1013 69 10000 6.17 160 17:28 05.01.2023
359 Clouds 25 1013 78 10000 5.14 150 16:20 05.01.2023
360 Clouds 23 1013 88 10000 5.14 160 15:40 05.01.2023
361 Clouds 23 1015 83 10000 3.62 164 14:35 05.01.2023
362 Clear 22 1014 85 10000 3.4 169 12:43 05.01.2023
363 Clear 22 1013 84 10000 3.21 162 11:44 05.01.2023
364 Clear 22 1012 84 10000 3.08 158 09:50 05.01.2023
365 Clear 23 1013 83 10000 3.6 144 08:25 05.01.2023
366 Clear 23 1014 83 10000 3.72 145 07:18 05.01.2023
367 Clear 23 1014 83 10000 3.45 149 03:35 05.01.2023
368 Clouds 26 1009 73 10000 6.17 170 22:35 04.01.2023
369 Clouds 27 1009 65 10000 6.69 150 21:33 04.01.2023
370 Clouds 26 1010 73 10000 7.72 160 20:26 04.01.2023
371 Clouds 27 1011 69 10000 6.69 180 19:56 04.01.2023
372 Clouds 27 1011 69 10000 6.69 180 19:31 04.01.2023
373 Clouds 28 1011 65 10000 6.69 180 18:19 04.01.2023
374 Clouds 26 1012 69 10000 6.17 150 16:31 04.01.2023
375 Clouds 24 1012 83 10000 5.66 150 15:27 04.01.2023
376 Clear 23 1013 83 10000 3.85 151 13:36 04.01.2023
377 Clouds 22 1013 85 10000 3.39 146 11:40 04.01.2023
378 Clouds 22 1012 85 10000 3.53 150 11:18 04.01.2023
379 Clouds 22 1012 85 10000 3.53 150 10:42 04.01.2023
380 Clouds 22 1012 84 10000 3.01 167 10:21 04.01.2023
381 Clouds 22 1015 85 10000 2.68 172 05:40 04.01.2023
382 Clouds 22 1013 84 10000 3.2 177 01:42 04.01.2023
383 Clouds 25 1009 73 10000 3.6 160 23:45 03.01.2023
384 Clouds 25 1009 73 10000 3.6 160 23:26 03.01.2023
385 Clouds 25 1010 78 10000 4.12 180 21:43 03.01.2023
386 Clouds 26 1011 73 10000 3.6 180 20:51 03.01.2023
387 Clouds 26 1013 73 10000 3.09 160 18:40 03.01.2023
388 Drizzle 22 1015 94 10000 3.09 140 16:43 03.01.2023
389 Clouds 24 1014 83 10000 3.09 180 15:41 03.01.2023
390 Clouds 22 1015 88 10000 4.03 179 13:48 03.01.2023
391 Clouds 22 1014 89 10000 4.17 178 13:29 03.01.2023
392 Clouds 22 1014 89 10000 4.39 180 12:57 03.01.2023
393 Clouds 22 1014 90 10000 4.62 178 12:28 03.01.2023
394 Clouds 22 1013 89 10000 4.49 178 09:51 03.01.2023
395 Clouds 23 1015 83 10000 2.98 170 04:29 03.01.2023
396 Clouds 23 1015 83 10000 2.98 170 03:53 03.01.2023
397 Clouds 23 1015 83 10000 2.98 170 03:33 03.01.2023
398 Clouds 27 1010 69 10000 6.17 160 23:20 02.01.2023
399 Clouds 28 1010 65 10000 7.2 160 22:40 02.01.2023
400 Clouds 27 1011 69 10000 7.2 150 21:26 02.01.2023
401 Clouds 28 1011 65 10000 7.72 180 20:31 02.01.2023
402 Clouds 27 1013 69 10000 8.75 150 18:52 02.01.2023
403 Clouds 25 1014 78 10000 7.72 150 16:53 02.01.2023
404 Clouds 23 1015 86 10000 4.97 158 14:26 02.01.2023
405 Clear 22 1015 90 10000 4.55 162 12:56 02.01.2023
406 Clear 22 1013 91 10000 4.5 161 11:27 02.01.2023
407 Clear 22 1014 91 10000 4.22 162 08:51 02.01.2023
408 Clear 23 1016 91 10000 4.47 151 04:42 02.01.2023
409 Clouds 27 1010 74 10000 7.72 180 23:28 01.01.2023
410 Clouds 27 1011 78 10000 9.26 140 21:54 01.01.2023
411 Clouds 27 1012 74 10000 8.75 150 20:49 01.01.2023
412 Clouds 27 1012 74 10000 8.75 150 20:18 01.01.2023
413 Clouds 27 1013 74 10000 8.23 150 18:52 01.01.2023
414 Clouds 27 1013 74 10000 8.23 160 17:24 01.01.2023
415 Clouds 26 1013 78 10000 8.75 160 16:49 01.01.2023
416 Clouds 24 1013 88 10000 7.72 150 15:31 01.01.2023
417 Clear 23 1015 90 10000 5.3 171 13:48 01.01.2023
418 Rain 22 1014 91 10000 4.98 157 12:46 01.01.2023
419 Clear 22 1014 92 10000 4.96 171 11:40 01.01.2023
420 Clear 22 1013 92 10000 4.43 172 10:53 01.01.2023
421 Clear 23 1013 92 10000 4.31 161 09:23 01.01.2023
422 Clear 23 1014 92 10000 4.66 166 08:24 01.01.2023
423 Clear 23 1014 92 10000 4.64 176 07:29 01.01.2023
424 Clear 23 1015 92 10000 4.84 186 05:58 01.01.2023
425 Clouds 25 1011 83 10000 7.2 180 23:44 31.12.2022
426 Clouds 26 1012 78 10000 5.14 180 22:59 31.12.2022
427 Clouds 26 1012 78 10000 7.2 180 21:42 31.12.2022
428 Clouds 26 1012 78 10000 7.2 180 21:20 31.12.2022
429 Clouds 26 1014 78 10000 5.14 180 19:43 31.12.2022
430 Clouds 26 1014 78 10000 6.17 180 18:45 31.12.2022
431 Clouds 26 1014 78 10000 6.17 180 18:19 31.12.2022
432 Clouds 26 1014 78 10000 5.66 160 17:48 31.12.2022
433 Clouds 25 1014 83 10000 5.14 150 16:59 31.12.2022
434 Clouds 25 1014 83 10000 5.14 150 16:29 31.12.2022
435 Clouds 23 1016 91 10000 4.04 177 14:45 31.12.2022
436 Clouds 23 1015 91 10000 4.17 182 13:43 31.12.2022
437 Rain 22 1015 93 10000 4.42 187 12:40 31.12.2022
438 Clouds 23 1014 92 10000 4.28 186 12:20 31.12.2022
439 Clouds 23 1014 92 10000 4.28 186 11:50 31.12.2022
440 Rain 23 1013 92 10000 4.2 180 10:37 31.12.2022
441 Clouds 23 1013 92 10000 4.04 181 09:55 31.12.2022
442 Clouds 23 1013 92 10000 4.04 181 09:35 31.12.2022
443 Clouds 23 1014 92 10000 3.56 179 07:49 31.12.2022
444 Clouds 23 1012 86 10000 3.65 192 00:37 31.12.2022
445 Clouds 25 1009 78 10000 6.17 120 23:47 30.12.2022
446 Clouds 26 1009 73 10000 5.14 140 22:49 30.12.2022
447 Clouds 26 1010 73 10000 6.17 150 21:44 30.12.2022
448 Clouds 26 1010 73 10000 6.17 150 21:26 30.12.2022
449 Clouds 27 1013 74 10000 6.17 140 18:59 30.12.2022
450 Clouds 26 1013 73 10000 5.66 120 17:45 30.12.2022
451 Clouds 26 1013 73 10000 5.66 120 17:26 30.12.2022
452 Clouds 24 1013 83 10000 5.14 100 15:56 30.12.2022
453 Clouds 23 1015 87 10000 2.78 119 14:38 30.12.2022
454 Clouds 23 1012 89 10000 3.31 148 10:25 30.12.2022
455 Clouds 23 1013 88 10000 3.15 138 08:19 30.12.2022
456 Clouds 23 1013 88 10000 3.21 143 02:59 30.12.2022
457 Clouds 23 1012 88 10000 3.09 145 01:53 30.12.2022
458 Clouds 25 1009 73 10000 2.81 128 22:50 29.12.2022
459 Clouds 26 1010 69 10000 4.63 90 21:31 29.12.2022
460 Clouds 27 1011 65 10000 5.14 140 20:54 29.12.2022
461 Clouds 27 1011 65 10000 5.14 140 20:21 29.12.2022
462 Clouds 25 1013 78 10000 6.17 100 17:57 29.12.2022
463 Clouds 25 1013 78 10000 6.17 100 17:29 29.12.2022
464 Rain 24 1013 83 10000 6.69 120 16:55 29.12.2022
465 Drizzle 23 1012 88 10000 7.2 120 15:58 29.12.2022
466 Clouds 22 1014 85 10000 3.98 138 14:37 29.12.2022
467 Clouds 22 1013 88 10000 3.25 135 13:20 29.12.2022
468 Clouds 22 1012 87 10000 3.05 157 11:19 29.12.2022
469 Clouds 22 1013 88 10000 3.61 151 07:39 29.12.2022
470 Clouds 26 1010 69 10000 5.14 120 23:34 28.12.2022
471 Clouds 26 1010 69 10000 7.2 130 22:33 28.12.2022
472 Clouds 27 1011 65 10000 7.72 140 21:20 28.12.2022
473 Clouds 27 1012 65 10000 6.69 140 20:22 28.12.2022
474 Clouds 26 1013 73 10000 6.69 120 18:57 28.12.2022
475 Clouds 25 1013 78 10000 5.14 120 16:41 28.12.2022
476 Clouds 22 1014 87 10000 4 190 14:28 28.12.2022
477 Clouds 22 1014 86 10000 4.61 181 12:49 28.12.2022
478 Clouds 22 1013 86 10000 4.91 181 11:35 28.12.2022
479 Clouds 22 1013 86 10000 5.04 181 10:31 28.12.2022
480 Clear 22 1013 86 10000 4.96 190 07:48 28.12.2022
481 Clouds 22 1014 87 10000 4.65 195 06:47 28.12.2022
482 Clouds 24 1011 83 10000 5.14 160 01:25 28.12.2022
483 Clouds 27 1010 65 10000 6.69 170 22:33 27.12.2022
484 Clouds 27 1012 69 10000 7.72 170 19:51 27.12.2022
485 Clouds 26 1013 78 10000 6.69 170 18:55 27.12.2022
486 Clouds 26 1013 78 10000 7.2 170 16:59 27.12.2022
487 Clouds 26 1013 78 10000 7.2 170 16:19 27.12.2022
488 Clear 23 1015 85 10000 3.89 181 14:44 27.12.2022
489 Clouds 22 1013 87 10000 3.47 186 12:27 27.12.2022
490 Clouds 22 1012 87 10000 3.46 180 10:30 27.12.2022
491 Clouds 22 1012 87 10000 3.3 180 09:41 27.12.2022
492 Clouds 22 1012 88 10000 3.74 179 08:47 27.12.2022
493 Clouds 23 1015 90 10000 3.33 163 04:55 27.12.2022
494 Clouds 25 1009 83 10000 6.17 180 23:39 26.12.2022
495 Clouds 27 1009 74 10000 5.66 170 21:51 26.12.2022
496 Clouds 27 1009 74 10000 6.17 180 20:44 26.12.2022
497 Clouds 26 1010 73 10000 6.69 190 19:51 26.12.2022
498 Clouds 27 1011 69 10000 5.14 180 18:42 26.12.2022
499 Clouds 25 1011 78 10000 6.17 180 16:53 26.12.2022
500 Clouds 25 1011 83 10000 5.14 160 15:37 26.12.2022
501 Clouds 22 1013 90 10000 3.92 191 12:58 26.12.2022
502 Clouds 22 1012 90 10000 4.11 192 09:44 26.12.2022
503 Clouds 23 1014 83 10000 3.71 186 05:43 26.12.2022
504 Clouds 25 1008 83 10000 5.14 190 23:41 25.12.2022
505 Clouds 26 1008 73 10000 4.63 190 22:50 25.12.2022
506 Clouds 26 1008 73 10000 4.63 190 22:19 25.12.2022
507 Clouds 26 1010 73 10000 4.63 170 19:56 25.12.2022
508 Rain 24 1011 88 10000 4.63 180 17:52 25.12.2022
509 Rain 24 1011 88 10000 4.63 180 17:34 25.12.2022
510 Clouds 24 1011 88 10000 4.12 170 16:40 25.12.2022
511 Clouds 22 1013 88 10000 3.06 177 13:30 25.12.2022
512 Clouds 22 1012 88 10000 3.46 183 13:30 25.12.2022
513 Clouds 22 1011 89 10000 3.15 179 11:35 25.12.2022
514 Clouds 23 1012 86 10000 3.93 167 03:20 25.12.2022
515 Clouds 26 1008 73 10000 7.2 180 22:39 24.12.2022
516 Clouds 26 1010 73 10000 7.72 180 19:52 24.12.2022
517 Clouds 24 1012 83 10000 7.72 170 16:59 24.12.2022
518 Clouds 22 1014 85 10000 4.54 174 14:56 24.12.2022
519 Clouds 22 1014 86 10000 4.67 173 13:56 24.12.2022
520 Clouds 22 1013 87 10000 4.75 168 11:44 24.12.2022
521 Clouds 22 1011 87 10000 5.37 163 10:23 24.12.2022
522 Clouds 22 1011 87 10000 5.37 163 09:37 24.12.2022
523 Clouds 22 1012 88 10000 4.53 163 07:37 24.12.2022
524 Clouds 23 1013 88 10000 4.12 175 02:51 24.12.2022
525 Clouds 25 1008 78 10000 7.72 180 23:57 23.12.2022
526 Clouds 26 1008 73 10000 8.23 190 22:29 23.12.2022
527 Clouds 26 1010 78 10000 7.2 170 20:42 23.12.2022
528 Drizzle 25 1011 83 10000 5.66 180 19:39 23.12.2022
529 Drizzle 25 1011 83 10000 5.66 180 19:21 23.12.2022
530 Clouds 24 1011 88 10000 6.69 180 18:46 23.12.2022
531 Clouds 24 1011 88 10000 6.69 180 18:20 23.12.2022
532 Drizzle 22 1012 100 10000 5.14 190 16:35 23.12.2022
533 Drizzle 22 1012 100 4000 5.66 170 15:42 23.12.2022
534 Clouds 23 1011 88 10000 4.69 143 11:58 23.12.2022
535 Clouds 23 1011 88 10000 3.78 147 09:37 23.12.2022
536 Clouds 23 1011 88 10000 3.06 147 08:45 23.12.2022
537 Clouds 22 1013 89 10000 2.42 156 07:18 23.12.2022
538 Clouds 22 1013 89 10000 2.26 147 06:39 23.12.2022
539 Clouds 25 1008 83 10000 4.12 190 23:23 22.12.2022
540 Clouds 25 1008 83 10000 3.09 200 22:57 22.12.2022
541 Clouds 26 1009 78 10000 4.12 170 21:25 22.12.2022
542 Clouds 26 1011 78 10000 5.66 190 19:26 22.12.2022
543 Clouds 25 1011 78 10000 5.14 160 18:51 22.12.2022
544 Clouds 25 1011 83 10000 6.69 160 17:29 22.12.2022
545 Clouds 23 1012 94 10000 4.63 170 16:39 22.12.2022
546 Drizzle 23 1012 94 10000 4.12 180 15:34 22.12.2022
547 Clouds 23 1014 79 10000 3.83 153 14:51 22.12.2022
548 Clouds 23 1013 81 10000 3.78 154 13:33 22.12.2022
549 Clouds 23 1012 85 10000 3.36 160 12:46 22.12.2022
550 Clear 22 1011 87 10000 3.27 160 10:44 22.12.2022
551 Clear 22 1011 87 10000 3.62 162 10:22 22.12.2022
552 Clear 22 1011 87 10000 3.71 161 09:20 22.12.2022
553 Clear 22 1011 87 10000 3.81 158 08:26 22.12.2022
554 Clear 22 1013 87 10000 3.47 161 05:27 22.12.2022
555 Clear 23 1013 86 10000 3.44 161 04:18 22.12.2022
556 Clouds 25 1008 78 10000 6.17 160 23:49 21.12.2022
557 Clouds 26 1009 78 10000 6.17 170 21:57 21.12.2022
558 Clouds 26 1009 78 10000 6.17 170 21:22 21.12.2022
559 Clouds 27 1009 74 10000 6.69 160 20:49 21.12.2022
560 Clouds 27 1010 74 10000 7.72 150 19:59 21.12.2022
561 Clouds 27 1010 74 10000 7.72 150 19:41 21.12.2022
562 Clouds 27 1010 74 10000 7.72 150 19:22 21.12.2022
563 Clouds 26 1011 78 10000 8.23 160 18:44 21.12.2022
564 Clouds 24 1011 88 10000 7.2 160 17:35 21.12.2022
565 Clouds 23 1014 83 10000 3.34 161 14:32 21.12.2022
566 Clouds 22 1012 84 10000 3.59 168 12:49 21.12.2022
567 Clouds 22 1012 84 10000 3.51 173 11:41 21.12.2022
568 Clouds 22 1011 83 10000 3.73 183 11:19 21.12.2022
569 Clouds 22 1011 83 10000 3.73 183 11:19 21.12.2022
570 Clouds 22 1011 84 10000 3.61 190 08:52 21.12.2022
571 Clouds 22 1012 85 10000 3.41 194 06:59 21.12.2022
572 Clouds 23 1012 83 10000 4.08 187 00:48 21.12.2022
573 Clouds 26 1009 73 10000 5.14 176 22:41 20.12.2022
574 Clouds 26 1010 73 10000 4.63 170 21:18 20.12.2022
575 Clouds 26 1011 73 10000 4.12 190 20:19 20.12.2022
576 Clouds 25 1012 78 10000 4.12 170 18:49 20.12.2022
577 Clouds 25 1012 78 10000 4.12 170 18:26 20.12.2022
578 Clouds 25 1012 78 10000 4.12 170 18:26 20.12.2022
579 Clouds 24 1013 83 10000 4.63 190 17:51 20.12.2022
580 Clouds 24 1013 83 10000 4.63 190 17:26 20.12.2022
581 Clouds 24 1013 83 10000 4.12 160 16:20 20.12.2022
582 Clouds 22 1015 85 10000 4.11 172 14:56 20.12.2022
583 Clouds 22 1015 85 10000 4.11 172 14:36 20.12.2022
584 Clouds 22 1014 85 10000 4.09 170 13:49 20.12.2022
585 Clouds 22 1013 84 10000 3.66 175 12:37 20.12.2022
586 Clouds 22 1013 84 10000 3.79 180 11:55 20.12.2022
587 Clouds 22 1011 84 10000 3.94 171 10:29 20.12.2022
588 Clear 22 1012 83 10000 3.48 173 07:28 20.12.2022
589 Clouds 22 1010 81 10000 4.81 177 00:20 20.12.2022
590 Clouds 26 1008 78 10000 7.2 160 22:29 19.12.2022
591 Clouds 26 1009 73 10000 7.72 170 21:24 19.12.2022
592 Clouds 26 1011 73 10000 6.69 150 19:41 19.12.2022
593 Clouds 25 1012 78 10000 5.14 190 18:57 19.12.2022
594 Clouds 25 1013 78 10000 4.12 190 17:38 19.12.2022
595 Clouds 22 1014 83 10000 4.28 187 15:59 19.12.2022
596 Clouds 22 1012 85 10000 4.48 184 13:20 19.12.2022
597 Clouds 21 1012 86 10000 4.22 191 11:36 19.12.2022
598 Clouds 21 1012 86 10000 4.22 191 11:36 19.12.2022
599 Clouds 22 1012 85 10000 3.34 184 07:50 19.12.2022
600 Clouds 22 1012 86 10000 3.7 182 06:42 19.12.2022
601 Clouds 22 1011 84 10000 3.81 168 00:50 19.12.2022
602 Clouds 26 1007 78 10000 7.2 170 21:49 18.12.2022
603 Clouds 26 1007 78 10000 7.2 170 21:27 18.12.2022
604 Clouds 26 1008 73 10000 6.17 160 20:53 18.12.2022
605 Clouds 26 1009 73 10000 6.69 170 19:43 18.12.2022
606 Clouds 26 1010 73 10000 7.2 180 18:59 18.12.2022
607 Clouds 25 1010 78 10000 6.69 190 17:52 18.12.2022
608 Clouds 25 1010 78 10000 6.69 190 17:52 18.12.2022
609 Clouds 23 1010 88 10000 4.12 180 15:42 18.12.2022
610 Clouds 23 1010 88 10000 4.12 180 15:24 18.12.2022
611 Clouds 21 1013 88 10000 4.55 186 14:55 18.12.2022
612 Clouds 21 1011 92 10000 4.01 189 13:28 18.12.2022
613 Clouds 21 1011 92 10000 4.01 189 12:42 18.12.2022
614 Clouds 21 1011 92 10000 3.92 193 11:49 18.12.2022
615 Clouds 21 1010 91 10000 4.05 191 09:34 18.12.2022
616 Clouds 21 1010 91 10000 3.91 190 08:46 18.12.2022
617 Clouds 21 1012 90 10000 3.83 180 06:36 18.12.2022
618 Clouds 22 1012 90 10000 3.88 177 06:18 18.12.2022
619 Clouds 22 1011 90 10000 4.38 192 01:49 18.12.2022
620 Clouds 23 1008 94 10000 4.12 190 22:57 17.12.2022
621 Drizzle 23 1009 94 8000 4.12 160 20:46 17.12.2022
622 Drizzle 22 1011 94 5000 4.12 160 17:21 17.12.2022
623 Drizzle 22 1011 94 5000 4.12 160 17:21 17.12.2022
624 Drizzle 22 1010 100 4000 3.09 180 15:19 17.12.2022
625 Clouds 22 1011 90 10000 4.38 175 13:18 17.12.2022
626 Clouds 21 1009 91 10000 4.66 170 11:19 17.12.2022
627 Clouds 21 1009 91 10000 4.66 170 10:40 17.12.2022
628 Clouds 21 1010 92 10000 4.67 172 08:37 17.12.2022
629 Clouds 22 1011 91 10000 4.42 175 06:47 17.12.2022
630 Clouds 22 1010 88 10000 4.04 172 02:19 17.12.2022
631 Clouds 22 1009 84 10000 4.78 191 22:34 16.12.2022
632 Clouds 22 1011 84 10000 4.22 186 20:26 16.12.2022
633 Clouds 22 1012 85 10000 4.11 173 17:49 16.12.2022
634 Clouds 22 1013 89 10000 4.08 176 15:19 16.12.2022
635 Clouds 22 1013 89 10000 4.08 176 14:36 16.12.2022
636 Clouds 21 1012 90 10000 4.46 178 12:38 16.12.2022
637 Clouds 21 1011 90 10000 4.66 173 11:55 16.12.2022
638 Clouds 21 1010 90 10000 4.29 177 09:40 16.12.2022
639 Clouds 21 1011 89 10000 3.7 167 08:27 16.12.2022
640 Clouds 21 1011 89 10000 3.7 167 08:27 16.12.2022
641 Clouds 21 1011 89 10000 3.7 167 08:27 16.12.2022
642 Clouds 21 1011 89 10000 3.7 167 07:54 16.12.2022
643 Clouds 22 1011 86 10000 3.49 176 02:43 16.12.2022
644 Clouds 22 1009 84 10000 3.5 187 22:33 15.12.2022
645 Clouds 22 1010 84 10000 3.18 186 21:25 15.12.2022
646 Clouds 22 1011 86 10000 3.36 187 19:42 15.12.2022
647 Clouds 22 1012 85 10000 3.47 184 18:51 15.12.2022
648 Clouds 22 1014 88 10000 3.48 164 17:27 15.12.2022
649 Clouds 22 1014 89 10000 3.55 170 15:45 15.12.2022
650 Clouds 22 1014 89 10000 3.7 169 14:38 15.12.2022
651 Clouds 21 1012 89 10000 3.45 187 12:48 15.12.2022
652 Clouds 21 1012 89 10000 3.34 183 11:41 15.12.2022
653 Clouds 21 1011 89 10000 3.38 187 08:55 15.12.2022
654 Clouds 21 1012 88 10000 2.87 182 07:58 15.12.2022
655 Clouds 21 1013 88 10000 3 181 05:36 15.12.2022
656 Clouds 22 1009 83 10000 4.08 175 22:40 14.12.2022
657 Clouds 22 1010 83 10000 4.21 181 21:24 14.12.2022
658 Clouds 22 1010 83 10000 4.21 181 20:36 14.12.2022
659 Clouds 22 1011 84 10000 3.94 169 19:34 14.12.2022
660 Clouds 22 1013 85 10000 3.54 169 16:58 14.12.2022
661 Clouds 22 1013 85 10000 3.38 159 16:19 14.12.2022
662 Clouds 21 1013 86 10000 3.41 154 14:50 14.12.2022
663 Clouds 21 1012 91 10000 3.25 176 12:56 14.12.2022
664 Clouds 21 1011 90 10000 3.24 177 10:45 14.12.2022
665 Clouds 21 1010 90 10000 3.02 178 09:38 14.12.2022
666 Clouds 21 1013 87 10000 3.15 167 05:53 14.12.2022
667 Clouds 22 1010 82 10000 4.56 189 21:52 13.12.2022
668 Clouds 22 1010 82 10000 4.56 189 21:32 13.12.2022
669 Clouds 22 1010 82 10000 4.55 196 20:47 13.12.2022
670 Clouds 21 1012 86 10000 4.14 197 18:42 13.12.2022
671 Clouds 21 1014 87 10000 3.74 189 16:22 13.12.2022
672 Clouds 21 1014 87 10000 3.74 189 16:22 13.12.2022
673 Clouds 21 1014 87 10000 3.74 189 16:22 13.12.2022
674 Clouds 21 1013 87 10000 3.91 196 14:53 13.12.2022
675 Clouds 21 1012 87 10000 4.17 197 12:44 13.12.2022
676 Clouds 21 1011 87 10000 4.78 194 10:39 13.12.2022
677 Clouds 21 1011 87 10000 4.59 195 09:45 13.12.2022
678 Clouds 21 1011 88 10000 4.11 196 07:51 13.12.2022
679 Clouds 21 1010 81 10000 4.56 193 22:23 12.12.2022
680 Clouds 21 1010 81 10000 4.56 193 21:39 12.12.2022
681 Clouds 21 1012 81 10000 4.19 194 19:33 12.12.2022
682 Clouds 21 1014 82 10000 4.12 177 17:39 12.12.2022
683 Clouds 21 1015 83 10000 3.95 173 15:23 12.12.2022
684 Clouds 21 1013 84 10000 3.63 180 12:44 12.12.2022
685 Clouds 21 1012 83 10000 3.51 179 09:20 12.12.2022
686 Clouds 21 1014 83 10000 3.98 162 05:44 12.12.2022
687 Clouds 21 1014 84 10000 4.36 158 03:53 12.12.2022
688 Clouds 24 1009 88 10000 4.12 140 23:21 11.12.2022
689 Clouds 25 1010 83 10000 4.63 150 21:29 11.12.2022
690 Clouds 25 1012 83 10000 5.14 140 19:54 11.12.2022
691 Clouds 25 1012 83 10000 5.14 140 19:36 11.12.2022
692 Clouds 25 1012 78 10000 3.6 130 18:24 11.12.2022
693 Clouds 25 1013 78 10000 3.6 140 17:33 11.12.2022
694 Clouds 24 1013 83 10000 3.6 130 16:52 11.12.2022
695 Clouds 23 1012 88 10000 4.12 150 15:47 11.12.2022
696 Clouds 21 1015 81 10000 4.6 184 14:50 11.12.2022
697 Clouds 21 1015 81 10000 4.6 184 14:50 11.12.2022
698 Clouds 21 1014 80 10000 3.78 181 13:21 11.12.2022
699 Clouds 21 1014 80 10000 3.78 181 12:40 11.12.2022
700 Clouds 21 1013 80 10000 4.01 185 08:56 11.12.2022
701 Clouds 21 1012 82 10000 4.32 187 00:35 11.12.2022
702 Clouds 24 1009 88 10000 3.6 170 23:32 10.12.2022
703 Clouds 25 1010 83 10000 3.6 120 22:33 10.12.2022
704 Clouds 25 1010 83 10000 3.6 120 22:33 10.12.2022
705 Clouds 25 1010 83 10000 3.6 120 22:33 10.12.2022
706 Clouds 25 1010 83 10000 3.6 150 21:20 10.12.2022
707 Clouds 21 1012 81 10000 4.31 178 20:39 10.12.2022
708 Clouds 25 1012 83 10000 5.66 130 18:58 10.12.2022
709 Clouds 24 1012 83 10000 5.14 130 16:57 10.12.2022
710 Clouds 24 1012 83 10000 5.14 130 16:33 10.12.2022
711 Clouds 23 1012 88 10000 5.14 140 15:38 10.12.2022
712 Clouds 21 1014 84 10000 3.99 168 14:48 10.12.2022
713 Clouds 21 1013 84 10000 3.79 167 12:53 10.12.2022
714 Clouds 21 1013 83 10000 4.06 163 11:37 10.12.2022
715 Clouds 21 1012 83 10000 4.04 160 10:41 10.12.2022
716 Clouds 21 1012 82 10000 3.8 159 08:58 10.12.2022
717 Clouds 21 1013 82 10000 3.96 154 07:19 10.12.2022
718 Clouds 21 1011 82 10000 4.18 172 00:40 10.12.2022
719 Clouds 24 1008 88 10000 3.09 130 23:18 09.12.2022
720 Clouds 24 1008 88 10000 3.6 130 22:37 09.12.2022
721 Clouds 25 1009 88 10000 4.12 130 21:24 09.12.2022
722 Clouds 25 1010 83 10000 4.12 150 20:41 09.12.2022
723 Clouds 26 1011 83 10000 4.63 140 18:42 09.12.2022
724 Clouds 25 1011 83 10000 5.14 170 17:51 09.12.2022
725 Clouds 24 1011 83 10000 4.63 140 16:30 09.12.2022
726 Clouds 23 1011 88 10000 3.6 150 15:33 09.12.2022
727 Clouds 21 1013 81 10000 4.87 149 14:25 09.12.2022
728 Clouds 20 1012 82 10000 5.15 147 10:52 09.12.2022
729 Clouds 20 1012 82 10000 5.15 147 10:32 09.12.2022
730 Clear 20 1012 82 10000 4.59 145 08:24 09.12.2022
731 Clear 21 1013 78 10000 4.56 155 03:18 09.12.2022
732 Clear 25 1008 83 10000 4.12 120 23:37 08.12.2022
733 Clouds 25 1010 88 10000 3.6 140 20:56 08.12.2022
734 Clouds 25 1010 88 10000 3.6 140 20:21 08.12.2022
735 Clouds 24 1012 83 10000 4.12 130 16:51 08.12.2022
736 Clouds 21 1016 77 10000 4.59 148 14:43 08.12.2022
737 Clouds 21 1015 77 10000 4.63 146 14:20 08.12.2022
738 Clouds 21 1013 81 10000 4.4 146 10:49 08.12.2022
739 Clouds 21 1013 81 10000 3.99 156 09:34 08.12.2022
740 Clouds 21 1014 78 10000 3.46 157 08:28 08.12.2022
741 Clouds 22 1012 73 10000 4.67 156 22:44 07.12.2022
742 Clouds 22 1012 73 10000 4.38 153 22:18 07.12.2022
743 Clouds 25 1011 83 10000 3.6 150 21:47 07.12.2022
744 Clouds 22 1012 72 10000 4.15 153 20:35 07.12.2022
745 Clouds 22 1014 71 10000 4.01 144 18:38 07.12.2022
746 Clouds 22 1016 72 10000 4.1 144 15:53 07.12.2022
747 Clouds 21 1015 74 10000 4.2 149 14:29 07.12.2022
748 Clouds 21 1014 75 10000 3.75 167 10:56 07.12.2022
749 Clouds 21 1014 75 10000 3.75 167 10:30 07.12.2022
750 Clouds 21 1013 76 10000 3.86 169 09:31 07.12.2022
751 Clouds 21 1014 76 10000 3.84 169 08:36 07.12.2022
752 Clouds 21 1015 75 10000 3.54 160 05:26 07.12.2022
753 Clouds 21 1014 75 10000 3.65 160 02:57 07.12.2022
754 Clouds 21 1011 78 10000 5.21 177 21:59 06.12.2022
755 Clouds 21 1012 78 10000 5.13 169 19:35 06.12.2022
756 Clouds 21 1014 78 10000 5.2 160 17:19 06.12.2022
757 Clouds 21 1015 79 10000 5.13 162 16:29 06.12.2022
758 Clouds 21 1015 79 10000 5.13 162 15:37 06.12.2022
759 Clouds 21 1014 79 10000 5.11 161 14:39 06.12.2022
760 Clouds 21 1013 79 10000 4.81 164 14:18 06.12.2022
761 Clouds 21 1013 81 10000 4.45 161 12:41 06.12.2022
762 Clouds 21 1012 83 10000 4.56 163 11:48 06.12.2022
763 Clouds 21 1011 81 10000 3.78 167 07:50 06.12.2022
764 Clouds 21 1012 81 10000 4.23 172 03:20 06.12.2022
765 Clouds 21 1010 79 10000 5.07 181 23:43 05.12.2022
766 Clouds 21 1009 79 10000 4.9 178 21:40 05.12.2022
767 Drizzle 23 1009 88 8000 2.57 180 20:52 05.12.2022
768 Clouds 21 1011 79 10000 4.57 177 19:54 05.12.2022
769 Clouds 21 1011 79 10000 4.57 177 19:35 05.12.2022
770 Clouds 21 1013 79 10000 4.16 164 16:51 05.12.2022
771 Clouds 22 1013 78 10000 3.67 162 15:29 05.12.2022
772 Clouds 21 1013 80 10000 3.83 170 13:52 05.12.2022
773 Clouds 21 1012 81 10000 3.58 171 12:57 05.12.2022
774 Clouds 21 1012 81 10000 3.58 171 12:38 05.12.2022
775 Clouds 21 1011 82 10000 3.75 175 11:40 05.12.2022
776 Clouds 21 1011 81 10000 3.43 172 08:32 05.12.2022
777 Clouds 21 1011 81 10000 4.38 179 00:18 05.12.2022
778 Clouds 21 1010 81 10000 4.85 181 22:44 04.12.2022
779 Clouds 21 1010 81 10000 4.77 178 22:18 04.12.2022
780 Clouds 25 1009 83 10000 5.66 140 21:32 04.12.2022
781 Clouds 25 1011 83 10000 3.6 150 19:59 04.12.2022
782 Clouds 25 1011 83 10000 3.6 150 19:23 04.12.2022
783 Clouds 25 1012 83 10000 5.14 120 18:32 04.12.2022
784 Clouds 25 1012 78 10000 3.09 170 17:22 04.12.2022
785 Clouds 24 1012 78 10000 3.6 150 16:36 04.12.2022
786 Clouds 24 1012 78 10000 3.6 150 16:18 04.12.2022
787 Clouds 23 1012 83 10000 4.12 170 15:27 04.12.2022
788 Clouds 21 1014 80 10000 4.62 169 14:19 04.12.2022
789 Clouds 21 1014 81 10000 4.73 173 12:51 04.12.2022
790 Clouds 21 1014 81 10000 4.73 173 12:33 04.12.2022
791 Clouds 21 1013 81 10000 4.94 174 11:34 04.12.2022
792 Clouds 21 1013 84 10000 4.99 175 07:36 04.12.2022
793 Clouds 22 1014 83 10000 4.61 174 02:51 04.12.2022
794 Clouds 23 1009 88 10000 4.12 160 23:44 03.12.2022
795 Clouds 24 1009 88 10000 4.12 180 22:34 03.12.2022
796 Clouds 24 1010 88 10000 3.6 160 21:48 03.12.2022
797 Clouds 25 1011 83 10000 3.09 150 20:38 03.12.2022
798 Clouds 24 1012 88 10000 4.12 180 18:41 03.12.2022
799 Clouds 25 1013 78 10000 3.09 170 17:49 03.12.2022
800 Clouds 24 1013 78 10000 3.6 180 15:50 03.12.2022
801 Clouds 21 1014 82 10000 4.44 177 13:43 03.12.2022
802 Clouds 21 1014 81 10000 4.82 179 12:43 03.12.2022
803 Clouds 21 1013 81 10000 4.86 179 11:34 03.12.2022
804 Clouds 21 1012 79 10000 4.16 172 08:25 03.12.2022
805 Clouds 21 1013 81 10000 5.7 166 02:48 03.12.2022
806 Clouds 23 1008 88 10000 4.12 130 23:32 02.12.2022
807 Clouds 24 1008 83 10000 3.6 150 21:42 02.12.2022
808 Clouds 25 1010 78 10000 5.66 140 19:45 02.12.2022
809 Clouds 24 1012 73 10000 3.6 150 16:26 02.12.2022
810 Clouds 22 1012 83 10000 4.12 200 15:53 02.12.2022
811 Clouds 21 1013 80 10000 5.35 178 14:28 02.12.2022
812 Clouds 21 1014 79 10000 5.13 181 13:42 02.12.2022
813 Clouds 21 1012 79 10000 5.01 181 11:48 02.12.2022
814 Clouds 21 1012 79 10000 5.06 194 10:26 02.12.2022
815 Clouds 21 1013 77 10000 4.77 178 07:25 02.12.2022
816 Clouds 21 1014 77 10000 4.69 175 06:23 02.12.2022
817 Clouds 22 1009 88 10000 4.63 170 22:40 01.12.2022
818 Clouds 24 1010 69 10000 3.09 160 21:40 01.12.2022
819 Clouds 24 1010 73 10000 3.09 150 20:32 01.12.2022
820 Clouds 24 1012 69 10000 3.6 170 18:58 01.12.2022
821 Clouds 23 1012 73 10000 4.63 180 16:31 01.12.2022
822 Clouds 21 1014 78 10000 6.23 194 13:50 01.12.2022
823 Clouds 21 1012 76 10000 6.15 202 10:43 01.12.2022
824 Clouds 21 1011 75 10000 6.04 199 09:54 01.12.2022
825 Clouds 21 1011 75 10000 6.04 199 09:36 01.12.2022
826 Clouds 21 1013 75 10000 5.91 185 05:45 01.12.2022
827 Clouds 23 1008 78 10000 4.63 190 22:40 30.11.2022
828 Clouds 23 1009 78 10000 4.63 160 21:20 30.11.2022
829 Clouds 23 1010 83 10000 6.17 170 20:48 30.11.2022
830 Clouds 23 1010 83 10000 6.17 170 20:23 30.11.2022
831 Clouds 23 1011 83 10000 5.14 210 18:35 30.11.2022
832 Clouds 23 1012 83 10000 4.12 170 17:39 30.11.2022
833 Drizzle 21 1012 94 8000 5.14 180 16:20 30.11.2022
834 Clouds 21 1014 75 10000 4.68 187 14:41 30.11.2022
835 Clouds 21 1013 76 10000 4.74 189 14:23 30.11.2022
836 Clouds 20 1013 79 10000 4.83 201 11:38 30.11.2022
837 Clouds 21 1012 77 10000 4.62 192 08:41 30.11.2022
838 Clouds 21 1012 77 10000 4.77 185 07:58 30.11.2022
839 Clouds 21 1012 77 10000 4.77 185 07:58 30.11.2022
840 Clouds 21 1014 76 10000 4.86 175 04:24 30.11.2022
841 Clouds 23 1008 73 10000 3.6 180 23:22 29.11.2022
842 Clouds 24 1009 69 10000 5.14 170 21:47 29.11.2022
843 Clouds 24 1010 73 10000 4.63 170 20:38 29.11.2022
844 Clouds 25 1011 65 10000 4.12 180 19:20 29.11.2022
845 Clouds 23 1013 73 10000 3.6 160 17:36 29.11.2022
846 Clouds 23 1013 78 10000 5.14 180 16:27 29.11.2022
847 Clouds 21 1015 76 10000 5.5 161 14:51 29.11.2022
848 Clouds 21 1014 78 10000 4.97 159 13:36 29.11.2022
849 Clouds 20 1013 81 10000 4.65 163 12:22 29.11.2022
850 Clouds 20 1013 82 10000 4.6 162 11:24 29.11.2022
851 Clouds 20 1012 83 10000 4.57 163 10:22 29.11.2022
852 Clouds 20 1013 83 10000 4.64 168 08:42 29.11.2022
853 Clouds 21 1014 80 10000 3.79 162 01:30 29.11.2022
854 Clouds 24 1010 64 10000 4.63 180 23:35 28.11.2022
855 Clouds 24 1010 69 10000 5.14 200 22:53 28.11.2022
856 Clouds 24 1011 73 10000 5.14 180 21:44 28.11.2022
857 Clouds 24 1011 73 10000 5.14 180 21:21 28.11.2022
858 Clouds 24 1013 69 10000 3.6 190 19:41 28.11.2022
859 Clouds 24 1013 69 10000 4.12 180 18:30 28.11.2022
860 Clouds 24 1014 60 10000 4.63 200 17:51 28.11.2022
861 Clouds 23 1014 64 10000 4.12 180 16:35 28.11.2022
862 Clouds 20 1015 84 10000 3.13 171 14:28 28.11.2022
863 Clouds 20 1015 84 10000 3.13 171 13:52 28.11.2022
864 Clouds 20 1014 85 10000 3.26 170 12:42 28.11.2022
865 Clouds 20 1013 82 10000 3.33 168 09:39 28.11.2022
866 Clouds 20 1015 83 10000 3.48 165 07:27 28.11.2022
867 Clouds 20 1016 84 10000 3.84 168 04:43 28.11.2022
868 Clouds 20 1015 82 10000 4.3 176 03:58 28.11.2022
869 Clouds 20 1015 83 10000 4.77 180 03:18 28.11.2022
870 Drizzle 22 1011 88 5000 3.09 180 22:42 27.11.2022
871 Clouds 24 1012 69 10000 4.12 220 21:41 27.11.2022
872 Clouds 24 1013 73 10000 5.14 210 20:22 27.11.2022
873 Clouds 22 1015 78 10000 3.6 170 17:34 27.11.2022
874 Clouds 21 1017 75 10000 3.6 177 14:33 27.11.2022
875 Clouds 21 1015 77 10000 3.45 176 12:32 27.11.2022
876 Clouds 21 1014 80 10000 3.45 186 10:44 27.11.2022
877 Clouds 21 1014 77 10000 3.47 178 07:57 27.11.2022
878 Clouds 21 1010 88 10000 5.66 160 00:36 27.11.2022
879 Clouds 23 1011 73 10000 4.63 160 21:58 26.11.2022
880 Clouds 24 1012 69 10000 5.14 150 20:51 26.11.2022
881 Clouds 23 1013 73 10000 5.14 180 19:22 26.11.2022
882 Clouds 22 1014 83 10000 5.14 170 16:59 26.11.2022
883 Clouds 21 1014 94 10000 4.63 160 15:38 26.11.2022
884 Clouds 21 1014 87 10000 4.62 164 12:55 26.11.2022
885 Clouds 21 1013 88 10000 4.54 163 11:24 26.11.2022
886 Clouds 21 1013 88 10000 4.51 165 09:44 26.11.2022
887 Clouds 21 1013 88 10000 4.28 170 08:46 26.11.2022
888 Clouds 22 1009 78 10000 5.14 180 23:23 25.11.2022
889 Clouds 23 1010 73 10000 5.14 190 21:41 25.11.2022
890 Clouds 23 1010 73 10000 5.14 190 21:19 25.11.2022
891 Clouds 24 1012 69 10000 5.14 160 19:36 25.11.2022
892 Clouds 22 1012 83 10000 6.17 170 15:51 25.11.2022
893 Clouds 20 1013 89 10000 3.34 171 12:28 25.11.2022
894 Clouds 20 1012 89 10000 3.48 177 08:56 25.11.2022
895 Clouds 20 1012 89 10000 3.48 177 08:37 25.11.2022
896 Clouds 20 1013 90 10000 3.55 170 06:48 25.11.2022
897 Clouds 21 1011 89 10000 3.98 172 01:26 25.11.2022
898 Clouds 22 1009 83 10000 6.69 160 23:41 24.11.2022
899 Rain 22 1009 83 10000 7.2 160 22:35 24.11.2022
900 Clouds 24 1010 69 10000 6.69 170 21:39 24.11.2022
901 Clouds 24 1011 69 10000 7.2 170 19:48 24.11.2022
902 Clouds 23 1012 73 10000 5.14 190 17:47 24.11.2022
903 Clouds 23 1012 73 10000 5.14 190 17:23 24.11.2022
904 Clouds 22 1012 78 10000 6.17 180 16:39 24.11.2022
905 Clouds 20 1013 89 10000 3.78 155 14:23 24.11.2022
906 Clouds 20 1012 90 10000 4.16 155 12:40 24.11.2022
907 Clouds 20 1011 90 10000 4.05 160 10:52 24.11.2022
908 Clouds 20 1012 90 10000 3.43 162 08:45 24.11.2022
909 Clouds 20 1014 92 10000 3.87 158 04:42 24.11.2022
910 Clouds 23 1009 73 10000 7.2 150 23:49 23.11.2022
911 Clouds 23 1009 73 10000 7.2 150 23:31 23.11.2022
912 Clouds 24 1009 73 10000 7.72 180 21:44 23.11.2022
913 Clouds 24 1010 69 10000 6.17 140 20:49 23.11.2022
914 Clouds 24 1011 73 10000 8.23 150 19:33 23.11.2022
915 Clouds 24 1011 73 10000 8.23 150 19:33 23.11.2022
916 Clouds 24 1012 73 10000 4.63 180 18:48 23.11.2022
917 Clouds 24 1012 73 10000 5.66 180 17:29 23.11.2022
918 Clouds 21 1014 90 10000 4.25 189 13:41 23.11.2022
919 Clouds 21 1013 90 10000 4.02 187 13:21 23.11.2022
920 Clouds 21 1013 90 10000 3.68 188 12:22 23.11.2022
921 Clouds 21 1013 90 10000 3.68 188 11:42 23.11.2022
922 Clouds 21 1012 90 10000 3.37 185 10:45 23.11.2022
923 Clouds 21 1012 90 10000 3.87 190 09:44 23.11.2022
924 Clouds 21 1012 90 10000 3.86 191 09:26 23.11.2022
925 Clouds 21 1012 90 10000 3.86 191 08:37 23.11.2022
926 Clouds 21 1014 89 10000 3.38 189 06:59 23.11.2022
927 Clouds 21 1015 91 10000 3.27 178 05:18 23.11.2022
928 Clouds 22 1009 83 10000 6.17 160 23:24 22.11.2022
929 Clouds 23 1009 78 10000 6.69 170 22:34 22.11.2022
930 Clouds 23 1010 78 10000 6.17 180 21:34 22.11.2022
931 Clouds 23 1011 83 10000 6.69 160 20:50 22.11.2022
932 Clouds 23 1011 83 10000 6.69 160 20:18 22.11.2022
933 Clouds 23 1013 83 10000 5.66 180 17:56 22.11.2022
934 Clouds 23 1013 83 10000 5.66 180 17:28 22.11.2022
935 Clouds 22 1013 88 10000 6.69 170 15:56 22.11.2022
936 Clouds 21 1015 90 10000 4.1 188 13:47 22.11.2022
937 Clouds 21 1013 90 10000 4.33 182 11:52 22.11.2022
938 Clouds 21 1012 91 10000 5.13 180 09:26 22.11.2022
939 Clouds 21 1013 91 10000 5.14 182 07:55 22.11.2022
940 Clouds 21 1014 92 10000 4.75 179 03:47 22.11.2022
941 Clouds 23 1009 100 10000 6.17 150 23:41 21.11.2022
942 Clouds 24 1009 100 10000 6.17 150 22:49 21.11.2022
943 Clouds 24 1009 78 10000 5.14 160 21:59 21.11.2022
944 Clouds 25 1010 73 10000 6.69 170 20:53 21.11.2022
945 Clouds 24 1011 73 10000 7.72 160 19:42 21.11.2022
946 Clouds 23 1011 78 10000 7.2 150 18:54 21.11.2022
947 Clouds 23 1011 78 10000 7.2 150 18:25 21.11.2022
948 Clouds 23 1012 83 10000 8.23 160 16:56 21.11.2022
949 Clouds 23 1012 83 10000 8.23 160 16:37 21.11.2022
950 Rain 21 1012 94 10000 7.2 150 15:50 21.11.2022
951 Clouds 21 1014 89 10000 5.64 179 14:29 21.11.2022
952 Clouds 21 1014 89 10000 5.64 179 13:43 21.11.2022
953 Clouds 21 1012 90 10000 5.49 171 11:38 21.11.2022
954 Clouds 21 1011 89 10000 5.23 172 09:18 21.11.2022
955 Clouds 21 1012 89 10000 5.24 170 07:39 21.11.2022
956 Clouds 23 1008 78 10000 8.75 150 22:38 20.11.2022
957 Clouds 24 1008 73 10000 8.23 160 21:34 20.11.2022
958 Clouds 24 1009 78 10000 8.75 150 20:32 20.11.2022
959 Clouds 23 1011 88 10000 7.72 160 18:26 20.11.2022
960 Drizzle 21 1012 100 3000 8.23 160 16:24 20.11.2022
961 Drizzle 21 1011 94 2000 6.69 160 15:30 20.11.2022
962 Clouds 21 1014 90 10000 4.93 162 14:54 20.11.2022
963 Clouds 21 1013 89 10000 4.83 159 13:34 20.11.2022
964 Clouds 21 1012 89 10000 4.76 159 12:38 20.11.2022
965 Clouds 21 1011 91 10000 5.23 163 11:25 20.11.2022
966 Clouds 21 1011 90 10000 4.98 164 10:40 20.11.2022
967 Clouds 21 1011 89 10000 4.8 168 09:23 20.11.2022
968 Clouds 21 1011 89 10000 4.8 168 08:35 20.11.2022
969 Clouds 21 1012 90 10000 4.92 171 07:29 20.11.2022
970 Clouds 21 1011 87 10000 6 184 02:19 20.11.2022
971 Clouds 21 1010 87 10000 5.88 185 01:20 20.11.2022
972 Clouds 21 1010 87 10000 5.88 185 00:41 20.11.2022
973 Clouds 22 1010 86 10000 5.66 190 00:22 20.11.2022
974 Clouds 23 1007 78 10000 6.17 170 23:49 19.11.2022
975 Clouds 23 1007 78 10000 6.17 170 23:23 19.11.2022
976 Clouds 24 1007 73 10000 6.69 180 22:38 19.11.2022
977 Clouds 25 1008 73 10000 7.72 190 21:32 19.11.2022
978 Clouds 25 1010 73 10000 5.66 170 20:56 19.11.2022
979 Clouds 25 1010 73 10000 5.66 170 20:29 19.11.2022
980 Clouds 24 1011 78 10000 7.2 180 18:55 19.11.2022
981 Clouds 23 1012 83 10000 6.69 170 17:40 19.11.2022
982 Clouds 23 1012 83 10000 6.69 170 17:19 19.11.2022
983 Clouds 22 1012 88 10000 6.69 180 15:40 19.11.2022
984 Clouds 21 1014 90 10000 5.11 173 14:30 19.11.2022
985 Clouds 21 1013 87 10000 3.98 181 11:58 19.11.2022
986 Clouds 21 1012 87 10000 3.83 181 10:40 19.11.2022
987 Clouds 21 1011 87 10000 3.48 175 08:39 19.11.2022
988 Clouds 22 1013 87 10000 4.11 180 04:51 19.11.2022
989 Clouds 22 1011 86 10000 4.08 160 01:55 19.11.2022
990 Clouds 23 1007 78 10000 5.14 190 23:44 18.11.2022
991 Clouds 24 1007 73 10000 7.2 180 22:34 18.11.2022
992 Clouds 25 1008 69 10000 5.66 180 21:37 18.11.2022
993 Clouds 24 1009 73 10000 6.17 170 20:59 18.11.2022
994 Clouds 24 1009 73 10000 6.17 170 20:26 18.11.2022
995 Clouds 24 1010 73 10000 7.72 180 19:46 18.11.2022
996 Clouds 24 1011 73 10000 6.17 160 18:23 18.11.2022
997 Clouds 23 1012 73 10000 5.14 180 16:42 18.11.2022
998 Clouds 22 1013 79 10000 5.52 158 13:40 18.11.2022
999 Clear 21 1012 81 10000 4.62 168 11:24 18.11.2022
1000 Clear 21 1012 81 10000 4.62 168 11:24 18.11.2022
1001 Clear 22 1012 80 10000 3.64 176 08:24 18.11.2022
1002 Clouds 21 1014 81 10000 4.19 175 06:23 18.11.2022
1003 Clouds 21 1015 81 10000 4.79 176 05:18 18.11.2022
1004 Clouds 22 1011 81 10000 5.72 201 00:40 18.11.2022
1005 Rain 21 1011 88 10000 5.14 160 20:59 17.11.2022
1006 Rain 21 1011 88 10000 5.14 160 20:25 17.11.2022
1007 Drizzle 23 1012 78 10000 5.66 190 19:49 17.11.2022
1008 Clouds 24 1012 73 10000 5.14 160 18:34 17.11.2022
1009 Clouds 23 1013 78 10000 4.63 170 17:32 17.11.2022
1010 Clouds 22 1013 78 10000 4.12 180 16:33 17.11.2022
1011 Clouds 22 1014 74 10000 4.14 191 12:27 17.11.2022
1012 Clouds 21 1013 76 10000 4.39 189 11:19 17.11.2022
1013 Clouds 22 1014 75 10000 5.17 196 07:35 17.11.2022
1014 Clouds 22 1014 76 10000 4.38 187 01:30 17.11.2022
1015 Clouds 22 1010 83 10000 5.66 160 23:33 16.11.2022
1016 Clouds 22 1010 83 10000 4.12 170 22:25 16.11.2022
1017 Clouds 23 1011 73 10000 6.69 170 20:33 16.11.2022
1018 Clouds 23 1013 73 10000 5.14 170 18:53 16.11.2022
1019 Clouds 23 1013 73 10000 5.14 170 18:30 16.11.2022
1020 Drizzle 21 1014 94 5000 5.14 140 16:30 16.11.2022
1021 Clouds 21 1014 77 10000 4.55 143 12:20 16.11.2022
1022 Clouds 21 1013 78 10000 4.81 152 07:55 16.11.2022
1023 Clouds 21 1013 79 10000 5.88 163 01:46 16.11.2022
1024 Clouds 23 1010 73 10000 6.69 140 23:47 15.11.2022
1025 Clouds 24 1010 69 10000 7.2 140 21:44 15.11.2022
1026 Clouds 24 1011 69 10000 5.66 130 20:19 15.11.2022
1027 Clouds 23 1013 73 10000 4.12 140 18:56 15.11.2022
1028 Clouds 24 1013 64 10000 6.17 170 17:37 15.11.2022
1029 Clouds 23 1014 73 10000 5.14 160 16:20 15.11.2022
1030 Clouds 22 1014 78 10000 4.12 140 15:39 15.11.2022
1031 Clouds 21 1015 75 10000 5.68 154 14:41 15.11.2022
1032 Clouds 21 1014 77 10000 4.75 159 12:54 15.11.2022
1033 Clouds 21 1012 76 10000 4.07 158 11:22 15.11.2022
1034 Clouds 21 1012 77 10000 3.69 155 09:39 15.11.2022
1035 Clouds 21 1011 75 10000 3.91 167 00:54 15.11.2022
1036 Clouds 21 1011 75 10000 4.36 167 00:24 15.11.2022
1037 Clouds 25 1008 61 10000 7.2 140 22:33 14.11.2022
1038 Clouds 26 1010 61 10000 7.72 160 20:44 14.11.2022
1039 Clouds 25 1011 61 10000 7.2 160 19:46 14.11.2022
1040 Clouds 24 1012 64 10000 4.12 170 18:27 14.11.2022
1041 Clouds 21 1014 72 10000 3.47 163 12:55 14.11.2022
1042 Clouds 21 1014 72 10000 3.47 163 12:55 14.11.2022
1043 Clouds 21 1014 72 10000 3.47 163 12:55 14.11.2022
1044 Clouds 21 1014 72 10000 3.47 163 12:55 14.11.2022
1045 Clouds 21 1014 72 10000 3.47 163 12:55 14.11.2022
1046 Clouds 21 1013 74 10000 3.59 163 11:47 14.11.2022
1047 Clouds 20 1013 75 10000 3.32 164 10:58 14.11.2022
1048 Clouds 20 1012 75 10000 3.82 178 08:30 14.11.2022
1049 Clouds 21 1013 76 10000 3.83 180 07:52 14.11.2022
1050 Clouds 21 1012 78 10000 4.63 165 01:24 14.11.2022
1051 Clouds 23 1009 83 10000 5.14 160 22:47 13.11.2022
1052 Clouds 24 1010 78 10000 4.63 150 21:40 13.11.2022
1053 Clouds 24 1011 78 10000 4.12 140 20:45 13.11.2022
1054 Clouds 23 1013 78 10000 5.14 150 18:36 13.11.2022
1055 Clouds 23 1014 78 10000 4.12 120 17:49 13.11.2022
1056 Clouds 22 1014 78 10000 4.12 120 15:40 13.11.2022
1057 Clouds 20 1015 80 10000 4.81 150 14:30 13.11.2022
1058 Clouds 20 1014 79 10000 3.8 161 12:55 13.11.2022
1059 Clouds 20 1014 79 10000 3.79 161 11:34 13.11.2022
1060 Clouds 20 1013 81 10000 3.87 163 10:28 13.11.2022
1061 Clouds 21 1015 79 10000 4.2 144 05:52 13.11.2022
1062 Clouds 22 1011 88 10000 4.63 130 23:44 12.11.2022
1063 Clouds 23 1012 83 10000 5.66 160 21:24 12.11.2022
1064 Clouds 25 1012 73 10000 5.14 140 20:25 12.11.2022
1065 Clouds 24 1014 73 10000 5.14 160 18:56 12.11.2022
1066 Clouds 22 1015 78 10000 5.14 160 16:32 12.11.2022
1067 Clouds 21 1015 88 10000 4.63 140 15:37 12.11.2022
1068 Clouds 20 1016 75 10000 5.32 164 13:32 12.11.2022
1069 Clouds 20 1014 76 10000 5.06 169 09:35 12.11.2022
1070 Clouds 20 1015 76 10000 4.71 169 07:47 12.11.2022
1071 Clouds 22 1011 88 10000 6.69 130 23:37 11.11.2022
1072 Clouds 24 1012 78 10000 4.63 150 20:52 11.11.2022
1073 Clouds 24 1012 78 10000 4.63 150 20:28 11.11.2022
1074 Clouds 24 1013 73 10000 5.66 140 19:26 11.11.2022
1075 Clouds 23 1014 73 10000 5.14 150 17:59 11.11.2022
1076 Clouds 23 1014 73 10000 4.63 120 16:55 11.11.2022
1077 Clouds 21 1013 88 10000 3.6 160 14:30 11.11.2022
1078 Clouds 19 1015 78 10000 5.41 180 13:31 11.11.2022
1079 Clouds 19 1014 76 10000 5.25 185 11:38 11.11.2022
1080 Clouds 19 1013 77 10000 5.29 177 08:43 11.11.2022
1081 Clouds 19 1014 77 10000 5.59 175 07:38 11.11.2022
1082 Clouds 23 1011 73 10000 4.63 120 23:58 10.11.2022
1083 Clouds 23 1011 78 10000 5.14 160 22:49 10.11.2022
1084 Clouds 24 1012 73 10000 4.63 140 21:38 10.11.2022
1085 Clouds 24 1012 73 10000 4.63 140 21:19 10.11.2022
1086 Clouds 24 1013 73 10000 5.66 150 20:23 10.11.2022
1087 Clouds 23 1014 78 10000 4.12 130 19:46 10.11.2022
1088 Clouds 24 1015 73 10000 5.14 140 18:44 10.11.2022
1089 Clouds 21 1015 88 10000 3.6 120 16:26 10.11.2022
1090 Clouds 20 1016 80 10000 4.62 163 14:21 10.11.2022
1091 Clouds 19 1015 80 10000 4.63 169 12:51 10.11.2022
1092 Clouds 19 1014 83 10000 3.78 161 08:53 10.11.2022
1093 Clouds 19 1016 82 10000 4.21 160 04:39 10.11.2022
1094 Clouds 22 1011 83 10000 6.17 110 00:31 10.11.2022
1095 Clouds 24 1011 73 10000 6.17 140 22:45 09.11.2022
1096 Clouds 24 1013 73 10000 6.69 120 20:49 09.11.2022
1097 Clouds 24 1013 73 10000 6.69 120 20:29 09.11.2022
1098 Clouds 24 1014 69 10000 8.23 140 19:43 09.11.2022
1099 Clouds 24 1014 69 10000 8.23 140 19:24 09.11.2022
1100 Clouds 22 1016 73 10000 6.69 130 16:50 09.11.2022
1101 Clear 19 1018 77 10000 3.98 170 14:48 09.11.2022
1102 Clear 19 1017 78 10000 3.69 170 14:26 09.11.2022
1103 Clear 19 1017 78 10000 3.69 170 13:31 09.11.2022
1104 Clouds 19 1017 77 10000 2.9 167 12:34 09.11.2022
1105 Clouds 19 1015 77 10000 3.22 173 08:44 09.11.2022
1106 Clouds 19 1015 76 10000 3.21 174 07:46 09.11.2022
1107 Clouds 19 1015 76 10000 3.21 174 07:46 09.11.2022
1108 Clouds 20 1016 75 10000 4.65 170 01:44 09.11.2022
1109 Clouds 24 1013 69 10000 5.14 160 21:49 08.11.2022
1110 Clouds 24 1013 69 10000 5.14 160 21:31 08.11.2022
1111 Clouds 24 1014 69 10000 5.66 190 20:41 08.11.2022
1112 Clouds 23 1014 73 10000 6.17 180 19:47 08.11.2022
1113 Clouds 23 1015 68 10000 6.69 190 18:57 08.11.2022
1114 Clouds 22 1016 73 10000 6.17 190 17:26 08.11.2022
1115 Clouds 19 1017 76 10000 4.87 179 14:57 08.11.2022
1116 Clouds 19 1017 77 10000 4.96 182 13:44 08.11.2022
1117 Clouds 19 1016 77 10000 4.5 185 13:25 08.11.2022
1118 Clouds 19 1014 76 10000 3.26 189 09:46 08.11.2022
1119 Clouds 19 1016 76 10000 3.11 187 07:25 08.11.2022
1120 Clouds 19 1015 77 10000 4.67 175 01:41 08.11.2022
1121 Clouds 19 1015 77 10000 4.67 175 01:41 08.11.2022
1122 Clouds 24 1011 73 10000 8.75 170 22:51 07.11.2022
1123 Clouds 24 1011 73 10000 7.2 170 21:38 07.11.2022
1124 Clouds 24 1012 69 10000 6.69 150 20:44 07.11.2022
1125 Clouds 23 1013 73 10000 7.2 180 19:30 07.11.2022
1126 Clouds 22 1014 73 10000 5.66 170 17:39 07.11.2022
1127 Clouds 21 1014 73 10000 4.12 170 15:36 07.11.2022
1128 Clouds 19 1016 82 10000 5.46 171 14:49 07.11.2022
1129 Clouds 19 1015 82 10000 4.3 164 12:55 07.11.2022
1130 Clouds 19 1014 82 10000 4.23 169 11:44 07.11.2022
1131 Clouds 19 1013 82 10000 4.12 173 09:49 07.11.2022
1132 Clouds 19 1013 80 10000 4.03 165 07:53 07.11.2022
1133 Clouds 20 1015 75 10000 4.23 166 04:27 07.11.2022
1134 Clouds 20 1014 76 10000 4.91 165 01:42 07.11.2022
1135 Clouds 23 1010 73 10000 5.14 160 22:31 06.11.2022
1136 Clouds 24 1011 69 10000 6.17 180 21:21 06.11.2022
1137 Clouds 24 1011 69 10000 7.2 170 20:32 06.11.2022
1138 Clouds 23 1012 73 10000 6.69 170 19:55 06.11.2022
1139 Clouds 23 1013 73 10000 7.2 170 18:41 06.11.2022
1140 Clouds 23 1013 73 10000 7.2 170 18:41 06.11.2022
1141 Clouds 23 1013 73 10000 7.2 170 18:19 06.11.2022
1142 Clouds 23 1014 68 10000 5.14 160 17:22 06.11.2022
1143 Clouds 22 1013 73 10000 7.2 160 16:40 06.11.2022
1144 Clouds 21 1013 78 10000 6.17 170 15:53 06.11.2022
1145 Clouds 19 1014 80 10000 5.27 182 14:24 06.11.2022
1146 Clouds 19 1014 79 10000 5.45 178 12:39 06.11.2022
1147 Clouds 19 1012 80 10000 5.81 185 10:48 06.11.2022
1148 Clouds 19 1013 79 10000 4.96 182 08:30 06.11.2022
1149 Clouds 20 1014 76 10000 6 181 02:19 06.11.2022
1150 Clouds 22 1010 73 10000 6.17 170 23:22 05.11.2022
1151 Clouds 24 1013 64 10000 8.75 180 19:43 05.11.2022
1152 Clouds 24 1015 60 10000 7.72 180 17:45 05.11.2022
1153 Clouds 23 1015 64 10000 6.17 190 16:21 05.11.2022
1154 Clouds 20 1016 77 10000 6.1 181 14:33 05.11.2022
1155 Clouds 20 1015 80 10000 5.64 187 12:51 05.11.2022
1156 Clouds 20 1014 80 10000 5.94 195 10:31 05.11.2022
1157 Clouds 20 1014 81 10000 6.04 191 08:47 05.11.2022
1158 Clouds 20 1016 81 10000 6.21 190 06:57 05.11.2022
1159 Clouds 20 1016 78 10000 6.15 187 03:49 05.11.2022
1160 Clouds 21 1011 83 10000 6.69 190 23:35 04.11.2022
1161 Clouds 22 1011 73 10000 8.23 170 22:28 04.11.2022
1162 Clouds 23 1012 68 10000 7.72 180 20:20 04.11.2022
1163 Clouds 22 1014 73 10000 5.14 180 17:45 04.11.2022
1164 Clouds 21 1014 78 10000 6.69 170 16:34 04.11.2022
1165 Clouds 20 1016 80 10000 6.58 178 13:39 04.11.2022
1166 Clouds 20 1015 81 10000 6.53 180 12:23 04.11.2022
1167 Clouds 20 1014 82 10000 6.68 187 09:40 04.11.2022
1168 Clouds 20 1015 83 10000 6.79 181 08:21 04.11.2022
1169 Clouds 20 1015 83 10000 6.79 181 08:21 04.11.2022
1170 Clouds 20 1016 82 10000 6.52 182 07:26 04.11.2022
1171 Clouds 21 1012 83 10000 5.66 160 00:58 04.11.2022
1172 Clouds 23 1012 73 10000 6.69 170 22:30 03.11.2022
1173 Clouds 22 1013 78 10000 6.17 180 20:48 03.11.2022
1174 Clouds 21 1014 83 10000 6.17 170 19:43 03.11.2022
1175 Clouds 21 1015 83 10000 6.69 180 18:46 03.11.2022
1176 Clouds 21 1015 83 10000 6.17 190 17:38 03.11.2022
1177 Clouds 20 1015 88 10000 5.14 180 15:41 03.11.2022
1178 Clouds 20 1016 83 10000 5.45 180 13:47 03.11.2022
1179 Clouds 20 1016 83 10000 5.2 178 12:35 03.11.2022
1180 Clouds 20 1015 83 10000 4.99 176 11:43 03.11.2022
1181 Clouds 20 1014 84 10000 5.17 182 07:49 03.11.2022
1182 Clouds 23 1011 68 10000 5.14 160 22:43 02.11.2022
1183 Clouds 23 1012 68 10000 6.69 180 20:56 02.11.2022
1184 Clouds 23 1012 68 10000 6.69 180 20:25 02.11.2022
1185 Clouds 22 1014 78 10000 6.69 180 18:42 02.11.2022
1186 Rain 20 1015 83 10000 5.14 170 16:28 02.11.2022
1187 Drizzle 19 1015 94 10000 4.63 140 15:30 02.11.2022
1188 Clouds 20 1015 82 10000 4.71 147 12:58 02.11.2022
1189 Clouds 20 1014 83 10000 4.71 148 12:23 02.11.2022
1190 Clouds 20 1013 83 10000 4.58 139 09:51 02.11.2022
1191 Clouds 20 1013 83 10000 4.65 138 08:33 02.11.2022
1192 Clouds 20 1012 81 10000 4.17 140 02:28 02.11.2022
1193 Clouds 22 1009 73 10000 6.69 180 22:21 01.11.2022
1194 Clouds 22 1010 78 10000 6.17 140 21:54 01.11.2022
1195 Rain 22 1011 73 10000 6.69 180 20:28 01.11.2022
1196 Clouds 23 1012 68 10000 5.14 170 19:59 01.11.2022
1197 Clouds 23 1012 68 10000 5.14 170 19:41 01.11.2022
1198 Clouds 23 1013 68 10000 7.2 180 18:23 01.11.2022
1199 Clouds 20 1013 88 10000 5.14 170 16:28 01.11.2022
1200 Clouds 20 1015 81 10000 5.75 161 14:38 01.11.2022
1201 Clouds 20 1014 82 10000 5.62 168 12:34 01.11.2022
1202 Clouds 20 1013 82 10000 5.3 167 11:40 01.11.2022
1203 Clouds 20 1012 81 10000 5.43 175 11:20 01.11.2022
1204 Clouds 20 1012 80 10000 4.85 174 08:51 01.11.2022
1205 Clouds 20 1012 81 10000 4.96 178 07:48 01.11.2022
1206 Clouds 20 1013 81 10000 4.55 174 07:27 01.11.2022
1207 Clouds 20 1013 81 10000 4.67 171 06:45 01.11.2022
1208 Clouds 20 1014 82 10000 4.91 158 04:18 01.11.2022
1209 Clouds 20 1010 84 10000 6.37 178 22:24 31.10.2022
1210 Clouds 22 1009 83 10000 6.17 190 21:26 31.10.2022
1211 Drizzle 20 1011 94 10000 6.17 180 19:56 31.10.2022
1212 Clouds 22 1011 78 10000 6.69 160 18:35 31.10.2022
1213 Clouds 20 1012 88 10000 5.14 180 16:44 31.10.2022
1214 Clouds 20 1014 84 10000 4.61 160 14:30 31.10.2022
1215 Clouds 20 1012 85 10000 4.49 177 12:18 31.10.2022
1216 Clouds 20 1011 85 10000 3.42 171 09:34 31.10.2022
1217 Clouds 20 1014 84 10000 3.28 149 05:40 31.10.2022
1218 Clouds 20 1015 83 10000 5.99 187 02:34 31.10.2022
1219 Clouds 20 1013 83 10000 5.97 191 00:34 31.10.2022
1220 Clouds 20 1011 84 10000 5.96 185 21:45 30.10.2022
1221 Clouds 20 1012 84 10000 5.55 184 20:37 30.10.2022
1222 Clouds 20 1012 84 10000 5.55 184 20:37 30.10.2022
1223 Clouds 20 1014 85 10000 5.94 185 18:56 30.10.2022
1224 Clouds 20 1016 86 10000 5.1 176 16:26 30.10.2022
1225 Clouds 20 1015 86 10000 4.53 170 14:23 30.10.2022
1226 Clouds 20 1014 86 10000 4.71 172 13:23 30.10.2022
1227 Clouds 20 1013 87 10000 4.48 178 11:48 30.10.2022
1228 Clouds 20 1013 87 10000 4.76 180 09:40 30.10.2022
1229 Clouds 20 1013 86 10000 3.96 170 08:39 30.10.2022
1230 Clouds 20 1016 88 10000 4.39 181 04:30 30.10.2022
1231 Clouds 22 1011 68 10000 4.63 190 00:28 30.10.2022
1232 Clouds 22 1011 73 10000 5.14 180 23:45 29.10.2022
1233 Clouds 23 1012 73 10000 5.14 160 21:28 29.10.2022
1234 Drizzle 20 1015 88 10000 5.14 170 18:34 29.10.2022
1235 Clouds 20 1015 94 10000 6.17 180 17:20 29.10.2022
1236 Clouds 20 1016 87 10000 5.2 170 15:38 29.10.2022
1237 Clouds 20 1016 87 10000 5.22 170 14:48 29.10.2022
1238 Clouds 20 1015 85 10000 5.13 173 12:35 29.10.2022
1239 Clouds 20 1014 86 10000 5.26 174 11:53 29.10.2022
1240 Clouds 20 1015 84 10000 5.83 170 07:38 29.10.2022
1241 Clouds 20 1016 85 10000 6.01 166 05:56 29.10.2022
1242 Clouds 20 1015 85 10000 5.93 172 04:19 29.10.2022
1243 Clouds 21 1011 73 10000 5.66 180 23:42 28.10.2022
1244 Clouds 22 1014 73 10000 6.69 160 20:56 28.10.2022
1245 Clouds 22 1015 73 10000 7.2 170 19:29 28.10.2022
1246 Clouds 21 1015 78 10000 6.69 170 18:31 28.10.2022
1247 Clouds 20 1017 83 10000 6.69 166 15:37 28.10.2022
1248 Clouds 20 1016 81 10000 6.46 168 14:44 28.10.2022
1249 Clouds 20 1015 79 10000 5.76 165 12:58 28.10.2022
1250 Clouds 20 1014 80 10000 5.61 167 11:35 28.10.2022
1251 Clouds 20 1014 81 10000 5.58 170 10:59 28.10.2022
1252 Clouds 20 1014 80 10000 5.72 179 09:48 28.10.2022
1253 Clouds 21 1015 80 10000 5.85 182 08:29 28.10.2022
1254 Clouds 20 1014 82 10000 5.44 178 03:51 28.10.2022
1255 Clouds 20 1014 82 10000 5.44 178 03:51 28.10.2022
1256 Clouds 20 1014 82 10000 5.44 178 03:51 28.10.2022
1257 Clouds 20 1014 82 10000 5.44 178 03:51 28.10.2022
1258 Clouds 23 1010 68 10000 6.69 180 23:49 27.10.2022
1259 Clouds 23 1011 68 10000 7.72 160 22:41 27.10.2022
1260 Clouds 24 1012 64 10000 6.69 150 21:55 27.10.2022
1261 Clouds 23 1013 68 10000 7.2 160 20:30 27.10.2022
1262 Clouds 23 1013 68 10000 7.2 160 20:30 27.10.2022
1263 Clouds 22 1014 78 10000 5.66 180 18:23 27.10.2022
1264 Clouds 20 1016 78 10000 4.64 173 14:30 27.10.2022
1265 Clouds 20 1013 79 10000 4.99 174 11:29 27.10.2022
1266 Clouds 20 1016 77 10000 4.98 167 07:29 27.10.2022
1267 Drizzle 21 1011 83 10000 5.14 180 00:22 27.10.2022
1268 Clouds 21 1011 78 10000 4.63 200 23:44 26.10.2022
1269 Clouds 22 1012 73 10000 4.63 170 22:37 26.10.2022
1270 Clouds 21 1014 83 10000 5.66 170 19:58 26.10.2022
1271 Drizzle 19 1014 94 10000 5.14 200 16:53 26.10.2022
1272 Clouds 20 1015 81 10000 5.35 178 14:53 26.10.2022
1273 Clouds 20 1013 79 10000 5.12 180 12:39 26.10.2022
1274 Clouds 20 1013 80 10000 4.91 179 11:32 26.10.2022
1275 Clouds 20 1014 82 10000 4.66 181 09:18 26.10.2022
1276 Clouds 20 1014 82 10000 4.66 181 08:43 26.10.2022
1277 Clouds 21 1011 78 10000 6.17 160 00:48 26.10.2022
1278 Clouds 21 1011 78 10000 6.17 160 00:29 26.10.2022
1279 Clouds 23 1013 68 10000 5.66 150 21:57 25.10.2022
1280 Clouds 23 1013 68 10000 5.66 150 21:24 25.10.2022
1281 Clouds 23 1015 64 10000 4.63 150 19:57 25.10.2022
1282 Clouds 22 1015 68 10000 7.2 160 18:28 25.10.2022
1283 Clouds 20 1016 83 10000 5.1 164 14:58 25.10.2022
1284 Clouds 20 1014 86 10000 5.61 163 11:39 25.10.2022
1285 Clouds 20 1013 86 10000 5.97 168 10:44 25.10.2022
1286 Clouds 20 1014 85 10000 5.79 169 10:25 25.10.2022
1287 Clouds 20 1015 85 10000 5.46 171 08:19 25.10.2022
1288 Clouds 20 1015 85 10000 5.46 171 07:54 25.10.2022
1289 Clouds 20 1015 85 10000 5.46 171 07:54 25.10.2022
1290 Clouds 20 1016 86 10000 5.09 173 06:59 25.10.2022
1291 Clouds 21 1015 87 10000 4.37 174 03:48 25.10.2022
1292 Clouds 20 1011 88 10000 6.17 180 00:40 25.10.2022
1293 Clouds 22 1011 68 10000 6.69 160 23:49 24.10.2022
1294 Clouds 22 1011 68 10000 6.69 180 22:24 24.10.2022
1295 Clouds 22 1013 68 10000 6.17 170 21:33 24.10.2022
1296 Clouds 22 1014 73 10000 5.14 180 20:42 24.10.2022
1297 Clouds 21 1015 78 10000 3.6 170 18:52 24.10.2022
1298 Clouds 20 1015 83 10000 4.12 180 17:50 24.10.2022
1299 Clouds 21 1017 83 10000 5.38 176 16:34 24.10.2022
1300 Clouds 20 1015 84 10000 5.16 180 14:22 24.10.2022
1301 Clouds 20 1015 84 10000 5.16 180 13:40 24.10.2022
1302 Clouds 20 1014 84 10000 4.85 169 11:54 24.10.2022
1303 Clouds 20 1014 84 10000 5.14 163 08:45 24.10.2022
1304 Clouds 21 1009 73 10000 5.14 170 00:50 24.10.2022
1305 Clouds 22 1011 68 10000 4.12 170 21:23 23.10.2022
1306 Clouds 21 1013 78 10000 5.14 150 19:50 23.10.2022
1307 Clouds 21 1014 83 10000 6.17 180 17:55 23.10.2022
1308 Clouds 21 1014 83 10000 6.17 180 17:27 23.10.2022
1309 Clouds 20 1015 81 10000 5.53 172 15:19 23.10.2022
1310 Clouds 20 1014 83 10000 5.59 176 12:59 23.10.2022
1311 Clouds 20 1013 82 10000 5.13 177 10:59 23.10.2022
1312 Clouds 20 1014 82 10000 5.29 183 07:53 23.10.2022
1313 Clouds 21 1010 83 10000 5.14 200 23:39 22.10.2022
1314 Clouds 21 1011 78 10000 5.66 170 22:31 22.10.2022
1315 Clouds 23 1012 68 10000 4.63 190 21:41 22.10.2022
1316 Clouds 23 1013 68 10000 4.63 190 20:36 22.10.2022
1317 Clouds 22 1014 78 10000 3.09 180 19:32 22.10.2022
1318 Clouds 21 1014 83 10000 4.63 190 18:46 22.10.2022
1319 Clouds 19 1014 100 10000 4.63 170 17:31 22.10.2022
1320 Clouds 20 1014 81 10000 4.97 165 15:26 22.10.2022
1321 Clouds 20 1014 81 10000 4.97 165 14:36 22.10.2022
1322 Clouds 20 1013 81 10000 5.36 169 12:42 22.10.2022
1323 Clouds 20 1013 84 10000 5.04 165 09:50 22.10.2022
1324 Clouds 20 1013 84 10000 5.14 163 08:51 22.10.2022
1325 Clouds 20 1015 82 10000 4.75 172 06:59 22.10.2022
1326 Clouds 21 1010 88 10000 5.66 170 01:53 22.10.2022
1327 Clouds 22 1009 88 10000 7.2 180 23:33 21.10.2022
1328 Clouds 23 1011 78 10000 9.26 160 21:34 21.10.2022
1329 Clouds 24 1013 73 10000 8.23 170 20:49 21.10.2022
1330 Clouds 24 1015 69 10000 7.72 190 18:32 21.10.2022
1331 Clouds 20 1016 81 10000 5.35 181 14:47 21.10.2022
1332 Clouds 20 1015 81 10000 5.44 179 13:43 21.10.2022
1333 Clouds 20 1014 80 10000 6.04 178 11:56 21.10.2022
1334 Clouds 20 1014 82 10000 5.63 173 10:27 21.10.2022
1335 Clouds 20 1014 82 10000 5.63 173 09:37 21.10.2022
1336 Clouds 20 1015 83 10000 6.03 165 08:26 21.10.2022
1337 Clouds 20 1016 84 10000 5.82 172 05:56 21.10.2022
1338 Clouds 23 1011 78 10000 6.69 180 23:59 20.10.2022
1339 Clouds 24 1013 73 10000 6.69 180 21:23 20.10.2022
1340 Clouds 20 1015 80 10000 5.71 171 19:45 20.10.2022
1341 Clouds 20 1017 79 10000 5.44 170 18:51 20.10.2022
1342 Clouds 23 1015 73 10000 7.2 170 17:48 20.10.2022
1343 Clouds 20 1017 78 10000 5.25 174 15:37 20.10.2022
1344 Clouds 19 1015 80 10000 4.34 167 12:33 20.10.2022
1345 Clouds 19 1015 79 10000 4.48 166 11:36 20.10.2022
1346 Clouds 19 1015 80 10000 4.88 165 10:53 20.10.2022
1347 Clouds 19 1015 81 10000 5.35 169 09:35 20.10.2022
1348 Clouds 20 1016 83 10000 5.88 162 07:44 20.10.2022
1349 Clouds 20 1017 83 10000 5.17 165 03:30 20.10.2022
1350 Clouds 23 1012 73 10000 6.69 180 23:46 19.10.2022
1351 Clouds 24 1012 73 10000 8.23 170 22:30 19.10.2022
1352 Clouds 24 1013 69 10000 8.75 160 21:31 19.10.2022
1353 Clouds 24 1014 69 10000 8.23 150 20:23 19.10.2022
1354 Clouds 22 1015 83 10000 6.69 160 17:52 19.10.2022
1355 Clouds 21 1015 88 10000 6.17 160 16:28 19.10.2022
1356 Clouds 20 1016 83 10000 3.66 152 14:34 19.10.2022
1357 Clouds 20 1013 85 10000 4.37 144 12:21 19.10.2022
1358 Clouds 20 1014 84 10000 3.95 151 08:58 19.10.2022
1359 Clouds 20 1015 83 10000 4.25 154 07:24 19.10.2022
1360 Clouds 20 1015 79 10000 3.84 166 02:30 19.10.2022
1361 Clouds 24 1011 69 10000 5.14 190 23:45 18.10.2022
1362 Clouds 24 1011 69 10000 7.2 170 21:49 18.10.2022
1363 Clouds 24 1011 69 10000 7.2 170 21:31 18.10.2022
1364 Clouds 24 1012 69 10000 6.69 180 20:27 18.10.2022
1365 Clouds 23 1014 68 10000 6.17 170 18:59 18.10.2022
1366 Clouds 21 1014 83 10000 5.14 160 16:57 18.10.2022
1367 Clouds 20 1015 76 10000 4.35 163 15:23 18.10.2022
1368 Clouds 20 1014 77 10000 4.09 174 13:39 18.10.2022
1369 Clouds 20 1012 77 10000 4.89 173 11:47 18.10.2022
1370 Clouds 20 1013 78 10000 4.73 174 10:29 18.10.2022
1371 Clouds 20 1013 78 10000 4.35 178 09:25 18.10.2022
1372 Clouds 20 1015 78 10000 4.54 175 06:38 18.10.2022
1373 Clouds 22 1010 78 10000 6.17 170 23:35 17.10.2022
1374 Clouds 23 1011 73 10000 6.69 190 21:31 17.10.2022
1375 Clouds 23 1012 73 10000 6.17 180 20:47 17.10.2022
1376 Clouds 23 1012 73 10000 6.17 180 20:27 17.10.2022
1377 Clouds 23 1013 73 10000 6.69 190 19:41 17.10.2022
1378 Clouds 21 1013 78 10000 6.69 180 17:47 17.10.2022
1379 Clouds 20 1015 79 10000 6.25 170 15:55 17.10.2022
1380 Clouds 20 1015 81 10000 5.81 172 14:36 17.10.2022
1381 Clouds 20 1013 80 10000 5.57 174 12:48 17.10.2022
1382 Clouds 20 1013 79 10000 5.92 184 08:52 17.10.2022
1383 Clouds 20 1012 78 10000 6.26 172 01:25 17.10.2022
1384 Clouds 22 1010 78 10000 7.2 170 22:34 16.10.2022
1385 Clouds 22 1011 78 10000 8.75 160 21:21 16.10.2022
1386 Clouds 22 1013 78 10000 6.17 190 19:51 16.10.2022
1387 Clouds 22 1013 78 10000 6.17 190 19:24 16.10.2022
1388 Clouds 21 1014 78 10000 7.72 170 17:44 16.10.2022
1389 Clouds 20 1013 83 10000 6.17 180 16:26 16.10.2022
1390 Clouds 20 1015 79 10000 6.53 168 15:53 16.10.2022
1391 Clouds 20 1013 80 10000 5.72 168 12:25 16.10.2022
1392 Clouds 20 1013 80 10000 5.84 168 11:22 16.10.2022
1393 Clouds 20 1013 81 10000 5.62 164 10:26 16.10.2022
1394 Clouds 20 1016 79 10000 5.82 167 04:52 16.10.2022
1395 Clouds 22 1010 83 10000 7.72 180 23:42 15.10.2022
1396 Clouds 21 1012 83 10000 7.2 170 21:53 15.10.2022
1397 Clouds 21 1012 83 10000 7.2 170 21:18 15.10.2022
1398 Clouds 22 1014 83 10000 7.2 180 19:30 15.10.2022
1399 Clouds 21 1014 88 10000 7.2 160 17:23 15.10.2022
1400 Clouds 20 1016 80 10000 5.21 172 15:45 15.10.2022
1401 Clouds 20 1014 83 10000 5.17 176 13:26 15.10.2022
1402 Clouds 20 1014 84 10000 5.22 173 11:43 15.10.2022
1403 Clouds 20 1014 83 10000 5.37 167 09:28 15.10.2022
1404 Clouds 20 1015 83 10000 5.41 163 07:33 15.10.2022
1405 Clouds 21 1010 88 10000 8.75 160 00:40 15.10.2022
1406 Clouds 22 1011 83 10000 8.75 180 22:41 14.10.2022
1407 Clouds 22 1011 83 10000 8.75 180 22:22 14.10.2022
1408 Clouds 23 1013 78 10000 7.2 160 20:46 14.10.2022
1409 Clouds 22 1013 78 10000 7.72 160 18:39 14.10.2022
1410 Clouds 20 1016 83 10000 5.93 169 15:32 14.10.2022
1411 Clouds 20 1013 83 10000 5.52 173 12:47 14.10.2022
1412 Clouds 20 1013 81 10000 5.37 171 11:25 14.10.2022
1413 Clouds 20 1014 82 10000 5.1 162 08:26 14.10.2022
1414 Clouds 20 1015 82 10000 5.27 156 06:45 14.10.2022
1415 Clouds 20 1015 83 10000 5.4 156 06:18 14.10.2022
1416 Clouds 20 1015 83 10000 5.4 156 05:41 14.10.2022
1417 Clouds 20 1013 86 10000 6.1 161 02:18 14.10.2022
1418 Clouds 22 1011 83 10000 8.23 170 23:22 13.10.2022
1419 Clouds 23 1013 73 10000 6.69 180 21:32 13.10.2022
1420 Clouds 23 1014 78 10000 5.66 160 20:22 13.10.2022
1421 Clouds 23 1015 73 10000 6.17 170 19:42 13.10.2022
1422 Clouds 23 1015 73 10000 6.17 170 19:42 13.10.2022
1423 Drizzle 20 1015 88 10000 6.17 140 18:45 13.10.2022
1424 Drizzle 20 1015 88 10000 6.17 140 18:20 13.10.2022
1425 Clouds 20 1016 83 10000 6.1 163 15:49 13.10.2022
1426 Clouds 20 1016 84 10000 5.99 166 14:59 13.10.2022
1427 Clouds 20 1015 84 10000 6.05 166 13:49 13.10.2022
1428 Clouds 20 1013 82 10000 5.68 167 11:45 13.10.2022
1429 Clouds 20 1013 82 10000 5.21 166 10:18 13.10.2022
1430 Clouds 20 1014 83 10000 4.93 168 08:33 13.10.2022
1431 Clouds 20 1014 83 10000 4.93 168 08:33 13.10.2022
1432 Clouds 20 1015 82 10000 4.74 169 07:36 13.10.2022
1433 Clouds 20 1016 81 10000 4.59 173 03:37 13.10.2022
1434 Clouds 20 1014 76 10000 4.29 180 01:38 13.10.2022
1435 Clouds 23 1012 73 10000 6.17 170 23:32 12.10.2022
1436 Clouds 24 1013 69 10000 6.17 160 22:44 12.10.2022
1437 Clouds 24 1013 69 10000 5.66 180 21:25 12.10.2022
1438 Clouds 23 1014 73 10000 4.12 190 20:54 12.10.2022
1439 Clouds 23 1014 73 10000 4.12 190 20:26 12.10.2022
1440 Clouds 22 1016 78 10000 4.12 170 18:51 12.10.2022
1441 Clouds 21 1016 83 10000 4.63 160 17:54 12.10.2022
1442 Clouds 19 1015 94 10000 3.09 170 16:28 12.10.2022
1443 Clouds 20 1016 82 10000 5.34 179 13:58 12.10.2022
1444 Clouds 20 1015 81 10000 5.18 176 13:34 12.10.2022
1445 Clouds 19 1013 83 10000 5.38 189 10:39 12.10.2022
1446 Clouds 19 1014 82 10000 4.8 196 08:37 12.10.2022
1447 Clouds 19 1015 82 10000 4.6 194 07:41 12.10.2022
1448 Clouds 20 1016 81 10000 4.37 185 06:43 12.10.2022
1449 Clouds 20 1013 80 10000 4.24 165 01:34 12.10.2022
1450 Clouds 22 1012 78 10000 5.14 170 22:40 11.10.2022
1451 Clouds 23 1014 73 10000 7.2 150 20:55 11.10.2022
1452 Clouds 23 1014 73 10000 7.72 160 19:56 11.10.2022
1453 Drizzle 20 1015 88 8000 6.69 140 17:28 11.10.2022
1454 Clouds 20 1015 78 10000 4.94 158 14:48 11.10.2022
1455 Clouds 19 1014 79 10000 4.79 163 13:28 11.10.2022
1456 Clouds 19 1013 77 10000 4.32 171 10:31 11.10.2022
1457 Clouds 19 1013 77 10000 4.32 171 10:31 11.10.2022
1458 Clouds 19 1013 77 10000 4.3 169 09:50 11.10.2022
1459 Clouds 20 1014 79 10000 4.46 169 07:53 11.10.2022
1460 Clouds 20 1013 78 10000 5.36 158 02:35 11.10.2022
1461 Clouds 21 1010 83 10000 6.69 150 00:33 11.10.2022
1462 Clouds 22 1011 73 10000 6.17 180 21:40 10.10.2022
1463 Clouds 22 1012 73 10000 7.2 170 20:30 10.10.2022
1464 Clouds 22 1013 78 10000 6.69 170 18:38 10.10.2022
1465 Clouds 21 1014 83 10000 5.66 150 17:24 10.10.2022
1466 Clouds 20 1013 88 10000 6.17 160 16:20 10.10.2022
1467 Clouds 19 1014 79 10000 4.84 171 13:31 10.10.2022
1468 Clouds 19 1013 80 10000 5.26 174 12:21 10.10.2022
1469 Clouds 19 1013 79 10000 5.82 173 09:22 10.10.2022
1470 Clouds 19 1015 78 10000 5.51 183 05:45 10.10.2022
1471 Clouds 19 1014 78 10000 5.32 181 05:21 10.10.2022
1472 Clouds 21 1009 78 10000 7.2 170 00:34 10.10.2022
1473 Clouds 22 1009 73 10000 7.72 170 23:31 09.10.2022
1474 Clouds 23 1010 73 10000 7.2 160 22:20 09.10.2022
1475 Clouds 23 1010 73 10000 6.69 160 21:26 09.10.2022
1476 Clouds 23 1011 68 10000 5.14 170 20:30 09.10.2022
1477 Clouds 22 1012 73 10000 6.17 190 19:46 09.10.2022
1478 Clouds 22 1013 73 10000 5.14 200 18:44 09.10.2022
1479 Clouds 21 1013 83 10000 5.14 180 16:57 09.10.2022
1480 Clouds 21 1013 83 10000 5.14 180 16:37 09.10.2022
1481 Clouds 19 1014 78 10000 5.58 180 15:45 09.10.2022
1482 Clouds 19 1014 77 10000 5.08 176 14:34 09.10.2022
1483 Clouds 19 1013 79 10000 5.19 176 13:48 09.10.2022
1484 Clouds 19 1012 79 10000 5.32 175 12:46 09.10.2022
1485 Clouds 19 1011 78 10000 5.38 189 10:52 09.10.2022
1486 Clouds 19 1012 78 10000 4.84 196 08:31 09.10.2022
1487 Clouds 19 1013 79 10000 5.7 184 03:48 09.10.2022
1488 Clouds 19 1012 80 10000 5.87 180 02:53 09.10.2022
1489 Clouds 21 1009 83 10000 6.69 170 00:39 09.10.2022
1490 Clouds 23 1010 68 10000 7.72 170 22:59 08.10.2022
1491 Clouds 23 1010 68 10000 7.72 170 22:22 08.10.2022
1492 Clouds 22 1011 78 10000 8.23 170 20:31 08.10.2022
1493 Clouds 20 1013 88 10000 7.2 180 18:57 08.10.2022
1494 Drizzle 19 1013 94 10000 6.69 170 17:33 08.10.2022
1495 Clouds 20 1014 83 10000 6.57 182 15:26 08.10.2022
1496 Clouds 20 1013 83 10000 5.54 177 13:31 08.10.2022
1497 Clouds 20 1012 84 10000 5.07 179 10:48 08.10.2022
1498 Clouds 20 1013 84 10000 5.15 179 10:24 08.10.2022
1499 Clouds 20 1014 83 10000 5.12 179 08:49 08.10.2022
1500 Clouds 20 1014 84 10000 5.55 180 04:46 08.10.2022
1501 Clouds 21 1009 88 10000 7.2 170 00:58 08.10.2022
1502 Drizzle 21 1010 64 10000 8.75 180 23:32 07.10.2022
1503 Drizzle 21 1010 88 10000 7.72 180 22:56 07.10.2022
1504 Clouds 22 1011 78 10000 9.26 170 21:40 07.10.2022
1505 Clouds 22 1013 83 10000 8.23 160 19:44 07.10.2022
1506 Clouds 20 1014 94 10000 7.2 150 17:53 07.10.2022
1507 Drizzle 19 1014 94 10000 5.14 160 16:42 07.10.2022
1508 Clouds 20 1015 84 10000 5.65 178 15:21 07.10.2022
1509 Clouds 20 1014 86 10000 5.54 181 13:26 07.10.2022
1510 Clouds 20 1013 86 10000 5.51 178 11:19 07.10.2022
1511 Clouds 20 1014 88 10000 5.28 182 09:25 07.10.2022
1512 Clouds 20 1014 87 10000 4.97 176 08:19 07.10.2022
1513 Clouds 20 1013 85 10000 5.33 171 02:26 07.10.2022
1514 Clouds 23 1010 73 10000 7.72 170 22:52 06.10.2022
1515 Clouds 23 1011 73 10000 6.69 190 21:50 06.10.2022
1516 Clouds 23 1011 73 10000 6.69 190 21:29 06.10.2022
1517 Clouds 23 1012 78 10000 7.2 180 20:36 06.10.2022
1518 Clouds 22 1013 83 10000 7.2 170 18:46 06.10.2022
1519 Clouds 22 1013 83 10000 7.2 170 18:19 06.10.2022
1520 Clouds 22 1013 83 10000 7.2 170 18:19 06.10.2022
1521 Clouds 20 1015 87 10000 4.73 174 15:33 06.10.2022
1522 Clouds 20 1012 88 10000 4.84 180 12:29 06.10.2022
1523 Clouds 20 1014 89 10000 4.8 170 08:20 06.10.2022
1524 Clouds 20 1014 87 10000 5.21 168 04:32 06.10.2022
1525 Clouds 22 1009 83 10000 7.2 180 00:44 06.10.2022
1526 Clouds 21 1011 88 10000 7.72 170 21:52 05.10.2022
1527 Clouds 22 1013 78 10000 6.17 180 19:31 05.10.2022
1528 Clouds 20 1013 94 10000 6.69 170 17:36 05.10.2022
1529 Clouds 19 1013 100 10000 6.17 160 16:22 05.10.2022
1530 Clouds 20 1014 87 10000 5 171 14:52 05.10.2022
1531 Clouds 20 1013 87 10000 5.14 174 14:19 05.10.2022
1532 Clouds 20 1012 86 10000 5.01 175 12:26 05.10.2022
1533 Clouds 20 1012 86 10000 5.49 177 09:51 05.10.2022
1534 Clouds 20 1014 87 10000 5.2 175 07:51 05.10.2022
1535 Clouds 20 1015 88 10000 5.65 165 06:21 05.10.2022
1536 Clouds 20 1014 89 10000 5.54 165 04:27 05.10.2022
1537 Clouds 20 1012 86 10000 5.81 174 01:22 05.10.2022
1538 Clouds 21 1010 88 10000 9.26 170 00:27 05.10.2022
1539 Clouds 22 1011 83 10000 8.23 170 22:39 04.10.2022
1540 Clouds 22 1012 83 10000 9.26 180 20:40 04.10.2022
1541 Clouds 22 1014 83 10000 7.2 170 19:42 04.10.2022
1542 Clouds 21 1015 88 10000 7.72 160 18:39 04.10.2022
1543 Rain 20 1015 88 10000 7.2 170 17:50 04.10.2022
1544 Clouds 20 1014 94 10000 6.69 160 16:36 04.10.2022
1545 Clouds 20 1014 84 10000 5.51 181 13:19 04.10.2022
1546 Clouds 20 1013 83 10000 5.39 193 09:47 04.10.2022
1547 Clouds 20 1015 84 10000 5.08 185 07:24 04.10.2022
1548 Clouds 20 1013 82 10000 4.72 176 02:27 04.10.2022
1549 Clouds 23 1010 73 10000 6.17 180 23:41 03.10.2022
1550 Clouds 23 1013 73 10000 7.72 170 21:55 03.10.2022
1551 Clouds 23 1013 73 10000 7.72 170 21:23 03.10.2022
1552 Clouds 23 1013 73 10000 5.14 170 20:19 03.10.2022
1553 Clouds 22 1014 78 10000 6.69 170 18:28 03.10.2022
1554 Drizzle 19 1015 94 10000 5.14 160 17:25 03.10.2022
1555 Drizzle 18 1013 100 8000 3.09 160 15:47 03.10.2022
1556 Clouds 20 1015 85 10000 4.49 158 13:51 03.10.2022
1557 Clouds 20 1014 85 10000 4.4 163 12:30 03.10.2022
1558 Clouds 20 1013 86 10000 3.78 176 10:39 03.10.2022
1559 Clouds 20 1013 86 10000 4.19 181 09:38 03.10.2022
1560 Clouds 20 1015 82 10000 3.42 161 06:35 03.10.2022
1561 Clouds 20 1013 85 10000 4.45 165 02:53 03.10.2022
1562 Clouds 22 1010 78 10000 8.75 170 22:35 02.10.2022
1563 Clouds 23 1012 73 10000 9.26 180 20:51 02.10.2022
1564 Clouds 21 1014 83 10000 7.2 170 18:42 02.10.2022
1565 Drizzle 21 1014 83 10000 6.69 150 17:52 02.10.2022
1566 Clouds 19 1014 94 10000 6.17 170 16:33 02.10.2022
1567 Clouds 20 1015 86 10000 5.41 150 15:56 02.10.2022
1568 Clouds 20 1014 88 10000 5.08 155 13:52 02.10.2022
1569 Clouds 20 1013 88 10000 5.08 159 13:21 02.10.2022
1570 Clouds 20 1013 89 10000 4.98 161 12:29 02.10.2022
1571 Clouds 20 1013 89 10000 4.98 161 11:39 02.10.2022
1572 Clouds 20 1012 89 10000 4.77 163 10:59 02.10.2022
1573 Clouds 20 1013 89 10000 5.05 174 09:28 02.10.2022
1574 Clouds 20 1013 89 10000 5.19 175 07:41 02.10.2022
1575 Clouds 20 1013 89 10000 5.6 165 02:55 02.10.2022
1576 Clouds 21 1009 83 10000 5.14 170 00:46 02.10.2022
1577 Clouds 21 1009 83 10000 5.14 170 00:21 02.10.2022
1578 Clouds 22 1009 78 10000 5.14 170 22:43 01.10.2022
1579 Clouds 21 1011 83 10000 5.66 170 20:36 01.10.2022
1580 Clouds 19 1012 94 10000 4.63 170 18:40 01.10.2022
1581 Drizzle 18 1011 100 10000 3.09 170 16:36 01.10.2022
1582 Clouds 20 1013 86 10000 6.3 164 14:35 01.10.2022
1583 Clouds 20 1012 87 10000 6.32 167 13:31 01.10.2022
1584 Clouds 20 1012 88 10000 6.27 168 12:32 01.10.2022
1585 Clouds 20 1011 88 10000 6.5 170 11:20 01.10.2022
1586 Clouds 20 1011 88 10000 6.5 170 10:31 01.10.2022
1587 Clouds 20 1012 88 10000 6 176 09:28 01.10.2022
1588 Clouds 20 1012 88 10000 6 176 08:58 01.10.2022
1589 Clouds 20 1013 87 10000 6 173 04:27 01.10.2022
1590 Clouds 20 1013 87 10000 6 173 03:31 01.10.2022
1591 Clouds 21 1009 83 10000 6.69 170 00:18 01.10.2022
1592 Clouds 21 1009 83 10000 8.75 170 22:37 30.09.2022
1593 Clouds 21 1010 88 10000 4.12 160 21:28 30.09.2022
1594 Clouds 22 1011 78 10000 8.23 170 20:44 30.09.2022
1595 Clouds 20 1012 83 10000 6.69 170 19:49 30.09.2022
1596 Clouds 21 1012 83 10000 5.14 180 17:31 30.09.2022
1597 Clouds 20 1015 87 10000 6.55 160 15:56 30.09.2022
1598 Clouds 20 1014 87 10000 6.17 171 13:30 30.09.2022
1599 Clouds 20 1013 87 10000 6.15 176 11:57 30.09.2022
1600 Clouds 20 1013 87 10000 6.05 178 10:30 30.09.2022
1601 Clouds 20 1014 87 10000 5.9 183 08:24 30.09.2022
1602 Clouds 20 1014 86 10000 6.13 179 05:47 30.09.2022
1603 Clouds 20 1013 85 10000 6.56 167 02:31 30.09.2022
1604 Clouds 21 1010 83 10000 5.66 170 22:26 29.09.2022
1605 Clouds 23 1011 73 10000 5.14 180 21:26 29.09.2022
1606 Clouds 22 1013 78 10000 7.72 170 20:35 29.09.2022
1607 Clouds 22 1013 73 10000 5.14 160 18:32 29.09.2022
1608 Clouds 21 1014 83 10000 6.69 170 17:22 29.09.2022
1609 Clouds 19 1014 94 10000 5.14 170 16:28 29.09.2022
1610 Clouds 21 1016 81 10000 5.09 156 15:35 29.09.2022
1611 Clouds 20 1015 82 10000 5.13 158 14:24 29.09.2022
1612 Clouds 20 1014 84 10000 5.34 158 09:45 29.09.2022
1613 Clouds 20 1016 84 10000 5.19 154 06:45 29.09.2022
1614 Clouds 20 1015 83 10000 5.23 159 02:45 29.09.2022
1615 Clouds 21 1011 83 10000 7.2 170 23:54 28.09.2022
1616 Clouds 22 1011 78 10000 7.72 170 22:32 28.09.2022
1617 Clouds 23 1012 73 10000 6.17 170 21:29 28.09.2022
1618 Clouds 22 1013 78 10000 6.17 170 20:20 28.09.2022
1619 Clouds 22 1015 78 10000 5.66 140 18:20 28.09.2022
1620 Clouds 20 1015 79 10000 4.63 154 14:50 28.09.2022
1621 Clouds 20 1014 82 10000 5.69 154 12:40 28.09.2022
1622 Clouds 20 1013 81 10000 4.95 161 10:24 28.09.2022
1623 Clouds 20 1015 82 10000 4.5 167 08:25 28.09.2022
1624 Clouds 20 1015 82 10000 4.66 168 06:45 28.09.2022
1625 Clouds 20 1013 80 10000 4.97 169 01:54 28.09.2022
1626 Clouds 20 1013 80 10000 4.97 169 01:30 28.09.2022
1627 Clouds 22 1011 73 10000 8.23 170 22:54 27.09.2022
1628 Clouds 23 1012 78 10000 7.72 170 21:24 27.09.2022
1629 Clouds 22 1013 73 10000 7.2 180 20:37 27.09.2022
1630 Clouds 21 1014 83 10000 7.2 180 19:47 27.09.2022
1631 Clouds 21 1014 83 10000 5.66 180 18:25 27.09.2022
1632 Clouds 20 1014 88 10000 3.6 170 17:42 27.09.2022
1633 Clouds 20 1015 81 10000 6.07 165 15:27 27.09.2022
1634 Clouds 20 1015 81 10000 6.07 165 14:41 27.09.2022
1635 Clouds 20 1013 84 10000 6.17 168 12:40 27.09.2022
1636 Clouds 20 1013 84 10000 6.17 168 12:40 27.09.2022
1637 Clouds 20 1012 83 10000 6.13 171 10:53 27.09.2022
1638 Clouds 20 1013 83 10000 5.49 171 08:46 27.09.2022
1639 Clouds 20 1014 83 10000 6.48 169 05:49 27.09.2022
1640 Clouds 20 1009 88 10000 6.69 170 01:43 27.09.2022
1641 Clouds 21 1009 83 10000 6.17 170 00:50 27.09.2022
1642 Clouds 22 1009 78 10000 7.2 180 23:25 26.09.2022
1643 Clouds 22 1010 78 10000 5.66 170 22:19 26.09.2022
1644 Clouds 23 1012 73 10000 7.2 170 20:27 26.09.2022
1645 Clouds 23 1012 73 10000 5.14 180 19:24 26.09.2022
1646 Clouds 22 1012 83 10000 6.69 170 18:30 26.09.2022
1647 Clouds 18 1011 100 10000 4.63 170 15:49 26.09.2022
1648 Clouds 20 1012 85 10000 5.76 177 13:25 26.09.2022
1649 Clouds 20 1012 84 10000 6.39 175 11:28 26.09.2022
1650 Clouds 20 1012 84 10000 6.39 175 10:36 26.09.2022
1651 Clouds 20 1012 85 10000 6.61 175 10:18 26.09.2022
1652 Clouds 20 1012 85 10000 6.61 175 09:52 26.09.2022
1653 Clouds 20 1012 86 10000 6.92 176 09:22 26.09.2022
1654 Clouds 20 1014 88 10000 6.62 171 06:21 26.09.2022
1655 Clouds 20 1012 88 10000 6.63 170 02:41 26.09.2022
1656 Clouds 21 1009 88 10000 7.72 180 23:26 25.09.2022
1657 Clouds 20 1010 94 10000 5.14 160 21:48 25.09.2022
1658 Clouds 20 1010 94 10000 5.14 160 21:25 25.09.2022
1659 Clouds 21 1011 88 10000 5.14 180 20:37 25.09.2022
1660 Clouds 20 1012 94 10000 7.2 160 19:25 25.09.2022
1661 Clouds 20 1012 94 10000 5.66 170 18:29 25.09.2022
1662 Clouds 20 1012 94 10000 5.66 170 18:29 25.09.2022
1663 Clouds 19 1013 94 10000 6.17 180 17:29 25.09.2022
1664 Clouds 19 1012 94 10000 5.14 140 16:21 25.09.2022
1665 Clouds 20 1014 89 10000 7.04 166 14:55 25.09.2022
1666 Clouds 20 1013 87 10000 7.07 165 14:19 25.09.2022
1667 Clouds 20 1012 86 10000 6.97 167 11:35 25.09.2022
1668 Clouds 20 1012 88 10000 7.25 169 09:48 25.09.2022
1669 Clouds 20 1013 87 10000 7 169 07:43 25.09.2022
1670 Clouds 20 1014 87 10000 6.82 166 05:25 25.09.2022
1671 Clouds 22 1010 83 10000 6.69 170 23:37 24.09.2022
1672 Clouds 22 1010 83 10000 6.69 170 23:37 24.09.2022
1673 Clouds 23 1011 73 10000 7.2 180 21:25 24.09.2022
1674 Clouds 22 1013 78 10000 8.23 170 20:32 24.09.2022
1675 Clouds 22 1014 78 10000 5.66 180 19:20 24.09.2022
1676 Clouds 19 1014 94 10000 4.12 70 16:56 24.09.2022
1677 Clouds 20 1015 87 10000 6.13 154 15:29 24.09.2022
1678 Clouds 20 1015 87 10000 6.13 154 14:37 24.09.2022
1679 Clouds 20 1014 87 10000 5.71 155 13:22 24.09.2022
1680 Clouds 20 1013 87 10000 5.68 156 12:25 24.09.2022
1681 Clouds 20 1013 87 10000 5.5 161 09:59 24.09.2022
1682 Clouds 20 1013 87 10000 5.69 163 08:58 24.09.2022
1683 Clouds 20 1014 86 10000 5.62 163 07:41 24.09.2022
1684 Clouds 20 1014 86 10000 5.58 162 04:55 24.09.2022
1685 Clouds 20 1014 86 10000 5.65 164 04:21 24.09.2022
1686 Clouds 22 1010 83 10000 7.2 190 22:58 23.09.2022
1687 Clouds 23 1012 73 10000 5.66 150 21:37 23.09.2022
1688 Clouds 23 1012 73 10000 5.66 150 21:19 23.09.2022
1689 Clouds 23 1013 73 10000 6.17 150 20:43 23.09.2022
1690 Clouds 22 1013 73 10000 6.69 170 19:19 23.09.2022
1691 Clouds 19 1014 94 10000 3.6 170 16:23 23.09.2022
1692 Clouds 20 1013 88 10000 5.52 153 12:52 23.09.2022
1693 Clouds 20 1012 88 10000 5.49 155 09:36 23.09.2022
1694 Clouds 20 1014 87 10000 6.18 153 06:51 23.09.2022
1695 Clouds 21 1009 83 10000 4.63 170 00:44 23.09.2022
1696 Clouds 22 1010 78 10000 5.14 180 23:28 22.09.2022
1697 Clouds 21 1010 88 10000 4.63 170 22:27 22.09.2022
1698 Clouds 22 1011 83 10000 4.63 170 21:23 22.09.2022
1699 Clouds 23 1013 73 10000 6.69 130 19:58 22.09.2022
1700 Clouds 22 1013 78 10000 5.14 180 18:30 22.09.2022
1701 Clouds 20 1015 87 10000 6.27 157 14:48 22.09.2022
1702 Clouds 20 1013 87 10000 5.25 157 10:38 22.09.2022
1703 Rain 20 1013 87 10000 5.01 159 10:18 22.09.2022
1704 Clouds 20 1014 85 10000 5.55 157 07:36 22.09.2022
1705 Clouds 20 1015 84 10000 6.08 158 04:37 22.09.2022
1706 Clouds 22 1010 78 10000 5.14 160 23:33 21.09.2022
1707 Clouds 23 1012 78 10000 6.17 170 21:52 21.09.2022
1708 Clouds 22 1013 83 10000 6.69 150 20:53 21.09.2022
1709 Clouds 22 1013 83 10000 5.66 160 17:55 21.09.2022
1710 Clouds 22 1013 83 10000 5.66 160 17:21 21.09.2022
1711 Clouds 19 1015 82 10000 6.85 161 15:18 21.09.2022
1712 Clouds 19 1015 82 10000 7.1 164 13:38 21.09.2022
1713 Clouds 19 1014 82 10000 6.83 165 11:34 21.09.2022
1714 Clouds 19 1014 83 10000 6.37 164 10:50 21.09.2022
1715 Clouds 19 1013 83 10000 6.42 171 09:38 21.09.2022
1716 Clouds 19 1015 85 10000 6.02 172 08:23 21.09.2022
1717 Clouds 20 1015 84 10000 5.78 166 02:51 21.09.2022
1718 Clouds 20 1015 84 10000 5.78 166 02:32 21.09.2022
1719 Clouds 20 1014 83 10000 5.89 170 01:49 21.09.2022
1720 Clouds 22 1011 83 10000 5.14 170 23:19 20.09.2022
1721 Clouds 24 1012 73 10000 6.69 160 21:33 20.09.2022
1722 Clouds 23 1015 78 10000 7.72 140 19:57 20.09.2022
1723 Clouds 22 1015 78 10000 5.14 130 17:38 20.09.2022
1724 Clouds 20 1016 83 10000 6.81 166 14:53 20.09.2022
1725 Clouds 20 1015 77 10000 6.85 165 13:52 20.09.2022
1726 Clouds 20 1014 80 10000 6.31 168 10:41 20.09.2022
1727 Clouds 20 1015 78 10000 5.71 166 08:29 20.09.2022
1728 Clouds 20 1016 82 10000 5.19 164 06:22 20.09.2022
1729 Clouds 20 1015 83 10000 6.03 168 04:28 20.09.2022
1730 Clouds 22 1011 78 10000 5.14 160 23:32 19.09.2022
1731 Clouds 23 1012 73 10000 4.12 160 22:28 19.09.2022
1732 Clouds 22 1013 78 10000 5.14 170 20:58 19.09.2022
1733 Clouds 22 1013 78 10000 5.14 170 20:39 19.09.2022
1734 Clouds 21 1015 83 10000 4.63 180 17:55 19.09.2022
1735 Clouds 20 1016 85 10000 5.48 162 15:53 19.09.2022
1736 Clouds 19 1015 87 10000 4.56 158 13:35 19.09.2022
1737 Clouds 19 1013 85 10000 3.99 158 11:29 19.09.2022
1738 Clouds 19 1014 84 10000 3.86 165 08:51 19.09.2022
1739 Clouds 19 1015 84 10000 3.85 178 08:18 19.09.2022
1740 Clouds 20 1013 82 10000 4.9 174 01:58 19.09.2022
1741 Clouds 23 1011 73 10000 5.14 180 23:24 18.09.2022
1742 Clouds 24 1012 69 10000 5.14 170 21:45 18.09.2022
1743 Clouds 23 1013 73 10000 6.17 150 20:33 18.09.2022
1744 Clouds 22 1014 73 10000 4.12 170 18:34 18.09.2022
1745 Clouds 21 1014 78 10000 5.14 140 17:39 18.09.2022
1746 Clouds 20 1015 79 10000 6.19 167 15:53 18.09.2022
1747 Clouds 20 1014 81 10000 5.34 172 14:23 18.09.2022
1748 Clouds 20 1013 82 10000 4.63 172 12:35 18.09.2022
1749 Clouds 19 1013 84 10000 4.04 178 11:24 18.09.2022
1750 Clouds 20 1015 82 10000 4.25 172 04:28 18.09.2022
1751 Clouds 20 1012 81 10000 4.96 174 01:26 18.09.2022
1752 Clouds 22 1011 73 10000 5.14 160 00:24 18.09.2022
1753 Clouds 22 1012 73 10000 4.12 140 21:44 17.09.2022
1754 Clouds 21 1014 78 10000 3.6 170 19:44 17.09.2022
1755 Clouds 21 1015 78 10000 4.12 180 18:59 17.09.2022
1756 Clouds 20 1013 83 10000 3.09 170 16:22 17.09.2022
1757 Clouds 19 1014 85 10000 5 157 13:56 17.09.2022
1758 Clouds 19 1013 84 10000 4.41 159 11:31 17.09.2022
1759 Clear 19 1014 81 10000 4.39 164 09:27 17.09.2022
1760 Clear 19 1015 80 10000 4.51 165 06:25 17.09.2022
1761 Clouds 19 1013 80 10000 5.77 166 01:51 17.09.2022
1762 Clouds 23 1011 73 10000 7.2 160 22:54 16.09.2022
1763 Clouds 23 1013 73 10000 5.14 170 21:23 16.09.2022
1764 Clouds 22 1014 78 10000 5.14 180 19:51 16.09.2022
1765 Clouds 20 1014 83 10000 3.09 160 16:56 16.09.2022
1766 Clouds 19 1016 77 10000 5.19 178 15:26 16.09.2022
1767 Clouds 19 1015 80 10000 5.22 174 13:57 16.09.2022
1768 Clouds 19 1014 80 10000 5.65 175 11:42 16.09.2022
1769 Clouds 19 1015 79 10000 6.16 180 08:26 16.09.2022
1770 Clouds 19 1016 79 10000 6.39 181 07:19 16.09.2022
1771 Clouds 19 1016 79 10000 6.39 181 06:47 16.09.2022
1772 Clouds 20 1014 78 10000 5.91 180 02:40 16.09.2022
1773 Clouds 22 1012 73 10000 6.17 170 22:52 15.09.2022
1774 Clouds 22 1014 78 10000 6.69 160 20:57 15.09.2022
1775 Clouds 21 1014 88 10000 6.17 180 19:48 15.09.2022
1776 Drizzle 20 1014 88 10000 6.69 170 18:29 15.09.2022
1777 Clouds 20 1014 88 10000 4.12 180 17:31 15.09.2022
1778 Clouds 19 1014 88 10000 3.09 180 16:42 15.09.2022
1779 Clouds 19 1015 80 10000 5.38 177 14:30 15.09.2022
1780 Clouds 19 1013 78 10000 5.03 172 12:20 15.09.2022
1781 Clouds 20 1013 80 10000 5.65 170 09:53 15.09.2022
1782 Clouds 20 1015 80 10000 5.77 165 07:50 15.09.2022
1783 Clouds 20 1014 82 10000 6.12 161 03:52 15.09.2022
1784 Clouds 21 1011 78 10000 7.72 140 23:44 14.09.2022
1785 Clouds 22 1012 78 10000 6.69 160 21:30 14.09.2022
1786 Clouds 23 1013 73 10000 7.2 130 19:34 14.09.2022
1787 Clouds 22 1014 83 10000 6.69 140 18:32 14.09.2022
1788 Drizzle 19 1013 94 10000 7.2 130 16:44 14.09.2022
1789 Clouds 20 1015 83 10000 6.51 161 15:34 14.09.2022
1790 Clouds 20 1013 85 10000 6.92 165 13:36 14.09.2022
1791 Clouds 20 1012 86 10000 6.16 163 10:52 14.09.2022
1792 Clouds 20 1012 85 10000 5.96 163 09:41 14.09.2022
1793 Clouds 20 1014 84 10000 5.91 157 06:51 14.09.2022
1794 Clouds 20 1014 84 10000 5.91 157 06:33 14.09.2022
1795 Clouds 20 1014 84 10000 5.47 163 03:55 14.09.2022
1796 Clouds 20 1012 84 10000 6.45 165 01:43 14.09.2022
1797 Clouds 20 1012 84 10000 6.52 166 01:20 14.09.2022
1798 Clouds 22 1011 78 10000 4.12 170 23:55 13.09.2022
1799 Clouds 22 1011 78 10000 4.12 170 23:37 13.09.2022
1800 Clouds 22 1011 78 10000 4.12 170 23:19 13.09.2022
1801 Clouds 20 1012 84 10000 6.23 171 22:43 13.09.2022
1802 Clouds 22 1012 78 10000 6.17 160 21:42 13.09.2022
1803 Clouds 22 1014 83 10000 6.69 140 19:32 13.09.2022
1804 Clouds 20 1014 94 10000 4.63 140 17:33 13.09.2022
1805 Clouds 20 1016 86 10000 6.33 160 15:53 13.09.2022
1806 Clouds 20 1014 87 10000 6.95 159 13:54 13.09.2022
1807 Clouds 20 1013 87 10000 6.47 161 12:28 13.09.2022
1808 Clouds 20 1014 88 10000 5.53 162 08:32 13.09.2022
1809 Clouds 20 1015 86 10000 5.91 160 04:24 13.09.2022
1810 Clouds 21 1011 83 10000 6.69 160 23:23 12.09.2022
1811 Clouds 22 1011 78 10000 7.72 140 22:46 12.09.2022
1812 Clouds 22 1012 78 10000 7.2 160 21:35 12.09.2022
1813 Clouds 22 1013 78 10000 5.14 160 20:24 12.09.2022
1814 Drizzle 21 1014 88 10000 5.14 140 18:42 12.09.2022
1815 Clouds 20 1014 88 10000 6.69 130 16:20 12.09.2022
1816 Clouds 20 1015 82 10000 6.29 157 13:24 12.09.2022
1817 Clouds 20 1014 81 10000 5.91 155 10:56 12.09.2022
1818 Clouds 20 1014 80 10000 6.5 162 09:33 12.09.2022
1819 Clouds 20 1017 79 10000 6.27 165 04:45 12.09.2022
1820 Clouds 20 1016 78 10000 5.72 156 03:25 12.09.2022
1821 Clouds 22 1013 73 10000 4.12 180 23:18 11.09.2022
1822 Clouds 23 1015 73 10000 4.12 180 21:41 11.09.2022
1823 Clouds 22 1015 73 10000 4.12 170 20:45 11.09.2022
1824 Clouds 22 1016 73 10000 6.17 150 19:46 11.09.2022
1825 Clouds 22 1016 73 10000 6.17 150 19:22 11.09.2022
1826 Clouds 21 1016 78 10000 4.12 170 17:57 11.09.2022
1827 Clouds 20 1016 83 10000 5.66 160 16:23 11.09.2022
1828 Clouds 20 1016 78 10000 5.84 154 14:18 11.09.2022
1829 Clouds 20 1015 78 10000 5.69 154 12:31 11.09.2022
1830 Clouds 20 1016 78 10000 6.15 156 08:25 11.09.2022
1831 Clouds 20 1017 78 10000 6.19 157 05:56 11.09.2022
1832 Clouds 21 1011 83 10000 3.6 170 00:49 11.09.2022
1833 Clouds 21 1012 78 10000 4.12 160 22:26 10.09.2022
1834 Clouds 22 1014 73 10000 4.12 160 20:51 10.09.2022
1835 Clouds 23 1014 68 10000 4.63 130 19:45 10.09.2022
1836 Clouds 23 1014 68 10000 4.63 130 19:27 10.09.2022
1837 Clouds 21 1015 83 10000 3.6 120 17:53 10.09.2022
1838 Clouds 20 1016 80 10000 6.84 152 15:44 10.09.2022
1839 Clouds 20 1015 79 10000 6.63 153 14:34 10.09.2022
1840 Clouds 20 1013 81 10000 7.02 157 12:52 10.09.2022
1841 Clouds 20 1013 79 10000 6.76 166 10:34 10.09.2022
1842 Clouds 20 1013 79 10000 6.71 169 08:42 10.09.2022
1843 Clouds 20 1014 79 10000 6.83 166 08:22 10.09.2022
1844 Clouds 20 1014 80 10000 7.19 160 04:55 10.09.2022
1845 Clouds 21 1008 83 10000 6.69 180 23:38 09.09.2022
1846 Clouds 21 1008 83 10000 6.69 180 23:19 09.09.2022
1847 Clouds 23 1011 73 10000 5.14 160 21:21 09.09.2022
1848 Clouds 23 1011 78 10000 6.69 140 20:22 09.09.2022
1849 Rain 22 1012 78 10000 7.2 170 19:23 09.09.2022
1850 Clouds 21 1015 83 10000 3.6 140 17:50 09.09.2022
1851 Clouds 20 1014 83 10000 8.19 165 15:23 09.09.2022
1852 Clouds 20 1013 83 10000 7.34 164 13:33 09.09.2022
1853 Clouds 20 1011 83 10000 7.15 164 11:27 09.09.2022
1854 Clouds 20 1013 83 10000 6.79 161 07:58 09.09.2022
1855 Clouds 20 1013 84 10000 6.99 158 03:39 09.09.2022
1856 Clouds 21 1009 88 10000 6.69 170 00:21 09.09.2022
1857 Clouds 23 1011 78 10000 9.26 160 21:52 08.09.2022
1858 Clouds 23 1012 78 10000 8.75 180 20:49 08.09.2022
1859 Clouds 23 1012 78 10000 8.75 180 20:49 08.09.2022
1860 Clouds 23 1012 78 10000 8.75 180 20:27 08.09.2022
1861 Clouds 23 1012 73 10000 8.75 170 19:18 08.09.2022
1862 Clouds 21 1014 88 10000 6.69 160 17:25 08.09.2022
1863 Clouds 20 1015 85 10000 8.39 161 15:35 08.09.2022
1864 Clouds 20 1014 85 10000 7.9 165 13:30 08.09.2022
1865 Clouds 20 1014 85 10000 7.79 166 12:41 08.09.2022
1866 Clouds 20 1013 85 10000 7.85 169 11:23 08.09.2022
1867 Clouds 20 1013 85 10000 8.46 175 09:35 08.09.2022
1868 Clouds 20 1015 86 10000 8.86 176 07:18 08.09.2022
1869 Clouds 20 1015 86 10000 8.67 182 03:37 08.09.2022
1870 Clouds 21 1014 86 10000 8.48 182 02:36 08.09.2022
1871 Clouds 21 1014 87 10000 7.72 179 02:18 08.09.2022
1872 Clouds 22 1013 83 10000 7.2 160 22:58 07.09.2022
1873 Drizzle 21 1014 94 8000 4.12 170 21:45 07.09.2022
1874 Drizzle 21 1014 94 8000 4.12 170 21:21 07.09.2022
1875 Drizzle 21 1015 94 8000 6.69 160 20:25 07.09.2022
1876 Drizzle 21 1016 94 10000 5.66 180 18:54 07.09.2022
1877 Clouds 21 1017 88 10000 8.11 181 15:51 07.09.2022
1878 Clouds 20 1015 89 10000 7.36 191 10:52 07.09.2022
1879 Clouds 20 1015 89 10000 7.36 191 10:32 07.09.2022
1880 Clouds 21 1016 90 10000 6.94 192 08:23 07.09.2022
1881 Clouds 21 1017 90 10000 6.99 193 05:33 07.09.2022
1882 Clouds 23 1011 83 10000 4.12 170 00:27 07.09.2022
1883 Clouds 24 1012 78 10000 6.69 180 21:48 06.09.2022
1884 Clouds 24 1012 78 10000 6.69 180 21:30 06.09.2022
1885 Clouds 23 1014 83 10000 6.17 180 19:27 06.09.2022
1886 Clouds 23 1014 83 10000 4.63 140 18:29 06.09.2022
1887 Clouds 22 1014 88 10000 5.14 160 17:23 06.09.2022
1888 Clouds 22 1014 88 10000 4.12 140 16:41 06.09.2022
1889 Clouds 21 1015 90 10000 4.05 144 15:26 06.09.2022
1890 Clouds 21 1014 88 10000 3.48 143 13:47 06.09.2022
1891 Clouds 21 1013 88 10000 3.53 136 13:26 06.09.2022
1892 Clouds 21 1013 88 10000 3.53 136 12:40 06.09.2022
1893 Clouds 21 1012 88 10000 4.07 145 10:52 06.09.2022
1894 Clouds 21 1013 88 10000 4.15 143 08:56 06.09.2022
1895 Clouds 21 1014 88 10000 4.43 143 07:52 06.09.2022
1896 Clouds 21 1014 88 10000 4.22 154 04:48 06.09.2022
1897 Clouds 24 1010 78 10000 5.14 180 23:52 05.09.2022
1898 Clouds 24 1010 73 10000 4.12 170 22:40 05.09.2022
1899 Clouds 24 1012 78 10000 6.69 160 20:58 05.09.2022
1900 Clouds 24 1013 78 10000 3.6 180 19:50 05.09.2022
1901 Drizzle 23 1013 83 5000 4.12 160 18:49 05.09.2022
1902 Drizzle 23 1013 83 5000 4.12 160 18:22 05.09.2022
1903 Clouds 23 1013 83 10000 4.63 170 17:30 05.09.2022
1904 Clouds 21 1015 91 10000 5.2 160 15:52 05.09.2022
1905 Clouds 21 1012 91 10000 4.76 175 13:27 05.09.2022
1906 Clouds 21 1012 91 10000 4.71 175 12:28 05.09.2022
1907 Clouds 21 1012 92 10000 5.39 179 10:24 05.09.2022
1908 Clouds 21 1013 92 10000 5.03 178 06:46 05.09.2022
1909 Clouds 21 1012 87 10000 4.43 177 02:42 05.09.2022
1910 Clouds 24 1008 78 10000 6.17 170 23:26 04.09.2022
1911 Clouds 23 1009 83 10000 4.12 100 22:27 04.09.2022
1912 Clouds 24 1010 73 10000 6.69 180 21:31 04.09.2022
1913 Rain 22 1012 88 10000 4.12 190 19:38 04.09.2022
1914 Clouds 21 1014 87 10000 4.75 168 18:19 04.09.2022
1915 Drizzle 20 1012 94 8000 4.12 160 16:44 04.09.2022
1916 Clouds 21 1013 86 10000 4.7 173 14:30 04.09.2022
1917 Clouds 21 1012 85 10000 4.66 166 13:28 04.09.2022
1918 Clouds 20 1012 86 10000 4.69 169 11:54 04.09.2022
1919 Clouds 20 1011 86 10000 4.69 168 10:47 04.09.2022
1920 Clouds 21 1013 86 10000 4.49 169 08:20 04.09.2022
1921 Clouds 21 1014 86 10000 5.24 172 05:19 04.09.2022
1922 Drizzle 21 1009 94 8000 5.14 120 00:47 04.09.2022
1923 Drizzle 22 1009 83 8000 5.14 190 22:22 03.09.2022
1924 Drizzle 22 1010 83 10000 4.63 180 21:23 03.09.2022
1925 Clouds 22 1011 83 10000 5.14 120 19:39 03.09.2022
1926 Clouds 21 1011 88 10000 5.14 130 17:26 03.09.2022
1927 Clouds 20 1011 88 10000 4.12 120 16:27 03.09.2022
1928 Clouds 20 1014 84 10000 4.19 174 14:45 03.09.2022
1929 Clouds 20 1013 83 10000 3.99 169 13:58 03.09.2022
1930 Clouds 20 1012 82 10000 3.77 167 12:19 03.09.2022
1931 Clouds 20 1012 80 10000 3.62 163 10:27 03.09.2022
1932 Clouds 20 1013 80 10000 4.12 160 08:27 03.09.2022
1933 Clouds 20 1014 80 10000 4.29 155 06:53 03.09.2022
1934 Clouds 20 1013 80 10000 5.1 157 04:31 03.09.2022
1935 Drizzle 23 1009 78 10000 6.17 130 23:49 02.09.2022
1936 Clouds 24 1009 69 10000 5.14 150 22:39 02.09.2022
1937 Drizzle 23 1011 78 10000 6.17 130 20:59 02.09.2022
1938 Drizzle 23 1011 78 10000 6.17 130 20:27 02.09.2022
1939 Clouds 23 1012 78 10000 7.2 130 18:59 02.09.2022
1940 Clouds 23 1012 78 10000 7.2 130 18:27 02.09.2022
1941 Clouds 21 1012 88 10000 4.12 130 17:36 02.09.2022
1942 Clouds 20 1011 94 10000 5.14 120 16:45 02.09.2022
1943 Clouds 20 1013 84 10000 5.43 170 13:51 02.09.2022
1944 Clouds 20 1012 85 10000 5.28 173 11:47 02.09.2022
1945 Clouds 20 1011 85 10000 5.16 171 09:50 02.09.2022
1946 Clouds 20 1012 85 10000 5.2 169 08:56 02.09.2022
1947 Clouds 21 1013 83 10000 4.91 158 07:24 02.09.2022
1948 Clouds 21 1013 83 10000 4.91 158 06:35 02.09.2022
1949 Clouds 21 1011 83 10000 5.35 152 02:37 02.09.2022
1950 Drizzle 22 1010 83 10000 5.66 140 22:26 01.09.2022
1951 Clouds 24 1011 73 10000 6.17 180 21:40 01.09.2022
1952 Clouds 24 1011 73 10000 6.17 180 21:21 01.09.2022
1953 Clouds 24 1012 73 10000 6.17 120 20:37 01.09.2022
1954 Clouds 22 1013 83 10000 5.14 180 18:38 01.09.2022
1955 Clouds 21 1012 94 10000 5.14 180 16:58 01.09.2022
1956 Clouds 21 1014 84 10000 7.02 159 15:29 01.09.2022
1957 Clouds 20 1013 84 10000 6.82 158 13:44 01.09.2022
1958 Clouds 20 1012 84 10000 6.66 160 12:56 01.09.2022
1959 Clouds 20 1012 85 10000 6.42 162 11:51 01.09.2022
1960 Clouds 20 1012 84 10000 6.24 165 11:22 01.09.2022
1961 Clouds 21 1013 84 10000 6.03 168 09:49 01.09.2022
1962 Clouds 21 1015 85 10000 5.5 169 07:50 01.09.2022
1963 Clouds 21 1015 85 10000 4.94 167 05:56 01.09.2022
1964 Clouds 21 1013 82 10000 5.15 169 01:31 01.09.2022
1965 Clouds 24 1011 73 10000 4.63 120 22:56 31.08.2022
1966 Clouds 23 1013 78 10000 4.63 150 20:45 31.08.2022
1967 Clouds 21 1014 94 10000 5.14 130 18:47 31.08.2022
1968 Clouds 21 1014 94 10000 4.12 120 16:47 31.08.2022
1969 Clouds 20 1015 83 10000 5.75 160 15:25 31.08.2022
1970 Clouds 20 1015 83 10000 5.27 159 13:37 31.08.2022
1971 Clouds 20 1014 82 10000 5.84 161 11:55 31.08.2022
1972 Clouds 20 1014 82 10000 5.77 169 09:36 31.08.2022
1973 Clouds 21 1015 81 10000 5.97 169 08:26 31.08.2022
1974 Clouds 21 1014 82 10000 5.59 169 02:58 31.08.2022
1975 Drizzle 23 1013 83 8000 4.63 140 22:24 30.08.2022
1976 Clouds 23 1012 83 10000 6.17 150 21:28 30.08.2022
1977 Drizzle 22 1014 88 4000 4.63 150 20:26 30.08.2022
1978 Clouds 22 1014 83 10000 4.12 190 16:58 30.08.2022
1979 Clouds 20 1014 81 10000 4.24 152 13:51 30.08.2022
1980 Clouds 20 1013 80 10000 4.55 154 11:58 30.08.2022
1981 Clouds 20 1013 82 10000 4.88 156 11:20 30.08.2022
1982 Clouds 20 1013 83 10000 5.1 157 09:33 30.08.2022
1983 Clouds 21 1015 82 10000 6.04 166 06:26 30.08.2022
1984 Drizzle 22 1010 83 10000 4.63 170 00:33 30.08.2022
1985 Drizzle 22 1011 88 10000 4.63 150 22:37 29.08.2022
1986 Clouds 24 1012 78 10000 4.63 200 21:51 29.08.2022
1987 Clouds 23 1013 78 10000 5.14 210 20:35 29.08.2022
1988 Clouds 22 1013 78 10000 5.14 180 18:58 29.08.2022
1989 Clouds 22 1013 83 10000 4.63 180 17:32 29.08.2022
1990 Clouds 21 1012 88 10000 4.12 150 16:57 29.08.2022
1991 Clouds 21 1014 74 10000 3.38 147 15:18 29.08.2022
1992 Clouds 21 1013 76 10000 3.39 148 13:40 29.08.2022
1993 Clouds 21 1012 77 10000 3.27 169 11:44 29.08.2022
1994 Clouds 21 1012 78 10000 3.64 176 10:42 29.08.2022
1995 Clouds 21 1013 78 10000 4.22 172 08:53 29.08.2022
1996 Clouds 21 1014 81 10000 5.34 179 06:29 29.08.2022
1997 Clouds 20 1012 82 10000 5.42 168 01:58 29.08.2022
1998 Clouds 23 1011 73 10000 5.66 180 22:55 28.08.2022
1999 Clouds 23 1011 73 10000 4.63 160 21:46 28.08.2022
2000 Clouds 23 1011 78 10000 6.17 170 20:59 28.08.2022
2001 Clouds 23 1012 73 10000 4.12 130 19:59 28.08.2022
2002 Clouds 23 1012 73 10000 6.17 140 18:22 28.08.2022
2003 Clouds 22 1012 73 10000 5.66 150 17:45 28.08.2022
2004 Clouds 22 1012 78 10000 3.6 210 16:33 28.08.2022
2005 Clouds 20 1014 83 10000 5.91 170 14:46 28.08.2022
2006 Clouds 20 1013 83 10000 6.36 175 12:56 28.08.2022
2007 Clouds 20 1012 85 10000 6.2 183 11:19 28.08.2022
2008 Clouds 20 1012 85 10000 5.4 185 09:57 28.08.2022
2009 Clouds 20 1013 84 10000 5.75 184 08:39 28.08.2022
2010 Clouds 20 1014 83 10000 5.41 184 07:48 28.08.2022
2011 Clouds 21 1014 79 10000 2.89 185 03:44 28.08.2022
2012 Clouds 22 1010 78 10000 3.6 210 00:33 28.08.2022
2013 Clouds 23 1011 73 10000 4.63 140 22:41 27.08.2022
2014 Clouds 23 1013 73 10000 4.12 130 21:58 27.08.2022
2015 Clouds 23 1013 73 10000 4.12 140 20:19 27.08.2022
2016 Clouds 23 1014 73 10000 6.69 180 18:41 27.08.2022
2017 Clouds 20 1016 80 10000 6.32 179 15:53 27.08.2022
2018 Clouds 20 1015 81 10000 6.04 180 15:25 27.08.2022
2019 Clouds 20 1014 80 10000 5.58 184 12:31 27.08.2022
2020 Clouds 20 1014 80 10000 5.74 187 11:47 27.08.2022
2021 Clouds 20 1014 80 10000 5.24 192 09:50 27.08.2022
2022 Clouds 20 1015 80 10000 5.35 194 08:45 27.08.2022
2023 Clouds 20 1016 81 10000 5.64 179 03:58 27.08.2022
2024 Clouds 22 1012 78 10000 5.14 170 23:58 26.08.2022
2025 Clouds 22 1012 78 10000 5.14 170 23:23 26.08.2022
2026 Clouds 22 1012 78 10000 5.14 210 21:39 26.08.2022
2027 Clouds 23 1014 73 10000 4.63 190 19:23 26.08.2022
2028 Drizzle 20 1014 94 6000 4.63 170 17:25 26.08.2022
2029 Clouds 20 1016 79 10000 5.02 167 15:35 26.08.2022
2030 Clouds 20 1015 79 10000 4.54 162 14:34 26.08.2022
2031 Clouds 21 1014 78 10000 3.9 153 12:51 26.08.2022
2032 Clouds 20 1014 81 10000 4.1 151 11:33 26.08.2022
2033 Clouds 20 1013 82 10000 4.2 153 10:46 26.08.2022
2034 Clouds 21 1016 82 10000 4.48 144 07:31 26.08.2022
2035 Clouds 21 1015 84 10000 5.08 148 02:31 26.08.2022
2036 Drizzle 22 1012 83 10000 5.14 180 23:44 25.08.2022
2037 Clouds 23 1013 73 10000 6.17 170 21:37 25.08.2022
2038 Clouds 22 1014 83 10000 6.17 190 20:50 25.08.2022
2039 Clouds 23 1015 73 10000 6.69 150 19:20 25.08.2022
2040 Clouds 22 1014 78 10000 5.66 130 17:59 25.08.2022
2041 Clouds 22 1014 78 10000 5.66 130 17:31 25.08.2022
2042 Clear 21 1016 80 10000 4.59 133 15:43 25.08.2022
2043 Clear 20 1015 80 10000 4.5 134 15:25 25.08.2022
2044 Clouds 20 1013 80 10000 4.55 157 11:55 25.08.2022
2045 Clouds 20 1013 80 10000 4.49 154 10:48 25.08.2022
2046 Clouds 20 1014 78 10000 4.66 154 08:54 25.08.2022
2047 Clouds 20 1015 76 10000 4.34 156 05:24 25.08.2022
2048 Clouds 20 1013 79 10000 5 158 01:37 25.08.2022
2049 Clouds 23 1011 64 10000 6.17 140 23:26 24.08.2022
2050 Clouds 22 1012 68 10000 3.6 140 22:22 24.08.2022
2051 Clouds 23 1013 68 10000 3.6 150 21:35 24.08.2022
2052 Clouds 22 1014 73 10000 3.09 190 20:32 24.08.2022
2053 Clouds 21 1014 83 10000 3.6 180 18:57 24.08.2022
2054 Clouds 20 1016 82 10000 5.39 165 16:36 24.08.2022
2055 Clouds 20 1015 82 10000 5.14 172 15:52 24.08.2022
2056 Clouds 20 1014 80 10000 4.83 185 13:33 24.08.2022
2057 Clouds 20 1012 83 10000 4.92 190 11:29 24.08.2022
2058 Clouds 20 1013 84 10000 5.07 188 09:33 24.08.2022
2059 Clouds 20 1014 84 10000 4.37 182 07:50 24.08.2022
2060 Clouds 20 1012 81 10000 4.07 181 02:29 24.08.2022
2061 Clouds 22 1009 78 10000 6.17 130 23:26 23.08.2022
2062 Clouds 22 1010 78 10000 6.69 170 22:30 23.08.2022
2063 Clouds 22 1011 78 10000 7.2 160 21:28 23.08.2022
2064 Clouds 22 1012 83 10000 3.6 150 19:57 23.08.2022
2065 Drizzle 20 1013 94 8000 4.12 160 18:33 23.08.2022
2066 Drizzle 20 1013 94 10000 3.6 150 17:47 23.08.2022
2067 Drizzle 19 1012 94 10000 4.12 130 16:50 23.08.2022
2068 Clouds 20 1014 85 10000 5.24 165 15:23 23.08.2022
2069 Clouds 20 1013 86 10000 6.35 174 13:26 23.08.2022
2070 Clouds 20 1012 86 10000 5.49 172 11:24 23.08.2022
2071 Clouds 20 1012 86 10000 5.49 172 10:35 23.08.2022
2072 Clouds 20 1013 86 10000 5.01 171 09:47 23.08.2022
2073 Clouds 20 1013 86 10000 4.73 169 08:49 23.08.2022
2074 Clouds 20 1014 86 10000 4.74 171 08:20 23.08.2022
2075 Clouds 20 1014 86 10000 4.77 172 07:34 23.08.2022
2076 Clouds 20 1014 86 10000 4.86 171 06:27 23.08.2022
2077 Clouds 21 1012 85 10000 4.87 175 02:28 23.08.2022
2078 Clouds 22 1010 78 10000 7.2 160 00:27 23.08.2022
2079 Clouds 23 1010 73 10000 6.17 140 23:33 22.08.2022
2080 Clouds 23 1010 73 10000 7.72 160 22:32 22.08.2022
2081 Clouds 23 1011 78 10000 7.72 160 21:22 22.08.2022
2082 Clouds 22 1012 78 10000 6.17 160 19:47 22.08.2022
2083 Drizzle 21 1012 88 10000 4.12 170 18:38 22.08.2022
2084 Clouds 20 1012 94 10000 5.14 160 16:31 22.08.2022
2085 Clouds 21 1014 86 10000 5.8 159 15:38 22.08.2022
2086 Clouds 20 1013 88 10000 6.16 161 13:44 22.08.2022
2087 Clouds 21 1012 87 10000 4.73 168 10:26 22.08.2022
2088 Clouds 21 1014 85 10000 4.48 164 07:41 22.08.2022
2089 Clouds 21 1013 85 10000 4.7 151 02:56 22.08.2022
2090 Clouds 22 1011 78 10000 4.12 160 00:37 22.08.2022
2091 Clouds 23 1011 73 10000 4.63 150 23:58 21.08.2022
2092 Clouds 24 1012 73 10000 6.17 140 21:57 21.08.2022
2093 Clouds 24 1012 73 10000 6.17 140 21:21 21.08.2022
2094 Clouds 24 1012 69 10000 7.72 130 20:26 21.08.2022
2095 Clouds 24 1013 73 10000 7.2 100 19:18 21.08.2022
2096 Clouds 20 1013 94 10000 5.14 140 16:52 21.08.2022
2097 Clouds 21 1014 87 10000 5.66 162 15:53 21.08.2022
2098 Clouds 21 1014 87 10000 5.71 164 14:59 21.08.2022
2099 Clouds 21 1013 87 10000 5.65 168 13:51 21.08.2022
2100 Clouds 21 1012 88 10000 5.55 169 12:57 21.08.2022
2101 Clouds 21 1012 88 10000 5.55 169 12:57 21.08.2022
2102 Clouds 21 1012 88 10000 5.87 167 10:48 21.08.2022
2103 Clouds 21 1014 90 10000 6.13 164 09:21 21.08.2022
2104 Clouds 21 1014 88 10000 5.91 166 08:56 21.08.2022
2105 Clouds 21 1014 88 10000 5.91 166 08:38 21.08.2022
2106 Clouds 21 1015 88 10000 5.59 162 06:59 21.08.2022
2107 Clouds 21 1014 86 10000 4.63 164 02:35 21.08.2022
2108 Clouds 23 1010 78 10000 6.17 160 23:35 20.08.2022
2109 Clouds 23 1011 78 10000 6.69 160 21:57 20.08.2022
2110 Clouds 23 1011 78 10000 6.69 160 21:22 20.08.2022
2111 Clouds 23 1012 78 10000 6.17 180 19:49 20.08.2022
2112 Clouds 23 1012 78 10000 6.17 180 19:21 20.08.2022
2113 Clouds 22 1012 83 10000 4.12 170 18:26 20.08.2022
2114 Drizzle 21 1013 88 8000 3.6 170 17:21 20.08.2022
2115 Clouds 20 1012 94 10000 4.12 160 16:20 20.08.2022
2116 Clouds 21 1013 88 10000 7.05 169 14:26 20.08.2022
2117 Clouds 21 1012 87 10000 6.83 171 11:58 20.08.2022
2118 Clouds 21 1012 87 10000 6.83 171 11:37 20.08.2022
2119 Clouds 21 1013 87 10000 7.27 174 09:20 20.08.2022
2120 Clouds 21 1013 87 10000 7.02 175 07:30 20.08.2022
2121 Clouds 21 1014 87 10000 6.28 164 04:50 20.08.2022
2122 Clouds 22 1008 83 10000 5.14 170 00:57 20.08.2022
2123 Clouds 22 1009 83 10000 5.66 150 23:26 19.08.2022
2124 Clouds 22 1009 83 10000 6.17 160 22:45 19.08.2022
2125 Clouds 23 1010 78 10000 7.72 160 20:47 19.08.2022
2126 Clouds 22 1011 83 10000 7.2 180 18:59 19.08.2022
2127 Clouds 22 1011 83 10000 7.2 180 18:59 19.08.2022
2128 Clouds 22 1011 83 10000 7.2 180 18:59 19.08.2022
2129 Clouds 22 1011 83 10000 7.2 180 18:59 19.08.2022
2130 Clouds 21 1014 86 10000 6.57 157 15:58 19.08.2022
2131 Clouds 21 1013 86 10000 6.22 158 13:44 19.08.2022
2132 Clouds 21 1012 86 10000 6.12 167 11:50 19.08.2022
2133 Clouds 21 1012 86 10000 5.97 171 10:31 19.08.2022
2134 Clouds 21 1013 85 10000 6.06 173 08:31 19.08.2022
2135 Clouds 21 1013 84 10000 8.26 174 03:39 19.08.2022
2136 Drizzle 20 1010 94 8000 4.12 170 00:38 19.08.2022
2137 Drizzle 21 1010 88 8000 4.12 150 23:56 18.08.2022
2138 Clouds 23 1010 78 10000 6.17 140 22:54 18.08.2022
2139 Clouds 23 1010 78 10000 6.17 140 22:22 18.08.2022
2140 Drizzle 22 1011 83 8000 5.14 160 21:45 18.08.2022
2141 Drizzle 22 1012 88 5000 6.17 170 20:42 18.08.2022
2142 Drizzle 21 1013 88 8000 4.12 160 19:32 18.08.2022
2143 Rain 21 1013 88 10000 5.14 130 18:29 18.08.2022
2144 Clouds 21 1012 88 10000 6.17 140 17:29 18.08.2022
2145 Clouds 21 1014 82 10000 5.7 150 15:27 18.08.2022
2146 Clouds 21 1013 82 10000 5.72 154 14:20 18.08.2022
2147 Clouds 21 1013 82 10000 5.65 153 13:40 18.08.2022
2148 Clouds 21 1012 82 10000 5.34 156 12:27 18.08.2022
2149 Clouds 21 1012 81 10000 5.05 151 10:25 18.08.2022
2150 Clouds 21 1012 81 10000 5.05 151 09:42 18.08.2022
2151 Clouds 21 1014 81 10000 6.27 152 07:24 18.08.2022
2152 Clouds 21 1014 82 10000 6.38 148 04:47 18.08.2022
2153 Clouds 23 1011 73 10000 7.2 120 23:49 17.08.2022
2154 Clouds 24 1012 69 10000 6.69 120 21:54 17.08.2022
2155 Clouds 23 1013 78 10000 6.69 160 20:20 17.08.2022
2156 Drizzle 23 1014 73 10000 5.14 130 19:32 17.08.2022
2157 Clouds 21 1014 88 10000 4.63 160 17:39 17.08.2022
2158 Clouds 20 1013 88 10000 3.09 90 16:47 17.08.2022
2159 Clouds 21 1015 81 10000 5.91 146 15:30 17.08.2022
2160 Clouds 21 1014 83 10000 5.65 144 13:31 17.08.2022
2161 Clouds 21 1013 83 10000 5.4 150 11:39 17.08.2022
2162 Clouds 21 1013 83 10000 4.95 151 09:59 17.08.2022
2163 Clouds 21 1014 83 10000 4.6 153 08:24 17.08.2022
2164 Clouds 22 1013 83 10000 4.52 156 03:39 17.08.2022
2165 Clouds 23 1010 78 10000 6.17 130 00:24 17.08.2022
2166 Clouds 24 1010 73 10000 7.2 140 22:41 16.08.2022
2167 Drizzle 22 1011 88 10000 7.2 160 20:58 16.08.2022
2168 Clouds 22 1012 88 10000 4.63 150 19:54 16.08.2022
2169 Drizzle 21 1012 88 10000 4.12 160 18:44 16.08.2022
2170 Drizzle 21 1012 88 10000 4.63 130 17:43 16.08.2022
2171 Clouds 21 1014 84 10000 6.43 148 15:52 16.08.2022
2172 Clouds 21 1013 85 10000 6.33 151 14:55 16.08.2022
2173 Clouds 21 1013 84 10000 6 150 14:37 16.08.2022
2174 Clouds 21 1013 84 10000 5.5 150 13:40 16.08.2022
2175 Clouds 21 1012 83 10000 5.13 165 10:59 16.08.2022
2176 Clouds 21 1013 83 10000 5.22 164 09:51 16.08.2022
2177 Clouds 21 1013 83 10000 5.32 157 08:47 16.08.2022
2178 Clouds 21 1014 82 10000 5.36 156 07:58 16.08.2022
2179 Clouds 21 1013 83 10000 6.02 156 02:50 16.08.2022
2180 Clouds 23 1010 78 10000 5.14 170 22:31 15.08.2022
2181 Clouds 23 1011 83 10000 5.66 160 21:55 15.08.2022
2182 Clouds 23 1011 83 10000 5.66 160 21:34 15.08.2022
2183 Clouds 23 1011 83 10000 6.17 130 20:19 15.08.2022
2184 Rain 22 1012 88 10000 6.17 130 18:42 15.08.2022
2185 Drizzle 22 1012 83 10000 5.14 140 17:36 15.08.2022
2186 Drizzle 21 1011 88 10000 6.17 130 16:21 15.08.2022
2187 Clouds 21 1013 84 10000 6.61 156 13:57 15.08.2022
2188 Clouds 21 1013 84 10000 6.49 160 12:37 15.08.2022
2189 Clouds 21 1013 85 10000 6.31 162 10:18 15.08.2022
2190 Clouds 21 1014 86 10000 6 160 08:42 15.08.2022
2191 Clouds 21 1016 84 10000 5.54 160 06:27 15.08.2022
2192 Clouds 21 1015 84 10000 5.99 162 02:40 15.08.2022
2193 Clouds 24 1012 78 10000 4.63 170 22:39 14.08.2022
2194 Clouds 24 1013 78 10000 6.17 160 21:39 14.08.2022
2195 Clouds 24 1014 78 10000 6.69 160 20:24 14.08.2022
2196 Clouds 24 1014 78 10000 4.12 170 19:31 14.08.2022
2197 Clouds 23 1014 78 10000 5.14 150 18:20 14.08.2022
2198 Clouds 21 1014 88 10000 5.14 170 16:55 14.08.2022
2199 Clouds 21 1016 86 10000 6.95 162 15:51 14.08.2022
2200 Clouds 21 1015 87 10000 6.67 166 14:36 14.08.2022
2201 Clouds 21 1015 87 10000 6.46 168 13:50 14.08.2022
2202 Clouds 21 1014 87 10000 6.42 173 13:22 14.08.2022
2203 Clouds 21 1014 87 10000 6.42 173 12:34 14.08.2022
2204 Clouds 21 1014 88 10000 6.25 174 10:55 14.08.2022
2205 Clouds 21 1015 88 10000 6.15 177 08:52 14.08.2022
2206 Clouds 21 1017 87 10000 6.28 181 06:22 14.08.2022
2207 Clouds 21 1015 86 10000 6.09 179 03:36 14.08.2022
2208 Clouds 24 1012 78 10000 5.14 200 00:33 14.08.2022
2209 Clouds 25 1013 73 10000 4.63 150 22:56 13.08.2022
2210 Rain 25 1014 73 10000 6.17 160 21:43 13.08.2022
2211 Clouds 24 1015 78 10000 4.12 170 20:46 13.08.2022
2212 Rain 23 1015 83 10000 4.63 170 19:45 13.08.2022
2213 Drizzle 22 1015 94 10000 4.63 170 17:59 13.08.2022
2214 Rain 21 1017 89 10000 5.28 170 15:40 13.08.2022
2215 Clouds 21 1015 88 10000 4.89 172 14:28 13.08.2022
2216 Clouds 21 1015 88 10000 4.89 172 13:41 13.08.2022
2217 Clouds 21 1015 86 10000 4.83 166 11:53 13.08.2022
2218 Clouds 21 1014 86 10000 4.19 163 10:31 13.08.2022
2219 Clouds 21 1015 86 10000 4.1 164 09:18 13.08.2022
2220 Clouds 21 1016 85 10000 4.91 160 05:57 13.08.2022
2221 Rain 22 1012 94 10000 4.12 190 00:29 13.08.2022
2222 Clouds 24 1013 78 10000 4.63 190 22:20 12.08.2022
2223 Clouds 25 1014 78 10000 6.17 170 20:54 12.08.2022
2224 Rain 25 1015 78 10000 6.69 160 19:42 12.08.2022
2225 Clouds 24 1015 78 10000 4.63 180 18:48 12.08.2022
2226 Drizzle 23 1015 83 10000 4.12 190 17:25 12.08.2022
2227 Clouds 21 1016 85 10000 6.78 173 15:52 12.08.2022
2228 Clouds 21 1015 86 10000 6.62 174 14:41 12.08.2022
2229 Clouds 21 1014 85 10000 6.33 174 12:55 12.08.2022
2230 Clouds 21 1014 87 10000 6.7 180 10:45 12.08.2022
2231 Rain 21 1016 89 10000 6.47 183 07:50 12.08.2022
2232 Clouds 21 1016 88 10000 6.16 181 06:39 12.08.2022
2233 Clouds 21 1014 87 10000 5.82 176 02:39 12.08.2022
2234 Drizzle 22 1011 94 10000 3.09 190 00:26 12.08.2022
2235 Clouds 23 1011 83 10000 4.12 180 23:35 11.08.2022
2236 Clouds 24 1012 78 10000 3.6 190 22:27 11.08.2022
2237 Clouds 24 1012 78 10000 4.12 190 21:43 11.08.2022
2238 Clouds 25 1012 73 10000 4.63 170 20:51 11.08.2022
2239 Clouds 25 1012 73 10000 4.63 170 20:19 11.08.2022
2240 Clouds 25 1013 73 10000 5.14 190 19:32 11.08.2022
2241 Clouds 23 1013 83 10000 4.63 170 17:48 11.08.2022
2242 Clouds 21 1016 85 10000 5.37 177 16:35 11.08.2022
2243 Clouds 21 1015 85 10000 5.42 176 15:21 11.08.2022
2244 Clouds 21 1014 84 10000 6.31 174 12:44 11.08.2022
2245 Clouds 21 1014 85 10000 6.2 174 10:18 11.08.2022
2246 Clouds 21 1015 84 10000 5.89 169 07:38 11.08.2022
2247 Clouds 21 1015 82 10000 5.02 166 03:52 11.08.2022
2248 Clouds 24 1010 73 10000 4.12 180 00:37 11.08.2022
2249 Clouds 25 1011 69 10000 4.63 160 22:32 10.08.2022
2250 Clouds 24 1012 73 10000 4.12 190 21:25 10.08.2022
2251 Clouds 24 1013 73 10000 5.14 180 20:54 10.08.2022
2252 Clouds 24 1013 73 10000 4.12 180 19:27 10.08.2022
2253 Clouds 23 1014 78 10000 3.09 170 18:22 10.08.2022
2254 Clouds 22 1014 78 10000 3.09 190 16:36 10.08.2022
2255 Clouds 20 1015 81 10000 4.55 166 13:35 10.08.2022
2256 Clouds 20 1014 80 10000 4.67 167 12:41 10.08.2022
2257 Clouds 20 1014 81 10000 4.81 172 09:25 10.08.2022
2258 Clouds 20 1014 81 10000 4.81 172 08:33 10.08.2022
2259 Clouds 20 1015 81 10000 4.89 173 07:18 10.08.2022
2260 Clouds 20 1014 81 10000 5.13 177 03:25 10.08.2022
2261 Clouds 24 1010 69 10000 4.63 190 23:34 09.08.2022
2262 Clouds 25 1010 65 10000 5.14 170 22:56 09.08.2022
2263 Clouds 25 1011 65 10000 6.17 170 21:35 09.08.2022
2264 Clouds 25 1012 65 10000 5.14 180 20:26 09.08.2022
2265 Clouds 23 1013 73 10000 3.09 170 18:42 09.08.2022
2266 Clouds 23 1013 73 10000 3.09 160 17:28 09.08.2022
2267 Clouds 22 1013 78 10000 4.12 160 16:40 09.08.2022
2268 Clouds 20 1015 75 10000 4.18 163 15:46 09.08.2022
2269 Clouds 20 1013 79 10000 4.85 170 12:51 09.08.2022
2270 Clouds 20 1012 80 10000 4.86 166 09:36 09.08.2022
2271 Clouds 20 1013 80 10000 4.85 165 08:39 09.08.2022
2272 Clouds 20 1014 78 10000 4.89 161 07:52 09.08.2022
2273 Clouds 21 1013 76 10000 4.98 165 03:34 09.08.2022
2274 Clouds 24 1009 69 10000 4.12 160 23:27 08.08.2022
2275 Clouds 24 1009 69 10000 5.14 180 22:54 08.08.2022
2276 Clouds 24 1010 69 10000 6.17 160 21:49 08.08.2022
2277 Clouds 23 1011 73 10000 6.69 160 20:55 08.08.2022
2278 Clouds 24 1011 69 10000 4.12 150 19:50 08.08.2022
2279 Clouds 23 1012 73 10000 5.66 160 18:35 08.08.2022
2280 Clouds 21 1011 88 10000 4.12 180 16:34 08.08.2022
2281 Clouds 21 1014 75 10000 6.62 162 15:38 08.08.2022
2282 Clouds 20 1012 79 10000 5.84 170 12:50 08.08.2022
2283 Clouds 20 1012 80 10000 6.03 172 11:48 08.08.2022
2284 Clouds 20 1012 79 10000 5.48 161 09:29 08.08.2022
2285 Clouds 21 1013 78 10000 5.29 151 05:35 08.08.2022
2286 Clouds 21 1011 79 10000 6.11 166 01:56 08.08.2022
2287 Clouds 23 1010 73 10000 5.14 140 21:51 07.08.2022
2288 Clouds 23 1010 73 10000 5.14 140 21:32 07.08.2022
2289 Clouds 24 1010 69 10000 6.17 170 20:25 07.08.2022
2290 Clouds 21 1013 80 10000 6.3 151 19:53 07.08.2022
2291 Clouds 21 1014 81 10000 6.38 152 19:29 07.08.2022
2292 Clouds 21 1014 81 10000 6.82 154 17:59 07.08.2022
2293 Clouds 21 1014 81 10000 7.29 155 16:53 07.08.2022
2294 Clouds 21 1013 82 10000 7.46 156 15:45 07.08.2022
2295 Clouds 21 1012 83 10000 7.62 151 14:32 07.08.2022
2296 Clouds 21 1012 84 10000 7.48 152 12:50 07.08.2022
2297 Clouds 21 1011 85 10000 7.66 156 10:54 07.08.2022
2298 Clouds 21 1012 85 10000 7.29 156 10:21 07.08.2022
2299 Clouds 21 1013 85 10000 6.22 161 04:41 07.08.2022
2300 Clouds 21 1012 85 10000 6.28 159 02:35 07.08.2022
2301 Clouds 25 1009 69 10000 6.69 160 22:40 06.08.2022
2302 Clouds 25 1009 69 10000 6.69 160 22:18 06.08.2022
2303 Clouds 24 1011 73 10000 6.17 140 19:48 06.08.2022
2304 Clouds 23 1011 78 10000 7.72 140 18:50 06.08.2022
2305 Clouds 23 1012 78 10000 6.69 150 17:48 06.08.2022
2306 Clouds 22 1011 83 10000 5.14 140 16:29 06.08.2022
2307 Clouds 21 1012 86 10000 5.98 146 13:51 06.08.2022
2308 Clouds 21 1012 87 10000 6.04 142 12:46 06.08.2022
2309 Clouds 21 1012 87 10000 5.83 144 11:21 06.08.2022
2310 Clouds 21 1012 87 10000 5.94 144 09:41 06.08.2022
2311 Clouds 21 1014 85 10000 5.32 147 07:28 06.08.2022
2312 Clouds 21 1011 83 10000 5.15 160 01:47 06.08.2022
2313 Clouds 25 1010 69 10000 6.69 160 22:36 05.08.2022
2314 Clouds 25 1011 69 10000 7.2 150 21:18 05.08.2022
2315 Clouds 24 1012 69 10000 5.66 170 19:18 05.08.2022
2316 Clouds 24 1012 69 10000 5.14 180 18:41 05.08.2022
2317 Clouds 22 1012 78 10000 3.09 160 16:53 05.08.2022
2318 Clouds 21 1014 81 10000 3.24 189 15:25 05.08.2022
2319 Clouds 21 1014 81 10000 3.24 189 14:38 05.08.2022
2320 Clouds 21 1013 82 10000 3.13 173 13:38 05.08.2022
2321 Clouds 21 1013 80 10000 3.04 164 13:18 05.08.2022
2322 Clouds 21 1012 79 10000 2.9 155 11:55 05.08.2022
2323 Clear 21 1012 77 10000 2.01 133 09:18 05.08.2022
2324 Clouds 21 1013 77 10000 2.11 152 07:57 05.08.2022
2325 Clouds 21 1013 76 10000 3.41 165 04:48 05.08.2022
2326 Clouds 25 1010 61 10000 5.14 180 23:36 04.08.2022
2327 Clouds 25 1011 61 10000 6.69 170 21:28 04.08.2022
2328 Clouds 25 1012 61 10000 5.14 180 20:57 04.08.2022
2329 Clouds 25 1012 61 10000 5.14 180 20:37 04.08.2022
2330 Clouds 24 1012 64 10000 5.14 180 18:59 04.08.2022
2331 Clouds 24 1012 64 10000 5.14 180 18:34 04.08.2022
2332 Clouds 21 1014 72 10000 5.11 144 15:53 04.08.2022
2333 Clouds 20 1012 72 10000 4.75 163 13:26 04.08.2022
2334 Clouds 20 1012 72 10000 4.75 163 13:26 04.08.2022
2335 Clouds 21 1012 72 10000 4.48 169 11:40 04.08.2022
2336 Clouds 21 1012 72 10000 4.39 180 10:22 04.08.2022
2337 Clouds 21 1012 72 10000 4.39 180 10:22 04.08.2022
2338 Clouds 21 1013 75 10000 4.74 182 07:47 04.08.2022
2339 Clouds 21 1012 74 10000 5.77 189 02:50 04.08.2022
2340 Clouds 23 1009 64 10000 4.63 160 00:43 04.08.2022
2341 Clouds 24 1009 60 10000 4.12 160 23:40 03.08.2022
2342 Clouds 25 1011 57 10000 4.12 170 21:34 03.08.2022
2343 Clouds 25 1011 61 10000 5.66 160 20:21 03.08.2022
2344 Clouds 24 1011 64 10000 6.69 180 19:24 03.08.2022
2345 Clouds 22 1011 73 10000 7.2 190 16:50 03.08.2022
2346 Clouds 22 1011 73 10000 7.2 190 16:22 03.08.2022
2347 Clouds 20 1013 77 10000 7.3 181 13:52 03.08.2022
2348 Clouds 20 1012 77 10000 6.72 188 10:56 03.08.2022
2349 Clouds 21 1014 74 10000 5.79 190 07:26 03.08.2022
2350 Clouds 21 1013 75 10000 6.42 184 04:22 03.08.2022
2351 Clouds 21 1012 75 10000 6.27 184 03:23 03.08.2022
2352 Clouds 24 1009 64 10000 5.14 180 00:49 03.08.2022
2353 Clouds 25 1010 61 10000 5.14 180 22:37 02.08.2022
2354 Clouds 25 1010 61 10000 6.17 170 21:51 02.08.2022
2355 Clouds 25 1011 61 10000 5.14 170 20:30 02.08.2022
2356 Clouds 22 1012 78 10000 5.14 170 17:52 02.08.2022
2357 Clouds 21 1013 77 10000 7.43 178 14:46 02.08.2022
2358 Clouds 21 1013 83 10000 6.97 191 10:50 02.08.2022
2359 Clouds 21 1014 84 10000 6.9 190 08:54 02.08.2022
2360 Clouds 21 1014 84 10000 6.9 190 08:54 02.08.2022
2361 Clouds 21 1015 83 10000 6.38 188 07:52 02.08.2022
2362 Clouds 21 1015 82 10000 6.43 184 05:40 02.08.2022
2363 Clouds 21 1014 80 10000 5.89 183 03:37 02.08.2022
2364 Clouds 23 1011 78 10000 4.12 180 23:35 01.08.2022
2365 Clouds 23 1011 78 10000 6.17 160 22:21 01.08.2022
2366 Clouds 24 1012 73 10000 6.69 150 20:40 01.08.2022
2367 Clouds 24 1012 73 10000 8.23 160 19:22 01.08.2022
2368 Clouds 23 1012 78 10000 5.14 160 17:22 01.08.2022
2369 Clouds 22 1012 83 10000 6.17 170 16:49 01.08.2022
2370 Clouds 21 1014 85 10000 6.85 176 15:48 01.08.2022
2371 Clouds 21 1014 86 10000 6.51 175 15:28 01.08.2022
2372 Clouds 21 1014 86 10000 6.4 176 13:44 01.08.2022
2373 Clouds 21 1013 86 10000 6.33 177 11:38 01.08.2022
2374 Clouds 21 1013 87 10000 5.92 174 09:38 01.08.2022
2375 Clouds 21 1015 87 10000 5.49 171 08:18 01.08.2022
2376 Clouds 22 1015 87 10000 5.4 170 04:44 01.08.2022
2377 Clouds 22 1013 85 10000 5.57 167 02:31 01.08.2022
2378 Drizzle 23 1011 88 10000 2.06 160 22:54 31.07.2022
2379 Drizzle 23 1011 88 10000 2.06 160 22:36 31.07.2022
2380 Clouds 25 1012 73 10000 5.14 160 20:46 31.07.2022
2381 Clouds 23 1015 83 10000 4.12 160 18:52 31.07.2022
2382 Drizzle 22 1015 88 10000 4.12 120 17:34 31.07.2022
2383 Clouds 22 1014 85 10000 4.79 160 14:57 31.07.2022
2384 Clouds 22 1013 82 10000 4.64 162 13:19 31.07.2022
2385 Clouds 21 1013 82 10000 4.79 166 11:44 31.07.2022
2386 Clouds 21 1013 85 10000 4.35 172 09:18 31.07.2022
2387 Clouds 21 1015 85 10000 4.88 168 06:31 31.07.2022
2388 Clouds 21 1013 83 10000 5.05 172 02:31 31.07.2022
2389 Clouds 25 1010 65 10000 5.66 140 22:50 30.07.2022
2390 Clouds 25 1011 65 10000 3.09 170 21:52 30.07.2022
2391 Clouds 25 1011 65 10000 3.09 170 21:33 30.07.2022
2392 Clouds 25 1012 69 10000 2.57 170 20:38 30.07.2022
2393 Clouds 24 1012 73 10000 2.06 140 19:57 30.07.2022
2394 Clouds 24 1013 69 10000 1.54 180 18:20 30.07.2022
2395 Clouds 23 1011 78 10000 1.54 140 16:40 30.07.2022
2396 Clouds 22 1014 80 10000 5.99 153 15:33 30.07.2022
2397 Clouds 21 1013 82 10000 6.15 151 14:23 30.07.2022
2398 Clouds 21 1012 83 10000 5.55 155 12:32 30.07.2022
2399 Clouds 21 1012 83 10000 5.5 157 11:53 30.07.2022
2400 Clouds 21 1012 84 10000 5.53 168 10:20 30.07.2022
2401 Clouds 21 1012 84 10000 5.53 168 09:32 30.07.2022
2402 Clouds 21 1014 85 10000 5.09 165 07:33 30.07.2022
2403 Clouds 21 1013 85 10000 5 165 02:33 30.07.2022
2404 Clouds 23 1009 78 10000 2.57 170 00:32 30.07.2022
2405 Clouds 24 1010 73 10000 6.17 170 21:38 29.07.2022
2406 Drizzle 23 1010 88 8000 6.17 170 20:51 29.07.2022
2407 Clouds 25 1011 73 10000 6.17 180 19:47 29.07.2022
2408 Clouds 23 1011 83 10000 5.14 170 17:34 29.07.2022
2409 Clouds 21 1013 87 10000 6.14 156 14:50 29.07.2022
2410 Clouds 21 1012 85 10000 5.65 159 12:52 29.07.2022
2411 Clouds 21 1013 87 10000 4.86 146 08:52 29.07.2022
2412 Clouds 22 1013 87 10000 4.94 140 08:24 29.07.2022
2413 Clouds 22 1013 86 10000 5.08 143 05:22 29.07.2022
2414 Clouds 22 1011 85 10000 6.24 151 01:19 29.07.2022
2415 Clouds 25 1011 73 10000 5.66 170 21:41 28.07.2022
2416 Clouds 24 1012 78 10000 5.14 140 20:54 28.07.2022
2417 Clouds 24 1012 78 10000 5.14 140 20:18 28.07.2022
2418 Clouds 23 1013 83 10000 5.14 170 19:40 28.07.2022
2419 Clouds 23 1013 83 10000 4.63 140 18:19 28.07.2022
2420 Drizzle 22 1013 88 8000 4.12 140 17:36 28.07.2022
2421 Clouds 22 1013 88 10000 3.6 160 16:41 28.07.2022
2422 Clouds 21 1013 87 10000 6.17 146 13:57 28.07.2022
2423 Clouds 21 1013 87 10000 6.19 150 12:40 28.07.2022
2424 Clouds 21 1014 88 10000 5.76 152 09:21 28.07.2022
2425 Clouds 22 1015 87 10000 6.24 151 05:41 28.07.2022
2426 Clouds 22 1015 87 10000 6.03 154 05:21 28.07.2022
2427 Clouds 25 1011 69 10000 3.6 170 23:41 27.07.2022
2428 Clouds 24 1013 78 10000 4.12 160 21:31 27.07.2022
2429 Clouds 24 1013 78 10000 4.12 160 21:31 27.07.2022
2430 Clouds 24 1013 73 10000 6.69 160 20:19 27.07.2022
2431 Clouds 24 1014 78 10000 6.17 160 19:26 27.07.2022
2432 Drizzle 21 1013 94 10000 3.09 140 16:32 27.07.2022
2433 Clouds 22 1016 85 10000 5.45 152 15:51 27.07.2022
2434 Clouds 22 1015 86 10000 5.48 151 14:41 27.07.2022
2435 Clouds 22 1014 86 10000 5.33 151 13:45 27.07.2022
2436 Clouds 22 1014 86 10000 5.35 151 10:39 27.07.2022
2437 Clouds 22 1016 87 10000 4.58 150 07:53 27.07.2022
2438 Clouds 22 1016 85 10000 4.84 170 04:54 27.07.2022
2439 Clouds 23 1012 78 10000 4.63 170 23:25 26.07.2022
2440 Clouds 25 1013 69 10000 3.6 170 21:52 26.07.2022
2441 Clouds 24 1014 73 10000 2.57 210 20:49 26.07.2022
2442 Clouds 24 1014 73 10000 4.12 160 19:22 26.07.2022
2443 Clouds 24 1014 69 10000 3.6 140 18:40 26.07.2022
2444 Clouds 23 1014 83 10000 4.12 140 17:47 26.07.2022
2445 Clouds 22 1015 84 10000 5.6 154 15:43 26.07.2022
2446 Clouds 22 1015 84 10000 5.71 154 14:38 26.07.2022
2447 Clouds 21 1013 83 10000 5.4 150 12:25 26.07.2022
2448 Clouds 21 1013 84 10000 5.26 153 09:59 26.07.2022
2449 Clouds 21 1015 84 10000 5.05 165 08:23 26.07.2022
2450 Clouds 22 1013 82 10000 5.63 184 01:52 26.07.2022
2451 Clouds 24 1010 73 10000 3.6 180 00:19 26.07.2022
2452 Clouds 25 1011 69 10000 5.14 160 22:39 25.07.2022
2453 Clouds 25 1011 73 10000 5.14 180 21:43 25.07.2022
2454 Clouds 22 1014 80 10000 6.05 169 20:43 25.07.2022
2455 Clouds 25 1013 69 10000 5.14 160 19:55 25.07.2022
2456 Clouds 25 1013 69 10000 5.14 160 19:20 25.07.2022
2457 Clouds 24 1013 73 10000 4.63 170 17:35 25.07.2022
2458 Clouds 22 1012 83 10000 4.12 140 16:40 25.07.2022
2459 Clouds 22 1013 80 10000 5.64 184 12:47 25.07.2022
2460 Clouds 22 1013 79 10000 5.56 191 10:42 25.07.2022
2461 Clouds 21 1015 80 10000 5.36 188 06:52 25.07.2022
2462 Clouds 24 1010 69 10000 4.12 170 23:57 24.07.2022
2463 Clouds 24 1010 69 10000 4.12 170 23:22 24.07.2022
2464 Clouds 25 1011 65 10000 3.6 180 22:41 24.07.2022
2465 Clouds 25 1012 69 10000 4.12 180 21:30 24.07.2022
2466 Clouds 25 1012 69 10000 4.12 160 20:57 24.07.2022
2467 Clouds 25 1012 69 10000 4.12 160 20:32 24.07.2022
2468 Clouds 24 1013 69 10000 4.63 170 18:59 24.07.2022
2469 Clouds 23 1012 78 10000 2.06 170 16:51 24.07.2022
2470 Clouds 21 1015 77 10000 4.93 162 15:53 24.07.2022
2471 Clouds 21 1014 77 10000 5.01 162 14:40 24.07.2022
2472 Clouds 21 1014 81 10000 4.3 162 13:25 24.07.2022
2473 Clouds 21 1014 82 10000 4.37 167 12:19 24.07.2022
2474 Clouds 21 1014 82 10000 4.7 174 11:26 24.07.2022
2475 Clouds 21 1014 81 10000 4.87 182 09:23 24.07.2022
2476 Clouds 21 1015 79 10000 4.79 178 07:53 24.07.2022
2477 Clouds 21 1015 77 10000 4.38 176 06:38 24.07.2022
2478 Clouds 21 1014 77 10000 4.51 166 02:33 24.07.2022
2479 Clouds 25 1011 65 10000 5.14 140 22:31 23.07.2022
2480 Clouds 25 1013 65 10000 5.14 180 20:41 23.07.2022
2481 Clouds 23 1013 78 10000 3.6 180 18:52 23.07.2022
2482 Clouds 23 1013 78 10000 4.12 170 17:48 23.07.2022
2483 Clouds 23 1013 78 10000 4.12 170 17:24 23.07.2022
2484 Clouds 21 1015 80 10000 5.87 161 15:51 23.07.2022
2485 Clouds 21 1014 80 10000 5.9 162 15:20 23.07.2022
2486 Clouds 21 1014 80 10000 5.9 162 14:36 23.07.2022
2487 Clouds 21 1014 79 10000 5.32 152 13:50 23.07.2022
2488 Clouds 21 1013 79 10000 5.51 166 11:46 23.07.2022
2489 Clouds 21 1013 80 10000 5.34 167 10:28 23.07.2022
2490 Clouds 21 1014 79 10000 5.6 170 09:26 23.07.2022
2491 Clouds 21 1015 78 10000 5.56 171 04:59 23.07.2022
2492 Clear 21 1013 77 10000 5.05 163 02:30 23.07.2022
2493 Clouds 25 1010 61 10000 3.6 180 23:39 22.07.2022
2494 Clouds 24 1012 69 10000 3.6 170 20:57 22.07.2022
2495 Clouds 24 1013 69 10000 4.63 180 19:47 22.07.2022
2496 Clouds 21 1016 73 10000 4.15 173 18:29 22.07.2022
2497 Clouds 23 1013 73 10000 2.06 180 17:28 22.07.2022
2498 Clouds 21 1012 83 10000 1.54 210 14:57 22.07.2022
2499 Clouds 21 1014 74 10000 3 188 11:49 22.07.2022
2500 Clouds 21 1014 73 10000 4.18 186 09:27 22.07.2022
2501 Clouds 21 1014 73 10000 4.18 186 08:43 22.07.2022
2502 Clouds 21 1015 75 10000 4.12 185 07:21 22.07.2022
2503 Clouds 21 1014 75 10000 4.76 183 03:59 22.07.2022
2504 Clouds 24 1010 78 10000 3.6 180 22:53 21.07.2022
2505 Clouds 21 1012 77 10000 6.12 170 21:34 21.07.2022
2506 Clouds 24 1012 69 10000 5.14 180 19:30 21.07.2022
2507 Clouds 23 1013 78 10000 4.63 170 17:45 21.07.2022
2508 Clouds 23 1013 78 10000 4.63 170 17:19 21.07.2022
2509 Clouds 21 1014 80 10000 7.14 172 15:22 21.07.2022
2510 Clouds 21 1014 80 10000 7.14 172 14:39 21.07.2022
2511 Clouds 21 1012 80 10000 7.7 169 12:46 21.07.2022
2512 Clouds 21 1012 79 10000 6.65 171 11:19 21.07.2022
2513 Clouds 21 1013 79 10000 6.99 174 09:41 21.07.2022
2514 Clouds 21 1014 78 10000 7.12 175 08:52 21.07.2022
2515 Clouds 21 1014 78 10000 7.27 181 07:50 21.07.2022
2516 Clouds 21 1015 78 10000 6.65 187 06:24 21.07.2022
2517 Clouds 21 1010 100 10000 3.09 160 00:48 21.07.2022
2518 Rain 22 1010 94 10000 5.66 190 22:22 20.07.2022
2519 Clouds 24 1012 78 10000 4.12 180 20:59 20.07.2022
2520 Rain 22 1012 94 10000 3.6 190 19:53 20.07.2022
2521 Rain 22 1012 94 10000 3.6 190 19:25 20.07.2022
2522 Clouds 23 1009 83 10000 2.57 170 18:51 20.07.2022
2523 Clouds 23 1009 83 10000 2.57 170 18:22 20.07.2022
2524 Clouds 21 1009 94 10000 2.57 170 16:45 20.07.2022
2525 Clouds 21 1014 84 10000 5.81 167 15:32 20.07.2022
2526 Clouds 21 1013 85 10000 5.98 165 14:20 20.07.2022
2527 Clouds 21 1012 87 10000 5.85 162 11:37 20.07.2022
2528 Clouds 21 1012 87 10000 5.66 168 09:41 20.07.2022
2529 Clouds 22 1013 85 10000 5.29 170 03:49 20.07.2022
2530 Clouds 23 1009 83 10000 6.69 180 00:51 20.07.2022
2531 Clouds 23 1009 83 10000 7.2 140 23:41 19.07.2022
2532 Clouds 23 1010 83 10000 7.2 150 22:33 19.07.2022
2533 Clouds 24 1011 78 10000 5.14 170 21:35 19.07.2022
2534 Clouds 24 1012 78 10000 1.54 160 20:33 19.07.2022
2535 Drizzle 23 1013 83 10000 5.14 140 18:58 19.07.2022
2536 Drizzle 23 1013 83 10000 5.14 140 18:28 19.07.2022
2537 Clouds 22 1013 88 10000 5.14 160 16:37 19.07.2022
2538 Clouds 21 1014 85 10000 5.97 161 14:53 19.07.2022
2539 Clouds 21 1013 87 10000 6.18 162 11:43 19.07.2022
2540 Clouds 21 1013 86 10000 5.99 164 10:52 19.07.2022
2541 Clouds 21 1013 87 10000 5.71 162 09:23 19.07.2022
2542 Clouds 21 1013 87 10000 5.71 162 08:38 19.07.2022
2543 Clouds 21 1014 87 10000 4.92 156 07:19 19.07.2022
2544 Clouds 21 1013 86 10000 4.84 163 05:28 19.07.2022
2545 Clouds 21 1013 86 10000 4.84 163 04:53 19.07.2022
2546 Clouds 23 1010 78 10000 6.17 140 00:38 19.07.2022
2547 Clouds 24 1011 73 10000 5.14 150 23:36 18.07.2022
2548 Clouds 24 1011 73 10000 5.14 150 23:18 18.07.2022
2549 Clouds 24 1012 73 10000 5.14 160 21:58 18.07.2022
2550 Clouds 24 1012 73 10000 6.17 120 20:51 18.07.2022
2551 Clouds 24 1012 78 10000 7.2 130 19:26 18.07.2022
2552 Clouds 23 1012 83 10000 7.2 130 17:24 18.07.2022
2553 Clouds 21 1014 84 10000 6.47 161 15:51 18.07.2022
2554 Clouds 21 1013 84 10000 6.3 160 14:30 18.07.2022
2555 Clouds 21 1013 84 10000 6.19 159 12:45 18.07.2022
2556 Clouds 21 1012 84 10000 6.26 160 11:30 18.07.2022
2557 Clouds 21 1013 82 10000 6.24 160 08:54 18.07.2022
2558 Clouds 21 1014 81 10000 6.02 164 07:28 18.07.2022
2559 Clouds 21 1011 79 10000 6.21 162 00:42 18.07.2022
2560 Clouds 21 1011 79 10000 6.49 163 22:37 17.07.2022
2561 Clouds 21 1012 79 10000 6.43 165 21:49 17.07.2022
2562 Clouds 21 1012 78 10000 6.44 163 21:18 17.07.2022
2563 Clouds 21 1012 78 10000 6.44 163 20:37 17.07.2022
2564 Clouds 21 1014 78 10000 6.35 153 19:29 17.07.2022
2565 Clouds 21 1015 78 10000 6.29 151 18:27 17.07.2022
2566 Clouds 21 1015 78 10000 6.29 151 17:38 17.07.2022
2567 Rain 21 1011 94 10000 6.17 130 16:50 17.07.2022
2568 Rain 21 1011 94 10000 6.17 130 16:26 17.07.2022
2569 Clouds 21 1013 80 10000 6.42 151 14:37 17.07.2022
2570 Clouds 21 1013 80 10000 6.24 149 13:30 17.07.2022
2571 Clouds 21 1012 80 10000 6.43 154 11:32 17.07.2022
2572 Clouds 21 1013 79 10000 6.28 157 08:50 17.07.2022
2573 Clouds 21 1013 81 10000 6.07 156 03:43 17.07.2022
2574 Clouds 21 1012 80 10000 6.31 153 02:21 17.07.2022
2575 Clouds 24 1010 73 10000 7.2 130 23:20 16.07.2022
2576 Rain 23 1011 83 10000 4.63 140 21:25 16.07.2022
2577 Rain 23 1013 83 10000 6.17 120 19:25 16.07.2022
2578 Clouds 23 1013 83 10000 6.69 150 18:27 16.07.2022
2579 Clouds 21 1012 88 10000 6.17 130 16:31 16.07.2022
2580 Clouds 21 1014 81 10000 6.93 154 13:47 16.07.2022
2581 Clouds 21 1013 83 10000 6.39 152 10:50 16.07.2022
2582 Clouds 21 1013 83 10000 6.29 149 09:32 16.07.2022
2583 Clouds 21 1014 82 10000 6.46 148 08:43 16.07.2022
2584 Clouds 21 1015 83 10000 6.7 147 07:59 16.07.2022
2585 Clouds 21 1015 84 10000 7.14 147 03:41 16.07.2022
2586 Clouds 21 1014 84 10000 7.32 148 02:35 16.07.2022
2587 Clouds 24 1011 78 10000 7.2 140 23:28 15.07.2022
2588 Clouds 23 1012 83 10000 4.12 150 22:38 15.07.2022
2589 Rain 23 1012 83 10000 5.66 140 21:24 15.07.2022
2590 Rain 23 1013 83 10000 7.2 130 19:59 15.07.2022
2591 Rain 23 1014 83 10000 4.12 140 18:35 15.07.2022
2592 Rain 22 1014 94 10000 4.63 160 17:34 15.07.2022
2593 Clouds 22 1014 87 10000 6.51 140 14:45 15.07.2022
2594 Clouds 22 1014 86 10000 6.33 142 12:48 15.07.2022
2595 Clouds 22 1013 86 10000 6.14 137 10:53 15.07.2022
2596 Clouds 22 1014 87 10000 6.33 138 08:42 15.07.2022
2597 Clouds 22 1015 85 10000 6.71 138 05:55 15.07.2022
2598 Clouds 24 1011 73 10000 4.63 150 00:52 15.07.2022
2599 Clouds 25 1011 73 10000 5.14 160 23:35 14.07.2022
2600 Clouds 25 1012 73 10000 5.66 170 22:42 14.07.2022
2601 Clouds 25 1013 73 10000 6.17 160 21:43 14.07.2022
2602 Clouds 25 1013 73 10000 6.17 160 21:24 14.07.2022
2603 Clouds 24 1014 78 10000 7.2 130 20:43 14.07.2022
2604 Clouds 24 1014 78 10000 7.2 130 20:43 14.07.2022
2605 Clouds 24 1014 78 10000 7.2 130 20:19 14.07.2022
2606 Clouds 24 1015 78 10000 5.66 140 18:38 14.07.2022
2607 Clouds 22 1014 83 10000 4.12 150 16:21 14.07.2022
2608 Clouds 22 1015 84 10000 5.45 151 15:26 14.07.2022
2609 Clouds 22 1015 83 10000 5.32 149 13:52 14.07.2022
2610 Clouds 22 1014 82 10000 5.33 151 12:39 14.07.2022
2611 Clouds 22 1014 83 10000 5.08 149 11:28 14.07.2022
2612 Clouds 22 1014 83 10000 5.08 149 10:59 14.07.2022
2613 Clouds 22 1015 82 10000 4.8 151 09:29 14.07.2022
2614 Clouds 22 1015 83 10000 5.98 156 05:18 14.07.2022
2615 Clouds 22 1013 78 10000 5.23 157 01:22 14.07.2022
2616 Clouds 22 1013 78 10000 5.23 157 01:22 14.07.2022
2617 Clouds 24 1011 73 10000 5.66 170 00:51 14.07.2022
2618 Clouds 26 1012 65 10000 5.14 170 22:31 13.07.2022
2619 Clouds 25 1013 69 10000 6.17 140 21:47 13.07.2022
2620 Clouds 25 1013 69 10000 6.17 140 20:44 13.07.2022
2621 Clouds 24 1014 73 10000 4.63 140 18:48 13.07.2022
2622 Clouds 23 1014 78 10000 3.09 160 17:34 13.07.2022
2623 Clouds 23 1013 78 10000 4.12 150 16:19 13.07.2022
2624 Clouds 22 1015 78 10000 5.6 163 14:54 13.07.2022
2625 Clouds 21 1014 80 10000 5.62 172 11:54 13.07.2022
2626 Clouds 21 1014 79 10000 5.47 173 10:45 13.07.2022
2627 Clouds 21 1014 79 10000 5.32 172 09:54 13.07.2022
2628 Clouds 21 1014 79 10000 5.42 173 09:20 13.07.2022
2629 Clouds 22 1015 78 10000 4.79 184 05:22 13.07.2022
2630 Clouds 22 1012 76 10000 5.34 191 01:22 13.07.2022
2631 Clouds 25 1011 69 10000 2.57 170 23:35 12.07.2022
2632 Clear 22 1012 73 10000 5.11 191 21:53 12.07.2022
2633 Clear 23 1013 71 10000 4.47 193 20:57 12.07.2022
2634 Clear 23 1013 71 10000 4.47 193 20:37 12.07.2022
2635 Clouds 24 1014 78 10000 3.09 170 18:53 12.07.2022
2636 Clouds 23 1013 83 10000 4.12 160 17:32 12.07.2022
2637 Clouds 22 1015 68 10000 4.14 183 15:37 12.07.2022
2638 Clouds 22 1014 72 10000 4.57 186 13:55 12.07.2022
2639 Clouds 22 1013 70 10000 4.05 180 11:59 12.07.2022
2640 Clouds 22 1013 70 10000 4.25 180 10:47 12.07.2022
2641 Clouds 22 1014 68 10000 4.89 190 09:19 12.07.2022
2642 Clouds 22 1014 70 10000 5.18 190 07:57 12.07.2022
2643 Clouds 22 1015 73 10000 5.24 187 05:54 12.07.2022
2644 Clouds 22 1015 73 10000 5.24 187 05:35 12.07.2022
2645 Clouds 22 1013 75 10000 5.58 183 01:36 12.07.2022
2646 Clouds 24 1011 73 10000 5.14 190 22:50 11.07.2022
2647 Clouds 24 1012 78 10000 3.6 170 21:37 11.07.2022
2648 Rain 23 1013 78 10000 4.12 160 20:33 11.07.2022
2649 Clouds 24 1013 73 10000 4.12 160 19:28 11.07.2022
2650 Clouds 23 1014 78 10000 4.63 170 18:30 11.07.2022
2651 Drizzle 21 1013 94 10000 3.09 160 16:34 11.07.2022
2652 Clouds 21 1015 82 10000 6.77 168 15:33 11.07.2022
2653 Clouds 21 1013 83 10000 6.35 168 13:27 11.07.2022
2654 Clouds 21 1013 83 10000 6.14 165 11:33 11.07.2022
2655 Clouds 21 1013 81 10000 5.33 172 10:18 11.07.2022
2656 Clouds 21 1013 80 10000 5.46 174 09:40 11.07.2022
2657 Clouds 22 1014 78 10000 5.43 172 08:32 11.07.2022
2658 Clouds 22 1012 82 10000 5.92 160 01:54 11.07.2022
2659 Clouds 22 1012 81 10000 6.42 165 00:18 11.07.2022
2660 Clouds 23 1011 83 10000 4.63 180 22:52 10.07.2022
2661 Clouds 23 1012 83 10000 4.12 170 21:20 10.07.2022
2662 Rain 23 1014 88 10000 3.09 160 20:37 10.07.2022
2663 Clouds 23 1014 83 10000 5.66 170 19:40 10.07.2022
2664 Clouds 24 1014 78 10000 5.14 160 18:43 10.07.2022
2665 Clouds 23 1014 83 10000 4.12 150 17:35 10.07.2022
2666 Rain 22 1014 88 10000 3.09 160 16:24 10.07.2022
2667 Clouds 22 1015 82 10000 6 168 15:20 10.07.2022
2668 Clouds 22 1014 82 10000 6.25 176 13:40 10.07.2022
2669 Clouds 22 1013 85 10000 6.33 172 12:26 10.07.2022
2670 Clouds 22 1014 84 10000 5.66 173 09:47 10.07.2022
2671 Clouds 22 1014 85 10000 5.55 171 08:44 10.07.2022
2672 Clouds 22 1016 84 10000 5.12 172 07:24 10.07.2022
2673 Clouds 24 1011 78 10000 4.63 180 23:58 09.07.2022
2674 Clouds 24 1012 78 10000 4.12 170 22:27 09.07.2022
2675 Clouds 24 1013 78 10000 6.17 180 21:49 09.07.2022
2676 Clouds 23 1014 83 10000 7.2 150 19:57 09.07.2022
2677 Rain 22 1015 94 10000 4.12 130 18:32 09.07.2022
2678 Clouds 23 1015 88 10000 3.6 160 17:32 09.07.2022
2679 Clouds 22 1014 94 10000 4.12 170 16:36 09.07.2022
2680 Clouds 22 1016 81 10000 5.95 160 15:39 09.07.2022
2681 Clouds 22 1015 83 10000 5.98 163 14:24 09.07.2022
2682 Clouds 22 1014 81 10000 5.47 162 13:48 09.07.2022
2683 Clouds 22 1014 82 10000 5.89 161 12:22 09.07.2022
2684 Clouds 22 1014 82 10000 5.85 162 10:27 09.07.2022
2685 Clouds 22 1014 82 10000 5.85 162 09:57 09.07.2022
2686 Clouds 22 1014 82 10000 5.59 163 07:44 09.07.2022
2687 Clouds 22 1014 81 10000 5.93 164 04:49 09.07.2022
2688 Clouds 24 1010 73 10000 5.14 170 00:38 09.07.2022
2689 Clouds 24 1010 78 10000 6.17 170 22:34 08.07.2022
2690 Clouds 24 1011 78 10000 5.14 160 21:27 08.07.2022
2691 Clouds 25 1012 73 10000 5.66 170 20:38 08.07.2022
2692 Clouds 25 1012 73 10000 6.69 170 19:38 08.07.2022
2693 Clouds 23 1013 83 10000 4.12 160 17:56 08.07.2022
2694 Clouds 23 1012 83 10000 6.69 150 16:33 08.07.2022
2695 Clouds 22 1014 80 10000 5.7 156 14:50 08.07.2022
2696 Clouds 22 1013 81 10000 5.49 160 12:42 08.07.2022
2697 Clouds 22 1012 80 10000 5.41 162 10:52 08.07.2022
2698 Clouds 22 1012 80 10000 5.31 160 09:58 08.07.2022
2699 Clouds 22 1013 80 10000 5.52 160 07:53 08.07.2022
2700 Clouds 22 1013 81 10000 5.19 153 05:37 08.07.2022
2701 Clouds 23 1008 83 10000 3.6 160 00:40 08.07.2022
2702 Clouds 24 1009 78 10000 5.14 160 22:50 07.07.2022
2703 Clouds 24 1010 73 10000 4.12 170 21:48 07.07.2022
2704 Clouds 24 1011 73 10000 3.09 120 19:34 07.07.2022
2705 Clouds 23 1012 83 10000 5.14 150 17:43 07.07.2022
2706 Clouds 22 1011 88 10000 4.63 140 16:21 07.07.2022
2707 Clouds 22 1012 81 10000 4.78 153 13:40 07.07.2022
2708 Clouds 22 1012 81 10000 4.73 153 12:41 07.07.2022
2709 Clouds 22 1012 81 10000 5.03 151 12:22 07.07.2022
2710 Clouds 22 1012 81 10000 5.03 151 11:32 07.07.2022
2711 Clouds 22 1011 80 10000 5.11 153 10:45 07.07.2022
2712 Clouds 22 1012 80 10000 4.79 153 10:27 07.07.2022
2713 Clouds 22 1012 80 10000 4.35 153 08:40 07.07.2022
2714 Clouds 22 1013 80 10000 5.81 160 05:57 07.07.2022
2715 Clear 22 1009 78 10000 6.53 167 00:18 07.07.2022
2716 Clear 22 1009 78 10000 6.53 167 23:36 06.07.2022
2717 Clear 22 1010 78 10000 5.96 165 23:18 06.07.2022
2718 Clouds 24 1009 73 10000 5.14 150 22:46 06.07.2022
2719 Clouds 24 1009 73 10000 5.14 150 22:28 06.07.2022
2720 Clouds 25 1011 73 10000 4.63 170 19:46 06.07.2022
2721 Rain 24 1011 78 10000 5.14 150 18:45 06.07.2022
2722 Clouds 23 1012 78 10000 3.09 150 16:45 06.07.2022
2723 Clouds 22 1013 79 10000 6.05 172 15:39 06.07.2022
2724 Clouds 22 1012 82 10000 6.19 166 12:44 06.07.2022
2725 Clouds 22 1012 82 10000 5.83 164 11:49 06.07.2022
2726 Clouds 22 1012 82 10000 5.58 163 10:22 06.07.2022
2727 Clouds 22 1013 82 10000 5.19 167 08:41 06.07.2022
2728 Clouds 22 1014 80 10000 5.22 172 07:39 06.07.2022
2729 Clouds 22 1014 78 10000 4.87 165 05:37 06.07.2022
2730 Clouds 25 1010 69 10000 6.17 140 22:49 05.07.2022
2731 Clouds 25 1010 69 10000 6.17 140 22:27 05.07.2022
2732 Clouds 26 1011 69 10000 5.14 160 20:42 05.07.2022
2733 Clouds 26 1012 69 10000 4.12 170 19:44 05.07.2022
2734 Clouds 26 1012 69 10000 4.12 170 19:25 05.07.2022
2735 Clouds 24 1012 73 10000 4.63 170 17:48 05.07.2022
2736 Clouds 23 1012 78 10000 5.66 140 16:56 05.07.2022
2737 Clouds 22 1015 79 10000 5.57 163 15:37 05.07.2022
2738 Clouds 22 1014 80 10000 5.91 165 14:31 05.07.2022
2739 Clouds 21 1013 82 10000 5.79 161 12:47 05.07.2022
2740 Clouds 21 1013 82 10000 5.68 160 11:49 05.07.2022
2741 Clouds 21 1013 81 10000 5.94 166 10:40 05.07.2022
2742 Clouds 22 1014 81 10000 5.67 166 09:23 05.07.2022
2743 Clouds 22 1015 79 10000 5.41 166 07:47 05.07.2022
2744 Clouds 22 1016 79 10000 5.57 160 05:29 05.07.2022
2745 Clouds 22 1015 79 10000 5.97 164 04:24 05.07.2022
2746 Clouds 24 1011 78 10000 4.12 170 00:26 05.07.2022
2747 Clouds 24 1011 78 10000 3.6 160 23:31 04.07.2022
2748 Clouds 25 1012 73 10000 3.09 170 22:27 04.07.2022
2749 Clouds 24 1013 78 10000 4.63 180 21:41 04.07.2022
2750 Clouds 24 1013 78 10000 4.12 180 20:52 04.07.2022
2751 Clouds 24 1013 78 10000 4.12 180 20:33 04.07.2022
2752 Clouds 23 1013 83 10000 4.63 160 19:54 04.07.2022
2753 Clouds 23 1013 83 10000 4.63 160 19:35 04.07.2022
2754 Drizzle 22 1013 94 10000 3.09 190 17:58 04.07.2022
2755 Clouds 22 1015 82 10000 4.58 180 15:50 04.07.2022
2756 Clouds 22 1015 82 10000 4.58 180 15:31 04.07.2022
2757 Clouds 21 1014 83 10000 4.51 168 13:29 04.07.2022
2758 Clouds 21 1013 82 10000 4.24 167 12:20 04.07.2022
2759 Clouds 21 1013 81 10000 4.06 164 10:34 04.07.2022
2760 Clouds 21 1014 80 10000 3.65 161 09:40 04.07.2022
2761 Clouds 22 1015 80 10000 3.32 157 07:21 04.07.2022
2762 Clouds 22 1014 80 10000 3.71 156 03:36 04.07.2022
2763 Clouds 24 1011 73 10000 4.12 160 00:35 04.07.2022
2764 Clouds 24 1011 73 10000 4.12 160 22:58 03.07.2022
2765 Clouds 24 1011 73 10000 4.12 160 22:58 03.07.2022
2766 Clouds 25 1012 69 10000 5.14 160 20:51 03.07.2022
2767 Clouds 25 1012 69 10000 5.14 160 20:25 03.07.2022
2768 Clouds 24 1012 73 10000 4.12 170 19:26 03.07.2022
2769 Clouds 24 1012 73 10000 4.12 140 18:32 03.07.2022
2770 Clouds 23 1013 73 10000 3.6 170 17:43 03.07.2022
2771 Clouds 22 1013 78 10000 5.02 165 15:29 03.07.2022
2772 Clouds 22 1013 78 10000 5.02 165 14:58 03.07.2022
2773 Clouds 21 1013 78 10000 5.02 165 13:59 03.07.2022
2774 Clouds 21 1012 78 10000 4.93 162 13:27 03.07.2022
2775 Clouds 21 1012 78 10000 4.93 162 12:32 03.07.2022
2776 Clouds 21 1012 79 10000 4.77 165 11:18 03.07.2022
2777 Clouds 21 1012 79 10000 4.77 165 10:38 03.07.2022
2778 Clouds 21 1012 78 10000 4.79 173 08:59 03.07.2022
2779 Clouds 21 1013 78 10000 4.71 165 07:34 03.07.2022
2780 Clouds 22 1011 79 10000 4.74 169 01:39 03.07.2022
2781 Clouds 25 1009 69 10000 5.66 160 23:50 02.07.2022
2782 Clouds 25 1009 69 10000 4.63 180 22:32 02.07.2022
2783 Clouds 24 1011 73 10000 4.63 190 20:37 02.07.2022
2784 Clouds 24 1011 78 10000 4.12 170 19:50 02.07.2022
2785 Clouds 24 1011 78 10000 4.12 170 19:19 02.07.2022
2786 Clouds 23 1011 78 10000 4.12 170 17:40 02.07.2022
2787 Clouds 22 1011 83 10000 2.57 180 16:35 02.07.2022
2788 Clouds 21 1012 81 10000 4.67 165 13:51 02.07.2022
2789 Clouds 21 1012 80 10000 4.14 160 11:51 02.07.2022
2790 Clouds 21 1011 81 10000 3.88 165 10:52 02.07.2022
2791 Clouds 21 1011 83 10000 3.99 162 10:28 02.07.2022
2792 Clouds 21 1012 83 10000 4.18 166 08:39 02.07.2022
2793 Clouds 21 1013 83 10000 4.34 157 08:19 02.07.2022
2794 Clouds 21 1013 81 10000 4.74 158 05:59 02.07.2022
2795 Clouds 22 1010 77 10000 5.48 164 00:47 02.07.2022
2796 Clouds 22 1010 76 10000 5.62 164 23:31 01.07.2022
2797 Clouds 22 1010 76 10000 5.93 163 22:35 01.07.2022
2798 Clouds 22 1011 76 10000 5.93 162 21:39 01.07.2022
2799 Clouds 22 1012 76 10000 6.05 159 20:59 01.07.2022
2800 Clouds 22 1012 76 10000 6.05 159 20:37 01.07.2022
2801 Clouds 22 1013 77 10000 6.12 162 19:40 01.07.2022
2802 Clouds 22 1014 76 10000 6.04 163 17:45 01.07.2022
2803 Clouds 21 1013 77 10000 5.43 164 15:21 01.07.2022
2804 Clouds 21 1013 76 10000 5.58 168 13:54 01.07.2022
2805 Clouds 21 1012 79 10000 5.61 170 11:48 01.07.2022
2806 Clouds 21 1013 79 10000 5.97 170 10:19 01.07.2022
2807 Clouds 21 1014 78 10000 5.63 171 07:40 01.07.2022
2808 Clouds 21 1013 76 10000 6.07 160 02:43 01.07.2022
2809 Clouds 21 1012 78 10000 5.58 165 00:22 01.07.2022
2810 Clouds 21 1012 79 10000 5.66 165 22:52 30.06.2022
2811 Clouds 21 1012 79 10000 5.66 165 22:32 30.06.2022
2812 Clouds 21 1012 79 10000 5.7 160 21:55 30.06.2022
2813 Clouds 21 1013 78 10000 5.88 157 20:58 30.06.2022
2814 Clouds 21 1014 78 10000 5.67 155 20:22 30.06.2022
2815 Clouds 21 1014 78 10000 5.67 155 19:51 30.06.2022
2816 Clouds 21 1015 80 10000 5.58 152 19:18 30.06.2022
2817 Clouds 21 1015 80 10000 5.58 152 18:34 30.06.2022
2818 Clouds 21 1016 79 10000 5.68 152 17:37 30.06.2022
2819 Clouds 21 1015 79 10000 5.44 146 16:28 30.06.2022
2820 Clouds 21 1014 79 10000 5.45 148 14:31 30.06.2022
2821 Clouds 21 1014 80 10000 5.06 148 13:29 30.06.2022
2822 Clouds 21 1014 80 10000 5.06 148 12:34 30.06.2022
2823 Clouds 21 1013 81 10000 5.51 153 11:23 30.06.2022
2824 Clouds 21 1013 81 10000 5.74 155 09:52 30.06.2022
2825 Clouds 21 1014 81 10000 5.84 153 09:29 30.06.2022
2826 Clouds 21 1015 80 10000 5.98 150 07:41 30.06.2022
2827 Clouds 22 1015 83 10000 5.63 148 05:46 30.06.2022
2828 Clouds 22 1012 82 10000 5.73 153 00:26 30.06.2022
2829 Clouds 22 1013 82 10000 5.63 149 22:54 29.06.2022
2830 Clouds 22 1013 82 10000 5.63 149 22:33 29.06.2022
2831 Clouds 22 1014 81 10000 5.61 148 20:56 29.06.2022
2832 Clouds 22 1014 81 10000 5.61 148 20:33 29.06.2022
2833 Clouds 22 1015 81 10000 5.82 144 19:33 29.06.2022
2834 Clouds 22 1016 81 10000 5.93 146 17:40 29.06.2022
2835 Clouds 22 1016 82 10000 5.83 139 16:33 29.06.2022
2836 Clouds 21 1014 84 10000 5.56 143 14:19 29.06.2022
2837 Clouds 21 1014 82 10000 4.73 137 12:39 29.06.2022
2838 Clouds 21 1013 82 10000 5.03 147 10:20 29.06.2022
2839 Clouds 21 1013 82 10000 5.03 147 09:31 29.06.2022
2840 Clouds 22 1015 83 10000 5.41 145 07:23 29.06.2022
2841 Clouds 22 1015 84 10000 5.23 136 04:48 29.06.2022
2842 Clouds 22 1013 81 10000 5.99 141 00:55 29.06.2022
2843 Clouds 22 1013 81 10000 5.99 141 00:35 29.06.2022
2844 Clouds 22 1013 80 10000 5.89 144 22:53 28.06.2022
2845 Clouds 22 1013 80 10000 5.41 148 22:21 28.06.2022
2846 Clouds 22 1013 80 10000 5.41 148 21:50 28.06.2022
2847 Clouds 22 1013 80 10000 5.41 148 21:30 28.06.2022
2848 Clouds 22 1015 80 10000 5.84 140 20:18 28.06.2022
2849 Clouds 25 1015 65 10000 3.09 120 19:32 28.06.2022
2850 Clouds 25 1015 65 10000 4.12 120 18:40 28.06.2022
2851 Clouds 23 1015 83 10000 3.09 120 17:36 28.06.2022
2852 Clouds 22 1016 80 10000 4.84 144 15:55 28.06.2022
2853 Clouds 22 1015 81 10000 4.96 148 14:54 28.06.2022
2854 Clouds 22 1015 82 10000 5.48 148 14:19 28.06.2022
2855 Clouds 21 1015 83 10000 5.14 144 13:45 28.06.2022
2856 Clouds 21 1015 84 10000 5.28 146 12:35 28.06.2022
2857 Clouds 21 1014 84 10000 5.21 152 10:44 28.06.2022
2858 Clouds 21 1015 85 10000 5.13 149 08:56 28.06.2022
2859 Clouds 21 1015 85 10000 5.13 149 08:38 28.06.2022
2860 Clouds 22 1016 85 10000 4.89 145 07:20 28.06.2022
2861 Clouds 21 1016 87 10000 5.11 145 04:54 28.06.2022
2862 Clouds 24 1012 73 10000 4.12 140 23:53 27.06.2022
2863 Clouds 24 1012 73 10000 4.12 140 23:27 27.06.2022
2864 Clouds 22 1013 80 10000 5.65 163 22:25 27.06.2022
2865 Clouds 22 1014 80 10000 5.81 163 21:29 27.06.2022
2866 Clouds 24 1014 78 10000 5.14 150 20:34 27.06.2022
2867 Clouds 23 1014 83 10000 4.12 150 18:52 27.06.2022
2868 Clouds 24 1015 78 10000 4.12 150 17:44 27.06.2022
2869 Clouds 22 1016 84 10000 5.2 150 15:50 27.06.2022
2870 Clouds 21 1015 86 10000 5.63 157 14:25 27.06.2022
2871 Clouds 21 1015 87 10000 5.57 158 12:58 27.06.2022
2872 Clouds 21 1014 86 10000 5.55 158 11:40 27.06.2022
2873 Clouds 21 1014 86 10000 5.67 163 09:49 27.06.2022
2874 Clouds 21 1015 86 10000 5.54 161 08:43 27.06.2022
2875 Clouds 21 1016 86 10000 4.66 152 07:52 27.06.2022
2876 Clouds 21 1016 87 10000 4.7 144 06:28 27.06.2022
2877 Clouds 22 1013 84 10000 5.75 147 01:25 27.06.2022
2878 Clouds 24 1011 78 10000 4.12 150 23:22 26.06.2022
2879 Clouds 24 1013 78 10000 3.09 150 21:39 26.06.2022
2880 Drizzle 24 1014 83 10000 6.69 140 20:33 26.06.2022
2881 Rain 22 1015 94 8000 3.09 170 18:38 26.06.2022
2882 Rain 22 1015 94 8000 3.09 170 18:20 26.06.2022
2883 Clouds 21 1015 87 10000 5.88 163 15:37 26.06.2022
2884 Clouds 21 1014 89 10000 5.63 160 14:23 26.06.2022
2885 Clouds 21 1014 89 10000 5.4 164 13:26 26.06.2022
2886 Clouds 21 1014 89 10000 5.18 169 11:49 26.06.2022
2887 Clouds 21 1014 89 10000 5.24 172 10:42 26.06.2022
2888 Clouds 21 1014 90 10000 5.8 170 10:19 26.06.2022
2889 Clouds 21 1014 91 10000 5.68 164 08:36 26.06.2022
2890 Clouds 21 1015 91 10000 4.85 167 06:31 26.06.2022
2891 Clouds 23 1010 73 10000 3.09 140 00:37 26.06.2022
2892 Clouds 23 1010 73 10000 3.09 140 00:19 26.06.2022
2893 Clouds 24 1010 78 10000 4.12 180 23:31 25.06.2022
2894 Clouds 25 1011 73 10000 4.12 170 22:48 25.06.2022
2895 Clouds 25 1011 73 10000 4.12 170 22:25 25.06.2022
2896 Rain 23 1012 88 10000 4.12 150 21:21 25.06.2022
2897 Rain 23 1012 83 10000 4.12 150 20:48 25.06.2022
2898 Rain 23 1012 83 10000 4.12 150 20:25 25.06.2022
2899 Rain 23 1012 83 10000 4.12 150 20:25 25.06.2022
2900 Clouds 22 1013 94 10000 2.57 150 18:23 25.06.2022
2901 Clouds 22 1013 88 10000 3.09 160 17:27 25.06.2022
2902 Clouds 20 1013 100 10000 2.06 160 16:27 25.06.2022
2903 Clouds 22 1014 90 10000 4.55 140 14:31 25.06.2022
2904 Clouds 22 1012 91 10000 5.92 147 12:46 25.06.2022
2905 Clouds 22 1012 91 10000 6.14 153 12:27 25.06.2022
2906 Clouds 22 1012 91 10000 5.75 154 09:24 25.06.2022
2907 Clouds 22 1012 91 10000 5.75 154 09:24 25.06.2022
2908 Clouds 22 1012 91 10000 5.75 154 08:49 25.06.2022
2909 Clouds 22 1013 91 10000 5.88 147 08:20 25.06.2022
2910 Clouds 22 1014 90 10000 6.24 145 06:35 25.06.2022
2911 Clouds 24 1010 78 10000 5.14 120 00:45 25.06.2022
2912 Clouds 25 1010 73 10000 5.14 150 23:54 24.06.2022
2913 Rain 25 1011 78 10000 5.14 140 22:25 24.06.2022
2914 Clouds 25 1011 73 10000 5.14 140 21:22 24.06.2022
2915 Clouds 25 1012 73 10000 5.14 150 20:23 24.06.2022
2916 Clouds 24 1013 78 10000 5.14 160 19:24 24.06.2022
2917 Clouds 24 1013 78 10000 5.14 150 18:51 24.06.2022
2918 Clouds 24 1013 78 10000 5.14 150 18:31 24.06.2022
2919 Clouds 24 1012 83 10000 5.14 140 17:47 24.06.2022
2920 Drizzle 22 1011 94 10000 5.14 150 16:34 24.06.2022
2921 Clouds 22 1014 89 10000 5.27 176 14:30 24.06.2022
2922 Clouds 22 1013 89 10000 5.02 172 13:58 24.06.2022
2923 Clouds 22 1012 89 10000 5.1 188 12:28 24.06.2022
2924 Clouds 22 1012 89 10000 5.1 188 11:40 24.06.2022
2925 Clouds 22 1012 88 10000 5.24 183 10:26 24.06.2022
2926 Clouds 22 1012 88 10000 5.24 183 09:41 24.06.2022
2927 Clouds 22 1013 88 10000 5.32 178 08:53 24.06.2022
2928 Clouds 22 1013 88 10000 5.51 177 07:33 24.06.2022
2929 Clouds 22 1014 89 10000 5.75 177 06:42 24.06.2022
2930 Clouds 22 1014 89 10000 5.68 182 06:18 24.06.2022
2931 Clouds 22 1013 89 10000 4.68 179 03:33 24.06.2022
2932 Clouds 25 1009 73 10000 3.09 150 22:58 23.06.2022
2933 Clouds 25 1009 73 10000 3.09 150 22:40 23.06.2022
2934 Clouds 25 1011 73 10000 3.09 150 20:57 23.06.2022
2935 Clouds 25 1011 73 10000 3.09 150 20:32 23.06.2022
2936 Clouds 23 1011 83 10000 3.09 150 19:25 23.06.2022
2937 Clouds 23 1012 83 10000 3.09 130 17:51 23.06.2022
2938 Clouds 23 1011 83 10000 3.09 170 16:58 23.06.2022
2939 Clouds 22 1013 88 10000 4.73 155 15:50 23.06.2022
2940 Clouds 22 1012 88 10000 4.13 160 15:24 23.06.2022
2941 Clouds 21 1012 87 10000 3.71 154 13:33 23.06.2022
2942 Clouds 21 1011 88 10000 4.91 173 11:27 23.06.2022
2943 Clouds 21 1011 88 10000 4.91 173 10:31 23.06.2022
2944 Clouds 21 1012 88 10000 5.68 172 08:49 23.06.2022
2945 Clouds 21 1012 87 10000 4.94 181 02:46 23.06.2022
2946 Drizzle 22 1009 88 10000 4.12 150 00:26 23.06.2022
2947 Clouds 24 1009 73 10000 5.14 140 23:27 22.06.2022
2948 Clouds 25 1009 73 10000 5.14 180 22:31 22.06.2022
2949 Clouds 22 1012 81 10000 5.56 177 21:21 22.06.2022
2950 Clouds 22 1013 81 10000 5.37 173 20:25 22.06.2022
2951 Clouds 22 1013 81 10000 5.37 173 19:50 22.06.2022
2952 Clouds 22 1014 81 10000 5.35 162 18:21 22.06.2022
2953 Clouds 24 1012 73 10000 3.09 140 17:24 22.06.2022
2954 Clouds 21 1014 82 10000 4.61 160 15:53 22.06.2022
2955 Clouds 21 1014 82 10000 4.56 163 15:24 22.06.2022
2956 Clouds 21 1013 82 10000 3.9 155 13:50 22.06.2022
2957 Clouds 21 1013 82 10000 3.9 155 13:25 22.06.2022
2958 Clouds 21 1013 82 10000 3.9 155 12:44 22.06.2022
2959 Clouds 21 1012 82 10000 3.93 153 11:47 22.06.2022
2960 Clouds 21 1012 82 10000 3.76 157 10:53 22.06.2022
2961 Clouds 21 1012 83 10000 3.82 157 09:44 22.06.2022
2962 Clouds 21 1013 86 10000 4.28 148 07:56 22.06.2022
2963 Clouds 21 1013 87 10000 4.49 155 03:25 22.06.2022
2964 Clouds 22 1011 85 10000 5.1 155 01:21 22.06.2022
2965 Clouds 24 1010 73 10000 4.12 180 23:19 21.06.2022
2966 Clouds 25 1011 73 10000 5.14 140 21:25 21.06.2022
2967 Clouds 25 1013 73 10000 5.66 170 19:43 21.06.2022
2968 Drizzle 22 1014 88 10000 5.14 160 17:57 21.06.2022
2969 Drizzle 22 1013 88 3000 5.66 160 16:52 21.06.2022
2970 Rain 21 1012 90 10000 5.54 157 12:36 21.06.2022
2971 Clouds 22 1012 90 10000 5.88 159 10:55 21.06.2022
2972 Clouds 22 1012 90 10000 5.99 159 09:39 21.06.2022
2973 Clouds 22 1013 91 10000 5.49 152 07:56 21.06.2022
2974 Clouds 22 1013 91 10000 5.63 155 05:33 21.06.2022
2975 Clouds 23 1010 83 10000 4.12 160 00:35 21.06.2022
2976 Rain 23 1011 88 8000 4.12 160 22:22 20.06.2022
2977 Rain 23 1011 88 10000 6.17 130 21:41 20.06.2022
2978 Drizzle 22 1012 94 3000 5.14 150 20:30 20.06.2022
2979 Rain 23 1012 88 10000 4.12 160 19:37 20.06.2022
2980 Rain 23 1012 83 10000 4.63 150 18:44 20.06.2022
2981 Drizzle 23 1013 83 10000 5.14 160 17:50 20.06.2022
2982 Rain 22 1012 88 10000 5.66 140 16:53 20.06.2022
2983 Clouds 22 1015 89 10000 5.79 145 15:52 20.06.2022
2984 Clouds 22 1013 89 10000 6.06 154 12:37 20.06.2022
2985 Clouds 22 1012 89 10000 5.08 150 10:22 20.06.2022
2986 Clouds 22 1013 89 10000 5.37 149 08:56 20.06.2022
2987 Clouds 22 1013 90 10000 5.51 150 07:53 20.06.2022
2988 Clouds 22 1014 90 10000 5.64 153 05:26 20.06.2022
2989 Clouds 22 1012 89 10000 6.07 164 01:33 20.06.2022
2990 Clouds 24 1010 83 10000 4.12 130 00:19 20.06.2022
2991 Rain 24 1011 83 10000 6.69 130 22:46 19.06.2022
2992 Clouds 24 1011 78 10000 6.17 120 21:48 19.06.2022
2993 Clouds 24 1011 78 10000 6.17 120 21:48 19.06.2022
2994 Clouds 24 1011 78 10000 6.17 120 21:29 19.06.2022
2995 Clouds 24 1012 78 10000 4.12 160 20:30 19.06.2022
2996 Clouds 24 1012 83 10000 5.66 150 19:47 19.06.2022
2997 Clouds 23 1012 88 10000 4.63 120 18:43 19.06.2022
2998 Clouds 23 1012 88 10000 3.6 130 17:48 19.06.2022
2999 Clouds 23 1012 88 10000 3.6 130 17:21 19.06.2022
3000 Clouds 22 1012 88 10000 4.12 160 16:34 19.06.2022
3001 Clouds 22 1014 87 10000 5.89 147 15:38 19.06.2022
3002 Clouds 22 1013 86 10000 5.43 144 14:55 19.06.2022
3003 Clouds 22 1013 86 10000 5.13 145 13:58 19.06.2022
3004 Clouds 22 1013 87 10000 5.51 144 12:56 19.06.2022
3005 Clouds 22 1012 88 10000 6.01 148 10:54 19.06.2022
3006 Clouds 22 1013 88 10000 6.43 153 09:40 19.06.2022
3007 Clouds 22 1013 88 10000 6.31 151 08:47 19.06.2022
3008 Clouds 22 1013 88 10000 6.31 151 08:47 19.06.2022
3009 Clouds 22 1014 89 10000 6.34 154 07:48 19.06.2022
3010 Clouds 22 1014 89 10000 5.6 162 04:45 19.06.2022
3011 Clouds 22 1011 88 10000 5.6 159 01:29 19.06.2022
3012 Rain 22 1010 88 10000 6.17 150 00:24 19.06.2022
3013 Drizzle 23 1010 83 10000 7.2 140 23:35 18.06.2022
3014 Clouds 24 1011 78 10000 6.17 140 22:36 18.06.2022
3015 Clouds 25 1012 73 10000 7.2 150 20:55 18.06.2022
3016 Clouds 25 1012 73 10000 7.2 150 20:27 18.06.2022
3017 Clouds 25 1012 73 10000 6.17 160 19:31 18.06.2022
3018 Drizzle 23 1013 88 10000 6.69 130 18:44 18.06.2022
3019 Clouds 24 1013 78 10000 6.69 140 17:30 18.06.2022
3020 Clouds 24 1013 78 10000 6.69 140 17:30 18.06.2022
3021 Clouds 22 1013 88 10000 6.17 130 16:23 18.06.2022
3022 Clouds 22 1014 89 10000 5.27 152 15:18 18.06.2022
3023 Clouds 22 1014 89 10000 5.27 152 14:42 18.06.2022
3024 Rain 22 1013 87 10000 4.93 156 12:51 18.06.2022
3025 Clouds 22 1013 87 10000 4.47 156 11:31 18.06.2022
3026 Clouds 22 1013 86 10000 4.21 156 10:26 18.06.2022
3027 Clouds 22 1014 86 10000 4.48 149 09:19 18.06.2022
3028 Clouds 22 1014 87 10000 4.87 148 08:18 18.06.2022
3029 Clouds 22 1015 88 10000 5.22 150 06:26 18.06.2022
3030 Clouds 22 1013 88 10000 5.26 149 02:54 18.06.2022
3031 Clouds 22 1012 86 10000 5.66 155 01:24 18.06.2022
3032 Clouds 24 1011 78 10000 7.2 130 00:41 18.06.2022
3033 Clouds 25 1011 73 10000 5.66 140 23:45 17.06.2022
3034 Clouds 25 1011 73 10000 6.17 130 22:55 17.06.2022
3035 Clouds 25 1012 73 10000 8.23 160 20:40 17.06.2022
3036 Clouds 25 1013 73 10000 6.69 160 19:25 17.06.2022
3037 Clouds 25 1014 73 10000 8.23 140 18:24 17.06.2022
3038 Clouds 24 1014 78 10000 7.72 130 17:22 17.06.2022
3039 Clouds 22 1014 88 10000 6.17 120 16:38 17.06.2022
3040 Clouds 22 1016 87 10000 6.4 155 15:41 17.06.2022
3041 Clouds 22 1015 87 10000 6.58 155 14:37 17.06.2022
3042 Clouds 22 1014 87 10000 6.27 157 14:18 17.06.2022
3043 Clouds 22 1014 87 10000 6.17 158 13:41 17.06.2022
3044 Clouds 22 1014 87 10000 6.19 160 12:42 17.06.2022
3045 Clouds 22 1013 87 10000 6.18 160 11:56 17.06.2022
3046 Clouds 22 1013 87 10000 6.18 160 11:34 17.06.2022
3047 Clouds 22 1014 88 10000 5.5 160 09:49 17.06.2022
3048 Clouds 22 1014 88 10000 5.77 163 08:27 17.06.2022
3049 Clouds 22 1015 87 10000 5.93 161 06:51 17.06.2022
3050 Clouds 22 1014 88 10000 6.15 155 04:49 17.06.2022
3051 Clouds 24 1011 78 10000 7.2 140 01:57 17.06.2022
3052 Clouds 24 1011 78 10000 4.63 160 00:26 17.06.2022
3053 Clouds 26 1012 69 10000 5.14 120 22:42 16.06.2022
3054 Clouds 26 1013 69 10000 6.17 140 21:23 16.06.2022
3055 Clouds 26 1014 69 10000 6.69 160 20:55 16.06.2022
3056 Clouds 26 1014 69 10000 6.69 160 20:35 16.06.2022
3057 Clouds 26 1014 69 10000 5.14 180 19:41 16.06.2022
3058 Clouds 23 1014 83 10000 4.63 150 18:26 16.06.2022
3059 Rain 22 1014 94 10000 3.09 160 17:43 16.06.2022
3060 Rain 22 1014 94 10000 3.09 160 17:43 16.06.2022
3061 Clouds 23 1013 78 10000 4.12 140 16:35 16.06.2022
3062 Clouds 22 1014 83 10000 5.51 154 15:22 16.06.2022
3063 Clouds 22 1014 83 10000 5.51 154 14:37 16.06.2022
3064 Clouds 22 1013 83 10000 6.21 154 13:20 16.06.2022
3065 Clouds 22 1013 83 10000 6.21 154 12:36 16.06.2022
3066 Clouds 22 1013 83 10000 6.39 158 11:51 16.06.2022
3067 Clouds 22 1013 83 10000 6.39 158 11:51 16.06.2022
3068 Clouds 22 1013 84 10000 6.42 160 10:55 16.06.2022
3069 Clouds 22 1013 84 10000 5.87 159 09:53 16.06.2022
3070 Clouds 22 1014 84 10000 5.66 156 09:21 16.06.2022
3071 Clouds 22 1014 83 10000 5.72 151 08:28 16.06.2022
3072 Clouds 22 1015 82 10000 5.98 150 07:24 16.06.2022
3073 Clouds 22 1014 82 10000 6.52 148 04:42 16.06.2022
3074 Clouds 22 1012 81 10000 6.43 150 02:19 16.06.2022
3075 Clouds 24 1010 78 10000 7.2 160 01:35 16.06.2022
3076 Clouds 24 1010 78 10000 7.72 180 00:39 16.06.2022
3077 Clouds 25 1010 73 10000 7.2 180 23:33 15.06.2022
3078 Clouds 26 1011 69 10000 7.2 170 22:35 15.06.2022
3079 Clouds 26 1011 69 10000 7.72 160 21:21 15.06.2022
3080 Clouds 25 1012 73 10000 6.69 170 20:38 15.06.2022
3081 Clouds 25 1012 73 10000 6.69 170 20:19 15.06.2022
3082 Clouds 25 1013 73 10000 7.2 180 19:19 15.06.2022
3083 Clouds 24 1013 78 10000 5.14 160 17:55 15.06.2022
3084 Clouds 23 1012 83 10000 6.17 150 16:40 15.06.2022
3085 Clouds 22 1015 80 10000 6.96 150 15:35 15.06.2022
3086 Clouds 22 1013 82 10000 6.71 153 13:43 15.06.2022
3087 Clouds 22 1013 82 10000 6.37 154 12:54 15.06.2022
3088 Clouds 22 1013 80 10000 5.89 155 11:52 15.06.2022
3089 Clouds 22 1013 80 10000 5.53 153 10:24 15.06.2022
3090 Clouds 22 1013 80 10000 5.53 153 09:39 15.06.2022
3091 Clouds 22 1014 80 10000 5.35 152 08:30 15.06.2022
3092 Clouds 22 1015 81 10000 5.34 151 06:33 15.06.2022
3093 Clouds 22 1014 82 10000 6.17 153 03:45 15.06.2022
3094 Clouds 22 1013 81 10000 6.02 155 01:53 15.06.2022
3095 Clouds 25 1010 69 10000 3.09 170 00:50 15.06.2022
3096 Clouds 25 1010 73 10000 4.12 170 23:39 14.06.2022
3097 Clouds 25 1010 73 10000 4.12 170 23:18 14.06.2022
3098 Clouds 25 1010 73 10000 4.63 160 22:18 14.06.2022
3099 Clouds 25 1011 73 10000 5.14 170 21:33 14.06.2022
3100 Clouds 26 1012 65 10000 6.17 170 20:48 14.06.2022
3101 Clouds 26 1012 65 10000 6.17 170 20:28 14.06.2022
3102 Clouds 25 1013 73 10000 4.12 160 18:54 14.06.2022
3103 Clouds 24 1013 78 10000 3.6 140 17:39 14.06.2022
3104 Clouds 23 1013 83 10000 4.12 150 16:43 14.06.2022
3105 Clouds 22 1015 85 10000 4.32 148 15:50 14.06.2022
3106 Clouds 22 1014 86 10000 4.14 147 14:57 14.06.2022
3107 Clouds 22 1014 86 10000 4.14 147 14:30 14.06.2022
3108 Clouds 22 1013 87 10000 4.28 153 13:40 14.06.2022
3109 Clouds 22 1013 87 10000 4.12 155 12:30 14.06.2022
3110 Clouds 22 1013 86 10000 4.13 160 11:28 14.06.2022
3111 Clouds 22 1013 86 10000 4.13 160 10:44 14.06.2022
3112 Clouds 22 1013 86 10000 3.72 164 09:48 14.06.2022
3113 Clouds 22 1013 85 10000 3.74 170 08:45 14.06.2022
3114 Clouds 23 1014 80 10000 3.59 174 07:26 14.06.2022
3115 Clouds 23 1014 80 10000 3.27 169 04:44 14.06.2022
3116 Clouds 23 1013 80 10000 3.72 164 02:45 14.06.2022
3117 Clouds 25 1010 73 10000 5.66 130 00:27 14.06.2022
3118 Clouds 25 1011 73 10000 5.14 140 23:18 13.06.2022
3119 Clouds 25 1011 73 10000 4.12 150 22:25 13.06.2022
3120 Clouds 26 1012 69 10000 5.14 160 21:43 13.06.2022
3121 Clouds 26 1012 69 10000 6.17 140 20:23 13.06.2022
3122 Clouds 25 1013 73 10000 4.63 140 19:34 13.06.2022
3123 Clouds 24 1013 83 10000 3.09 160 17:57 13.06.2022
3124 Clouds 24 1013 83 10000 3.09 160 17:36 13.06.2022
3125 Clouds 23 1012 88 10000 4.12 160 16:39 13.06.2022
3126 Clouds 22 1014 77 10000 4.08 177 15:20 13.06.2022
3127 Clouds 22 1014 77 10000 4.08 177 14:41 13.06.2022
3128 Clouds 22 1014 78 10000 4.04 183 13:41 13.06.2022
3129 Clouds 22 1013 78 10000 4.5 184 12:25 13.06.2022
3130 Clouds 22 1013 77 10000 4.18 189 11:18 13.06.2022
3131 Clouds 22 1013 76 10000 4.15 191 10:26 13.06.2022
3132 Clouds 22 1013 80 10000 4.58 185 09:22 13.06.2022
3133 Clouds 22 1014 79 10000 4.26 182 06:55 13.06.2022
3134 Clouds 22 1014 80 10000 4.53 181 05:36 13.06.2022
3135 Clouds 22 1013 83 10000 4.75 178 02:47 13.06.2022
3136 Clouds 22 1011 83 10000 5.07 184 01:36 13.06.2022
3137 Clouds 25 1010 78 10000 4.12 150 23:50 12.06.2022
3138 Clouds 26 1010 73 10000 6.17 180 22:44 12.06.2022
3139 Clouds 26 1011 73 10000 5.66 160 21:58 12.06.2022
3140 Clouds 26 1012 73 10000 5.14 140 20:54 12.06.2022
3141 Clouds 26 1012 73 10000 5.14 140 20:18 12.06.2022
3142 Clouds 25 1012 78 10000 6.69 150 19:30 12.06.2022
3143 Clouds 24 1012 88 10000 5.14 140 17:41 12.06.2022
3144 Clouds 22 1014 83 10000 5.28 171 15:57 12.06.2022
3145 Clouds 22 1014 83 10000 4.74 165 14:51 12.06.2022
3146 Clouds 22 1013 84 10000 4.54 164 14:20 12.06.2022
3147 Clouds 22 1013 84 10000 4.46 162 13:49 12.06.2022
3148 Clouds 22 1013 85 10000 4.49 166 12:32 12.06.2022
3149 Clouds 22 1013 85 10000 5.01 164 11:22 12.06.2022
3150 Clouds 22 1013 85 10000 5.23 160 10:21 12.06.2022
3151 Clouds 22 1013 84 10000 5.37 154 08:52 12.06.2022
3152 Clouds 22 1013 84 10000 5.37 154 08:34 12.06.2022
3153 Clouds 22 1014 84 10000 5.41 158 06:49 12.06.2022
3154 Clouds 22 1014 85 10000 5.13 164 04:35 12.06.2022
3155 Clouds 22 1013 86 10000 5.46 165 02:32 12.06.2022
3156 Clouds 22 1012 86 10000 5.35 170 01:36 12.06.2022
3157 Clouds 24 1009 83 10000 5.14 160 00:57 12.06.2022
3158 Clouds 24 1009 83 10000 5.14 160 00:19 12.06.2022
3159 Clouds 24 1009 83 10000 5.14 160 00:19 12.06.2022
3160 Clouds 25 1009 78 10000 7.2 160 23:21 11.06.2022
3161 Clouds 25 1010 78 10000 5.14 160 22:37 11.06.2022
3162 Clouds 25 1011 78 10000 4.12 130 21:31 11.06.2022
3163 Rain 24 1012 83 10000 4.12 140 20:27 11.06.2022
3164 Rain 24 1012 83 10000 5.14 130 19:36 11.06.2022
3165 Rain 23 1013 88 10000 4.63 140 18:45 11.06.2022
3166 Rain 23 1013 88 10000 4.63 140 18:27 11.06.2022
3167 Drizzle 21 1013 100 8000 5.14 120 17:48 11.06.2022
3168 Drizzle 21 1013 100 8000 5.14 120 17:26 11.06.2022
3169 Rain 23 1013 88 10000 3.09 160 16:44 11.06.2022
3170 Rain 23 1013 88 10000 3.09 160 16:18 11.06.2022
3171 Clouds 22 1014 86 10000 4.56 167 14:57 11.06.2022
3172 Clouds 22 1013 86 10000 4.55 160 13:52 11.06.2022
3173 Clouds 22 1013 84 10000 5.33 153 12:19 11.06.2022
3174 Clouds 22 1013 84 10000 5.33 153 12:19 11.06.2022
3175 Clouds 22 1013 84 10000 5.34 152 10:31 11.06.2022
3176 Clouds 22 1013 84 10000 5.5 151 09:41 11.06.2022
3177 Clouds 22 1013 84 10000 5.46 150 08:44 11.06.2022
3178 Clouds 22 1014 86 10000 4.97 159 06:33 11.06.2022
3179 Clouds 22 1014 86 10000 4.91 158 05:44 11.06.2022
3180 Clear 22 1012 83 10000 4.36 154 03:18 11.06.2022
3181 Clear 22 1012 82 10000 4.29 151 01:51 11.06.2022
3182 Clear 23 1011 80 10000 4.46 152 01:25 11.06.2022
3183 Clouds 25 1009 73 10000 6.17 140 23:26 10.06.2022
3184 Clouds 26 1010 69 10000 6.69 130 22:20 10.06.2022
3185 Clouds 27 1010 65 10000 7.2 140 21:27 10.06.2022
3186 Clouds 27 1011 65 10000 6.17 160 20:37 10.06.2022
3187 Clouds 27 1011 65 10000 6.17 160 20:19 10.06.2022
3188 Clouds 27 1011 65 10000 6.17 160 20:19 10.06.2022
3189 Clouds 27 1012 65 10000 6.69 120 19:19 10.06.2022
3190 Clouds 26 1012 73 10000 5.14 140 18:30 10.06.2022
3191 Clouds 24 1012 83 10000 5.66 140 17:43 10.06.2022
3192 Clouds 24 1012 83 10000 5.66 140 17:21 10.06.2022
3193 Clouds 23 1012 83 10000 6.17 130 16:25 10.06.2022
3194 Clear 23 1014 80 10000 4.26 149 15:37 10.06.2022
3195 Clouds 22 1013 81 10000 4.92 146 13:57 10.06.2022
3196 Clouds 22 1013 82 10000 4.28 149 12:50 10.06.2022
3197 Clouds 22 1012 82 10000 4.1 152 11:43 10.06.2022
3198 Clouds 22 1012 81 10000 3.91 152 10:45 10.06.2022
3199 Clouds 22 1012 80 10000 3.83 155 09:48 10.06.2022
3200 Clouds 22 1013 79 10000 3.62 155 08:33 10.06.2022
3201 Clouds 22 1014 80 10000 3.62 143 07:24 10.06.2022
3202 Clouds 22 1014 80 10000 3.62 143 06:43 10.06.2022
3203 Clouds 22 1014 80 10000 3.99 140 06:25 10.06.2022
3204 Clouds 22 1013 81 10000 4.58 148 03:55 10.06.2022
3205 Clouds 22 1012 81 10000 4.5 157 01:41 10.06.2022
3206 Clouds 23 1010 78 10000 5.14 140 00:32 10.06.2022
3207 Clouds 24 1010 73 10000 5.66 130 23:38 09.06.2022
3208 Clouds 25 1011 69 10000 6.69 150 22:18 09.06.2022
3209 Clouds 25 1012 69 10000 5.14 160 21:33 09.06.2022
3210 Clouds 25 1012 69 10000 6.17 140 20:54 09.06.2022
3211 Clouds 24 1013 78 10000 5.14 130 19:59 09.06.2022
3212 Clouds 24 1013 78 10000 5.14 130 19:19 09.06.2022
3213 Clouds 23 1013 88 10000 6.17 120 18:21 09.06.2022
3214 Clouds 23 1013 83 10000 6.69 120 16:50 09.06.2022
3215 Clouds 22 1014 79 10000 4.68 135 15:48 09.06.2022
3216 Clouds 22 1014 79 10000 4.68 135 15:48 09.06.2022
3217 Clouds 22 1014 80 10000 4.95 136 14:35 09.06.2022
3218 Clouds 22 1013 80 10000 4.81 138 13:51 09.06.2022
3219 Clouds 22 1013 81 10000 4.9 138 13:27 09.06.2022
3220 Clouds 22 1012 81 10000 4.88 143 11:54 09.06.2022
3221 Clouds 22 1012 81 10000 4.98 146 11:18 09.06.2022
3222 Clouds 22 1013 80 10000 4.78 145 09:43 09.06.2022
3223 Clouds 22 1013 80 10000 4.63 146 09:23 09.06.2022
3224 Clouds 22 1014 83 10000 4.62 150 07:44 09.06.2022
3225 Clouds 22 1014 84 10000 4.74 155 05:48 09.06.2022
3226 Clouds 22 1013 81 10000 4.72 162 02:20 09.06.2022
3227 Clouds 26 1011 65 10000 5.14 140 23:34 08.06.2022
3228 Clouds 26 1011 69 10000 6.17 130 22:56 08.06.2022
3229 Clouds 26 1011 69 10000 6.17 130 22:26 08.06.2022
3230 Clouds 26 1012 69 10000 5.14 140 21:52 08.06.2022
3231 Clouds 26 1012 69 10000 8.23 160 20:57 08.06.2022
3232 Clouds 25 1013 73 10000 6.69 170 19:55 08.06.2022
3233 Clouds 25 1013 73 10000 6.69 170 19:18 08.06.2022
3234 Clouds 25 1013 73 10000 6.17 140 18:42 08.06.2022
3235 Clouds 23 1013 83 10000 4.63 140 16:34 08.06.2022
3236 Clouds 22 1014 81 10000 5.97 148 15:27 08.06.2022
3237 Clouds 22 1013 83 10000 5.9 148 13:37 08.06.2022
3238 Clouds 22 1013 83 10000 5.68 149 11:51 08.06.2022
3239 Clouds 22 1013 83 10000 5.5 146 11:24 08.06.2022
3240 Clouds 22 1014 83 10000 5.4 147 09:47 08.06.2022
3241 Clouds 22 1014 84 10000 5.09 148 09:20 08.06.2022
3242 Clouds 22 1015 84 10000 5.03 155 08:18 08.06.2022
3243 Clouds 22 1015 84 10000 4.29 160 05:22 08.06.2022
3244 Clouds 22 1014 84 10000 4.84 158 02:38 08.06.2022
3245 Clouds 24 1011 78 10000 3.6 140 23:42 07.06.2022
3246 Clouds 24 1011 78 10000 3.6 140 23:24 07.06.2022
3247 Clouds 24 1011 78 10000 3.09 170 22:39 07.06.2022
3248 Drizzle 24 1012 83 10000 4.63 190 21:59 07.06.2022
3249 Drizzle 24 1012 83 10000 4.63 190 21:27 07.06.2022
3250 Clouds 24 1013 78 10000 3.09 190 20:46 07.06.2022
3251 Clouds 24 1013 78 10000 3.09 190 20:24 07.06.2022
3252 Drizzle 22 1013 94 10000 2.57 180 19:19 07.06.2022
3253 Clouds 23 1014 88 10000 2.06 150 17:55 07.06.2022
3254 Clouds 22 1013 88 10000 3.09 170 16:56 07.06.2022
3255 Clouds 22 1013 88 10000 3.09 170 16:33 07.06.2022
3256 Clouds 23 1014 79 10000 3.69 194 15:40 07.06.2022
3257 Clouds 23 1013 80 10000 3.32 196 15:22 07.06.2022
3258 Clouds 23 1013 80 10000 3.32 196 14:46 07.06.2022
3259 Clouds 23 1013 82 10000 3.55 190 13:46 07.06.2022
3260 Clouds 23 1013 82 10000 3.55 190 13:46 07.06.2022
3261 Clouds 22 1013 83 10000 3.53 181 13:27 07.06.2022
3262 Clouds 22 1012 83 10000 3.2 177 12:22 07.06.2022
3263 Clouds 22 1012 84 10000 3.18 181 10:57 07.06.2022
3264 Clouds 22 1013 84 10000 3.42 181 09:46 07.06.2022
3265 Clouds 22 1013 84 10000 3.12 180 08:32 07.06.2022
3266 Clouds 23 1014 82 10000 3.61 172 07:21 07.06.2022
3267 Clouds 23 1014 82 10000 3.59 168 05:47 07.06.2022
3268 Clouds 23 1012 84 10000 4.09 166 01:44 07.06.2022
3269 Clouds 23 1009 88 10000 3.09 160 00:20 07.06.2022
3270 Clouds 25 1009 73 10000 3.09 170 23:25 06.06.2022
3271 Clouds 25 1010 73 10000 4.12 180 22:37 06.06.2022
3272 Clouds 26 1010 69 10000 3.6 170 21:33 06.06.2022
3273 Clouds 25 1012 73 10000 4.12 130 19:37 06.06.2022
3274 Clouds 25 1012 73 10000 4.12 130 19:19 06.06.2022
3275 Clouds 24 1012 83 10000 6.17 150 18:34 06.06.2022
3276 Clouds 23 1012 83 10000 4.12 130 17:31 06.06.2022
3277 Clouds 23 1011 88 10000 6.69 150 16:21 06.06.2022
3278 Clouds 23 1014 83 10000 5.2 150 15:33 06.06.2022
3279 Clouds 23 1013 84 10000 4.9 155 14:36 06.06.2022
3280 Clouds 22 1012 86 10000 5.54 165 13:27 06.06.2022
3281 Clouds 22 1012 86 10000 5.54 165 12:37 06.06.2022
3282 Clouds 22 1012 86 10000 5.75 165 11:54 06.06.2022
3283 Clouds 22 1012 85 10000 6.12 171 10:46 06.06.2022
3284 Clouds 23 1012 85 10000 6.1 169 09:40 06.06.2022
3285 Clouds 23 1013 85 10000 5.84 165 08:33 06.06.2022
3286 Clouds 23 1014 86 10000 5.55 164 07:28 06.06.2022
3287 Clouds 23 1014 87 10000 5.68 167 05:28 06.06.2022
3288 Clouds 23 1014 86 10000 6.08 171 03:39 06.06.2022
3289 Clouds 23 1012 86 10000 5.99 174 01:23 06.06.2022
3290 Clouds 24 1009 83 10000 6.69 160 00:39 06.06.2022
3291 Clouds 24 1010 78 10000 7.72 160 23:40 05.06.2022
3292 Rain 24 1010 83 10000 6.17 150 22:45 05.06.2022
3293 Clouds 25 1011 78 10000 8.23 140 20:47 05.06.2022
3294 Clouds 26 1012 73 10000 7.2 150 19:44 05.06.2022
3295 Clouds 25 1012 78 10000 8.23 160 18:30 05.06.2022
3296 Clouds 24 1012 83 10000 7.2 160 17:54 05.06.2022
3297 Clouds 24 1012 83 10000 7.2 160 17:25 05.06.2022
3298 Clouds 23 1012 88 10000 7.72 150 16:51 05.06.2022
3299 Clouds 23 1012 88 10000 7.72 150 16:32 05.06.2022
3300 Clouds 22 1013 88 10000 5.61 151 14:25 05.06.2022
3301 Clouds 22 1013 87 10000 5.64 151 12:55 05.06.2022
3302 Clouds 22 1013 87 10000 5.64 151 12:55 05.06.2022
3303 Clouds 22 1013 86 10000 5.56 150 11:45 05.06.2022
3304 Clouds 22 1012 86 10000 5.44 153 10:34 05.06.2022
3305 Clouds 22 1013 87 10000 5.71 158 09:59 05.06.2022
3306 Clouds 22 1013 87 10000 5.52 164 08:32 05.06.2022
3307 Clouds 22 1014 88 10000 5.09 168 07:43 05.06.2022
3308 Clouds 22 1013 89 10000 5.07 166 05:22 05.06.2022
3309 Clouds 22 1013 89 10000 4.89 165 03:46 05.06.2022
3310 Clouds 22 1012 88 10000 4.82 175 01:32 05.06.2022
3311 Clouds 24 1010 83 10000 4.12 150 00:29 05.06.2022
3312 Clouds 25 1011 78 10000 5.14 170 21:58 04.06.2022
3313 Clouds 25 1012 78 10000 5.66 150 20:31 04.06.2022
3314 Clouds 24 1013 88 10000 7.2 140 18:19 04.06.2022
3315 Drizzle 21 1012 100 4000 3.09 120 16:43 04.06.2022
3316 Drizzle 21 1012 100 4000 3.09 120 16:18 04.06.2022
3317 Clouds 22 1013 87 10000 3.82 164 14:47 04.06.2022
3318 Clouds 22 1013 88 10000 3.43 165 12:28 04.06.2022
3319 Clouds 22 1013 88 10000 3.36 163 10:58 04.06.2022
3320 Clouds 22 1013 88 10000 3.57 171 10:26 04.06.2022
3321 Clouds 22 1013 88 10000 3.57 171 09:42 04.06.2022
3322 Clouds 22 1013 88 10000 3.59 165 08:40 04.06.2022
3323 Clouds 22 1013 89 10000 3.82 167 07:40 04.06.2022
3324 Clouds 22 1013 89 10000 5 155 04:38 04.06.2022
3325 Clouds 22 1011 86 10000 4.46 161 01:25 04.06.2022
3326 Clouds 24 1010 83 10000 4.12 140 23:53 03.06.2022
3327 Clouds 25 1010 78 10000 5.66 160 22:30 03.06.2022
3328 Clouds 25 1011 78 10000 5.14 130 21:21 03.06.2022
3329 Clouds 25 1012 78 10000 6.69 130 20:33 03.06.2022
3330 Drizzle 23 1013 88 10000 4.63 120 17:58 03.06.2022
3331 Clouds 24 1012 83 10000 4.12 150 16:47 03.06.2022
3332 Clouds 22 1014 88 10000 3.8 159 15:18 03.06.2022
3333 Clouds 22 1013 88 10000 3.73 157 13:20 03.06.2022
3334 Clouds 22 1013 88 10000 4.01 155 11:19 03.06.2022
3335 Clouds 22 1013 88 10000 4.21 155 09:38 03.06.2022
3336 Clouds 22 1014 88 10000 4.41 156 08:45 03.06.2022
3337 Clouds 22 1015 87 10000 3.97 153 07:26 03.06.2022
3338 Clouds 22 1015 87 10000 3.97 153 06:32 03.06.2022
3339 Clouds 22 1014 87 10000 4.81 167 05:19 03.06.2022
3340 Clouds 24 1010 83 10000 5.14 150 00:25 03.06.2022
3341 Drizzle 24 1011 83 8000 6.17 140 22:41 02.06.2022
3342 Clouds 25 1012 78 10000 6.69 140 21:38 02.06.2022
3343 Clouds 25 1012 78 10000 7.72 150 20:22 02.06.2022
3344 Clouds 25 1013 78 10000 6.69 150 19:43 02.06.2022
3345 Clouds 25 1013 78 10000 6.69 150 19:23 02.06.2022
3346 Clouds 23 1013 88 10000 5.14 130 16:47 02.06.2022
3347 Clouds 23 1013 88 10000 5.14 130 16:27 02.06.2022
3348 Clouds 22 1013 90 10000 5.46 156 13:56 02.06.2022
3349 Clouds 22 1012 90 10000 5.19 156 13:29 02.06.2022
3350 Clouds 22 1012 90 10000 4.83 151 11:22 02.06.2022
3351 Clouds 22 1012 91 10000 4.62 150 10:20 02.06.2022
3352 Clouds 22 1013 91 10000 4.72 151 09:27 02.06.2022
3353 Clouds 22 1013 91 10000 5 156 08:26 02.06.2022
3354 Clouds 22 1014 91 10000 5.06 158 06:59 02.06.2022
3355 Rain 22 1014 90 10000 5.27 161 04:40 02.06.2022
3356 Clouds 22 1013 89 10000 5.4 163 02:30 02.06.2022
3357 Clouds 24 1010 83 10000 6.17 170 23:43 01.06.2022
3358 Clouds 24 1010 83 10000 6.17 170 23:43 01.06.2022
3359 Clouds 24 1010 83 10000 6.17 170 23:43 01.06.2022
3360 Clouds 24 1010 83 10000 6.17 170 23:43 01.06.2022
3361 Clouds 24 1010 83 10000 6.17 170 23:43 01.06.2022
3362 Clouds 24 1010 83 10000 6.17 170 23:43 01.06.2022
3363 Clouds 24 1010 83 10000 6.17 170 23:43 01.06.2022
3364 Rain 24 1011 83 8000 7.2 150 22:23 01.06.2022
3365 Drizzle 25 1011 78 10000 7.72 140 21:32 01.06.2022
3366 Clouds 25 1011 78 10000 5.14 170 20:40 01.06.2022
3367 Clouds 25 1012 83 10000 5.14 160 19:53 01.06.2022
3368 Clouds 24 1012 83 10000 4.12 160 18:58 01.06.2022
3369 Clouds 25 1012 78 10000 4.63 150 17:40 01.06.2022
3370 Clouds 23 1012 88 10000 3.09 150 16:33 01.06.2022
3371 Rain 23 1014 91 10000 5.09 170 14:52 01.06.2022
3372 Rain 23 1013 91 10000 4.61 167 13:44 01.06.2022
3373 Clouds 23 1012 91 10000 5.15 168 12:25 01.06.2022
3374 Clouds 23 1012 90 10000 5.51 170 09:36 01.06.2022
3375 Clouds 23 1013 91 10000 5.57 166 08:29 01.06.2022
3376 Clouds 23 1014 91 10000 5.49 164 07:21 01.06.2022
3377 Clouds 23 1014 90 10000 5.2 162 04:59 01.06.2022
3378 Clouds 25 1009 78 10000 6.17 140 23:57 31.05.2022
3379 Clouds 26 1010 78 10000 8.75 150 22:51 31.05.2022
3380 Clouds 26 1010 78 10000 8.75 150 22:29 31.05.2022
3381 Clouds 26 1010 78 10000 9.26 170 21:45 31.05.2022
3382 Clouds 26 1010 78 10000 5.14 150 20:44 31.05.2022
3383 Clouds 26 1011 78 10000 7.72 140 19:52 31.05.2022
3384 Clouds 25 1012 78 10000 6.93 159 18:44 31.05.2022
3385 Clouds 24 1012 83 10000 7.72 120 17:49 31.05.2022
3386 Clouds 23 1012 88 10000 6.17 150 16:48 31.05.2022
3387 Clouds 22 1014 89 10000 6.44 163 15:40 31.05.2022
3388 Rain 22 1013 91 10000 5.51 159 13:37 31.05.2022
3389 Rain 22 1012 91 10000 5.49 156 12:19 31.05.2022
3390 Clouds 22 1012 91 10000 5.51 157 10:52 31.05.2022
3391 Clouds 22 1012 91 10000 5.41 162 08:37 31.05.2022
3392 Clouds 22 1014 91 10000 5.12 164 06:52 31.05.2022
3393 Clouds 22 1013 90 10000 5.41 164 04:34 31.05.2022
3394 Drizzle 22 1009 94 2000 4.12 180 23:49 30.05.2022
3395 Drizzle 22 1009 94 2000 4.12 180 23:25 30.05.2022
3396 Drizzle 23 1009 94 2000 3.09 180 22:42 30.05.2022
3397 Drizzle 22 1010 100 2000 3.09 180 21:42 30.05.2022
3398 Drizzle 22 1010 100 2000 3.09 180 21:21 30.05.2022
3399 Drizzle 23 1011 94 3000 3.6 150 19:45 30.05.2022
3400 Drizzle 22 1011 100 4000 7.2 140 18:21 30.05.2022
3401 Drizzle 22 1011 100 4000 5.14 170 17:23 30.05.2022
3402 Drizzle 22 1011 94 4000 5.14 160 16:30 30.05.2022
3403 Clouds 22 1012 87 10000 4.06 171 13:38 30.05.2022
3404 Clouds 22 1011 86 10000 3.68 171 11:40 30.05.2022
3405 Clouds 22 1011 87 10000 3.37 168 09:58 30.05.2022
3406 Clouds 22 1011 87 10000 3.62 163 08:52 30.05.2022
3407 Clouds 23 1013 87 10000 3.46 167 06:26 30.05.2022
3408 Clouds 23 1012 88 10000 3.33 168 04:52 30.05.2022
3409 Clouds 24 1008 78 10000 2.57 150 00:43 30.05.2022
3410 Rain 23 1009 88 10000 5.66 120 22:41 29.05.2022
3411 Rain 23 1010 83 10000 3.09 110 21:46 29.05.2022
3412 Clouds 25 1011 73 10000 3.09 180 20:23 29.05.2022
3413 Clouds 26 1011 69 10000 4.12 120 19:29 29.05.2022
3414 Clouds 24 1011 78 10000 4.12 170 18:34 29.05.2022
3415 Clouds 23 1010 83 10000 4.12 170 16:25 29.05.2022
3416 Clouds 23 1012 83 10000 5.02 156 15:46 29.05.2022
3417 Clouds 23 1011 84 10000 4.94 152 14:54 29.05.2022
3418 Clouds 22 1011 85 10000 4.82 150 12:57 29.05.2022
3419 Clouds 22 1011 84 10000 4.16 146 11:20 29.05.2022
3420 Clouds 22 1011 84 10000 3.99 144 10:29 29.05.2022
3421 Clouds 22 1011 83 10000 4.26 150 08:31 29.05.2022
3422 Clouds 22 1012 83 10000 5.11 154 04:58 29.05.2022
3423 Clouds 22 1012 83 10000 5.11 154 04:36 29.05.2022
3424 Clouds 23 1010 79 10000 4.36 178 01:28 29.05.2022
3425 Clouds 25 1009 73 10000 6.17 150 23:48 28.05.2022
3426 Clouds 25 1009 73 10000 6.17 150 23:19 28.05.2022
3427 Clouds 26 1010 73 10000 7.2 190 21:53 28.05.2022
3428 Clouds 26 1011 73 10000 6.69 170 20:58 28.05.2022
3429 Clouds 27 1011 65 10000 6.69 180 19:20 28.05.2022
3430 Clouds 25 1011 78 10000 4.12 170 18:24 28.05.2022
3431 Drizzle 23 1011 88 10000 3.6 170 17:33 28.05.2022
3432 Clouds 22 1013 83 10000 4.95 169 15:51 28.05.2022
3433 Clouds 22 1013 84 10000 5.05 162 15:20 28.05.2022
3434 Clouds 22 1012 83 10000 4.66 164 13:38 28.05.2022
3435 Clouds 22 1012 83 10000 4.69 165 12:43 28.05.2022
3436 Clouds 22 1011 83 10000 4.73 166 11:37 28.05.2022
3437 Clouds 22 1011 83 10000 4.65 175 10:39 28.05.2022
3438 Clouds 22 1012 83 10000 4.27 173 09:54 28.05.2022
3439 Clouds 22 1013 82 10000 4.06 171 08:24 28.05.2022
3440 Clouds 22 1013 84 10000 4.59 172 06:50 28.05.2022
3441 Clouds 22 1014 84 10000 4.72 168 05:18 28.05.2022
3442 Clouds 22 1012 84 10000 4.52 157 02:26 28.05.2022
3443 Clouds 25 1010 73 10000 6.17 160 23:57 27.05.2022
3444 Clouds 25 1010 78 10000 6.17 140 22:38 27.05.2022
3445 Clouds 26 1011 69 10000 6.17 160 21:28 27.05.2022
3446 Clouds 26 1011 69 10000 5.14 170 20:44 27.05.2022
3447 Clouds 26 1011 69 10000 5.14 170 20:19 27.05.2022
3448 Clouds 26 1012 69 10000 4.12 160 19:38 27.05.2022
3449 Clouds 26 1012 69 10000 4.12 160 19:19 27.05.2022
3450 Clouds 26 1012 69 10000 4.12 160 19:19 27.05.2022
3451 Clouds 25 1012 73 10000 4.12 190 17:19 27.05.2022
3452 Clouds 22 1014 77 10000 5.57 161 15:56 27.05.2022
3453 Clouds 22 1014 75 10000 5.64 161 14:53 27.05.2022
3454 Clouds 22 1013 75 10000 5.49 159 13:40 27.05.2022
3455 Clouds 22 1013 76 10000 4.71 156 11:55 27.05.2022
3456 Clouds 22 1013 76 10000 4.71 156 11:30 27.05.2022
3457 Clouds 22 1013 76 10000 4.3 153 10:38 27.05.2022
3458 Clouds 22 1013 76 10000 4.15 155 09:58 27.05.2022
3459 Clouds 22 1013 76 10000 4.21 152 09:28 27.05.2022
3460 Clouds 22 1013 79 10000 4.2 154 07:30 27.05.2022
3461 Clouds 22 1013 75 10000 4.53 168 03:38 27.05.2022
3462 Clouds 22 1012 77 10000 4.83 158 01:19 27.05.2022
3463 Clear 27 1010 61 10000 7.2 130 23:23 26.05.2022
3464 Clouds 26 1012 69 10000 4.12 140 21:53 26.05.2022
3465 Clouds 26 1012 69 10000 4.12 140 21:27 26.05.2022
3466 Clouds 26 1013 69 10000 4.63 140 19:34 26.05.2022
3467 Clouds 26 1013 65 10000 3.09 130 18:24 26.05.2022
3468 Clouds 25 1012 69 10000 3.09 160 17:34 26.05.2022
3469 Clouds 23 1011 83 10000 3.09 130 15:58 26.05.2022
3470 Clouds 23 1011 83 10000 3.09 130 15:18 26.05.2022
3471 Clouds 22 1013 79 10000 4.53 135 13:46 26.05.2022
3472 Clouds 22 1012 80 10000 5.51 134 11:47 26.05.2022
3473 Clouds 22 1012 80 10000 4.94 127 10:39 26.05.2022
3474 Clouds 22 1013 81 10000 4.57 123 09:37 26.05.2022
3475 Clouds 22 1013 82 10000 4.68 116 08:38 26.05.2022
3476 Clouds 22 1013 82 10000 4.81 138 05:25 26.05.2022
3477 Clouds 24 1010 78 10000 3.09 130 01:26 26.05.2022
3478 Clouds 26 1010 69 10000 6.17 130 23:41 25.05.2022
3479 Clouds 27 1011 65 10000 6.17 120 22:48 25.05.2022
3480 Clouds 23 1011 81 10000 6.39 158 21:37 25.05.2022
3481 Clouds 23 1012 81 10000 6.39 162 20:39 25.05.2022
3482 Clouds 26 1011 69 10000 5.14 130 19:31 25.05.2022
3483 Clouds 26 1011 73 10000 5.14 140 18:20 25.05.2022
3484 Clouds 24 1011 83 10000 2.57 120 16:41 25.05.2022
3485 Clouds 23 1013 86 10000 5.61 149 15:58 25.05.2022
3486 Clouds 23 1013 86 10000 5.31 145 14:56 25.05.2022
3487 Clouds 23 1013 86 10000 5.31 145 14:33 25.05.2022
3488 Clouds 22 1012 88 10000 6.21 148 13:58 25.05.2022
3489 Clouds 22 1012 87 10000 5.72 147 12:48 25.05.2022
3490 Clouds 23 1011 85 10000 4.65 149 10:58 25.05.2022
3491 Clouds 23 1011 85 10000 4.59 153 10:20 25.05.2022
3492 Clouds 23 1012 86 10000 4.36 154 08:41 25.05.2022
3493 Clouds 23 1013 85 10000 4.61 153 07:23 25.05.2022
3494 Clouds 23 1013 87 10000 5.9 162 05:18 25.05.2022
3495 Clouds 24 1008 88 10000 4.12 160 00:28 25.05.2022
3496 Clouds 26 1008 73 10000 4.12 140 23:47 24.05.2022
3497 Clouds 27 1008 69 10000 6.17 120 22:39 24.05.2022
3498 Clouds 27 1009 69 10000 5.14 130 21:43 24.05.2022
3499 Clouds 27 1009 69 10000 5.14 130 21:21 24.05.2022
3500 Clouds 27 1009 69 10000 5.14 130 21:21 24.05.2022
3501 Clouds 26 1010 73 10000 7.2 160 20:38 24.05.2022
3502 Clouds 26 1011 73 10000 6.17 150 18:57 24.05.2022
3503 Clear 24 1010 83 10000 3.6 150 16:58 24.05.2022
3504 Clear 24 1010 83 10000 3.6 150 16:28 24.05.2022
3505 Clouds 23 1013 87 10000 5.06 169 15:18 24.05.2022
3506 Clouds 23 1013 87 10000 5.06 169 14:34 24.05.2022
3507 Clouds 23 1012 87 10000 5.55 166 13:27 24.05.2022
3508 Clouds 23 1012 87 10000 5.44 165 11:49 24.05.2022
3509 Clouds 23 1012 87 10000 4.24 163 09:47 24.05.2022
3510 Clouds 23 1013 87 10000 3.89 161 08:51 24.05.2022
3511 Clouds 23 1014 88 10000 4.38 163 06:58 24.05.2022
3512 Clouds 23 1014 87 10000 4.71 161 05:59 24.05.2022
3513 Clouds 23 1013 85 10000 4.63 167 02:53 24.05.2022
3514 Clouds 23 1012 84 10000 4.1 169 01:44 24.05.2022
3515 Clouds 27 1010 69 10000 8.75 140 23:44 23.05.2022
3516 Clouds 27 1010 69 10000 9.26 150 22:22 23.05.2022
3517 Clouds 27 1011 69 10000 7.72 120 21:41 23.05.2022
3518 Clouds 27 1011 69 10000 9.77 120 20:45 23.05.2022
3519 Clouds 26 1012 73 10000 7.72 140 19:41 23.05.2022
3520 Clouds 23 1015 85 10000 4.96 158 19:00 23.05.2022
3521 Clouds 26 1013 73 10000 9.26 120 18:37 23.05.2022
3522 Clouds 24 1012 83 10000 7.72 140 17:55 23.05.2022
3523 Clouds 23 1015 87 10000 5.11 149 15:47 23.05.2022
3524 Clouds 23 1014 88 10000 4.4 153 13:44 23.05.2022
3525 Clouds 23 1013 89 10000 4.44 155 11:36 23.05.2022
3526 Clouds 23 1013 89 10000 4.47 158 10:43 23.05.2022
3527 Clouds 23 1013 88 10000 4.2 155 09:40 23.05.2022
3528 Clouds 23 1014 87 10000 3.7 151 08:38 23.05.2022
3529 Clouds 23 1015 87 10000 3.44 147 06:47 23.05.2022
3530 Clouds 23 1016 87 10000 3.55 146 06:23 23.05.2022
3531 Clouds 23 1014 88 10000 3.97 143 02:35 23.05.2022
3532 Clouds 23 1014 86 10000 4.22 143 01:48 23.05.2022
3533 Clouds 23 1013 85 10000 4.26 142 01:19 23.05.2022
3534 Clouds 24 1012 83 10000 5.14 130 22:47 22.05.2022
3535 Clouds 24 1012 83 10000 5.14 130 22:18 22.05.2022
3536 Clouds 25 1013 78 10000 3.09 130 21:49 22.05.2022
3537 Clouds 25 1014 78 10000 5.14 120 20:40 22.05.2022
3538 Clouds 25 1014 78 10000 5.14 120 20:19 22.05.2022
3539 Clouds 24 1015 83 10000 6.17 130 18:58 22.05.2022
3540 Clouds 24 1015 83 10000 6.17 130 18:31 22.05.2022
3541 Clouds 24 1015 83 10000 3.09 140 17:51 22.05.2022
3542 Clouds 24 1015 83 10000 4.12 120 16:51 22.05.2022
3543 Clouds 23 1016 87 10000 4.45 147 14:56 22.05.2022
3544 Clouds 23 1016 87 10000 4.45 147 14:35 22.05.2022
3545 Clear 22 1015 88 10000 4.22 135 12:54 22.05.2022
3546 Clear 22 1014 88 10000 4.18 129 11:53 22.05.2022
3547 Clear 22 1014 88 10000 4.16 126 10:29 22.05.2022
3548 Clear 22 1014 88 10000 4.2 120 09:19 22.05.2022
3549 Clouds 22 1015 89 10000 3.81 115 07:34 22.05.2022
3550 Clouds 22 1015 88 10000 3.65 119 06:40 22.05.2022
3551 Clouds 23 1014 84 10000 4.59 135 03:20 22.05.2022
3552 Clear 27 1011 61 10000 5.14 90 00:48 22.05.2022
3553 Clouds 27 1011 61 10000 6.17 130 23:56 21.05.2022
3554 Clouds 27 1011 61 10000 6.17 130 23:22 21.05.2022
3555 Clouds 27 1012 61 10000 4.63 130 21:59 21.05.2022
3556 Clouds 27 1012 61 10000 4.63 130 21:30 21.05.2022
3557 Clouds 26 1013 69 10000 2.06 60 20:29 21.05.2022
3558 Clouds 27 1014 65 10000 5.14 160 19:43 21.05.2022
3559 Clouds 26 1014 69 10000 4.12 90 18:31 21.05.2022
3560 Clouds 22 1014 88 10000 1.54 360 16:57 21.05.2022
3561 Clouds 22 1015 85 10000 4.01 124 14:38 21.05.2022
3562 Clouds 22 1014 87 10000 4.21 131 13:54 21.05.2022
3563 Clouds 22 1014 87 10000 4.66 135 13:19 21.05.2022
3564 Clouds 22 1014 87 10000 4.66 135 12:38 21.05.2022
3565 Clouds 22 1013 86 10000 4.23 139 11:20 21.05.2022
3566 Clouds 22 1013 86 10000 4.11 140 09:53 21.05.2022
3567 Clouds 22 1014 86 10000 3.83 146 08:58 21.05.2022
3568 Clouds 22 1014 86 10000 3.83 146 08:36 21.05.2022
3569 Clear 23 1014 86 10000 5 131 05:29 21.05.2022
3570 Clouds 23 1011 82 10000 5.3 147 01:24 21.05.2022
3571 Clouds 27 1010 69 10000 5.66 140 23:29 20.05.2022
3572 Clouds 27 1010 69 10000 5.14 170 22:26 20.05.2022
3573 Clouds 27 1011 69 10000 5.14 170 21:55 20.05.2022
3574 Clouds 27 1012 69 10000 6.17 160 20:58 20.05.2022
3575 Clouds 27 1012 69 10000 6.17 160 20:58 20.05.2022
3576 Clouds 27 1012 69 10000 6.17 160 20:29 20.05.2022
3577 Clouds 27 1013 74 10000 5.14 150 19:30 20.05.2022
3578 Clouds 27 1013 74 10000 5.14 160 18:47 20.05.2022
3579 Clouds 26 1013 78 10000 3.6 140 17:43 20.05.2022
3580 Clouds 24 1013 88 10000 4.12 150 16:21 20.05.2022
3581 Clouds 23 1014 84 10000 4.62 154 15:53 20.05.2022
3582 Clouds 23 1014 85 10000 4.02 156 14:31 20.05.2022
3583 Clouds 23 1013 88 10000 3.57 151 13:56 20.05.2022
3584 Clouds 23 1012 91 10000 3.89 161 11:45 20.05.2022
3585 Clouds 23 1013 92 10000 4.46 171 10:23 20.05.2022
3586 Clouds 23 1013 92 10000 3.46 168 08:50 20.05.2022
3587 Clouds 23 1014 89 10000 3.85 161 07:25 20.05.2022
3588 Clouds 23 1014 89 10000 3.85 161 06:36 20.05.2022
3589 Clouds 23 1014 90 10000 3.9 156 05:22 20.05.2022
3590 Clouds 24 1012 89 10000 4.13 161 00:54 20.05.2022
3591 Clouds 28 1011 69 10000 5.14 160 22:57 19.05.2022
3592 Clouds 28 1011 69 10000 5.14 160 22:25 19.05.2022
3593 Clouds 27 1011 74 10000 8.75 140 21:48 19.05.2022
3594 Clouds 27 1011 74 10000 8.75 140 21:23 19.05.2022
3595 Clouds 27 1012 74 10000 8.23 130 20:39 19.05.2022
3596 Clouds 27 1013 74 10000 7.72 140 19:52 19.05.2022
3597 Clouds 27 1013 74 10000 7.2 140 18:34 19.05.2022
3598 Clouds 24 1015 90 10000 4.8 153 17:31 19.05.2022
3599 Clouds 23 1014 93 10000 4.29 146 15:21 19.05.2022
3600 Clouds 23 1014 94 10000 4.13 149 14:26 19.05.2022
3601 Clouds 23 1014 94 10000 3.71 147 13:47 19.05.2022
3602 Clouds 23 1013 94 10000 3.18 153 11:41 19.05.2022
3603 Clouds 23 1014 93 10000 3.57 162 09:29 19.05.2022
3604 Clouds 23 1015 94 10000 3.81 164 07:52 19.05.2022
3605 Clouds 23 1015 93 10000 3.71 162 06:18 19.05.2022
3606 Clouds 24 1012 90 10000 4.11 158 02:27 19.05.2022
3607 Clear 26 1010 73 10000 7.2 120 00:40 19.05.2022
3608 Clouds 27 1011 74 10000 7.2 130 22:51 18.05.2022
3609 Clouds 27 1011 74 10000 7.2 130 22:24 18.05.2022
3610 Clouds 28 1013 69 10000 6.69 120 21:30 18.05.2022
3611 Clouds 28 1014 65 10000 7.2 120 20:47 18.05.2022
3612 Clouds 28 1014 65 10000 7.2 120 20:18 18.05.2022
3613 Clouds 28 1014 65 10000 7.2 120 20:18 18.05.2022
3614 Clouds 28 1014 65 10000 7.2 120 20:18 18.05.2022
3615 Clouds 27 1015 74 10000 7.2 120 18:33 18.05.2022
3616 Clouds 26 1015 78 10000 6.69 150 17:41 18.05.2022
3617 Clouds 26 1015 78 10000 6.69 150 17:23 18.05.2022
3618 Clouds 24 1014 88 10000 4.12 130 16:34 18.05.2022
3619 Clouds 23 1016 90 10000 3.7 162 15:42 18.05.2022
3620 Clouds 23 1015 90 10000 3.11 161 14:35 18.05.2022
3621 Clouds 23 1014 91 10000 2.94 159 13:41 18.05.2022
3622 Clouds 23 1014 91 10000 3.15 167 12:43 18.05.2022
3623 Clouds 23 1014 91 10000 3.26 174 11:34 18.05.2022
3624 Clouds 23 1014 91 10000 3.47 172 10:56 18.05.2022
3625 Clouds 23 1014 91 10000 3.47 172 10:56 18.05.2022
3626 Clouds 23 1014 90 10000 3.39 171 09:31 18.05.2022
3627 Clouds 23 1015 90 10000 3.13 161 07:36 18.05.2022
3628 Clouds 23 1016 89 10000 3.9 170 05:56 18.05.2022
3629 Clouds 24 1012 86 10000 3.83 172 01:20 18.05.2022
3630 Clouds 26 1010 73 10000 4.12 180 00:22 18.05.2022
3631 Clouds 28 1012 65 10000 6.17 160 21:56 17.05.2022
3632 Clouds 28 1012 65 10000 6.17 160 21:20 17.05.2022
3633 Clouds 28 1013 65 10000 7.2 170 19:59 17.05.2022
3634 Clouds 28 1013 65 10000 7.2 170 19:27 17.05.2022
3635 Clouds 27 1014 69 10000 4.63 160 17:50 17.05.2022
3636 Clouds 24 1014 88 10000 4.12 150 16:58 17.05.2022
3637 Clouds 24 1014 88 10000 4.12 150 16:29 17.05.2022
3638 Clouds 23 1014 88 10000 2.49 185 15:24 17.05.2022
3639 Clouds 23 1014 88 10000 2.49 185 14:30 17.05.2022
3640 Clouds 23 1014 88 10000 2.49 185 14:30 17.05.2022
3641 Clouds 23 1013 91 10000 2.96 159 13:32 17.05.2022
3642 Clouds 23 1013 91 10000 3.18 162 11:37 17.05.2022
3643 Clouds 23 1014 92 10000 2.65 149 09:23 17.05.2022
3644 Clouds 23 1015 93 10000 2.73 156 08:23 17.05.2022
3645 Clouds 23 1015 92 10000 3.1 162 06:45 17.05.2022
3646 Clouds 23 1013 92 10000 3.36 142 02:55 17.05.2022
3647 Clouds 26 1010 78 10000 5.14 150 00:32 17.05.2022
3648 Clouds 27 1011 74 10000 6.17 120 22:42 16.05.2022
3649 Clouds 28 1012 69 10000 8.23 130 21:36 16.05.2022
3650 Clouds 28 1013 69 10000 5.14 160 20:46 16.05.2022
3651 Clouds 27 1013 74 10000 4.12 120 19:22 16.05.2022
3652 Clouds 27 1013 74 10000 7.72 120 18:18 16.05.2022
3653 Clouds 23 1014 91 10000 4.54 175 15:49 16.05.2022
3654 Clouds 23 1013 92 10000 3.37 147 13:49 16.05.2022
3655 Clouds 22 1012 92 10000 3.41 151 12:50 16.05.2022
3656 Clouds 23 1012 92 10000 3.79 163 10:53 16.05.2022
3657 Clouds 23 1012 92 10000 4.01 171 09:23 16.05.2022
3658 Clouds 23 1013 91 10000 3.43 181 06:34 16.05.2022
3659 Clouds 23 1012 90 10000 3.83 161 02:38 16.05.2022
3660 Clouds 27 1008 69 10000 8.23 130 23:19 15.05.2022
3661 Clouds 27 1009 69 10000 8.75 140 22:29 15.05.2022
3662 Clouds 27 1010 69 10000 7.2 160 21:39 15.05.2022
3663 Clouds 28 1011 65 10000 8.23 120 20:53 15.05.2022
3664 Clouds 27 1011 69 10000 7.2 170 19:24 15.05.2022
3665 Clouds 25 1011 78 10000 6.69 140 17:48 15.05.2022
3666 Clouds 23 1013 88 10000 3.64 138 15:44 15.05.2022
3667 Clouds 22 1012 90 10000 3.38 148 13:49 15.05.2022
3668 Clouds 22 1011 91 10000 3.55 139 12:22 15.05.2022
3669 Clouds 22 1011 91 10000 3.56 149 11:29 15.05.2022
3670 Clouds 22 1012 92 10000 3.45 145 09:58 15.05.2022
3671 Clouds 22 1013 91 10000 3.62 145 07:36 15.05.2022
3672 Clouds 22 1013 90 10000 3.73 150 06:57 15.05.2022
3673 Clouds 23 1012 89 10000 3.78 152 04:26 15.05.2022
3674 Clouds 26 1007 69 10000 7.72 120 00:47 15.05.2022
3675 Clouds 26 1008 69 10000 6.17 130 23:38 14.05.2022
3676 Clouds 26 1009 69 10000 6.69 110 22:41 14.05.2022
3677 Clouds 27 1010 65 10000 4.12 120 21:27 14.05.2022
3678 Clouds 27 1011 65 10000 6.17 130 20:30 14.05.2022
3679 Clouds 27 1011 65 10000 7.2 140 19:21 14.05.2022
3680 Clouds 27 1011 65 10000 5.14 110 18:59 14.05.2022
3681 Clouds 25 1011 78 10000 6.17 100 17:53 14.05.2022
3682 Clouds 23 1011 88 10000 4.12 90 16:23 14.05.2022
3683 Clouds 23 1012 86 10000 3.45 140 14:50 14.05.2022
3684 Clouds 22 1011 86 10000 3.58 142 14:26 14.05.2022
3685 Clouds 22 1011 90 10000 3.74 137 11:51 14.05.2022
3686 Clouds 22 1010 90 10000 3.8 137 10:45 14.05.2022
3687 Clouds 22 1010 91 10000 4.15 136 10:19 14.05.2022
3688 Clouds 22 1010 91 10000 4.15 136 09:34 14.05.2022
3689 Clouds 22 1012 90 10000 4.3 137 07:43 14.05.2022
3690 Clouds 23 1012 88 10000 3.69 130 04:49 14.05.2022
3691 Clouds 23 1010 85 10000 3.78 156 01:42 14.05.2022
3692 Clouds 27 1007 69 10000 6.17 160 23:28 13.05.2022
3693 Clouds 27 1008 69 10000 5.14 170 22:55 13.05.2022
3694 Clouds 27 1008 69 10000 5.14 170 22:22 13.05.2022
3695 Clouds 27 1009 69 10000 5.66 180 21:19 13.05.2022
3696 Clouds 27 1010 69 10000 6.17 150 20:40 13.05.2022
3697 Clouds 27 1010 69 10000 6.17 150 20:21 13.05.2022
3698 Clouds 27 1010 69 10000 7.2 120 19:18 13.05.2022
3699 Clouds 25 1010 78 10000 7.2 120 17:47 13.05.2022
3700 Clouds 25 1010 78 10000 7.2 120 17:23 13.05.2022
3701 Clouds 23 1012 88 10000 4.32 155 15:47 13.05.2022
3702 Clouds 23 1011 89 10000 4.25 164 14:39 13.05.2022
3703 Clear 22 1010 91 10000 4.63 162 12:53 13.05.2022
3704 Clear 22 1010 90 10000 4.47 163 11:56 13.05.2022
3705 Clear 22 1010 88 10000 4.52 159 10:19 13.05.2022
3706 Clear 22 1010 87 10000 4.52 160 09:29 13.05.2022
3707 Clouds 22 1011 86 10000 4.14 156 07:52 13.05.2022
3708 Clouds 23 1012 81 10000 4.06 159 07:18 13.05.2022
3709 Clouds 23 1012 84 10000 4.15 162 05:23 13.05.2022
3710 Clouds 26 1007 73 10000 4.12 160 00:59 13.05.2022
3711 Clouds 26 1009 73 10000 5.14 100 22:59 12.05.2022
3712 Clouds 26 1009 73 10000 5.14 100 22:34 12.05.2022
3713 Clouds 27 1009 69 10000 7.72 130 21:24 12.05.2022
3714 Clouds 26 1011 73 10000 4.12 170 19:49 12.05.2022
3715 Clouds 25 1011 78 10000 6.17 150 18:25 12.05.2022
3716 Clouds 24 1010 83 10000 5.14 140 16:44 12.05.2022
3717 Clouds 22 1012 88 10000 5.2 145 14:57 12.05.2022
3718 Clouds 22 1011 90 10000 5.46 146 13:48 12.05.2022
3719 Clouds 22 1010 90 10000 4.88 150 11:55 12.05.2022
3720 Clouds 22 1010 90 10000 4.53 152 10:32 12.05.2022
3721 Clouds 22 1011 89 10000 4.23 157 08:53 12.05.2022
3722 Clouds 22 1012 88 10000 3.89 152 07:59 12.05.2022
3723 Clouds 22 1012 88 10000 4.08 148 07:22 12.05.2022
3724 Clouds 23 1011 87 10000 4.45 141 03:50 12.05.2022
3725 Clouds 24 1007 78 10000 4.12 150 01:29 12.05.2022
3726 Clouds 27 1008 65 10000 6.69 120 22:59 11.05.2022
3727 Clouds 27 1008 65 10000 6.69 120 22:18 11.05.2022
3728 Clouds 27 1009 65 10000 7.2 130 21:24 11.05.2022
3729 Clouds 27 1009 65 10000 7.2 130 21:24 11.05.2022
3730 Clouds 27 1011 65 10000 6.69 160 19:57 11.05.2022
3731 Clouds 26 1011 69 10000 5.14 130 17:27 11.05.2022
3732 Clouds 24 1011 83 10000 4.12 120 16:19 11.05.2022
3733 Clouds 22 1012 86 10000 4.36 140 14:47 11.05.2022
3734 Clouds 22 1012 86 10000 4.35 137 14:24 11.05.2022
3735 Clouds 23 1011 85 10000 4.57 148 12:39 11.05.2022
3736 Clouds 23 1011 85 10000 4.69 150 11:47 11.05.2022
3737 Clouds 23 1012 84 10000 3.89 143 09:29 11.05.2022
3738 Clouds 23 1013 85 10000 3.81 131 06:27 11.05.2022
3739 Clouds 23 1011 86 10000 4.01 143 01:53 11.05.2022
3740 Clouds 28 1010 61 10000 6.17 170 22:56 10.05.2022
3741 Clouds 28 1010 61 10000 6.17 170 22:21 10.05.2022
3742 Clouds 28 1010 61 10000 5.14 130 21:21 10.05.2022
3743 Clouds 28 1011 61 10000 9.26 130 20:26 10.05.2022
3744 Clouds 27 1012 65 10000 7.72 170 18:38 10.05.2022
3745 Clouds 26 1012 69 10000 7.2 140 17:37 10.05.2022
3746 Clouds 23 1014 86 10000 4.1 146 15:56 10.05.2022
3747 Clouds 22 1012 90 10000 4.24 154 12:51 10.05.2022
3748 Clouds 22 1011 90 10000 4.39 156 11:53 10.05.2022
3749 Clear 22 1011 91 10000 4.57 157 11:28 10.05.2022
3750 Clear 22 1011 91 10000 4.57 157 10:56 10.05.2022
3751 Clear 22 1012 91 10000 4.62 152 09:28 10.05.2022
3752 Clouds 22 1013 92 10000 4.74 156 07:51 10.05.2022
3753 Clouds 22 1013 91 10000 5.11 152 05:43 10.05.2022
3754 Clouds 23 1011 85 10000 3.92 149 01:37 10.05.2022
3755 Clouds 26 1008 73 10000 5.66 160 23:43 09.05.2022
3756 Clouds 26 1009 73 10000 6.17 170 22:33 09.05.2022
3757 Clouds 28 1010 65 10000 4.12 150 21:36 09.05.2022
3758 Clouds 27 1011 69 10000 6.17 170 19:52 09.05.2022
3759 Clouds 27 1011 69 10000 6.17 170 19:52 09.05.2022
3760 Clouds 26 1012 73 10000 4.63 180 18:22 09.05.2022
3761 Clouds 24 1011 83 10000 6.17 130 16:55 09.05.2022
3762 Clouds 24 1011 83 10000 6.17 130 16:55 09.05.2022
3763 Clouds 23 1013 85 10000 3.99 165 15:54 09.05.2022
3764 Clouds 23 1013 85 10000 3.99 165 15:35 09.05.2022
3765 Clouds 23 1013 88 10000 3.99 153 14:33 09.05.2022
3766 Clouds 23 1012 88 10000 3.69 150 13:51 09.05.2022
3767 Clouds 23 1011 89 10000 3.48 150 12:32 09.05.2022
3768 Clouds 22 1011 89 10000 3.54 155 11:43 09.05.2022
3769 Clouds 22 1011 90 10000 3.08 160 10:45 09.05.2022
3770 Clouds 22 1011 91 10000 2.44 165 09:39 09.05.2022
3771 Clouds 22 1013 92 10000 2.98 142 07:56 09.05.2022
3772 Clouds 22 1012 90 10000 3.65 145 04:33 09.05.2022
3773 Clouds 22 1012 90 10000 3.65 145 04:33 09.05.2022
3774 Clouds 27 1007 69 10000 8.23 140 00:22 09.05.2022
3775 Clouds 28 1008 65 10000 8.23 120 22:58 08.05.2022
3776 Clouds 28 1008 65 10000 8.23 120 22:27 08.05.2022
3777 Clouds 28 1010 65 10000 10.29 120 20:41 08.05.2022
3778 Clouds 28 1010 61 10000 10.8 130 19:53 08.05.2022
3779 Clouds 27 1011 69 10000 11.32 120 18:59 08.05.2022
3780 Clouds 27 1011 69 10000 11.32 120 18:24 08.05.2022
3781 Clouds 24 1010 83 10000 9.26 130 16:59 08.05.2022
3782 Clear 23 1013 89 10000 6.35 127 15:43 08.05.2022
3783 Clear 23 1012 88 10000 6.7 133 15:20 08.05.2022
3784 Clear 22 1011 90 10000 5.71 129 12:41 08.05.2022
3785 Clear 22 1011 89 10000 5.63 125 10:34 08.05.2022
3786 Clear 22 1011 89 10000 5.54 132 09:59 08.05.2022
3787 Clear 22 1011 89 10000 5.54 132 09:33 08.05.2022
3788 Clear 22 1013 90 10000 5.09 139 07:33 08.05.2022
3789 Clear 23 1013 90 10000 4.47 151 04:20 08.05.2022
3790 Clear 23 1012 89 10000 3.96 155 02:51 08.05.2022
3791 Clouds 27 1010 65 10000 3.6 150 00:28 08.05.2022
3792 Clouds 28 1011 61 10000 6.17 160 23:51 07.05.2022
3793 Clouds 28 1011 61 10000 6.69 130 22:48 07.05.2022
3794 Clouds 28 1012 61 10000 7.2 100 21:59 07.05.2022
3795 Clouds 28 1012 61 10000 7.2 100 21:34 07.05.2022
3796 Clouds 27 1013 65 10000 4.63 180 20:42 07.05.2022
3797 Clouds 26 1013 69 10000 6.69 160 19:57 07.05.2022
3798 Clouds 25 1013 78 10000 4.63 120 17:43 07.05.2022
3799 Clouds 22 1014 90 10000 3.68 138 15:51 07.05.2022
3800 Clouds 22 1013 92 10000 3.95 125 14:19 07.05.2022
3801 Clouds 22 1012 93 10000 3.58 134 10:56 07.05.2022
3802 Clouds 22 1013 92 10000 3.98 122 09:20 07.05.2022
3803 Clouds 22 1013 90 10000 4.13 124 07:51 07.05.2022
3804 Clouds 23 1014 90 10000 4.03 119 06:43 07.05.2022
3805 Clouds 23 1013 90 10000 3.95 121 04:56 07.05.2022
3806 Clouds 23 1011 90 10000 3.88 120 01:46 07.05.2022
3807 Clouds 29 1009 65 10000 5.14 90 23:38 06.05.2022
3808 Clouds 29 1010 61 10000 4.12 60 22:28 06.05.2022
3809 Clouds 29 1010 61 10000 8.23 140 21:43 06.05.2022
3810 Clouds 28 1011 65 10000 7.2 140 20:34 06.05.2022
3811 Clouds 27 1012 74 10000 8.23 120 19:30 06.05.2022
3812 Clouds 25 1012 78 10000 6.17 90 18:57 06.05.2022
3813 Clouds 25 1013 83 10000 5.14 100 17:39 06.05.2022
3814 Clouds 24 1013 83 10000 4.12 120 16:39 06.05.2022
3815 Clouds 23 1015 90 10000 4.22 111 15:39 06.05.2022
3816 Clouds 23 1014 92 10000 4.14 116 14:46 06.05.2022
3817 Clouds 23 1013 93 10000 3.66 126 12:54 06.05.2022
3818 Clouds 23 1013 93 10000 3.66 126 12:33 06.05.2022
3819 Clouds 23 1012 93 10000 3.65 128 11:41 06.05.2022
3820 Clouds 23 1012 93 10000 3.95 137 10:26 06.05.2022
3821 Clouds 23 1012 93 10000 3.95 137 09:39 06.05.2022
3822 Clouds 23 1013 92 10000 3.95 138 07:59 06.05.2022
3823 Clouds 23 1014 92 10000 4.01 130 06:39 06.05.2022
3824 Clouds 23 1014 91 10000 3.95 134 04:37 06.05.2022
3825 Clouds 23 1012 91 10000 4.49 143 02:43 06.05.2022
3826 Clouds 26 1010 78 10000 7.2 140 23:36 05.05.2022
3827 Clouds 27 1010 74 10000 7.2 150 21:52 05.05.2022
3828 Rain 26 1011 83 10000 6.69 160 20:53 05.05.2022
3829 Clouds 26 1013 83 10000 3.09 180 19:49 05.05.2022
3830 Clouds 23 1012 94 10000 4.12 150 16:53 05.05.2022
3831 Clouds 23 1014 92 10000 3.36 163 15:52 05.05.2022
3832 Clouds 23 1013 92 10000 2.92 168 14:37 05.05.2022
3833 Clouds 23 1012 93 10000 2.97 184 13:18 05.05.2022
3834 Clouds 23 1012 93 10000 2.6 192 11:48 05.05.2022
3835 Clouds 23 1012 93 10000 3.37 193 10:28 05.05.2022
3836 Clouds 23 1012 93 10000 3.37 193 09:32 05.05.2022
3837 Clouds 23 1014 92 10000 3.51 179 07:19 05.05.2022
3838 Clouds 24 1010 88 10000 3.09 180 02:30 05.05.2022
3839 Clouds 24 1010 88 10000 4.12 170 01:47 05.05.2022
3840 Clouds 24 1010 88 10000 4.12 170 01:20 05.05.2022
3841 Clouds 26 1010 78 10000 3.6 180 23:28 04.05.2022
3842 Clouds 26 1010 78 10000 5.14 160 22:25 04.05.2022
3843 Clouds 27 1011 74 10000 4.12 170 21:48 04.05.2022
3844 Clouds 27 1011 74 10000 4.12 170 21:22 04.05.2022
3845 Clouds 27 1012 74 10000 4.63 160 20:20 04.05.2022
3846 Clouds 26 1012 73 10000 6.17 180 19:44 04.05.2022
3847 Clouds 26 1012 73 10000 5.14 170 18:45 04.05.2022
3848 Clouds 26 1012 73 10000 5.14 170 18:20 04.05.2022
3849 Clouds 25 1012 78 10000 4.63 180 17:22 04.05.2022
3850 Clouds 23 1014 87 10000 3.71 179 15:35 04.05.2022
3851 Clouds 23 1013 88 10000 4 181 14:46 04.05.2022
3852 Clouds 23 1012 89 10000 3.95 185 14:20 04.05.2022
3853 Clouds 23 1012 89 10000 3.95 185 14:20 04.05.2022
3854 Clouds 22 1012 91 10000 4.13 181 12:58 04.05.2022
3855 Clouds 22 1011 91 10000 4.41 182 12:24 04.05.2022
3856 Clouds 22 1011 90 10000 4.39 183 10:30 04.05.2022
3857 Clouds 22 1012 89 10000 4.26 186 09:23 04.05.2022
3858 Clouds 22 1013 89 10000 4.19 184 08:26 04.05.2022
3859 Clouds 23 1014 88 10000 3.52 175 05:44 04.05.2022
3860 Clouds 23 1012 87 10000 3.75 166 02:43 04.05.2022
3861 Clouds 28 1008 61 10000 5.66 180 23:31 03.05.2022
3862 Clouds 23 1011 85 10000 4.23 177 22:00 03.05.2022
3863 Clouds 27 1010 69 10000 6.17 160 21:32 03.05.2022
3864 Clouds 27 1011 69 10000 5.66 170 20:52 03.05.2022
3865 Clouds 27 1011 69 10000 5.14 170 19:36 03.05.2022
3866 Clouds 26 1012 73 10000 4.12 160 18:47 03.05.2022
3867 Clouds 25 1012 83 10000 4.63 160 17:22 03.05.2022
3868 Clouds 24 1011 83 10000 4.12 150 16:20 03.05.2022
3869 Clouds 22 1012 89 10000 4.19 165 14:34 03.05.2022
3870 Clouds 22 1011 91 10000 3.45 150 12:46 03.05.2022
3871 Clouds 22 1011 91 10000 3.27 151 11:49 03.05.2022
3872 Clouds 22 1011 91 10000 3.23 156 10:50 03.05.2022
3873 Clouds 22 1011 91 10000 2.85 141 08:33 03.05.2022
3874 Clear 22 1012 90 10000 2.81 115 06:45 03.05.2022
3875 Clear 22 1010 90 10000 3.94 126 03:26 03.05.2022
3876 Clouds 27 1007 65 10000 5.66 100 23:32 02.05.2022
3877 Clouds 28 1008 61 10000 6.17 130 22:32 02.05.2022
3878 Clouds 28 1008 61 10000 5.14 140 21:48 02.05.2022
3879 Clouds 28 1008 61 10000 5.14 140 21:48 02.05.2022
3880 Clouds 27 1010 65 10000 6.69 130 19:59 02.05.2022
3881 Clouds 27 1011 65 10000 5.66 140 18:27 02.05.2022
3882 Clouds 26 1011 73 10000 4.63 130 17:42 02.05.2022
3883 Clouds 25 1011 83 10000 4.12 140 16:43 02.05.2022
3884 Clouds 23 1013 90 10000 3.54 130 15:44 02.05.2022
3885 Clouds 22 1012 91 10000 3.82 128 14:51 02.05.2022
3886 Clouds 22 1012 92 10000 3.82 121 13:45 02.05.2022
3887 Clouds 22 1011 92 10000 3.03 122 11:41 02.05.2022
3888 Clouds 22 1011 92 10000 3.11 128 09:59 02.05.2022
3889 Clouds 22 1011 91 10000 3.12 137 08:31 02.05.2022
3890 Clear 23 1012 90 10000 3.33 140 06:56 02.05.2022
3891 Clouds 23 1009 85 10000 3.59 149 00:47 02.05.2022
3892 Clouds 23 1009 85 10000 3.59 149 00:47 02.05.2022
3893 Clouds 23 1009 85 10000 3.68 155 00:22 02.05.2022
3894 Clouds 29 1008 61 10000 4.12 100 23:40 01.05.2022
3895 Clouds 29 1008 58 10000 4.12 160 21:45 01.05.2022
3896 Clouds 27 1009 69 10000 5.14 120 20:50 01.05.2022
3897 Clouds 27 1010 69 10000 5.14 120 19:27 01.05.2022
3898 Clouds 27 1010 69 10000 5.14 120 18:53 01.05.2022
3899 Clouds 26 1010 73 10000 5.14 120 17:50 01.05.2022
3900 Clouds 25 1009 78 10000 6.17 120 16:38 01.05.2022
3901 Clouds 23 1012 91 10000 3.96 153 15:57 01.05.2022
3902 Clouds 22 1011 92 10000 3.6 144 14:45 01.05.2022
3903 Clouds 22 1010 93 10000 3.12 125 12:52 01.05.2022
3904 Clouds 22 1009 94 10000 3.86 148 10:36 01.05.2022
3905 Clouds 22 1010 94 10000 3.76 141 08:50 01.05.2022
3906 Clouds 22 1012 93 10000 3.69 147 06:50 01.05.2022
3907 Clouds 22 1010 91 10000 3.31 143 02:31 01.05.2022
3908 Clouds 27 1007 69 10000 5.14 160 22:51 30.04.2022
3909 Clouds 28 1007 65 10000 6.17 120 21:33 30.04.2022
3910 Clouds 28 1007 65 10000 6.17 120 21:33 30.04.2022
3911 Clouds 28 1008 65 10000 7.2 120 20:19 30.04.2022
3912 Clouds 28 1009 65 10000 6.17 120 19:31 30.04.2022
3913 Clouds 26 1010 73 10000 6.17 120 17:32 30.04.2022
3914 Clouds 22 1013 90 10000 5.08 151 15:53 30.04.2022
3915 Clouds 22 1012 91 10000 4.62 145 15:18 30.04.2022
3916 Clouds 22 1011 92 10000 4.09 147 14:19 30.04.2022
3917 Clouds 22 1010 91 10000 3.97 140 11:58 30.04.2022
3918 Clouds 22 1010 91 10000 3.97 140 11:31 30.04.2022
3919 Clouds 22 1010 91 10000 3.67 162 10:23 30.04.2022
3920 Clouds 22 1011 90 10000 3.23 144 08:25 30.04.2022
3921 Clouds 22 1012 91 10000 3.89 149 04:58 30.04.2022
3922 Clear 26 1006 65 10000 6.17 120 00:25 30.04.2022
3923 Clear 28 1007 61 10000 7.2 140 22:56 29.04.2022
3924 Clear 28 1007 61 10000 7.2 140 22:21 29.04.2022
3925 Clouds 23 1010 87 10000 5.3 154 21:26 29.04.2022
3926 Clear 28 1009 61 10000 6.17 140 20:24 29.04.2022
3927 Clouds 26 1010 69 10000 6.17 120 19:28 29.04.2022
3928 Clouds 24 1010 78 10000 4.12 120 17:35 29.04.2022
3929 Clouds 23 1009 83 10000 4.12 120 16:42 29.04.2022
3930 Clouds 22 1011 89 10000 4.61 144 14:37 29.04.2022
3931 Clear 22 1010 89 10000 3.89 143 13:42 29.04.2022
3932 Clear 22 1010 89 10000 4.12 138 12:37 29.04.2022
3933 Clear 22 1009 89 10000 3.95 146 10:44 29.04.2022
3934 Clear 22 1011 89 10000 3.91 150 07:57 29.04.2022
3935 Clear 22 1012 90 10000 4.02 147 07:26 29.04.2022
3936 Clear 22 1012 90 10000 4.02 147 06:32 29.04.2022
3937 Clouds 23 1009 87 10000 4.39 140 02:23 29.04.2022
3938 Clear 26 1007 69 10000 5.14 120 23:58 28.04.2022
3939 Clear 26 1007 69 10000 5.14 120 23:25 28.04.2022
3940 Clear 27 1008 65 10000 4.12 120 22:24 28.04.2022
3941 Clear 28 1008 61 10000 7.2 120 21:41 28.04.2022
3942 Clear 28 1010 61 10000 6.17 120 20:48 28.04.2022
3943 Clouds 27 1010 65 10000 5.14 150 19:52 28.04.2022
3944 Clouds 27 1010 65 10000 5.14 150 19:24 28.04.2022
3945 Clouds 26 1011 69 10000 6.17 120 18:52 28.04.2022
3946 Clouds 25 1011 73 10000 6.17 120 17:53 28.04.2022
3947 Clouds 24 1010 78 10000 4.12 120 16:52 28.04.2022
3948 Clouds 24 1010 78 10000 4.12 120 16:20 28.04.2022
3949 Clouds 23 1013 86 10000 4.37 139 15:48 28.04.2022
3950 Clear 22 1012 87 10000 4.36 143 14:58 28.04.2022
3951 Clear 22 1011 89 10000 3.88 146 13:37 28.04.2022
3952 Clear 22 1010 89 10000 3.59 145 12:29 28.04.2022
3953 Clear 22 1010 88 10000 3.34 147 10:59 28.04.2022
3954 Clear 22 1011 88 10000 3.14 146 10:26 28.04.2022
3955 Clear 22 1011 88 10000 3.14 146 09:47 28.04.2022
3956 Clear 22 1012 89 10000 2.86 147 07:40 28.04.2022
3957 Clear 22 1012 89 10000 3.17 150 06:43 28.04.2022
3958 Clear 22 1013 88 10000 3.39 155 05:52 28.04.2022
3959 Clear 23 1012 88 10000 3.37 165 04:42 28.04.2022
3960 Clear 23 1010 85 10000 2.95 168 01:53 28.04.2022
3961 Clouds 27 1008 69 10000 3.09 330 23:25 27.04.2022
3962 Clouds 27 1009 69 10000 4.12 330 22:18 27.04.2022
3963 Clouds 26 1010 69 10000 3.09 310 21:34 27.04.2022
3964 Clouds 26 1010 69 10000 3.09 300 20:45 27.04.2022
3965 Clouds 26 1011 73 10000 3.09 330 19:54 27.04.2022
3966 Clouds 26 1011 73 10000 3.09 330 19:31 27.04.2022
3967 Clear 27 1011 65 10000 5.14 140 18:39 27.04.2022
3968 Clear 25 1011 73 10000 4.12 100 17:54 27.04.2022
3969 Clouds 22 1013 91 10000 3.92 121 15:57 27.04.2022
3970 Clouds 22 1011 92 10000 4.38 122 12:59 27.04.2022
3971 Clouds 22 1011 92 10000 3.86 123 11:24 27.04.2022
3972 Clouds 22 1011 92 10000 3.84 122 10:27 27.04.2022
3973 Clouds 22 1013 91 10000 3.54 132 07:53 27.04.2022
3974 Clouds 22 1013 87 10000 3.15 140 06:41 27.04.2022
3975 Clouds 23 1011 84 10000 2.84 130 02:26 27.04.2022
3976 Clouds 23 1010 83 10000 3.09 158 01:21 27.04.2022
3977 Clouds 25 1008 78 10000 3.09 360 00:27 27.04.2022
3978 Clouds 27 1008 65 10000 5.14 120 23:24 26.04.2022
3979 Clouds 27 1009 65 10000 4.12 120 22:44 26.04.2022
3980 Clouds 23 1010 83 10000 3.54 156 21:57 26.04.2022
3981 Clear 28 1010 65 10000 5.14 120 20:58 26.04.2022
3982 Clear 28 1010 65 10000 5.14 120 20:36 26.04.2022
3983 Clouds 27 1011 69 10000 5.14 120 19:35 26.04.2022
3984 Clouds 26 1011 73 10000 5.14 120 18:53 26.04.2022
3985 Clouds 26 1011 73 10000 5.14 120 18:20 26.04.2022
3986 Clouds 24 1011 78 10000 4.12 120 17:34 26.04.2022
3987 Clear 22 1013 87 10000 4.1 136 14:58 26.04.2022
3988 Clear 22 1012 90 10000 3.68 137 13:34 26.04.2022
3989 Clear 22 1012 91 10000 3.76 140 12:34 26.04.2022
3990 Clear 22 1011 90 10000 3.69 146 10:46 26.04.2022
3991 Clear 22 1011 90 10000 3.68 143 09:50 26.04.2022
3992 Clouds 22 1013 90 10000 3.26 142 08:28 26.04.2022
3993 Clouds 22 1013 90 10000 3.29 142 04:38 26.04.2022
3994 Clouds 22 1011 90 10000 4.15 140 02:40 26.04.2022
3995 Clouds 25 1008 73 10000 4.12 120 00:28 26.04.2022
3996 Clouds 27 1008 65 10000 5.14 140 22:50 25.04.2022
3997 Clouds 27 1009 65 10000 4.12 100 21:44 25.04.2022
3998 Clouds 27 1010 65 10000 7.2 130 20:46 25.04.2022
3999 Clouds 27 1010 65 10000 6.17 120 19:39 25.04.2022
4000 Clouds 28 1010 61 10000 4.12 120 18:25 25.04.2022
4001 Clouds 26 1010 69 10000 5.14 120 17:32 25.04.2022
4002 Clouds 22 1012 90 10000 4.05 130 15:38 25.04.2022
4003 Clouds 22 1012 91 10000 4.14 133 15:18 25.04.2022
4004 Clouds 22 1011 91 10000 4.79 135 13:43 25.04.2022
4005 Clouds 22 1010 91 10000 5.11 141 11:53 25.04.2022
4006 Clouds 22 1010 91 10000 4.88 144 10:27 25.04.2022
4007 Clouds 22 1011 90 10000 4.77 141 09:20 25.04.2022
4008 Clouds 22 1012 89 10000 4.03 140 06:49 25.04.2022
4009 Clouds 22 1012 89 10000 3.97 131 05:32 25.04.2022
4010 Clouds 23 1009 85 10000 4.58 138 01:24 25.04.2022
4011 Clouds 26 1008 69 10000 4.12 120 23:53 24.04.2022
4012 Clouds 27 1007 65 10000 4.12 120 22:52 24.04.2022
4013 Clouds 27 1007 65 10000 4.12 120 22:31 24.04.2022
4014 Clouds 27 1009 65 10000 5.14 120 21:42 24.04.2022
4015 Clouds 27 1009 65 10000 5.14 120 21:18 24.04.2022
4016 Clouds 26 1010 69 10000 4.12 120 20:37 24.04.2022
4017 Clouds 25 1010 73 10000 6.17 120 19:48 24.04.2022
4018 Clouds 23 1011 83 10000 3.09 130 18:20 24.04.2022
4019 Clouds 23 1011 83 10000 2.57 150 17:32 24.04.2022
4020 Drizzle 22 1010 88 10000 2.06 180 16:59 24.04.2022
4021 Drizzle 22 1010 88 10000 2.06 180 16:35 24.04.2022
4022 Clouds 22 1013 87 10000 4.15 133 15:55 24.04.2022
4023 Clouds 22 1013 87 10000 4.15 133 15:31 24.04.2022
4024 Clouds 22 1013 87 10000 4.15 133 15:31 24.04.2022
4025 Clouds 22 1011 89 10000 4.08 135 13:58 24.04.2022
4026 Clouds 22 1011 90 10000 3.67 142 13:25 24.04.2022
4027 Clouds 22 1011 90 10000 3.67 142 12:30 24.04.2022
4028 Clouds 22 1011 91 10000 3.77 142 11:32 24.04.2022
4029 Clouds 22 1011 92 10000 3.74 136 10:25 24.04.2022
4030 Clouds 22 1011 92 10000 3.74 133 09:23 24.04.2022
4031 Clouds 22 1012 91 10000 3.57 129 06:35 24.04.2022
4032 Clouds 22 1012 91 10000 3.74 132 03:55 24.04.2022
4033 Clouds 23 1010 89 10000 3.81 140 01:38 24.04.2022
4034 Clouds 25 1007 78 10000 5.14 120 00:24 24.04.2022
4035 Clouds 26 1008 73 10000 1.54 360 23:44 23.04.2022
4036 Clouds 26 1008 73 10000 1.54 360 23:21 23.04.2022
4037 Clouds 28 1008 65 10000 5.14 140 21:51 23.04.2022
4038 Clouds 28 1008 65 10000 5.14 140 21:32 23.04.2022
4039 Clouds 28 1010 65 10000 5.14 120 20:36 23.04.2022
4040 Clouds 26 1011 73 10000 3.09 330 19:46 23.04.2022
4041 Clouds 26 1011 73 10000 3.09 330 19:19 23.04.2022
4042 Clouds 25 1011 78 10000 2.06 340 18:46 23.04.2022
4043 Clouds 24 1011 83 10000 2.06 350 17:50 23.04.2022
4044 Clouds 25 1010 78 10000 1.54 0 16:56 23.04.2022
4045 Clouds 25 1010 78 10000 1.54 0 16:23 23.04.2022
4046 Clear 22 1012 90 10000 4.35 124 14:47 23.04.2022
4047 Clear 22 1011 90 10000 3.34 124 12:22 23.04.2022
4048 Clear 22 1011 90 10000 3.02 119 10:41 23.04.2022
4049 Clear 22 1012 91 10000 3.61 111 08:55 23.04.2022
4050 Clear 22 1014 92 10000 3.78 117 05:47 23.04.2022
4051 Clouds 22 1013 91 10000 3.95 124 03:54 23.04.2022
4052 Clouds 23 1011 88 10000 4.12 139 00:46 23.04.2022
4053 Clouds 26 1009 78 10000 2.06 350 23:27 22.04.2022
4054 Clouds 23 1012 89 10000 4.43 139 21:59 22.04.2022
4055 Clouds 23 1012 89 10000 4.43 139 21:40 22.04.2022
4056 Clouds 27 1011 69 10000 5.14 150 20:44 22.04.2022
4057 Clouds 27 1011 69 10000 5.14 150 20:25 22.04.2022
4058 Clear 29 1012 61 10000 3.09 150 19:18 22.04.2022
4059 Clouds 27 1013 78 10000 2.57 360 18:34 22.04.2022
4060 Clouds 23 1013 88 10000 1.03 0 17:34 22.04.2022
4061 Clouds 23 1013 88 10000 1.03 300 16:30 22.04.2022
4062 Clear 23 1015 88 10000 3.81 133 15:32 22.04.2022
4063 Clear 22 1014 88 10000 3.46 127 14:41 22.04.2022
4064 Clear 22 1013 90 10000 3.74 124 13:42 22.04.2022
4065 Clear 22 1013 90 10000 3.85 125 12:55 22.04.2022
4066 Clear 22 1013 90 10000 3.85 125 12:55 22.04.2022
4067 Clear 22 1012 90 10000 4.17 126 11:24 22.04.2022
4068 Clear 22 1012 90 10000 4.17 126 10:58 22.04.2022
4069 Clear 22 1012 90 10000 4.17 126 10:40 22.04.2022
4070 Clear 22 1012 91 10000 4.31 129 10:20 22.04.2022
4071 Clear 22 1012 91 10000 4.31 129 09:30 22.04.2022
4072 Clear 22 1013 91 10000 4.38 134 08:49 22.04.2022
4073 Clear 22 1015 90 10000 4.25 124 06:54 22.04.2022
4074 Clouds 23 1013 89 10000 4.51 139 01:34 22.04.2022
4075 Clouds 25 1011 78 10000 5.14 120 23:35 21.04.2022
4076 Clouds 26 1011 73 10000 4.12 120 22:47 21.04.2022
4077 Clouds 27 1011 69 10000 6.17 120 21:42 21.04.2022
4078 Clouds 27 1012 65 10000 6.17 120 20:32 21.04.2022
4079 Clouds 27 1013 69 10000 6.17 120 19:24 21.04.2022
4080 Clouds 27 1013 69 10000 6.17 120 18:32 21.04.2022
4081 Clear 26 1013 69 10000 5.14 120 17:20 21.04.2022
4082 Clouds 24 1013 83 10000 5.14 120 16:19 21.04.2022
4083 Clear 23 1014 90 10000 4.49 142 15:19 21.04.2022
4084 Clouds 22 1014 93 10000 4.27 144 14:28 21.04.2022
4085 Clouds 22 1013 93 10000 4.49 141 13:21 21.04.2022
4086 Clouds 23 1013 93 10000 4.51 142 12:25 21.04.2022
4087 Clear 23 1013 93 10000 4.28 149 09:36 21.04.2022
4088 Clear 23 1014 92 10000 3.82 151 08:47 21.04.2022
4089 Clouds 23 1015 91 10000 3.3 147 06:44 21.04.2022
4090 Clouds 23 1014 90 10000 3.97 140 03:42 21.04.2022
4091 Clouds 23 1013 89 10000 3.83 138 03:22 21.04.2022
4092 Clouds 23 1013 89 10000 3.83 138 02:44 21.04.2022
4093 Clouds 23 1013 89 10000 3.83 138 02:44 21.04.2022
4094 Clouds 25 1010 78 10000 6.17 120 00:35 21.04.2022
4095 Clouds 26 1010 73 10000 4.12 150 23:37 20.04.2022
4096 Clouds 26 1010 73 10000 4.12 150 23:18 20.04.2022
4097 Clouds 27 1011 74 10000 7.2 130 22:34 20.04.2022
4098 Clouds 27 1012 69 10000 5.14 140 21:43 20.04.2022
4099 Clouds 26 1013 78 10000 7.2 140 20:44 20.04.2022
4100 Clouds 26 1013 78 10000 7.2 140 20:44 20.04.2022
4101 Clouds 26 1013 78 10000 7.2 140 20:21 20.04.2022
4102 Clouds 27 1013 74 10000 4.12 150 19:44 20.04.2022
4103 Clouds 27 1013 69 10000 5.14 140 18:46 20.04.2022
4104 Clouds 26 1013 73 10000 7.2 130 17:49 20.04.2022
4105 Clouds 25 1012 78 10000 6.69 140 16:39 20.04.2022
4106 Clouds 23 1014 90 10000 2.96 141 15:26 20.04.2022
4107 Clouds 23 1013 90 10000 2.82 149 12:22 20.04.2022
4108 Clouds 23 1013 90 10000 2.82 149 11:42 20.04.2022
4109 Clouds 23 1013 90 10000 2.72 141 10:43 20.04.2022
4110 Clouds 23 1014 90 10000 2.39 124 09:28 20.04.2022
4111 Clouds 23 1014 91 10000 2.54 115 08:29 20.04.2022
4112 Clouds 23 1014 91 10000 2.54 115 07:53 20.04.2022
4113 Clouds 23 1015 91 10000 3.15 110 06:18 20.04.2022
4114 Clouds 24 1012 88 10000 3.77 130 01:37 20.04.2022
4115 Clouds 24 1010 88 10000 2.06 190 00:21 20.04.2022
4116 Clouds 27 1010 74 10000 4.12 10 22:53 19.04.2022
4117 Clouds 27 1010 74 10000 4.12 10 22:23 19.04.2022
4118 Clouds 27 1011 74 10000 5.66 140 21:48 19.04.2022
4119 Clouds 28 1011 69 10000 5.14 120 20:57 19.04.2022
4120 Clouds 28 1011 69 10000 5.14 120 20:37 19.04.2022
4121 Clouds 27 1011 74 10000 4.12 140 19:32 19.04.2022
4122 Clouds 27 1011 78 10000 6.17 130 18:27 19.04.2022
4123 Clouds 25 1011 83 10000 4.63 160 16:50 19.04.2022
4124 Clouds 25 1011 83 10000 4.63 160 16:25 19.04.2022
4125 Clouds 23 1011 94 10000 3.09 120 15:59 19.04.2022
4126 Clouds 23 1013 91 10000 2.97 131 14:44 19.04.2022
4127 Clouds 23 1012 91 10000 2.78 125 12:53 19.04.2022
4128 Clouds 23 1012 91 10000 2.78 125 12:31 19.04.2022
4129 Clouds 23 1011 92 10000 3.7 136 11:27 19.04.2022
4130 Clouds 23 1012 92 10000 3.43 124 09:31 19.04.2022
4131 Clouds 23 1013 93 10000 3.71 115 07:43 19.04.2022
4132 Clouds 23 1013 93 10000 3.71 115 07:43 19.04.2022
4133 Clouds 24 1013 93 10000 3.4 122 04:24 19.04.2022
4134 Clouds 25 1008 88 10000 5.14 100 01:41 19.04.2022
4135 Clouds 27 1008 78 10000 3.09 90 23:49 18.04.2022
4136 Clouds 28 1009 74 10000 4.12 140 22:46 18.04.2022
4137 Clouds 28 1010 74 10000 4.12 160 21:25 18.04.2022
4138 Drizzle 27 1010 78 8000 3.6 170 20:39 18.04.2022
4139 Clouds 27 1011 78 10000 6.17 120 19:59 18.04.2022
4140 Clouds 27 1011 78 10000 6.17 120 19:32 18.04.2022
4141 Clouds 27 1011 78 10000 6.69 120 18:43 18.04.2022
4142 Clouds 26 1011 83 10000 5.66 100 17:40 18.04.2022
4143 Clouds 26 1011 83 10000 5.66 100 17:19 18.04.2022
4144 Clouds 24 1010 88 10000 5.14 130 16:38 18.04.2022
4145 Clouds 24 1013 90 10000 3.36 147 15:30 18.04.2022
4146 Clouds 23 1012 92 10000 3.5 131 14:22 18.04.2022
4147 Clouds 23 1011 92 10000 3.68 129 12:56 18.04.2022
4148 Clouds 23 1011 93 10000 3.54 138 12:24 18.04.2022
4149 Clouds 23 1011 93 10000 3.38 150 10:46 18.04.2022
4150 Clouds 24 1011 93 10000 3.26 151 09:32 18.04.2022
4151 Clouds 24 1012 93 10000 3.34 150 08:46 18.04.2022
4152 Clouds 24 1013 94 10000 2.55 147 06:52 18.04.2022
4153 Rain 24 1010 93 10000 3.81 158 02:29 18.04.2022
4154 Clouds 28 1008 69 10000 6.17 140 23:21 17.04.2022
4155 Clouds 28 1009 74 10000 7.72 130 22:36 17.04.2022
4156 Clouds 28 1009 74 10000 6.69 130 21:34 17.04.2022
4157 Clouds 27 1010 78 10000 7.72 130 20:51 17.04.2022
4158 Clouds 27 1010 78 10000 7.72 130 20:19 17.04.2022
4159 Clouds 26 1011 83 10000 5.66 130 18:45 17.04.2022
4160 Clouds 25 1011 88 10000 3.6 130 17:26 17.04.2022
4161 Clouds 24 1012 91 10000 3.81 140 15:34 17.04.2022
4162 Clouds 24 1012 91 10000 3.75 137 14:45 17.04.2022
4163 Clouds 24 1010 91 10000 3.74 141 13:29 17.04.2022
4164 Clouds 24 1010 91 10000 3.74 141 12:45 17.04.2022
4165 Clouds 24 1010 91 10000 3.6 135 10:51 17.04.2022
4166 Clouds 24 1010 91 10000 3.73 137 10:29 17.04.2022
4167 Clouds 24 1010 91 10000 3.73 137 09:51 17.04.2022
4168 Clouds 24 1011 91 10000 3.53 142 09:20 17.04.2022
4169 Clouds 24 1011 91 10000 3.53 142 08:31 17.04.2022
4170 Clouds 24 1012 89 10000 3.37 151 05:33 17.04.2022
4171 Clouds 25 1010 85 10000 3.99 161 01:52 17.04.2022
4172 Clouds 28 1007 69 10000 4.12 170 00:37 17.04.2022
4173 Clouds 29 1007 65 10000 2.06 180 23:30 16.04.2022
4174 Clouds 29 1009 70 10000 3.09 190 21:47 16.04.2022
4175 Clouds 29 1010 70 10000 3.09 180 20:54 16.04.2022
4176 Clouds 28 1010 74 10000 3.09 240 19:24 16.04.2022
4177 Clouds 27 1011 78 10000 4.12 330 18:43 16.04.2022
4178 Clouds 26 1010 78 10000 5.14 140 16:51 16.04.2022
4179 Clouds 25 1012 85 10000 2.99 115 15:49 16.04.2022
4180 Clouds 24 1011 86 10000 2.91 122 14:58 16.04.2022
4181 Clouds 24 1011 86 10000 2.91 122 14:37 16.04.2022
4182 Clouds 24 1010 87 10000 2.25 98 13:48 16.04.2022
4183 Clouds 24 1010 86 10000 2.32 108 12:43 16.04.2022
4184 Clouds 24 1009 86 10000 2.84 110 11:33 16.04.2022
4185 Clouds 24 1009 87 10000 3.2 108 10:29 16.04.2022
4186 Clouds 24 1009 87 10000 3.2 108 09:36 16.04.2022
4187 Clouds 24 1010 87 10000 3.57 106 08:42 16.04.2022
4188 Clouds 25 1011 88 10000 3.89 109 07:21 16.04.2022
4189 Clouds 25 1011 89 10000 4.12 112 04:54 16.04.2022
4190 Clouds 27 1006 78 10000 6.17 120 00:40 16.04.2022
4191 Clouds 28 1007 74 10000 9.26 120 23:40 15.04.2022
4192 Clouds 29 1007 70 10000 8.75 130 22:48 15.04.2022
4193 Clouds 29 1007 70 10000 8.75 130 22:28 15.04.2022
4194 Clouds 29 1008 70 10000 6.69 140 21:20 15.04.2022
4195 Clouds 29 1009 70 10000 6.17 150 20:36 15.04.2022
4196 Clouds 28 1009 74 10000 6.69 120 19:43 15.04.2022
4197 Clouds 28 1009 74 10000 5.66 130 18:57 15.04.2022
4198 Clouds 28 1009 74 10000 5.66 130 18:26 15.04.2022
4199 Clouds 27 1009 78 10000 5.14 100 17:56 15.04.2022
4200 Clouds 27 1009 78 10000 5.14 100 17:23 15.04.2022
4201 Clouds 26 1008 83 10000 4.63 130 16:24 15.04.2022
4202 Clouds 25 1011 86 10000 4.98 128 15:40 15.04.2022
4203 Clouds 25 1009 87 10000 4.3 126 13:55 15.04.2022
4204 Clouds 25 1008 87 10000 4.31 132 12:48 15.04.2022
4205 Clouds 25 1008 87 10000 4.47 132 11:59 15.04.2022
4206 Clouds 25 1008 87 10000 4.47 132 11:40 15.04.2022
4207 Clouds 25 1008 87 10000 4.59 131 10:45 15.04.2022
4208 Clouds 25 1008 87 10000 4.75 130 09:57 15.04.2022
4209 Clouds 25 1009 88 10000 4.84 127 09:22 15.04.2022
4210 Clouds 25 1010 89 10000 4.65 124 08:24 15.04.2022
4211 Clouds 25 1010 89 10000 4.57 120 06:47 15.04.2022
4212 Clouds 25 1010 89 10000 4.57 120 06:47 15.04.2022
4213 Clouds 25 1010 88 10000 4.44 117 04:28 15.04.2022
4214 Clouds 28 1006 74 10000 5.14 130 23:42 14.04.2022
4215 Clouds 28 1006 74 10000 5.14 130 23:19 14.04.2022
4216 Clouds 29 1007 70 10000 7.2 120 22:42 14.04.2022
4217 Clouds 29 1007 70 10000 7.2 120 22:24 14.04.2022
4218 Clouds 29 1007 70 10000 7.72 100 21:32 14.04.2022
4219 Clouds 29 1009 70 10000 4.63 120 19:24 14.04.2022
4220 Clouds 28 1009 74 10000 5.14 130 18:31 14.04.2022
4221 Clouds 27 1009 78 10000 7.2 130 17:45 14.04.2022
4222 Clouds 26 1008 83 10000 6.17 120 16:49 14.04.2022
4223 Clouds 25 1011 86 10000 5.38 133 15:48 14.04.2022
4224 Clouds 25 1009 88 10000 5.26 134 13:49 14.04.2022
4225 Clouds 25 1009 88 10000 4.82 137 13:18 14.04.2022
4226 Clouds 25 1009 88 10000 4.82 137 12:31 14.04.2022
4227 Clouds 25 1008 88 10000 4.69 132 11:36 14.04.2022
4228 Clouds 25 1008 88 10000 4.54 129 10:56 14.04.2022
4229 Clouds 25 1009 88 10000 4.42 125 10:27 14.04.2022
4230 Clouds 25 1009 88 10000 4.39 121 09:26 14.04.2022
4231 Clouds 25 1010 88 10000 4.26 119 07:52 14.04.2022
4232 Clouds 25 1010 88 10000 4.19 119 05:23 14.04.2022
4233 Clouds 29 1006 74 10000 7.2 120 23:50 13.04.2022
4234 Clouds 30 1007 70 10000 8.23 130 22:29 13.04.2022
4235 Clouds 30 1008 70 10000 6.17 140 21:42 13.04.2022
4236 Clouds 30 1008 70 10000 6.69 150 20:27 13.04.2022
4237 Clouds 29 1009 74 10000 8.23 140 19:46 13.04.2022
4238 Clouds 29 1009 74 10000 7.72 140 18:36 13.04.2022
4239 Clouds 28 1009 78 10000 7.72 140 17:24 13.04.2022
4240 Clouds 27 1009 83 10000 6.69 130 16:44 13.04.2022
4241 Clouds 25 1011 85 10000 3.8 113 15:44 13.04.2022
4242 Clouds 25 1010 86 10000 3.78 119 15:19 13.04.2022
4243 Clouds 25 1010 86 10000 3.78 119 14:30 13.04.2022
4244 Clouds 25 1010 87 10000 4.12 127 13:36 13.04.2022
4245 Clouds 25 1009 88 10000 4.05 126 12:38 13.04.2022
4246 Clouds 25 1008 88 10000 3.67 131 11:24 13.04.2022
4247 Clouds 25 1009 88 10000 3.71 129 09:45 13.04.2022
4248 Clouds 25 1009 88 10000 3.85 125 08:43 13.04.2022
4249 Clouds 25 1011 88 10000 4.1 129 07:23 13.04.2022
4250 Clouds 25 1011 88 10000 4.1 129 06:46 13.04.2022
4251 Clouds 25 1011 88 10000 3.62 133 06:18 13.04.2022
4252 Clouds 28 1006 78 10000 6.69 120 00:25 13.04.2022
4253 Clouds 29 1006 74 10000 7.2 130 23:46 12.04.2022
4254 Clouds 29 1007 74 10000 6.69 130 22:20 12.04.2022
4255 Clouds 30 1008 70 10000 7.72 120 21:39 12.04.2022
4256 Clouds 30 1009 70 10000 6.17 120 20:42 12.04.2022
4257 Clouds 28 1009 78 10000 7.2 100 19:54 12.04.2022
4258 Clouds 28 1009 78 10000 7.2 100 19:33 12.04.2022
4259 Clouds 28 1009 78 10000 6.69 130 18:50 12.04.2022
4260 Clouds 28 1009 78 10000 6.69 130 18:50 12.04.2022
4261 Clouds 28 1009 78 10000 7.2 140 17:34 12.04.2022
4262 Clouds 27 1009 83 10000 5.14 130 16:32 12.04.2022
4263 Clouds 25 1011 85 10000 4.98 129 15:33 12.04.2022
4264 Clouds 25 1010 85 10000 4.65 136 14:33 12.04.2022
4265 Clouds 25 1010 86 10000 4.58 137 13:39 12.04.2022
4266 Clouds 25 1009 86 10000 4.54 130 12:59 12.04.2022
4267 Clouds 25 1009 86 10000 4.48 129 11:47 12.04.2022
4268 Clouds 25 1009 86 10000 4.48 127 11:24 12.04.2022
4269 Clouds 25 1010 86 10000 4.76 132 09:25 12.04.2022
4270 Clouds 25 1010 85 10000 4.27 129 08:18 12.04.2022
4271 Clouds 25 1011 85 10000 4.68 122 06:33 12.04.2022
4272 Clouds 25 1011 85 10000 4.79 121 05:35 12.04.2022
4273 Clouds 26 1008 83 10000 5.3 123 01:47 12.04.2022
4274 Clouds 29 1006 74 10000 5.14 120 23:19 11.04.2022
4275 Clouds 30 1007 70 10000 7.72 120 21:49 11.04.2022
4276 Clouds 30 1007 70 10000 7.72 120 21:18 11.04.2022
4277 Clouds 29 1008 70 10000 7.2 100 20:30 11.04.2022
4278 Clouds 29 1009 74 10000 8.23 120 19:56 11.04.2022
4279 Clouds 29 1009 74 10000 8.23 120 19:21 11.04.2022
4280 Clouds 28 1009 78 10000 7.72 120 18:48 11.04.2022
4281 Clouds 28 1009 78 10000 7.2 130 17:57 11.04.2022
4282 Clouds 27 1009 83 10000 6.17 140 16:54 11.04.2022
4283 Clouds 26 1011 82 10000 4.69 139 15:58 11.04.2022
4284 Clouds 26 1010 82 10000 4.91 139 14:33 11.04.2022
4285 Clouds 25 1009 82 10000 4.89 123 12:53 11.04.2022
4286 Clouds 25 1009 82 10000 4.89 123 12:33 11.04.2022
4287 Clouds 25 1009 82 10000 4.61 121 11:37 11.04.2022
4288 Clouds 25 1008 82 10000 4.66 117 10:31 11.04.2022
4289 Clouds 25 1010 83 10000 4.69 111 09:20 11.04.2022
4290 Clouds 26 1011 82 10000 4.38 112 06:44 11.04.2022
4291 Clouds 26 1008 82 10000 4.38 131 01:55 11.04.2022
4292 Clouds 29 1007 74 10000 4.63 140 22:38 10.04.2022
4293 Clouds 29 1008 74 10000 7.72 150 21:55 10.04.2022
4294 Clouds 29 1008 74 10000 7.72 150 21:29 10.04.2022
4295 Clouds 29 1009 79 10000 5.66 130 20:31 10.04.2022
4296 Clouds 29 1010 79 10000 6.17 140 19:44 10.04.2022
4297 Clouds 26 1011 80 10000 4.01 143 19:20 10.04.2022
4298 Clouds 28 1010 78 10000 4.12 160 18:42 10.04.2022
4299 Clouds 27 1010 83 10000 6.17 140 17:52 10.04.2022
4300 Clouds 27 1010 83 10000 6.17 140 17:33 10.04.2022
4301 Clouds 26 1009 89 10000 5.14 130 16:21 10.04.2022
4302 Clouds 26 1010 84 10000 4.04 140 14:59 10.04.2022
4303 Clouds 25 1010 85 10000 4.02 135 13:54 10.04.2022
4304 Clouds 25 1009 84 10000 4.07 136 12:33 10.04.2022
4305 Clouds 25 1009 84 10000 4.02 138 11:46 10.04.2022
4306 Clouds 26 1009 84 10000 3.73 136 11:28 10.04.2022
4307 Clouds 26 1009 84 10000 3.73 136 10:41 10.04.2022
4308 Clouds 26 1009 84 10000 3.53 135 09:49 10.04.2022
4309 Clouds 26 1010 84 10000 3.31 140 08:56 10.04.2022
4310 Clouds 26 1011 85 10000 3.19 138 08:21 10.04.2022
4311 Clouds 26 1011 86 10000 3.39 123 06:59 10.04.2022
4312 Clouds 26 1011 86 10000 3.77 118 04:42 10.04.2022
4313 Clouds 27 1009 83 10000 4.03 126 02:20 10.04.2022
4314 Clouds 28 1008 78 10000 4.63 120 23:54 09.04.2022
4315 Clouds 28 1008 78 10000 4.63 120 23:25 09.04.2022
4316 Clouds 28 1008 78 10000 3.09 150 22:39 09.04.2022
4317 Clouds 28 1009 78 10000 4.63 130 21:28 09.04.2022
4318 Rain 28 1010 83 10000 5.14 120 20:31 09.04.2022
4319 Drizzle 27 1011 83 10000 4.12 30 19:59 09.04.2022
4320 Drizzle 27 1011 83 10000 4.12 30 19:39 09.04.2022
4321 Clouds 28 1011 78 10000 4.12 120 18:24 09.04.2022
4322 Clouds 28 1010 78 10000 5.14 130 17:50 09.04.2022
4323 Clouds 27 1010 83 10000 6.17 140 16:59 09.04.2022
4324 Clouds 27 1010 83 10000 6.17 140 16:40 09.04.2022
4325 Clouds 26 1012 79 10000 1.73 140 15:51 09.04.2022
4326 Clouds 26 1011 81 10000 1.61 127 15:26 09.04.2022
4327 Clouds 26 1011 81 10000 1.64 132 14:26 09.04.2022
4328 Clouds 26 1010 81 10000 1.93 156 13:33 09.04.2022
4329 Clouds 26 1010 82 10000 1.79 164 12:56 09.04.2022
4330 Clouds 26 1010 83 10000 1.98 170 11:50 09.04.2022
4331 Clouds 26 1010 84 10000 2.07 167 10:52 09.04.2022
4332 Clouds 26 1010 85 10000 2.03 161 10:18 09.04.2022
4333 Clouds 26 1011 85 10000 2.06 152 09:22 09.04.2022
4334 Clouds 26 1011 86 10000 2.01 144 08:18 09.04.2022
4335 Clouds 26 1011 85 10000 2.68 137 04:37 09.04.2022
4336 Clouds 28 1007 78 10000 5.14 130 00:35 09.04.2022
4337 Clouds 29 1007 74 10000 4.12 150 23:23 08.04.2022
4338 Clouds 30 1008 70 10000 4.12 140 21:49 08.04.2022
4339 Clouds 29 1009 74 10000 5.14 160 20:43 08.04.2022
4340 Clouds 29 1009 74 10000 5.66 160 19:47 08.04.2022
4341 Clouds 29 1010 74 10000 5.14 140 18:46 08.04.2022
4342 Clouds 29 1010 74 10000 5.14 140 18:20 08.04.2022
4343 Clouds 28 1010 78 10000 6.17 140 17:28 08.04.2022
4344 Clouds 26 1010 89 10000 5.14 130 16:55 08.04.2022
4345 Clouds 26 1010 89 10000 5.14 130 16:27 08.04.2022
4346 Clouds 26 1012 83 10000 4.68 129 15:33 08.04.2022
4347 Clouds 26 1011 83 10000 4.54 125 14:52 08.04.2022
4348 Clouds 26 1010 84 10000 4.55 121 14:19 08.04.2022
4349 Clouds 26 1010 85 10000 4.68 139 13:31 08.04.2022
4350 Clouds 26 1010 85 10000 5.02 140 12:49 08.04.2022
4351 Clouds 26 1009 85 10000 4.33 147 11:26 08.04.2022
4352 Clouds 26 1010 85 10000 3.98 146 09:57 08.04.2022
4353 Clouds 26 1010 86 10000 4.02 146 08:59 08.04.2022
4354 Clouds 26 1011 84 10000 4.55 144 07:43 08.04.2022
4355 Clouds 26 1011 84 10000 4.48 141 06:45 08.04.2022
4356 Clear 27 1010 83 10000 3.87 142 02:53 08.04.2022
4357 Clouds 29 1006 74 10000 6.69 130 00:29 08.04.2022
4358 Clouds 29 1006 74 10000 7.2 130 23:43 07.04.2022
4359 Clouds 29 1007 74 10000 8.23 140 22:41 07.04.2022
4360 Clouds 29 1007 74 10000 8.23 140 22:23 07.04.2022
4361 Clouds 29 1008 74 10000 7.2 150 21:58 07.04.2022
4362 Clouds 29 1008 74 10000 7.2 150 21:30 07.04.2022
4363 Clouds 29 1009 74 10000 6.69 140 20:42 07.04.2022
4364 Clouds 28 1010 78 10000 7.2 130 19:51 07.04.2022
4365 Clouds 28 1010 83 10000 5.14 140 17:29 07.04.2022
4366 Clouds 27 1010 83 10000 4.12 130 16:59 07.04.2022
4367 Clouds 27 1010 83 10000 4.12 130 16:33 07.04.2022
4368 Clouds 27 1011 79 10000 4.05 126 15:40 07.04.2022
4369 Clouds 26 1010 83 10000 3.66 129 13:52 07.04.2022
4370 Clouds 26 1009 83 10000 4.29 124 13:23 07.04.2022
4371 Clouds 26 1009 84 10000 4.55 126 11:52 07.04.2022
4372 Clouds 26 1009 84 10000 4.83 130 10:46 07.04.2022
4373 Clouds 26 1010 84 10000 4.89 140 08:43 07.04.2022
4374 Clouds 26 1011 84 10000 4.28 140 06:59 07.04.2022
4375 Clouds 26 1011 84 10000 4.23 124 04:36 07.04.2022
4376 Clouds 26 1009 83 10000 4.35 124 02:34 07.04.2022
4377 Clouds 28 1006 78 10000 5.66 140 00:43 07.04.2022
4378 Clouds 28 1006 78 10000 4.63 130 23:28 06.04.2022
4379 Clouds 28 1007 78 10000 4.12 130 22:44 06.04.2022
4380 Clouds 28 1007 78 10000 4.12 130 22:19 06.04.2022
4381 Clouds 29 1009 79 10000 6.17 140 20:47 06.04.2022
4382 Clouds 28 1009 83 10000 4.12 130 19:59 06.04.2022
4383 Clouds 28 1009 83 10000 4.12 130 19:20 06.04.2022
4384 Clouds 28 1009 83 10000 4.63 140 18:48 06.04.2022
4385 Clouds 27 1009 89 10000 4.12 130 17:36 06.04.2022
4386 Clouds 26 1009 89 10000 3.09 140 16:39 06.04.2022
4387 Clouds 26 1009 89 10000 3.09 140 16:19 06.04.2022
4388 Clouds 26 1011 83 10000 4.66 117 15:40 06.04.2022
4389 Clouds 26 1009 85 10000 4.16 113 13:34 06.04.2022
4390 Clouds 26 1008 85 10000 3.73 120 12:29 06.04.2022
4391 Clouds 26 1008 85 10000 3.68 118 10:57 06.04.2022
4392 Clouds 26 1008 85 10000 3.68 118 10:33 06.04.2022
4393 Rain 26 1008 86 10000 3.54 113 09:46 06.04.2022
4394 Rain 26 1009 85 10000 3.26 115 08:39 06.04.2022
4395 Clouds 26 1010 84 10000 2.93 123 07:57 06.04.2022
4396 Clouds 26 1010 84 10000 3 134 05:23 06.04.2022
4397 Clouds 29 1006 74 10000 4.12 140 23:58 05.04.2022
4398 Clouds 29 1006 74 10000 4.12 140 23:33 05.04.2022
4399 Clouds 29 1008 79 10000 5.14 150 21:48 05.04.2022
4400 Clouds 29 1008 79 10000 5.14 150 21:48 05.04.2022
4401 Clouds 29 1009 79 10000 4.63 160 20:54 05.04.2022
4402 Clouds 29 1009 79 10000 4.63 160 20:23 05.04.2022
4403 Clouds 26 1010 94 10000 3.6 190 18:26 05.04.2022
4404 Rain 26 1009 94 8000 3.09 180 17:20 05.04.2022
4405 Drizzle 25 1009 94 3000 3.09 190 16:41 05.04.2022
4406 Clouds 26 1011 81 10000 3.99 165 15:49 05.04.2022
4407 Clouds 26 1010 82 10000 3.73 166 15:30 05.04.2022
4408 Rain 26 1009 83 10000 3.2 179 13:45 05.04.2022
4409 Rain 26 1008 84 10000 3.28 186 11:51 05.04.2022
4410 Rain 26 1008 84 10000 3.28 186 11:33 05.04.2022
4411 Rain 26 1008 85 10000 3.32 183 10:57 05.04.2022
4412 Rain 26 1008 85 10000 3.57 183 09:31 05.04.2022
4413 Rain 26 1010 84 10000 3.69 178 08:22 05.04.2022
4414 Rain 26 1009 83 10000 3.58 166 02:58 05.04.2022
4415 Clouds 29 1006 74 10000 5.14 160 23:22 04.04.2022
4416 Clouds 29 1007 79 10000 6.17 130 22:32 04.04.2022
4417 Clouds 29 1008 74 10000 5.14 130 21:43 04.04.2022
4418 Clouds 29 1008 74 10000 5.14 130 21:18 04.04.2022
4419 Clouds 28 1009 78 10000 6.17 140 20:46 04.04.2022
4420 Clouds 28 1009 78 10000 5.14 140 19:27 04.04.2022
4421 Clouds 28 1010 78 10000 4.63 160 18:39 04.04.2022
4422 Clouds 27 1009 89 10000 6.17 130 17:19 04.04.2022
4423 Clouds 26 1008 94 10000 5.14 140 16:27 04.04.2022
4424 Clouds 26 1011 82 10000 3.36 151 15:33 04.04.2022
4425 Clouds 26 1010 82 10000 3.06 156 14:46 04.04.2022
4426 Clouds 26 1009 83 10000 3.41 169 13:58 04.04.2022
4427 Clouds 26 1008 83 10000 3.47 174 12:41 04.04.2022
4428 Clouds 26 1008 82 10000 3.43 179 11:29 04.04.2022
4429 Clouds 26 1009 82 10000 3.33 171 09:53 04.04.2022
4430 Clouds 26 1012 82 10000 3.66 158 05:33 04.04.2022
4431 Rain 26 1010 83 10000 3.84 168 02:47 04.04.2022
4432 Clouds 29 1008 79 10000 5.14 160 22:54 03.04.2022
4433 Clouds 29 1008 74 10000 6.69 140 21:59 03.04.2022
4434 Clouds 29 1008 74 10000 6.69 140 21:25 03.04.2022
4435 Clouds 28 1009 78 10000 4.12 150 20:21 03.04.2022
4436 Clouds 28 1010 83 10000 4.63 160 18:37 03.04.2022
4437 Clouds 27 1010 83 10000 4.12 160 17:50 03.04.2022
4438 Clouds 27 1010 83 10000 4.12 160 17:32 03.04.2022
4439 Clouds 26 1009 89 10000 3.09 150 16:49 03.04.2022
4440 Clouds 27 1011 81 10000 4.82 153 15:42 03.04.2022
4441 Clouds 26 1010 82 10000 5.01 160 13:58 03.04.2022
4442 Clouds 26 1009 85 10000 4.81 154 12:58 03.04.2022
4443 Rain 26 1009 84 10000 4.51 155 11:34 03.04.2022
4444 Clouds 26 1009 83 10000 3.96 155 09:41 03.04.2022
4445 Clouds 26 1010 83 10000 4.13 154 08:57 03.04.2022
4446 Clouds 27 1012 83 10000 3.64 155 05:45 03.04.2022
4447 Clouds 27 1012 83 10000 3.64 155 05:45 03.04.2022
4448 Clouds 27 1010 82 10000 4.28 148 02:55 03.04.2022
4449 Clouds 28 1007 78 10000 5.14 160 23:27 02.04.2022
4450 Clouds 28 1008 83 10000 4.63 140 22:41 02.04.2022
4451 Clouds 28 1009 83 10000 5.14 170 21:55 02.04.2022
4452 Clouds 28 1009 83 10000 5.14 170 21:19 02.04.2022
4453 Clouds 28 1009 83 10000 4.63 160 20:36 02.04.2022
4454 Clouds 28 1010 83 10000 5.66 130 18:47 02.04.2022
4455 Clouds 28 1010 83 10000 5.66 130 18:19 02.04.2022
4456 Clouds 27 1010 89 10000 4.63 150 16:45 02.04.2022
4457 Rain 26 1012 82 10000 4.51 138 15:42 02.04.2022
4458 Rain 26 1011 83 10000 4.57 140 15:18 02.04.2022
4459 Rain 26 1010 83 10000 4.29 143 14:26 02.04.2022
4460 Rain 26 1010 86 10000 4.33 130 13:31 02.04.2022
4461 Rain 26 1009 85 10000 4.11 135 12:21 02.04.2022
4462 Clouds 26 1009 85 10000 3.89 132 10:22 02.04.2022
4463 Clouds 26 1011 85 10000 3.89 122 07:48 02.04.2022
4464 Clouds 26 1011 84 10000 3.39 116 04:34 02.04.2022
4465 Rain 27 1008 79 10000 2.26 120 01:21 02.04.2022
4466 Clouds 28 1007 89 10000 4.63 130 23:54 01.04.2022
4467 Rain 27 1007 89 10000 3.6 140 22:46 01.04.2022
4468 Rain 28 1009 83 10000 5.14 140 20:55 01.04.2022
4469 Rain 28 1009 83 10000 5.14 140 20:35 01.04.2022
4470 Rain 28 1010 83 10000 7.2 130 19:41 01.04.2022
4471 Rain 28 1010 83 10000 7.2 130 19:23 01.04.2022
4472 Clouds 29 1010 79 10000 3.6 140 18:36 01.04.2022
4473 Clouds 28 1010 78 10000 4.12 140 17:38 01.04.2022
4474 Clouds 26 1011 83 10000 3.06 155 15:46 01.04.2022
4475 Clouds 26 1010 84 10000 3.35 162 14:51 01.04.2022
4476 Clouds 26 1010 83 10000 3.75 137 13:39 01.04.2022
4477 Clouds 26 1009 83 10000 3.9 140 12:33 01.04.2022
4478 Clouds 26 1009 83 10000 3.89 142 11:47 01.04.2022
4479 Clouds 26 1009 83 10000 3.72 147 10:49 01.04.2022
4480 Clouds 26 1009 82 10000 3.85 153 09:35 01.04.2022
4481 Clouds 26 1011 81 10000 0.99 172 07:24 01.04.2022
4482 Clouds 26 1011 81 10000 1 152 04:57 01.04.2022
4483 Clouds 26 1011 81 10000 1 152 04:39 01.04.2022
4484 Rain 26 1009 77 10000 1.24 171 02:32 01.04.2022
4485 Rain 24 1007 94 8000 3.09 230 01:31 01.04.2022
4486 Clouds 26 1008 89 10000 3.6 210 22:24 31.03.2022
4487 Rain 26 1008 89 8000 1.54 250 21:38 31.03.2022
4488 Rain 27 1009 89 8000 1.54 230 20:50 31.03.2022
4489 Rain 27 1009 89 8000 1.54 230 20:28 31.03.2022
4490 Rain 27 1010 89 8000 1.54 200 19:18 31.03.2022
4491 Rain 26 1010 89 4000 1.54 160 18:31 31.03.2022
4492 Clouds 27 1009 83 10000 2.06 160 16:46 31.03.2022
4493 Rain 26 1010 81 10000 3.62 197 15:54 31.03.2022
4494 Rain 26 1010 81 10000 3.77 195 15:23 31.03.2022
4495 Rain 26 1010 81 10000 3.77 195 14:44 31.03.2022
4496 Rain 26 1009 81 10000 3.16 184 13:27 31.03.2022
4497 Rain 26 1009 82 10000 3.04 193 11:30 31.03.2022
4498 Rain 26 1009 84 10000 2.31 189 10:19 31.03.2022
4499 Clouds 26 1009 83 10000 2.55 178 08:52 31.03.2022
4500 Rain 26 1011 83 10000 1.31 162 07:25 31.03.2022
4501 Clouds 27 1008 80 10000 3.11 165 01:27 31.03.2022
4502 Clouds 29 1006 74 10000 3.6 180 23:23 30.03.2022
4503 Clouds 29 1007 74 10000 5.14 150 21:50 30.03.2022
4504 Clouds 29 1007 74 10000 5.14 150 21:27 30.03.2022
4505 Clouds 29 1008 74 10000 5.66 140 20:22 30.03.2022
4506 Clouds 29 1008 74 10000 3.6 160 19:38 30.03.2022
4507 Clouds 28 1009 78 10000 3.09 160 18:40 30.03.2022
4508 Clouds 28 1009 78 10000 3.6 140 17:49 30.03.2022
4509 Clouds 27 1009 83 10000 2.06 120 16:58 30.03.2022
4510 Clouds 27 1009 83 10000 2.06 120 16:38 30.03.2022
4511 Clouds 26 1011 83 10000 3.53 165 15:38 30.03.2022
4512 Rain 26 1010 85 10000 3.32 167 13:57 30.03.2022
4513 Rain 26 1009 85 10000 3.3 171 13:18 30.03.2022
4514 Rain 26 1009 85 10000 3.32 167 11:36 30.03.2022
4515 Clouds 26 1009 85 10000 3.55 163 10:31 30.03.2022
4516 Clouds 26 1010 85 10000 3.43 156 09:27 30.03.2022
4517 Rain 26 1011 84 10000 3.43 147 07:41 30.03.2022
4518 Clouds 26 1012 84 10000 3.75 148 05:41 30.03.2022
4519 Rain 26 1011 84 10000 3.81 145 04:19 30.03.2022
4520 Clouds 27 1007 83 10000 4.12 120 00:42 30.03.2022
4521 Clouds 27 1008 83 10000 6.17 120 22:34 29.03.2022
4522 Drizzle 28 1009 83 10000 5.14 140 21:45 29.03.2022
4523 Clouds 28 1010 78 10000 6.17 140 20:54 29.03.2022
4524 Clouds 28 1010 78 10000 6.17 140 20:19 29.03.2022
4525 Clouds 27 1011 89 10000 6.17 120 18:56 29.03.2022
4526 Clouds 27 1011 89 10000 6.17 120 18:21 29.03.2022
4527 Rain 26 1011 94 8000 4.12 150 17:35 29.03.2022
4528 Rain 26 1011 89 6000 5.14 140 16:57 29.03.2022
4529 Clouds 27 1012 80 10000 3.94 151 15:57 29.03.2022
4530 Clouds 26 1012 81 10000 4.18 153 14:53 29.03.2022
4531 Clouds 26 1011 81 10000 2.6 136 13:58 29.03.2022
4532 Clouds 26 1010 81 10000 2.47 134 12:51 29.03.2022
4533 Clouds 26 1010 81 10000 2.46 142 11:43 29.03.2022
4534 Clouds 26 1010 81 10000 2.46 142 11:43 29.03.2022
4535 Clouds 26 1010 81 10000 2.49 154 10:30 29.03.2022
4536 Clouds 26 1010 82 10000 2.37 159 09:42 29.03.2022
4537 Clouds 26 1012 84 10000 2.82 146 06:58 29.03.2022
4538 Clouds 26 1012 85 10000 3.64 132 04:41 29.03.2022
4539 Clouds 28 1007 78 10000 6.17 130 00:35 29.03.2022
4540 Clouds 29 1007 74 10000 6.17 140 23:22 28.03.2022
4541 Clouds 29 1008 74 10000 4.63 140 22:51 28.03.2022
4542 Clouds 29 1008 74 10000 4.63 140 22:23 28.03.2022
4543 Clouds 28 1010 78 10000 6.17 130 20:56 28.03.2022
4544 Clouds 28 1010 78 10000 6.17 130 20:20 28.03.2022
4545 Clouds 28 1010 78 10000 5.14 100 19:41 28.03.2022
4546 Clouds 29 1010 74 10000 5.14 140 18:55 28.03.2022
4547 Clouds 29 1010 74 10000 5.14 140 18:20 28.03.2022
4548 Clouds 28 1010 78 10000 3.6 110 17:32 28.03.2022
4549 Clouds 27 1011 79 10000 4.76 127 15:54 28.03.2022
4550 Clouds 27 1010 81 10000 4.74 115 14:27 28.03.2022
4551 Clouds 27 1010 81 10000 4.74 115 13:35 28.03.2022
4552 Clouds 27 1009 81 10000 3.98 113 11:57 28.03.2022
4553 Clouds 26 1008 81 10000 3.64 114 10:49 28.03.2022
4554 Clouds 26 1009 82 10000 3.52 112 09:38 28.03.2022
4555 Clouds 26 1010 82 10000 3.72 113 08:46 28.03.2022
4556 Clouds 26 1010 82 10000 4.25 112 08:21 28.03.2022
4557 Clouds 26 1011 82 10000 4.69 108 07:26 28.03.2022
4558 Clouds 27 1009 80 10000 4.64 120 02:46 28.03.2022
4559 Clouds 30 1006 74 10000 5.14 120 22:57 27.03.2022
4560 Clouds 29 1007 74 10000 6.69 140 21:55 27.03.2022
4561 Clouds 29 1007 74 10000 6.69 140 21:36 27.03.2022
4562 Clouds 28 1008 78 10000 4.12 180 20:42 27.03.2022
4563 Clouds 29 1009 74 10000 5.14 120 19:44 27.03.2022
4564 Clouds 28 1009 78 10000 4.63 120 18:47 27.03.2022
4565 Clouds 28 1009 78 10000 4.63 120 18:24 27.03.2022
4566 Clouds 28 1009 78 10000 5.14 130 17:37 27.03.2022
4567 Rain 27 1011 83 10000 5.38 138 15:55 27.03.2022
4568 Rain 26 1010 84 10000 4.46 128 13:59 27.03.2022
4569 Rain 26 1010 84 10000 4.46 128 13:33 27.03.2022
4570 Rain 26 1008 84 10000 4.32 128 11:41 27.03.2022
4571 Rain 26 1009 86 10000 4.03 131 09:49 27.03.2022
4572 Rain 26 1010 85 10000 5 141 07:47 27.03.2022
4573 Rain 26 1010 83 10000 4.67 144 04:49 27.03.2022
4574 Rain 27 1007 81 10000 4.71 161 00:26 27.03.2022
4575 Clouds 28 1006 78 10000 6.69 130 22:52 26.03.2022
4576 Clouds 28 1006 78 10000 6.69 130 22:22 26.03.2022
4577 Clouds 28 1007 83 10000 3.6 140 21:30 26.03.2022
4578 Clouds 27 1009 83 10000 5.66 130 19:38 26.03.2022
4579 Rain 26 1010 89 10000 6.17 140 18:44 26.03.2022
4580 Clouds 28 1010 83 10000 3.6 180 17:41 26.03.2022
4581 Clouds 28 1009 78 10000 4.12 150 16:46 26.03.2022
4582 Clouds 27 1009 83 10000 3.09 120 15:43 26.03.2022
4583 Rain 26 1010 83 10000 3.72 182 13:57 26.03.2022
4584 Rain 26 1010 83 10000 3.72 182 13:36 26.03.2022
4585 Rain 26 1009 83 10000 4.26 176 12:18 26.03.2022
4586 Rain 26 1009 84 10000 4.02 180 10:49 26.03.2022
4587 Rain 26 1009 84 10000 3.57 186 09:19 26.03.2022
4588 Rain 26 1010 82 10000 3.4 182 06:56 26.03.2022
4589 Rain 26 1011 81 10000 3.42 170 05:31 26.03.2022
4590 Clouds 27 1009 79 10000 3.33 170 02:24 26.03.2022
4591 Clouds 28 1006 78 10000 4.12 140 22:30 25.03.2022
4592 Rain 27 1007 83 8000 3.6 100 20:58 25.03.2022
4593 Clouds 29 1008 74 10000 3.09 180 20:26 25.03.2022
4594 Clouds 30 1009 70 10000 2.06 150 19:19 25.03.2022
4595 Clouds 30 1009 70 10000 4.12 120 18:35 25.03.2022
4596 Clouds 29 1009 74 10000 3.6 180 17:30 25.03.2022
4597 Clouds 28 1009 78 10000 4.12 160 16:27 25.03.2022
4598 Clouds 27 1009 83 10000 3.09 170 15:33 25.03.2022
4599 Clouds 26 1009 78 10000 3.58 135 13:29 25.03.2022
4600 Clouds 26 1008 79 10000 3.33 132 11:21 25.03.2022
4601 Clouds 26 1008 79 10000 3.29 136 09:31 25.03.2022
4602 Clouds 26 1009 79 10000 3.55 130 08:49 25.03.2022
4603 Clouds 26 1009 79 10000 4.31 122 07:35 25.03.2022
4604 Clouds 26 1011 79 10000 4.35 124 06:29 25.03.2022
4605 Clouds 27 1010 78 10000 4.23 127 02:37 25.03.2022
4606 Clouds 29 1006 74 10000 5.14 120 22:56 24.03.2022
4607 Clouds 29 1006 74 10000 6.17 130 21:56 24.03.2022
4608 Clouds 30 1007 70 10000 5.14 140 20:51 24.03.2022
4609 Clouds 29 1008 70 10000 5.14 140 19:49 24.03.2022
4610 Drizzle 28 1009 83 10000 5.14 120 18:34 24.03.2022
4611 Clouds 28 1009 78 10000 6.69 120 17:33 24.03.2022
4612 Clouds 28 1009 78 10000 5.14 130 16:24 24.03.2022
4613 Clouds 27 1011 80 10000 5.35 140 14:51 24.03.2022
4614 Clouds 26 1010 81 10000 5.3 142 14:21 24.03.2022
4615 Clouds 26 1010 81 10000 5.02 142 13:31 24.03.2022
4616 Clouds 26 1009 81 10000 4.45 138 12:23 24.03.2022
4617 Clouds 26 1008 81 10000 4.48 142 10:32 24.03.2022
4618 Clouds 26 1009 80 10000 4.25 146 09:23 24.03.2022
4619 Clouds 26 1009 80 10000 4.47 144 07:42 24.03.2022
4620 Clouds 27 1011 78 10000 4.05 133 04:43 24.03.2022
4621 Clouds 27 1005 83 10000 6.17 140 23:38 23.03.2022
4622 Rain 28 1006 78 10000 5.14 140 22:18 23.03.2022
4623 Clouds 29 1007 74 10000 5.66 130 21:20 23.03.2022
4624 Clouds 30 1008 70 10000 3.6 180 19:50 23.03.2022
4625 Clouds 30 1008 70 10000 3.6 180 19:25 23.03.2022
4626 Clouds 29 1010 74 10000 4.12 120 17:39 23.03.2022
4627 Clouds 29 1009 70 10000 5.66 120 16:53 23.03.2022
4628 Clouds 27 1011 79 10000 4.55 150 14:57 23.03.2022
4629 Clouds 27 1011 79 10000 4.55 150 14:38 23.03.2022
4630 Clouds 26 1009 80 10000 4.92 136 13:22 23.03.2022
4631 Clouds 26 1008 79 10000 4.23 139 10:20 23.03.2022
4632 Clouds 27 1009 78 10000 3.73 135 07:44 23.03.2022
4633 Clouds 27 1010 76 10000 4.07 139 05:27 23.03.2022
4634 Clouds 27 1007 75 10000 4.56 130 01:18 23.03.2022
4635 Clouds 27 1007 74 10000 4.91 133 00:23 23.03.2022
4636 Clouds 29 1005 70 10000 5.14 140 21:31 22.03.2022
4637 Clouds 29 1006 70 10000 5.14 120 20:51 22.03.2022
4638 Clouds 30 1007 70 10000 5.14 140 19:52 22.03.2022
4639 Clouds 30 1007 70 10000 5.14 140 19:24 22.03.2022
4640 Clouds 30 1008 70 10000 5.14 120 18:45 22.03.2022
4641 Clouds 29 1008 74 10000 4.12 110 17:38 22.03.2022
4642 Clouds 29 1008 74 10000 3.09 120 16:28 22.03.2022
4643 Clouds 27 1010 78 10000 5.9 142 15:23 22.03.2022
4644 Clouds 27 1010 78 10000 5.9 142 14:57 22.03.2022
4645 Clouds 27 1010 78 10000 5.9 142 14:38 22.03.2022
4646 Clouds 27 1009 79 10000 5.93 143 13:36 22.03.2022
4647 Clouds 26 1008 77 10000 5 141 11:52 22.03.2022
4648 Clouds 26 1008 78 10000 4.8 144 10:44 22.03.2022
4649 Clouds 26 1008 79 10000 4.66 144 08:36 22.03.2022
4650 Clouds 27 1010 78 10000 4.88 141 06:53 22.03.2022
4651 Clouds 27 1010 77 10000 4.85 142 03:49 22.03.2022
4652 Clouds 28 1005 78 10000 5.14 140 00:28 22.03.2022
4653 Clouds 29 1006 74 10000 3.09 150 22:42 21.03.2022
4654 Clouds 30 1006 70 10000 3.09 140 21:18 21.03.2022
4655 Clouds 29 1007 70 10000 4.63 130 20:40 21.03.2022
4656 Clouds 29 1008 70 10000 4.12 130 19:58 21.03.2022
4657 Clouds 29 1008 70 10000 4.12 130 19:34 21.03.2022
4658 Clouds 28 1009 78 10000 3.6 130 18:31 21.03.2022
4659 Clouds 27 1009 83 10000 4.12 140 17:19 21.03.2022
4660 Clouds 27 1009 83 10000 4.12 180 16:45 21.03.2022
4661 Clouds 26 1009 89 10000 2.57 150 15:55 21.03.2022
4662 Clouds 26 1009 89 10000 2.57 150 15:20 21.03.2022
4663 Rain 27 1010 80 10000 4.13 144 14:25 21.03.2022
4664 Rain 26 1010 82 10000 3.22 147 12:42 21.03.2022
4665 Rain 26 1009 81 10000 3.11 154 11:53 21.03.2022
4666 Rain 26 1009 83 10000 3.38 154 10:40 21.03.2022
4667 Rain 26 1009 83 10000 2.92 146 08:55 21.03.2022
4668 Rain 27 1010 80 10000 2.61 116 06:54 21.03.2022
4669 Clouds 27 1010 78 10000 2.62 113 02:52 21.03.2022
4670 Rain 27 1008 77 10000 3.01 125 00:19 21.03.2022
4671 Drizzle 25 1007 94 2000 3.09 30 22:44 20.03.2022
4672 Drizzle 27 1008 83 3000 3.09 20 21:52 20.03.2022
4673 Rain 27 1009 78 10000 2.6 120 21:25 20.03.2022
4674 Clouds 28 1008 78 8000 4.12 140 20:43 20.03.2022
4675 Clouds 29 1009 74 10000 3.09 200 19:59 20.03.2022
4676 Clouds 29 1009 74 10000 3.09 200 19:31 20.03.2022
4677 Clouds 29 1009 74 10000 4.12 140 18:22 20.03.2022
4678 Clouds 28 1010 78 10000 3.6 150 17:33 20.03.2022
4679 Clouds 27 1010 83 10000 2.06 130 16:57 20.03.2022
4680 Rain 26 1010 94 6000 1.54 40 15:34 20.03.2022
4681 Rain 27 1012 80 10000 3.49 119 14:34 20.03.2022
4682 Rain 26 1010 81 10000 3.03 132 12:35 20.03.2022
4683 Rain 26 1009 81 10000 2.68 143 11:23 20.03.2022
4684 Clouds 26 1009 81 10000 2.5 138 09:26 20.03.2022
4685 Clouds 27 1011 80 10000 2.77 135 07:28 20.03.2022
4686 Clouds 27 1012 79 10000 2.81 130 05:40 20.03.2022
4687 Clouds 27 1010 76 10000 2.86 147 01:50 20.03.2022
4688 Clouds 26 1007 89 10000 2.06 120 00:45 20.03.2022
4689 Rain 26 1007 89 3000 32.92 150 23:19 19.03.2022
4690 Clouds 29 1008 70 8000 4.12 130 21:27 19.03.2022
4691 Clouds 28 1009 78 5000 4.12 140 20:49 19.03.2022
4692 Clouds 29 1010 74 10000 3.09 190 18:58 19.03.2022
4693 Clouds 29 1010 74 10000 3.09 190 18:23 19.03.2022
4694 Rain 27 1012 75 10000 1.82 126 17:35 19.03.2022
4695 Clouds 27 1013 75 10000 1.64 134 15:44 19.03.2022
4696 Rain 27 1012 76 10000 1.26 149 14:44 19.03.2022
4697 Clouds 26 1011 78 10000 2.28 149 12:59 19.03.2022
4698 Clouds 26 1010 77 10000 1.53 179 12:39 19.03.2022
4699 Clouds 26 1010 78 10000 2.25 151 11:51 19.03.2022
4700 Clouds 26 1009 78 10000 2.53 148 10:45 19.03.2022
4701 Clouds 27 1012 76 10000 3.05 147 06:29 19.03.2022
4702 Clouds 27 1011 75 10000 3.47 160 03:24 19.03.2022
4703 Clouds 27 1010 75 10000 3.57 165 01:41 19.03.2022
4704 Clouds 29 1007 74 10000 2.06 180 23:36 18.03.2022
4705 Clouds 29 1007 74 10000 3.09 180 22:27 18.03.2022
4706 Clouds 30 1008 70 10000 2.57 180 21:19 18.03.2022
4707 Clouds 30 1009 70 10000 3.09 190 19:51 18.03.2022
4708 Clouds 30 1009 70 10000 3.09 190 19:21 18.03.2022
4709 Clouds 30 1009 70 10000 3.09 190 19:21 18.03.2022
4710 Clouds 29 1011 74 10000 3.09 150 17:43 18.03.2022
4711 Clouds 29 1010 74 10000 1.54 180 16:47 18.03.2022
4712 Clear 27 1012 75 10000 2.95 153 14:45 18.03.2022
4713 Clear 26 1011 76 10000 2.81 159 14:20 18.03.2022
4714 Rain 26 1010 79 10000 2.55 180 12:23 18.03.2022
4715 Rain 26 1010 80 10000 2.28 184 10:39 18.03.2022
4716 Rain 26 1010 79 10000 2.24 193 09:23 18.03.2022
4717 Rain 27 1010 77 10000 2.77 196 07:45 18.03.2022
4718 Clear 27 1011 74 10000 2.17 196 06:34 18.03.2022
4719 Clear 27 1011 73 10000 3.12 161 02:50 18.03.2022
4720 Clouds 28 1008 69 10000 2.37 155 00:22 18.03.2022
4721 Clouds 28 1007 78 10000 2.57 160 22:56 17.03.2022
4722 Clouds 28 1007 78 10000 2.57 160 22:22 17.03.2022
4723 Clouds 29 1007 74 10000 3.09 200 21:47 17.03.2022
4724 Clouds 29 1007 74 10000 3.09 200 21:19 17.03.2022
4725 Clouds 30 1008 70 10000 2.06 180 20:32 17.03.2022
4726 Clouds 30 1009 70 10000 2.57 160 19:41 17.03.2022
4727 Clouds 29 1010 74 10000 2.57 180 18:57 17.03.2022
4728 Clouds 28 1010 78 10000 3.09 160 17:55 17.03.2022
4729 Clouds 28 1010 78 10000 2.06 180 16:34 17.03.2022
4730 Clouds 28 1010 78 10000 2.57 180 15:44 17.03.2022
4731 Clouds 28 1010 78 10000 2.57 180 15:21 17.03.2022
4732 Rain 27 1011 73 10000 1.2 135 13:48 17.03.2022
4733 Rain 26 1011 76 10000 0.97 89 12:48 17.03.2022
4734 Rain 26 1010 76 10000 0.79 107 11:47 17.03.2022
4735 Rain 26 1009 76 10000 0.67 119 11:22 17.03.2022
4736 Rain 26 1009 76 10000 0.65 132 09:41 17.03.2022
4737 Rain 26 1010 76 10000 0.59 133 08:31 17.03.2022
4738 Rain 27 1012 72 10000 0.62 134 06:25 17.03.2022
4739 Clouds 27 1012 71 10000 0.83 151 05:25 17.03.2022
4740 Rain 27 1010 70 10000 0.68 181 00:33 17.03.2022
4741 Clouds 30 1007 66 10000 3.6 180 22:58 16.03.2022
4742 Clouds 30 1007 66 10000 3.6 180 22:37 16.03.2022
4743 Clouds 30 1008 66 10000 2.57 200 21:58 16.03.2022
4744 Rain 27 1010 73 10000 0.73 266 20:47 16.03.2022
4745 Clouds 30 1010 66 10000 1.54 210 19:24 16.03.2022
4746 Clouds 29 1010 70 10000 2.57 200 18:43 16.03.2022
4747 Clouds 29 1010 70 10000 2.57 200 18:18 16.03.2022
4748 Clouds 29 1011 74 10000 2.06 210 17:36 16.03.2022
4749 Clouds 28 1011 74 10000 2.06 180 16:36 16.03.2022
4750 Clouds 27 1013 71 10000 0.47 293 15:34 16.03.2022
4751 Clouds 27 1012 73 10000 0.86 262 13:41 16.03.2022
4752 Clouds 26 1011 74 10000 1.16 252 12:56 16.03.2022
4753 Clouds 26 1010 74 10000 0.94 271 11:24 16.03.2022
4754 Clouds 26 1010 74 10000 0.94 271 10:37 16.03.2022
4755 Clouds 26 1009 74 10000 0.74 258 09:57 16.03.2022
4756 Clear 27 1011 74 10000 0.84 306 08:24 16.03.2022
4757 Clouds 27 1011 70 10000 0.61 79 02:46 16.03.2022
4758 Clouds 27 1009 69 10000 0.5 102 22:56 15.03.2022
4759 Clouds 27 1009 69 10000 0.5 102 22:36 15.03.2022
4760 Rain 25 1010 88 8000 2.57 190 20:59 15.03.2022
4761 Rain 24 1011 94 3000 2.57 80 19:39 15.03.2022
4762 Clouds 27 1011 89 10000 1.03 180 17:47 15.03.2022
4763 Clouds 27 1011 89 10000 2.06 180 16:41 15.03.2022
4764 Clouds 28 1011 78 10000 1.54 220 15:38 15.03.2022
4765 Clouds 27 1013 72 10000 0.76 314 14:54 15.03.2022
4766 Clouds 27 1012 73 10000 0.92 305 13:56 15.03.2022
4767 Clouds 27 1011 73 10000 0.59 302 13:22 15.03.2022
4768 Clouds 26 1011 74 10000 0.82 49 11:33 15.03.2022
4769 Clouds 26 1010 74 10000 1.02 77 10:27 15.03.2022
4770 Clouds 26 1010 73 10000 0.54 96 09:20 15.03.2022
4771 Clouds 27 1011 73 10000 0.64 94 08:21 15.03.2022
4772 Clouds 27 1011 73 10000 0.64 94 07:36 15.03.2022
4773 Clouds 27 1013 74 10000 2.96 92 05:55 15.03.2022
4774 Rain 27 1010 71 10000 1.49 138 00:25 15.03.2022
4775 Clouds 29 1008 74 10000 2.06 180 23:27 14.03.2022
4776 Clouds 29 1008 70 10000 3.09 180 22:44 14.03.2022
4777 Clouds 29 1009 74 10000 1.54 240 21:51 14.03.2022
4778 Clouds 30 1010 70 10000 2.06 210 20:55 14.03.2022
4779 Clouds 30 1010 70 10000 2.06 210 20:24 14.03.2022
4780 Clouds 30 1011 70 10000 3.09 220 19:22 14.03.2022
4781 Rain 27 1012 89 10000 1.03 170 17:55 14.03.2022
4782 Rain 27 1012 89 10000 1.03 170 17:25 14.03.2022
4783 Clouds 28 1012 78 10000 1.54 190 16:27 14.03.2022
4784 Clouds 27 1013 74 10000 1.45 150 14:42 14.03.2022
4785 Clouds 26 1012 76 10000 1.76 144 12:55 14.03.2022
4786 Clouds 26 1011 76 10000 2.1 135 10:57 14.03.2022
4787 Clouds 26 1010 76 10000 1.62 145 09:56 14.03.2022
4788 Rain 26 1011 77 10000 1.43 143 09:23 14.03.2022
4789 Rain 26 1011 77 10000 1.43 143 08:57 14.03.2022
4790 Rain 26 1011 77 10000 1.58 137 08:20 14.03.2022
4791 Rain 26 1013 76 10000 1.69 162 05:46 14.03.2022
4792 Clouds 27 1012 73 10000 1.54 134 02:51 14.03.2022
4793 Clear 27 1011 71 10000 1.08 96 01:29 14.03.2022
4794 Clouds 27 1010 71 10000 0.42 159 22:56 13.03.2022
4795 Clouds 30 1009 70 10000 1.54 270 21:31 13.03.2022
4796 Clouds 27 1010 83 10000 2.57 160 20:59 13.03.2022
4797 Clouds 27 1010 83 10000 2.57 160 20:37 13.03.2022
4798 Clouds 27 1010 83 10000 2.57 160 20:19 13.03.2022
4799 Rain 28 1010 83 10000 1.54 150 19:39 13.03.2022
4800 Clouds 29 1011 74 10000 1.54 150 19:18 13.03.2022
4801 Clouds 29 1011 79 10000 2.06 260 18:39 13.03.2022
4802 Clouds 28 1012 78 10000 2.06 300 17:47 13.03.2022
4803 Clouds 28 1012 78 10000 2.06 300 17:21 13.03.2022
4804 Clouds 27 1011 83 10000 1.54 250 16:33 13.03.2022
4805 Clouds 27 1011 89 10000 1.03 210 15:49 13.03.2022
4806 Rain 26 1014 75 10000 0.25 188 14:58 13.03.2022
4807 Rain 26 1013 76 10000 0.31 223 13:49 13.03.2022
4808 Clouds 26 1012 76 10000 0.59 260 12:57 13.03.2022
4809 Rain 26 1012 76 10000 0.69 266 11:53 13.03.2022
4810 Rain 26 1012 76 10000 0.69 266 11:32 13.03.2022
4811 Rain 26 1011 78 10000 0.78 242 10:48 13.03.2022
4812 Rain 26 1011 78 10000 0.78 242 10:48 13.03.2022
4813 Rain 26 1011 77 10000 0.97 210 10:24 13.03.2022
4814 Rain 26 1011 77 10000 0.97 210 10:24 13.03.2022
4815 Rain 26 1011 77 10000 0.97 210 09:41 13.03.2022
4816 Rain 26 1011 77 10000 0.48 231 08:46 13.03.2022
4817 Rain 26 1011 76 10000 0.36 230 07:42 13.03.2022
4818 Clear 27 1013 73 10000 0.63 172 05:41 13.03.2022
4819 Rain 27 1012 73 10000 1.22 327 02:43 13.03.2022
4820 Clouds 30 1007 70 10000 2.06 230 23:59 12.03.2022
4821 Clouds 29 1008 74 10000 1.54 180 22:31 12.03.2022
4822 Clouds 30 1009 70 10000 2.06 280 20:48 12.03.2022
4823 Clouds 30 1010 70 10000 3.09 250 19:48 12.03.2022
4824 Clouds 30 1010 70 10000 3.09 250 19:27 12.03.2022
4825 Clouds 29 1011 79 10000 2.57 260 18:23 12.03.2022
4826 Clouds 29 1011 74 10000 2.06 260 17:31 12.03.2022
4827 Clouds 29 1011 79 10000 1.03 260 16:24 12.03.2022
4828 Clouds 27 1010 89 10000 2.06 220 15:23 12.03.2022
4829 Rain 26 1012 75 10000 1.15 123 14:28 12.03.2022
4830 Clouds 26 1012 77 10000 0.7 320 12:56 12.03.2022
4831 Clouds 26 1011 77 10000 0.81 301 11:56 12.03.2022
4832 Clouds 26 1011 77 10000 0.81 301 11:35 12.03.2022
4833 Rain 26 1010 78 10000 1.14 337 10:52 12.03.2022
4834 Rain 26 1010 77 10000 1.28 346 09:44 12.03.2022
4835 Rain 26 1010 78 10000 1.77 351 08:53 12.03.2022
4836 Rain 26 1012 80 9011 2.06 9 06:53 12.03.2022
4837 Clouds 27 1010 74 10000 1.35 15 01:44 12.03.2022
4838 Clouds 27 1009 72 10000 1.77 20 23:51 11.03.2022
4839 Rain 27 1007 89 10000 2.06 120 22:45 11.03.2022
4840 Rain 27 1008 89 10000 2.06 130 21:26 11.03.2022
4841 Clouds 28 1009 83 10000 3.09 250 20:51 11.03.2022
4842 Clouds 28 1009 83 10000 3.09 250 20:28 11.03.2022
4843 Clouds 29 1010 79 10000 1.03 190 19:36 11.03.2022
4844 Clouds 28 1010 83 10000 2.57 260 18:43 11.03.2022
4845 Clouds 28 1011 83 10000 3.09 260 17:26 11.03.2022
4846 Clouds 28 1011 83 10000 2.57 310 16:26 11.03.2022
4847 Clouds 27 1010 89 10000 1.03 270 15:51 11.03.2022
4848 Rain 26 1012 78 10000 1.08 73 13:45 11.03.2022
4849 Clouds 26 1011 77 10000 0.38 128 12:43 11.03.2022
4850 Clouds 26 1010 77 10000 0.82 135 12:20 11.03.2022
4851 Clouds 26 1010 77 10000 1.11 136 11:28 11.03.2022
4852 Clouds 26 1010 77 10000 1.28 127 09:36 11.03.2022
4853 Clouds 26 1010 77 10000 1.33 116 08:28 11.03.2022
4854 Clouds 26 1010 77 10000 1.33 116 07:48 11.03.2022
4855 Rain 26 1011 77 10000 1.59 119 06:44 11.03.2022
4856 Clouds 27 1012 76 10000 1.38 103 04:40 11.03.2022
4857 Rain 27 1010 74 10000 1.17 86 01:48 11.03.2022
4858 Clouds 30 1007 74 10000 3.09 190 22:33 10.03.2022
4859 Clouds 30 1008 79 10000 2.06 140 21:54 10.03.2022
4860 Clouds 30 1008 79 10000 2.06 140 21:25 10.03.2022
4861 Clouds 29 1009 84 10000 3.6 130 20:36 10.03.2022
4862 Clouds 29 1010 79 10000 2.57 140 19:20 10.03.2022
4863 Clouds 28 1010 83 10000 2.57 150 17:51 10.03.2022
4864 Clouds 28 1011 83 10000 2.06 170 16:52 10.03.2022
4865 Clouds 28 1010 83 10000 1.54 160 15:28 10.03.2022
4866 Rain 26 1011 79 10000 2.35 142 13:42 10.03.2022
4867 Rain 26 1011 79 10000 2.04 112 12:38 10.03.2022
4868 Rain 26 1010 81 10000 1.91 108 11:28 10.03.2022
4869 Rain 26 1009 81 10000 1.72 111 09:42 10.03.2022
4870 Clouds 26 1010 80 10000 2.2 125 07:48 10.03.2022
4871 Clouds 26 1012 79 10000 1.95 133 05:30 10.03.2022
4872 Clouds 25 1007 100 10000 1.54 140 01:59 10.03.2022
4873 Rain 24 1007 100 4000 1.54 190 23:32 09.03.2022
4874 Rain 25 1007 94 4000 1.54 160 22:20 09.03.2022
4875 Rain 24 1008 100 3000 2.57 150 21:36 09.03.2022
4876 Rain 25 1009 94 1000 3.6 110 20:31 09.03.2022
4877 Clouds 27 1010 94 10000 3.09 190 18:35 09.03.2022
4878 Clouds 27 1010 89 10000 2.57 200 17:28 09.03.2022
4879 Rain 26 1010 94 10000 1.03 240 16:35 09.03.2022
4880 Rain 26 1010 94 10000 1.54 210 15:31 09.03.2022
4881 Rain 26 1011 80 10000 1.93 199 13:54 09.03.2022
4882 Rain 25 1010 80 10000 1.91 173 12:56 09.03.2022
4883 Rain 25 1010 81 10000 2.03 185 12:18 09.03.2022
4884 Rain 25 1010 81 10000 2.03 185 11:36 09.03.2022
4885 Rain 26 1009 80 10000 2.35 197 10:38 09.03.2022
4886 Rain 26 1010 81 10000 2.65 214 08:59 09.03.2022
4887 Rain 26 1011 81 10000 2.62 218 08:23 09.03.2022
4888 Rain 27 1011 74 10000 0.71 33 02:59 09.03.2022
4889 Rain 27 1009 74 10000 1.1 354 00:46 09.03.2022
4890 Clouds 29 1007 74 10000 2.06 140 22:48 08.03.2022
4891 Clouds 29 1007 74 10000 2.06 140 22:27 08.03.2022
4892 Clouds 28 1007 78 10000 5.14 110 21:23 08.03.2022
4893 Clouds 30 1009 79 10000 1.54 250 20:42 08.03.2022
4894 Clouds 29 1009 79 10000 3.6 280 19:35 08.03.2022
4895 Clouds 29 1010 79 10000 2.57 280 18:44 08.03.2022
4896 Clouds 29 1010 79 10000 3.09 280 17:30 08.03.2022
4897 Clouds 26 1010 94 10000 1.54 270 15:45 08.03.2022
4898 Rain 26 1011 79 10000 2.24 336 14:19 08.03.2022
4899 Rain 26 1010 79 10000 2.52 330 12:43 08.03.2022
4900 Rain 26 1010 82 10000 2.41 345 11:45 08.03.2022
4901 Rain 26 1010 82 10000 2.86 346 10:41 08.03.2022
4902 Rain 26 1010 83 10000 3.15 340 09:37 08.03.2022
4903 Rain 26 1011 83 10000 4.19 329 06:43 08.03.2022
4904 Rain 26 1012 83 10000 4.25 337 04:47 08.03.2022
4905 Clouds 29 1007 74 10000 5.66 330 23:36 07.03.2022
4906 Clouds 29 1008 79 10000 2.06 20 21:50 07.03.2022
4907 Clouds 29 1008 79 10000 2.06 20 21:31 07.03.2022
4908 Clouds 29 1010 79 10000 2.06 10 20:39 07.03.2022
4909 Clouds 29 1011 79 10000 3.6 10 19:55 07.03.2022
4910 Clouds 29 1011 79 10000 3.6 10 19:29 07.03.2022
4911 Clouds 29 1011 79 10000 5.14 20 18:40 07.03.2022
4912 Clouds 28 1011 83 10000 4.63 30 17:41 07.03.2022
4913 Clear 27 1013 76 10000 3.13 328 16:55 07.03.2022
4914 Clouds 26 1013 77 10000 2.75 328 15:27 07.03.2022
4915 Rain 25 1011 80 10000 3.27 336 12:48 07.03.2022
4916 Rain 25 1011 81 10000 3.11 338 12:20 07.03.2022
4917 Rain 25 1011 81 10000 3.36 343 10:35 07.03.2022
4918 Rain 26 1011 80 10000 3.58 339 08:35 07.03.2022
4919 Rain 26 1011 78 10000 1.87 317 02:56 07.03.2022
4920 Rain 27 1009 73 10000 1.23 260 00:21 07.03.2022
4921 Rain 27 1009 73 10000 1.16 262 23:28 06.03.2022
4922 Rain 27 1009 73 10000 1.16 262 22:30 06.03.2022
4923 Clouds 29 1009 74 10000 2.57 260 21:44 06.03.2022
4924 Clouds 29 1010 79 10000 3.6 280 20:29 06.03.2022
4925 Clouds 29 1010 79 10000 3.6 280 20:29 06.03.2022
4926 Clouds 29 1011 79 10000 2.06 270 19:43 06.03.2022
4927 Clouds 28 1011 78 10000 3.09 260 18:50 06.03.2022
4928 Clouds 28 1011 83 10000 2.06 230 17:49 06.03.2022
4929 Clouds 28 1011 83 10000 2.06 230 17:20 06.03.2022
4930 Clouds 27 1012 83 10000 3.09 210 16:40 06.03.2022
4931 Clouds 26 1012 94 10000 1.54 240 15:31 06.03.2022
4932 Rain 26 1013 81 10000 2.87 247 14:42 06.03.2022
4933 Rain 25 1012 82 10000 3.14 247 13:49 06.03.2022
4934 Clouds 26 1012 80 10000 2.36 255 12:40 06.03.2022
4935 Clouds 25 1011 80 10000 2.42 245 11:46 06.03.2022
4936 Clouds 25 1010 80 10000 2.83 237 10:40 06.03.2022
4937 Rain 25 1011 83 10000 2.43 244 09:18 06.03.2022
4938 Rain 25 1012 85 6306 2.51 235 08:28 06.03.2022
4939 Rain 25 1012 85 10000 3.35 228 07:25 06.03.2022
4940 Clouds 26 1011 81 10000 3.34 216 02:22 06.03.2022
4941 Clouds 26 1008 89 10000 2.57 220 00:35 06.03.2022
4942 Clouds 27 1008 89 10000 4.63 210 23:59 05.03.2022
4943 Clouds 27 1008 89 10000 4.63 210 23:19 05.03.2022
4944 Clouds 27 1009 83 10000 4.63 260 22:32 05.03.2022
4945 Clouds 29 1009 74 10000 4.63 210 21:29 05.03.2022
4946 Clouds 29 1010 74 10000 4.63 210 20:32 05.03.2022
4947 Clouds 29 1011 74 10000 4.12 200 19:19 05.03.2022
4948 Clouds 29 1011 74 10000 3.6 220 18:37 05.03.2022
4949 Clouds 28 1012 74 10000 2.06 210 17:34 05.03.2022
4950 Clouds 27 1011 78 10000 2.06 190 16:18 05.03.2022
4951 Clouds 26 1010 83 10000 2.06 210 15:20 05.03.2022
4952 Clouds 25 1010 94 10000 1.54 210 14:36 05.03.2022
4953 Rain 25 1012 83 10000 2.46 179 13:39 05.03.2022
4954 Clouds 25 1012 79 10000 1.77 171 12:35 05.03.2022
4955 Rain 25 1010 80 10000 1.27 212 11:20 05.03.2022
4956 Rain 25 1010 80 10000 1.27 212 10:52 05.03.2022
4957 Rain 25 1010 81 10000 1.17 254 09:31 05.03.2022
4958 Clouds 25 1011 80 10000 1.88 271 08:24 05.03.2022
4959 Clouds 25 1012 80 10000 2.8 269 06:33 05.03.2022
4960 Clouds 25 1013 79 10000 2.37 270 05:22 05.03.2022
4961 Rain 25 1011 81 10000 2.14 219 00:30 05.03.2022
4962 Clouds 27 1008 83 10000 2.57 230 22:45 04.03.2022
4963 Clouds 27 1008 83 10000 2.57 230 22:24 04.03.2022
4964 Clouds 27 1009 83 10000 3.6 310 21:42 04.03.2022
4965 Clouds 27 1010 89 10000 3.6 330 20:36 04.03.2022
4966 Rain 27 1012 83 10000 2.06 340 19:36 04.03.2022
4967 Clouds 26 1012 94 10000 1.54 330 18:47 04.03.2022
4968 Clouds 26 1012 94 10000 1.54 330 18:27 04.03.2022
4969 Clouds 26 1013 94 10000 2.06 300 17:29 04.03.2022
4970 Clouds 25 1012 100 10000 1.54 260 15:48 04.03.2022
4971 Clouds 25 1011 94 10000 1.03 220 14:45 04.03.2022
4972 Rain 26 1012 80 10000 3.88 230 13:34 04.03.2022
4973 Clouds 26 1011 80 10000 3.88 233 11:59 04.03.2022
4974 Clouds 25 1011 81 10000 3.82 237 11:28 04.03.2022
4975 Rain 25 1011 82 10000 4.05 235 10:23 04.03.2022
4976 Clouds 26 1011 81 10000 4.03 236 09:27 04.03.2022
4977 Clouds 26 1012 81 10000 4.13 234 07:47 04.03.2022
4978 Clouds 26 1013 80 10000 3.72 226 05:26 04.03.2022
4979 Clouds 26 1010 75 10000 3.94 234 00:41 04.03.2022
4980 Clouds 26 1008 89 10000 1.54 270 23:28 03.03.2022
4981 Rain 24 1010 94 8000 2.57 250 21:58 03.03.2022
4982 Rain 24 1010 94 8000 2.57 250 21:35 03.03.2022
4983 Rain 26 1011 94 3000 1.54 260 20:27 03.03.2022
4984 Clouds 28 1012 83 10000 3.6 240 18:58 03.03.2022
4985 Clouds 28 1012 83 10000 3.6 240 18:25 03.03.2022
4986 Clouds 27 1012 89 10000 4.12 270 17:31 03.03.2022
4987 Clouds 26 1012 94 10000 2.57 210 16:28 03.03.2022
4988 Clouds 26 1011 89 10000 2.06 250 15:41 03.03.2022
4989 Clouds 25 1011 94 10000 1.54 240 14:44 03.03.2022
4990 Clouds 26 1012 79 10000 4.66 238 14:25 03.03.2022
4991 Clouds 25 1011 79 10000 2.96 234 12:28 03.03.2022
4992 Clouds 25 1011 80 10000 3.2 229 10:56 03.03.2022
4993 Rain 25 1011 80 10000 2.83 233 09:56 03.03.2022
4994 Rain 25 1011 80 10000 2.55 230 08:34 03.03.2022
4995 Rain 25 1013 81 10000 3.23 220 06:38 03.03.2022
4996 Rain 25 1014 82 9532 3.68 225 04:47 03.03.2022
4997 Clouds 26 1008 94 10000 4.12 200 23:41 02.03.2022
4998 Rain 27 1009 89 10000 4.63 240 22:53 02.03.2022
4999 Rain 27 1009 89 10000 4.63 240 22:53 02.03.2022
5000 Clouds 28 1009 78 10000 4.63 210 21:36 02.03.2022
5001 Clouds 29 1010 74 10000 4.12 240 20:59 02.03.2022
5002 Clouds 29 1010 74 10000 4.12 240 20:25 02.03.2022
5003 Clouds 28 1011 78 10000 5.14 210 19:37 02.03.2022
5004 Clouds 28 1011 78 10000 3.09 250 18:58 02.03.2022
5005 Clouds 28 1011 78 10000 3.09 250 18:26 02.03.2022
5006 Clouds 28 1011 78 10000 3.09 260 17:37 02.03.2022
5007 Clouds 27 1011 83 10000 2.57 250 16:52 02.03.2022
5008 Clouds 25 1011 94 10000 1.54 270 15:20 02.03.2022
5009 Clouds 25 1012 81 10000 2.74 230 13:35 02.03.2022
5010 Rain 25 1011 82 10000 2.81 227 12:45 02.03.2022
5011 Rain 25 1011 83 10000 3.53 235 12:21 02.03.2022
5012 Rain 25 1011 82 10000 3.58 236 11:26 02.03.2022
5013 Rain 25 1011 82 10000 3.58 236 10:30 02.03.2022
5014 Clouds 25 1011 82 10000 3.46 234 09:35 02.03.2022
5015 Rain 25 1012 82 10000 3.38 230 08:28 02.03.2022
5016 Rain 26 1012 81 10000 3.29 222 07:23 02.03.2022
5017 Rain 26 1013 78 10000 2.19 217 03:56 02.03.2022
5018 Clouds 26 1010 72 10000 1.59 196 00:40 02.03.2022
5019 Rain 24 1008 100 3000 1.03 220 22:53 01.03.2022
5020 Rain 24 1008 100 3000 1.03 220 22:35 01.03.2022
5021 Rain 24 1009 94 6000 2.06 180 21:26 01.03.2022
5022 Rain 25 1009 94 6000 1.03 270 20:37 01.03.2022
5023 Rain 25 1010 94 3000 3.6 210 20:19 01.03.2022
5024 Clouds 27 1011 83 10000 4.63 160 18:52 01.03.2022
5025 Clouds 27 1011 83 10000 4.63 160 18:21 01.03.2022
5026 Clouds 27 1011 83 10000 4.63 160 18:21 01.03.2022
5027 Clouds 28 1011 74 10000 4.12 200 17:37 01.03.2022
5028 Clouds 28 1011 74 10000 2.57 190 16:36 01.03.2022
5029 Clouds 27 1011 78 10000 2.06 140 15:47 01.03.2022
5030 Clouds 26 1010 89 10000 3.09 150 14:41 01.03.2022
5031 Rain 25 1012 78 10000 0.65 37 14:23 01.03.2022
5032 Rain 25 1011 79 10000 1.04 23 13:26 01.03.2022
5033 Rain 25 1011 80 10000 1.12 39 12:35 01.03.2022
5034 Clouds 25 1010 79 10000 1.41 2 10:52 01.03.2022
5035 Clouds 25 1010 79 10000 1.53 329 09:27 01.03.2022
5036 Clouds 25 1011 78 10000 1.37 337 08:19 01.03.2022
5037 Clouds 26 1012 78 10000 1.48 16 06:28 01.03.2022
5038 Clouds 25 1009 94 10000 1.03 160 02:48 01.03.2022
5039 Clouds 26 1008 83 10000 2.57 140 00:40 01.03.2022
5040 Clouds 27 1008 83 10000 1.54 180 23:36 28.02.2022
5041 Clouds 27 1009 78 10000 1.03 280 22:30 28.02.2022
5042 Clouds 27 1009 83 10000 1.54 280 21:43 28.02.2022
5043 Clouds 25 1010 94 10000 2.57 180 20:33 28.02.2022
5044 Rain 26 1011 89 10000 1.03 290 19:42 28.02.2022
5045 Clouds 27 1011 83 10000 2.06 250 18:50 28.02.2022
5046 Clouds 26 1011 89 10000 1.03 350 17:33 28.02.2022
5047 Clouds 27 1011 83 10000 2.06 350 16:54 28.02.2022
5048 Clouds 25 1011 94 10000 2.57 30 15:58 28.02.2022
5049 Clouds 25 1013 78 10000 1.64 42 14:32 28.02.2022
5050 Clouds 25 1012 78 10000 1.49 42 13:48 28.02.2022
5051 Clouds 25 1012 79 10000 1.18 330 12:53 28.02.2022
5052 Clouds 25 1011 79 10000 1.27 314 11:59 28.02.2022
5053 Clouds 25 1011 79 10000 1.66 295 11:18 28.02.2022
5054 Clouds 25 1011 79 10000 1.66 298 10:22 28.02.2022
5055 Clouds 25 1011 79 10000 1.66 298 09:43 28.02.2022
5056 Clouds 25 1011 79 10000 1.65 288 08:51 28.02.2022
5057 Clouds 25 1012 78 10000 0.97 288 07:57 28.02.2022
5058 Rain 26 1013 79 10000 0.94 187 05:53 28.02.2022
5059 Rain 26 1013 79 10000 1.11 183 04:30 28.02.2022
5060 Rain 26 1013 79 10000 1.11 183 04:30 28.02.2022
5061 Rain 26 1013 79 10000 1.11 183 04:30 28.02.2022
5062 Clouds 26 1011 78 10000 2.47 193 00:34 28.02.2022
5063 Rain 25 1008 94 8000 1.03 180 22:38 27.02.2022
5064 Rain 25 1009 94 6000 1.54 190 21:55 27.02.2022
5065 Rain 25 1009 94 6000 1.54 190 21:35 27.02.2022
5066 Clouds 25 1010 100 10000 1.03 260 20:40 27.02.2022
5067 Rain 25 1011 100 10000 2.06 340 19:59 27.02.2022
5068 Rain 25 1011 100 10000 2.06 340 19:28 27.02.2022
5069 Clouds 26 1012 94 10000 1.54 330 18:56 27.02.2022
5070 Rain 26 1012 89 10000 2.57 10 17:57 27.02.2022
5071 Rain 26 1012 89 10000 2.57 10 17:26 27.02.2022
5072 Clouds 26 1012 89 10000 2.06 10 16:22 27.02.2022
5073 Clouds 25 1013 82 10000 2.3 208 13:49 27.02.2022
5074 Clouds 25 1012 83 10000 2.23 217 12:35 27.02.2022
5075 Rain 25 1012 83 10000 2.27 220 11:28 27.02.2022
5076 Rain 25 1012 83 10000 2.28 228 10:24 27.02.2022
5077 Rain 25 1012 83 10000 2.28 228 09:51 27.02.2022
5078 Rain 25 1012 83 10000 2.13 217 09:21 27.02.2022
5079 Rain 25 1012 83 10000 2.13 217 08:31 27.02.2022
5080 Clouds 25 1014 84 10000 2.05 164 05:39 27.02.2022
5081 Clouds 25 1013 83 10000 2.2 168 02:45 27.02.2022
5082 Clouds 29 1009 74 10000 6.17 180 23:34 26.02.2022
5083 Clouds 30 1009 66 10000 5.14 180 22:31 26.02.2022
5084 Clouds 30 1009 66 10000 6.69 170 21:19 26.02.2022
5085 Clouds 30 1011 66 10000 8.75 170 20:27 26.02.2022
5086 Clouds 30 1011 66 10000 6.17 170 19:52 26.02.2022
5087 Clouds 30 1011 66 10000 6.17 170 19:31 26.02.2022
5088 Clouds 28 1013 78 10000 5.14 190 17:55 26.02.2022
5089 Clouds 28 1013 78 10000 5.14 190 17:29 26.02.2022
5090 Clouds 28 1013 78 10000 5.14 190 17:29 26.02.2022
5091 Clouds 29 1013 70 10000 4.63 180 16:19 26.02.2022
5092 Clouds 27 1012 83 10000 4.12 160 15:25 26.02.2022
5093 Clouds 26 1012 89 10000 3.6 140 14:56 26.02.2022
5094 Clouds 25 1014 80 10000 2.92 157 14:38 26.02.2022
5095 Clouds 25 1013 81 10000 3.15 161 13:27 26.02.2022
5096 Clouds 25 1013 81 10000 3.15 161 12:51 26.02.2022
5097 Clouds 25 1012 82 10000 3.31 157 11:29 26.02.2022
5098 Clouds 25 1012 82 10000 3.31 157 10:55 26.02.2022
5099 Clouds 25 1012 82 10000 3.4 151 09:18 26.02.2022
5100 Clouds 25 1012 83 10000 3.41 140 07:57 26.02.2022
5101 Clouds 25 1012 83 10000 3.41 140 07:57 26.02.2022
5102 Clouds 25 1012 84 10000 3.05 135 02:53 26.02.2022
5103 Clouds 28 1008 74 10000 8.75 160 23:31 25.02.2022
5104 Clouds 29 1009 70 10000 6.17 180 21:48 25.02.2022
5105 Clouds 29 1009 70 10000 6.17 180 21:29 25.02.2022
5106 Clouds 30 1010 66 10000 5.66 170 20:33 25.02.2022
5107 Clouds 29 1010 70 10000 7.2 180 19:39 25.02.2022
5108 Clouds 29 1012 70 10000 7.2 150 17:35 25.02.2022
5109 Clouds 28 1012 78 10000 6.17 160 16:45 25.02.2022
5110 Clouds 26 1011 83 10000 3.6 200 15:48 25.02.2022
5111 Clouds 26 1011 83 10000 3.6 200 15:23 25.02.2022
5112 Clouds 25 1014 81 10000 4.24 143 14:42 25.02.2022
5113 Clouds 25 1013 82 10000 4.01 145 14:18 25.02.2022
5114 Clouds 25 1012 83 10000 3.77 151 13:20 25.02.2022
5115 Clouds 25 1012 82 10000 2.69 134 11:30 25.02.2022
5116 Clouds 25 1011 82 10000 2.68 135 10:54 25.02.2022
5117 Clouds 25 1011 82 10000 2.64 138 10:23 25.02.2022
5118 Clouds 25 1011 82 10000 2.64 138 09:31 25.02.2022
5119 Clouds 25 1012 81 10000 2.92 135 07:44 25.02.2022
5120 Clouds 25 1013 81 10000 3.48 127 05:58 25.02.2022
5121 Clouds 25 1013 81 10000 3.48 127 05:36 25.02.2022
5122 Clouds 26 1010 78 10000 3.95 140 00:30 25.02.2022
5123 Clouds 28 1008 74 10000 5.66 180 22:20 24.02.2022
5124 Clouds 29 1009 70 10000 9.26 180 21:42 24.02.2022
5125 Clouds 29 1009 70 10000 9.26 180 21:20 24.02.2022
5126 Clouds 29 1010 74 10000 7.2 170 20:30 24.02.2022
5127 Clouds 29 1011 74 10000 6.17 180 18:52 24.02.2022
5128 Clouds 29 1011 74 10000 6.17 180 18:19 24.02.2022
5129 Clouds 28 1012 78 10000 4.12 200 17:42 24.02.2022
5130 Clouds 28 1011 78 10000 3.6 170 16:50 24.02.2022
5131 Clouds 28 1011 78 10000 3.6 170 16:25 24.02.2022
5132 Clouds 25 1013 79 10000 3.7 140 14:56 24.02.2022
5133 Clouds 25 1013 79 10000 3.7 140 14:36 24.02.2022
5134 Clouds 25 1013 80 10000 3.35 140 13:42 24.02.2022
5135 Clouds 25 1012 81 10000 3.35 140 13:24 24.02.2022
5136 Rain 25 1011 83 10000 2.59 118 10:43 24.02.2022
5137 Clouds 25 1011 83 10000 2.95 118 09:40 24.02.2022
5138 Clouds 25 1011 83 10000 3.1 125 08:42 24.02.2022
5139 Clouds 25 1013 81 10000 3.87 123 05:59 24.02.2022
5140 Clouds 25 1011 80 10000 4.06 129 02:59 24.02.2022
5141 Clouds 29 1008 70 10000 6.17 170 23:45 23.02.2022
5142 Clouds 29 1008 70 10000 8.23 150 21:53 23.02.2022
5143 Clouds 28 1009 74 10000 6.69 170 20:32 23.02.2022
5144 Rain 27 1010 83 10000 6.69 170 19:49 23.02.2022
5145 Clouds 27 1011 83 10000 6.69 180 18:42 23.02.2022
5146 Clouds 27 1011 83 10000 4.63 160 17:45 23.02.2022
5147 Clouds 26 1011 89 10000 2.57 140 15:26 23.02.2022
5148 Clouds 25 1012 82 10000 3.5 105 13:28 23.02.2022
5149 Clouds 25 1011 81 10000 4 110 12:26 23.02.2022
5150 Clouds 25 1011 81 10000 3.75 109 10:44 23.02.2022
5151 Clouds 25 1011 81 10000 3.89 107 09:00 23.02.2022
5152 Clouds 25 1011 81 10000 4.02 106 08:23 23.02.2022
5153 Clouds 25 1012 81 10000 3.96 105 07:18 23.02.2022
5154 Clouds 26 1010 76 10000 3.48 145 01:21 23.02.2022
5155 Clouds 28 1008 74 10000 4.12 170 23:39 22.02.2022
5156 Clouds 27 1008 78 10000 4.12 170 22:51 22.02.2022
5157 Clouds 27 1008 83 10000 3.09 190 21:51 22.02.2022
5158 Clouds 27 1008 83 10000 3.09 190 21:32 22.02.2022
5159 Rain 26 1009 89 10000 2.57 180 20:59 22.02.2022
5160 Rain 26 1009 89 10000 2.57 180 20:31 22.02.2022
5161 Rain 27 1010 78 10000 5.14 170 19:47 22.02.2022
5162 Rain 27 1010 78 10000 5.14 170 19:28 22.02.2022
5163 Clouds 27 1010 78 10000 4.63 180 18:21 22.02.2022
5164 Clouds 27 1011 83 10000 5.14 200 17:24 22.02.2022
5165 Clouds 27 1011 83 10000 6.17 150 16:41 22.02.2022
5166 Clouds 27 1011 83 10000 6.17 150 16:41 22.02.2022
5167 Clouds 26 1011 89 10000 5.14 170 15:56 22.02.2022
5168 Clouds 25 1013 78 10000 3.92 129 14:48 22.02.2022
5169 Clouds 25 1012 79 10000 3.5 126 12:48 22.02.2022
5170 Clouds 24 1010 80 10000 3.1 125 10:53 22.02.2022
5171 Clouds 24 1010 80 10000 2.89 122 08:48 22.02.2022
5172 Clouds 25 1012 79 10000 2.66 131 07:27 22.02.2022
5173 Clouds 25 1012 79 10000 2.6 135 06:30 22.02.2022
5174 Clouds 25 1011 77 10000 3.16 133 02:45 22.02.2022
5175 Clouds 28 1007 74 10000 4.63 180 22:53 21.02.2022
5176 Clouds 29 1008 74 10000 4.12 170 21:46 21.02.2022
5177 Clouds 28 1009 78 10000 5.14 180 20:37 21.02.2022
5178 Clouds 28 1010 74 10000 6.69 160 18:46 21.02.2022
5179 Clouds 29 1010 74 10000 6.17 150 17:39 21.02.2022
5180 Clouds 26 1010 83 10000 4.63 150 15:25 21.02.2022
5181 Clouds 25 1012 80 10000 2.99 113 14:22 21.02.2022
5182 Clouds 25 1012 80 10000 2.99 113 13:30 21.02.2022
5183 Clouds 25 1010 82 10000 4.24 113 12:23 21.02.2022
5184 Clouds 25 1010 82 10000 4.22 113 11:20 21.02.2022
5185 Clouds 25 1010 83 10000 4.36 113 09:50 21.02.2022
5186 Clouds 25 1012 81 10000 3.75 118 05:35 21.02.2022
5187 Clouds 26 1007 83 10000 5.66 160 23:44 20.02.2022
5188 Clouds 27 1007 78 10000 7.2 180 22:25 20.02.2022
5189 Clouds 27 1008 78 10000 6.17 190 21:42 20.02.2022
5190 Clouds 28 1009 74 10000 6.69 200 20:53 20.02.2022
5191 Clouds 28 1009 74 10000 6.69 200 20:35 20.02.2022
5192 Clouds 28 1010 74 10000 7.2 170 19:32 20.02.2022
5193 Clouds 27 1011 83 10000 5.66 150 18:50 20.02.2022
5194 Clouds 27 1011 83 10000 5.66 150 18:31 20.02.2022
5195 Clouds 27 1011 83 10000 5.66 150 18:31 20.02.2022
5196 Clouds 27 1011 83 10000 4.63 130 17:49 20.02.2022
5197 Clouds 26 1013 77 10000 5.09 117 15:37 20.02.2022
5198 Clouds 25 1012 79 10000 5.37 119 14:42 20.02.2022
5199 Clouds 25 1011 82 10000 4.9 127 13:23 20.02.2022
5200 Clouds 25 1010 82 10000 4.74 129 12:28 20.02.2022
5201 Clouds 25 1010 82 10000 4.55 134 10:38 20.02.2022
5202 Clouds 25 1010 82 10000 4.23 140 10:19 20.02.2022
5203 Clouds 25 1011 81 10000 4.54 140 08:25 20.02.2022
5204 Clouds 26 1009 79 10000 4.63 156 00:54 20.02.2022
5205 Clouds 26 1009 78 10000 5.11 157 00:29 20.02.2022
5206 Clouds 30 1007 70 10000 8.23 160 22:44 19.02.2022
5207 Clouds 30 1007 70 10000 8.23 160 22:21 19.02.2022
5208 Clouds 30 1009 66 10000 7.72 170 20:51 19.02.2022
5209 Clouds 29 1010 70 10000 8.23 150 19:48 19.02.2022
5210 Clouds 29 1010 70 10000 8.23 150 19:25 19.02.2022
5211 Clouds 29 1010 70 10000 8.75 170 18:32 19.02.2022
5212 Clouds 29 1010 70 10000 5.66 160 17:33 19.02.2022
5213 Clouds 27 1011 78 10000 6.69 150 16:22 19.02.2022
5214 Clouds 25 1012 78 10000 4.47 139 14:56 19.02.2022
5215 Clouds 25 1012 78 10000 4.47 139 14:37 19.02.2022
5216 Clouds 25 1010 81 10000 5.53 153 11:59 19.02.2022
5217 Clouds 25 1010 81 10000 5.53 153 11:36 19.02.2022
5218 Clouds 25 1010 81 10000 4.73 153 09:36 19.02.2022
5219 Clouds 25 1012 81 10000 4.42 137 06:53 19.02.2022
5220 Clouds 25 1011 79 10000 4.18 143 02:38 19.02.2022
5221 Clouds 28 1007 74 10000 6.17 170 23:28 18.02.2022
5222 Clouds 29 1008 70 10000 6.69 160 21:30 18.02.2022
5223 Clouds 29 1009 70 10000 6.17 160 20:33 18.02.2022
5224 Clouds 28 1010 74 10000 6.69 180 19:51 18.02.2022
5225 Clouds 28 1011 74 10000 5.14 180 18:49 18.02.2022
5226 Clouds 28 1011 74 10000 5.14 180 18:19 18.02.2022
5227 Clouds 27 1011 78 10000 5.66 170 17:21 18.02.2022
5228 Clouds 25 1013 83 10000 5.14 166 14:47 18.02.2022
5229 Clouds 25 1012 84 10000 5.16 171 13:54 18.02.2022
5230 Clouds 25 1011 84 10000 5.33 173 12:51 18.02.2022
5231 Clouds 25 1011 84 10000 4.92 169 12:51 18.02.2022
5232 Clouds 25 1011 84 10000 5.04 172 11:58 18.02.2022
5233 Clouds 25 1010 84 10000 4.85 172 10:58 18.02.2022
5234 Clouds 25 1011 85 10000 4.72 166 09:29 18.02.2022
5235 Clouds 25 1012 85 10000 4.82 160 06:50 18.02.2022
5236 Clouds 25 1013 86 10000 4.39 156 05:36 18.02.2022
5237 Rain 26 1008 89 10000 5.14 170 22:43 17.02.2022
5238 Drizzle 26 1009 89 10000 7.2 170 21:42 17.02.2022
5239 Rain 28 1010 78 10000 7.72 170 20:52 17.02.2022
5240 Rain 28 1010 78 10000 7.72 170 20:33 17.02.2022
5241 Clouds 29 1010 70 10000 7.2 160 19:42 17.02.2022
5242 Clouds 28 1011 74 10000 8.23 160 18:29 17.02.2022
5243 Clouds 28 1011 74 10000 7.2 170 17:45 17.02.2022
5244 Clouds 28 1011 74 10000 6.69 170 16:19 17.02.2022
5245 Clouds 25 1013 80 10000 3.27 152 14:30 17.02.2022
5246 Clouds 25 1012 82 10000 3.33 148 13:47 17.02.2022
5247 Clouds 25 1011 82 10000 3.31 150 11:55 17.02.2022
5248 Clouds 25 1010 83 10000 3.34 142 10:57 17.02.2022
5249 Clouds 25 1011 85 10000 3.92 129 07:56 17.02.2022
5250 Clouds 28 1008 74 10000 6.17 170 23:50 16.02.2022
5251 Clouds 29 1009 70 10000 6.69 160 22:36 16.02.2022
5252 Clouds 29 1010 70 10000 8.23 170 20:22 16.02.2022
5253 Clouds 30 1011 70 10000 7.72 160 19:23 16.02.2022
5254 Clouds 29 1011 70 10000 8.23 170 18:34 16.02.2022
5255 Clouds 28 1012 74 10000 7.2 160 17:24 16.02.2022
5256 Clouds 25 1011 88 10000 6.69 150 15:23 16.02.2022
5257 Clouds 25 1013 82 10000 4.91 144 13:46 16.02.2022
5258 Clouds 24 1011 85 10000 4.66 145 12:26 16.02.2022
5259 Clouds 24 1011 85 10000 4.66 145 11:46 16.02.2022
5260 Clouds 24 1011 86 10000 4.76 147 10:34 16.02.2022
5261 Clouds 24 1010 86 10000 4.5 145 09:38 16.02.2022
5262 Clouds 24 1012 88 10000 4.49 133 06:44 16.02.2022
5263 Clouds 24 1012 88 10000 4.49 133 06:44 16.02.2022
5264 Clouds 28 1008 74 10000 5.66 150 00:37 16.02.2022
5265 Clouds 30 1008 66 10000 7.2 170 22:34 15.02.2022
5266 Clouds 30 1009 66 10000 7.72 170 21:50 15.02.2022
5267 Clouds 30 1009 66 10000 7.72 170 21:30 15.02.2022
5268 Clouds 30 1010 66 10000 6.69 140 20:58 15.02.2022
5269 Clouds 30 1010 66 10000 6.69 140 20:26 15.02.2022
5270 Clouds 30 1010 66 10000 5.66 160 19:45 15.02.2022
5271 Clouds 30 1010 66 10000 6.69 170 18:26 15.02.2022
5272 Clouds 29 1011 70 10000 6.17 160 17:53 15.02.2022
5273 Clouds 29 1011 70 10000 6.17 160 17:32 15.02.2022
5274 Clouds 25 1010 88 10000 7.2 150 15:43 15.02.2022
5275 Clouds 24 1012 86 10000 4.05 149 13:57 15.02.2022
5276 Clouds 24 1011 86 10000 4.13 147 13:25 15.02.2022
5277 Clouds 24 1010 87 10000 3.45 137 11:41 15.02.2022
5278 Clouds 24 1010 87 10000 3.22 135 10:19 15.02.2022
5279 Clouds 24 1011 87 10000 3.36 144 07:41 15.02.2022
5280 Clouds 24 1012 88 10000 3.24 142 06:36 15.02.2022
5281 Clouds 27 1007 83 10000 4.12 160 23:34 14.02.2022
5282 Clouds 26 1009 89 10000 1.03 10 21:56 14.02.2022
5283 Rain 26 1009 89 10000 1.54 30 20:52 14.02.2022
5284 Rain 27 1010 78 10000 3.09 40 19:46 14.02.2022
5285 Rain 27 1010 78 10000 3.09 40 19:28 14.02.2022
5286 Clouds 29 1010 70 10000 4.12 30 18:23 14.02.2022
5287 Clouds 28 1011 74 10000 3.6 130 17:27 14.02.2022
5288 Clouds 28 1011 74 10000 3.6 150 16:27 14.02.2022
5289 Clouds 24 1013 86 10000 3.06 147 14:43 14.02.2022
5290 Clouds 24 1012 87 10000 2.98 155 13:34 14.02.2022
5291 Clouds 24 1011 87 10000 3.01 164 12:58 14.02.2022
5292 Clouds 24 1011 87 10000 2.93 149 11:56 14.02.2022
5293 Clouds 24 1011 87 10000 2.93 149 11:37 14.02.2022
5294 Rain 24 1011 87 10000 2.5 155 09:25 14.02.2022
5295 Clouds 24 1012 87 10000 2.26 162 07:33 14.02.2022
5296 Clouds 24 1012 86 10000 1.76 162 06:54 14.02.2022
5297 Clouds 28 1007 74 10000 5.66 190 22:44 13.02.2022
5298 Clouds 28 1007 74 10000 5.66 190 22:26 13.02.2022
5299 Clouds 28 1008 74 10000 6.17 190 21:48 13.02.2022
5300 Clouds 28 1010 74 10000 5.66 200 20:42 13.02.2022
5301 Clouds 28 1010 74 10000 5.14 200 19:51 13.02.2022
5302 Clouds 28 1011 74 10000 4.63 190 18:56 13.02.2022
5303 Clouds 28 1011 74 10000 4.63 190 18:38 13.02.2022
5304 Clouds 26 1011 83 10000 3.09 180 16:39 13.02.2022
5305 Clouds 25 1010 88 10000 3.6 190 15:42 13.02.2022
5306 Clouds 24 1012 83 10000 2.75 161 14:37 13.02.2022
5307 Clouds 24 1011 83 10000 2.89 169 12:52 13.02.2022
5308 Clouds 24 1010 84 10000 2.72 153 12:18 13.02.2022
5309 Clouds 24 1010 84 10000 2.7 150 10:38 13.02.2022
5310 Clouds 24 1010 84 10000 2.65 151 09:49 13.02.2022
5311 Clouds 24 1011 86 10000 2.36 170 07:52 13.02.2022
5312 Clouds 25 1009 81 10000 3.31 189 00:36 13.02.2022
5313 Clouds 27 1006 74 10000 6.17 190 23:54 12.02.2022
5314 Clouds 28 1007 69 10000 5.66 170 22:33 12.02.2022
5315 Clouds 29 1007 65 10000 6.69 170 21:36 12.02.2022
5316 Clouds 29 1009 65 10000 5.14 210 20:52 12.02.2022
5317 Clouds 29 1010 65 10000 5.66 200 19:47 12.02.2022
5318 Clouds 29 1010 65 10000 5.66 190 18:53 12.02.2022
5319 Clouds 29 1010 65 10000 5.66 190 18:35 12.02.2022
5320 Clouds 27 1010 78 10000 5.66 170 17:37 12.02.2022
5321 Clouds 27 1010 78 10000 5.66 170 16:43 12.02.2022
5322 Clouds 26 1010 83 10000 4.12 180 15:51 12.02.2022
5323 Clouds 24 1012 86 10000 3.95 161 14:55 12.02.2022
5324 Clouds 24 1012 86 10000 3.95 161 14:55 12.02.2022
5325 Clouds 24 1011 87 10000 3.6 165 14:25 12.02.2022
5326 Clouds 24 1009 88 10000 4.35 166 11:18 12.02.2022
5327 Rain 24 1009 88 10000 4.26 167 10:23 12.02.2022
5328 Rain 24 1009 88 10000 4.26 167 09:32 12.02.2022
5329 Clouds 24 1009 88 10000 4.07 167 08:45 12.02.2022
5330 Rain 24 1012 88 10000 3.65 169 05:41 12.02.2022
5331 Clouds 24 1011 88 10000 3.6 174 04:36 12.02.2022
5332 Clouds 24 1009 88 10000 3.33 182 02:19 12.02.2022
5333 Clouds 27 1006 74 10000 5.66 170 22:57 11.02.2022
5334 Clouds 27 1006 74 10000 5.66 170 22:20 11.02.2022
5335 Clouds 28 1008 74 10000 5.14 170 20:52 11.02.2022
5336 Clouds 28 1009 74 10000 4.63 200 19:50 11.02.2022
5337 Clouds 28 1009 74 10000 4.63 200 19:27 11.02.2022
5338 Clouds 27 1010 78 10000 4.12 180 18:28 11.02.2022
5339 Clouds 27 1010 78 10000 5.66 170 17:26 11.02.2022
5340 Clouds 26 1010 83 10000 6.69 160 16:26 11.02.2022
5341 Clouds 24 1012 86 10000 3.76 158 14:57 11.02.2022
5342 Clouds 24 1012 86 10000 3.76 158 14:36 11.02.2022
5343 Clouds 24 1011 87 10000 3.45 163 14:18 11.02.2022
5344 Clouds 24 1011 87 10000 3.45 163 13:39 11.02.2022
5345 Clouds 24 1010 87 10000 4.18 157 12:20 11.02.2022
5346 Clouds 24 1009 87 10000 3.58 159 10:28 11.02.2022
5347 Clouds 24 1009 85 10000 3.23 163 09:19 11.02.2022
5348 Rain 24 1010 86 10000 2.98 162 08:28 11.02.2022
5349 Rain 24 1010 86 10000 2.82 155 07:34 11.02.2022
5350 Clouds 24 1011 83 10000 2.81 171 02:40 11.02.2022
5351 Clouds 24 1010 83 10000 3.04 182 02:19 11.02.2022
5352 Clouds 24 1009 79 10000 3.07 184 23:20 10.02.2022
5353 Clouds 28 1008 74 10000 5.14 190 21:53 10.02.2022
5354 Clouds 28 1008 74 10000 5.14 190 21:24 10.02.2022
5355 Clouds 28 1009 74 10000 4.63 190 20:48 10.02.2022
5356 Clouds 27 1011 78 10000 4.63 200 19:26 10.02.2022
5357 Clouds 27 1011 78 10000 5.14 230 18:47 10.02.2022
5358 Clouds 27 1011 78 10000 4.63 190 17:27 10.02.2022
5359 Clouds 26 1011 83 10000 3.09 220 16:57 10.02.2022
5360 Clouds 25 1011 88 10000 3.6 180 15:59 10.02.2022
5361 Clouds 25 1011 88 10000 3.6 180 15:33 10.02.2022
5362 Clouds 24 1013 86 10000 3.73 190 14:49 10.02.2022
5363 Clouds 24 1012 86 10000 3.95 192 14:26 10.02.2022
5364 Clouds 24 1012 86 10000 3.95 192 13:30 10.02.2022
5365 Clouds 24 1011 86 10000 3.82 196 12:51 10.02.2022
5366 Clouds 23 1011 85 10000 3.65 191 11:34 10.02.2022
5367 Clouds 23 1011 85 10000 3.91 193 10:56 10.02.2022
5368 Clouds 23 1011 85 10000 4.01 194 10:18 10.02.2022
5369 Clouds 23 1011 86 10000 4.2 196 09:25 10.02.2022
5370 Clouds 23 1011 86 10000 3.81 202 07:36 10.02.2022
5371 Clouds 24 1013 83 10000 3.26 187 04:58 10.02.2022
5372 Clouds 24 1011 81 10000 3.74 191 01:51 10.02.2022
5373 Clouds 24 1010 79 10000 3.87 190 00:49 10.02.2022
5374 Clouds 24 1010 79 10000 3.9 188 00:28 10.02.2022
5375 Clouds 26 1008 78 10000 5.66 190 23:23 09.02.2022
5376 Clouds 27 1008 74 10000 4.63 200 22:35 09.02.2022
5377 Clouds 28 1009 74 10000 3.6 210 21:52 09.02.2022
5378 Clouds 28 1009 74 10000 3.6 210 21:29 09.02.2022
5379 Clouds 28 1010 74 10000 4.12 240 20:47 09.02.2022
5380 Clouds 28 1010 74 10000 4.12 240 20:27 09.02.2022
5381 Clouds 28 1011 74 10000 4.12 190 19:46 09.02.2022
5382 Clouds 28 1011 74 10000 4.12 190 19:27 09.02.2022
5383 Clouds 27 1012 74 10000 3.6 180 17:37 09.02.2022
5384 Clouds 25 1012 83 10000 3.6 170 16:48 09.02.2022
5385 Clouds 24 1011 88 10000 4.12 180 15:50 09.02.2022
5386 Clouds 23 1013 80 10000 3.11 181 14:28 09.02.2022
5387 Clouds 23 1012 80 10000 2.92 168 12:28 09.02.2022
5388 Clouds 23 1011 80 10000 2.72 168 10:51 09.02.2022
5389 Clouds 23 1011 81 10000 2.62 161 10:26 09.02.2022
5390 Clouds 23 1011 81 10000 2.62 161 09:35 09.02.2022
5391 Clouds 23 1012 82 10000 2.51 162 08:59 09.02.2022
5392 Clouds 23 1012 83 10000 2.46 163 07:47 09.02.2022
5393 Clouds 24 1014 82 10000 2.46 151 05:30 09.02.2022
5394 Clouds 24 1014 82 10000 2.46 151 05:30 09.02.2022
5395 Clouds 24 1014 82 10000 2.24 162 03:50 09.02.2022
5396 Clouds 24 1011 76 10000 4.61 172 00:23 09.02.2022
5397 Clouds 27 1009 74 10000 4.12 180 23:30 08.02.2022
5398 Clouds 28 1009 69 10000 6.17 200 22:45 08.02.2022
5399 Clouds 28 1009 69 10000 6.17 200 22:21 08.02.2022
5400 Clouds 28 1010 69 10000 6.69 180 21:38 08.02.2022
5401 Clouds 28 1010 69 10000 6.69 180 21:19 08.02.2022
5402 Clouds 28 1011 69 10000 6.17 190 20:41 08.02.2022
5403 Clouds 28 1011 69 10000 6.17 190 20:41 08.02.2022
5404 Clouds 27 1012 74 10000 4.63 180 19:41 08.02.2022
5405 Clouds 27 1012 74 10000 5.14 190 18:34 08.02.2022
5406 Clouds 27 1012 74 10000 5.14 210 17:36 08.02.2022
5407 Clouds 25 1012 78 10000 4.12 180 15:55 08.02.2022
5408 Clouds 25 1012 78 10000 4.12 180 15:28 08.02.2022
5409 Clouds 23 1013 80 10000 3.52 181 13:59 08.02.2022
5410 Clouds 23 1012 81 10000 3.39 166 12:40 08.02.2022
5411 Clouds 23 1011 81 10000 3.57 164 11:20 08.02.2022
5412 Clouds 23 1012 81 10000 3.04 163 09:51 08.02.2022
5413 Clouds 23 1012 81 10000 2.43 165 08:54 08.02.2022
5414 Clouds 23 1014 83 10000 2.39 158 07:27 08.02.2022
5415 Clouds 23 1015 82 10000 2.87 160 04:40 08.02.2022
5416 Clouds 24 1014 82 10000 3.48 159 04:22 08.02.2022
5417 Clouds 24 1014 82 10000 3.48 159 03:36 08.02.2022
5418 Clouds 24 1013 82 10000 3.28 159 03:18 08.02.2022
5419 Clouds 24 1013 82 10000 3.28 159 02:59 08.02.2022
5420 Clouds 24 1013 82 10000 3.28 159 02:36 08.02.2022
5421 Clouds 24 1012 80 10000 3.37 172 02:18 08.02.2022
5422 Clouds 24 1012 80 10000 3.37 172 01:45 08.02.2022
5423 Clear 24 1011 79 10000 3.74 178 01:25 08.02.2022
5424 Clear 24 1011 79 10000 3.74 178 00:55 08.02.2022
5425 Clear 24 1011 77 10000 3.82 168 00:32 08.02.2022
5426 Clouds 27 1009 74 10000 4.63 180 23:44 07.02.2022
5427 Clouds 27 1009 74 10000 4.63 180 23:18 07.02.2022
5428 Clouds 27 1010 74 10000 6.17 190 22:59 07.02.2022
5429 Clouds 27 1010 74 10000 6.17 190 22:19 07.02.2022
5430 Clouds 27 1010 74 10000 4.63 190 21:51 07.02.2022
5431 Clouds 27 1010 74 10000 4.63 190 21:27 07.02.2022
5432 Clouds 27 1011 74 10000 5.66 190 20:45 07.02.2022
5433 Clouds 27 1011 74 10000 5.66 190 20:27 07.02.2022
5434 Clouds 28 1011 65 10000 6.17 190 19:47 07.02.2022
5435 Clear 28 1012 65 10000 4.63 180 18:37 07.02.2022
5436 Clouds 24 1015 75 10000 3.72 169 17:23 07.02.2022
5437 Clouds 27 1012 69 10000 4.12 200 16:52 07.02.2022
5438 Clouds 26 1012 73 10000 4.63 150 15:48 07.02.2022
5439 Clouds 23 1013 82 10000 3.01 164 13:58 07.02.2022
5440 Clouds 23 1013 81 10000 3.75 154 13:27 07.02.2022
5441 Clouds 23 1012 81 10000 3.89 152 12:18 07.02.2022
5442 Clouds 23 1012 81 10000 3.89 152 11:38 07.02.2022
5443 Clouds 23 1012 80 10000 4.01 149 10:59 07.02.2022
5444 Clouds 23 1012 80 10000 4.01 149 10:41 07.02.2022
5445 Clear 23 1012 80 10000 3.69 153 10:22 07.02.2022
5446 Clear 23 1012 80 10000 3.69 153 09:47 07.02.2022
5447 Clear 23 1012 79 10000 4.32 155 09:18 07.02.2022
5448 Clear 23 1012 79 10000 4.3 157 07:35 07.02.2022
5449 Clear 23 1013 80 10000 4.23 154 06:34 07.02.2022
5450 Clear 23 1014 81 10000 4.54 154 04:31 07.02.2022
5451 Clear 24 1011 77 10000 4.76 163 01:37 07.02.2022
5452 Clouds 27 1008 74 10000 6.17 150 23:51 06.02.2022
5453 Clouds 27 1008 74 10000 6.17 150 23:19 06.02.2022
5454 Clouds 28 1009 65 10000 6.17 170 22:39 06.02.2022
5455 Clouds 28 1010 65 10000 7.2 190 21:37 06.02.2022
5456 Clouds 28 1010 65 10000 7.2 190 21:18 06.02.2022
5457 Clouds 28 1011 65 10000 7.72 190 20:37 06.02.2022
5458 Clouds 28 1011 69 10000 7.2 160 19:50 06.02.2022
5459 Clouds 28 1011 69 10000 7.72 170 18:52 06.02.2022
5460 Clouds 28 1011 69 10000 7.72 170 18:26 06.02.2022
5461 Clouds 27 1012 83 10000 8.23 190 17:29 06.02.2022
5462 Clouds 26 1011 83 10000 6.17 180 16:50 06.02.2022
5463 Clouds 24 1011 88 10000 4.63 170 15:50 06.02.2022
5464 Clouds 24 1011 88 10000 4.63 170 15:28 06.02.2022
5465 Clouds 24 1014 78 10000 5.36 174 14:59 06.02.2022
5466 Clouds 24 1013 81 10000 5.34 176 13:53 06.02.2022
5467 Clouds 23 1012 84 10000 6.13 174 13:20 06.02.2022
5468 Clouds 23 1012 84 10000 5.6 176 11:45 06.02.2022
5469 Clouds 23 1012 84 10000 5.3 182 10:33 06.02.2022
5470 Clouds 23 1012 85 10000 5.35 177 09:29 06.02.2022
5471 Clouds 23 1012 85 10000 5.35 177 08:41 06.02.2022
5472 Clouds 24 1014 84 10000 4.42 163 06:27 06.02.2022
5473 Clouds 24 1014 85 10000 3.95 168 04:51 06.02.2022
5474 Clouds 24 1011 84 10000 3.77 171 02:25 06.02.2022
5475 Clouds 25 1011 80 10000 4.28 180 00:30 06.02.2022
5476 Clouds 28 1009 78 10000 6.17 160 23:25 05.02.2022
5477 Clouds 29 1010 70 10000 7.2 190 21:38 05.02.2022
5478 Clouds 29 1011 70 10000 6.69 180 20:25 05.02.2022
5479 Clouds 29 1011 70 10000 7.2 190 19:50 05.02.2022
5480 Clouds 29 1011 70 10000 7.2 190 19:27 05.02.2022
5481 Clouds 28 1012 78 10000 7.72 140 18:23 05.02.2022
5482 Clouds 27 1012 83 10000 7.72 150 17:31 05.02.2022
5483 Clouds 25 1012 88 10000 5.14 150 15:42 05.02.2022
5484 Clouds 25 1012 88 10000 5.14 150 15:24 05.02.2022
5485 Clouds 24 1013 84 10000 5.03 161 12:54 05.02.2022
5486 Clouds 24 1014 85 10000 4.78 153 12:34 05.02.2022
5487 Clouds 24 1013 84 10000 4.68 150 10:53 05.02.2022
5488 Rain 24 1012 84 10000 4.1 147 10:25 05.02.2022
5489 Rain 24 1012 84 10000 4.1 147 09:46 05.02.2022
5490 Clouds 24 1013 84 10000 3.74 135 08:20 05.02.2022
5491 Clouds 24 1014 85 10000 4.19 136 06:57 05.02.2022
5492 Clouds 24 1015 85 10000 3.53 136 04:55 05.02.2022
5493 Clouds 25 1012 81 10000 3.77 144 01:19 05.02.2022
5494 Rain 25 1012 81 10000 3.98 136 00:53 05.02.2022
5495 Clouds 29 1010 70 10000 8.23 160 23:58 04.02.2022
5496 Clouds 29 1010 70 10000 8.23 160 23:30 04.02.2022
5497 Clouds 29 1011 70 10000 7.72 150 21:59 04.02.2022
5498 Clouds 29 1011 70 10000 7.72 150 21:36 04.02.2022
5499 Clouds 29 1011 70 10000 7.72 150 21:18 04.02.2022
5500 Clouds 30 1011 66 10000 8.23 160 20:20 04.02.2022
5501 Clouds 28 1013 74 10000 6.69 140 17:43 04.02.2022
5502 Clouds 25 1012 88 10000 5.14 130 15:42 04.02.2022
5503 Clouds 24 1015 82 10000 3.16 144 14:55 04.02.2022
5504 Clouds 24 1013 83 10000 3.4 142 13:33 04.02.2022
5505 Clear 24 1013 84 10000 3.39 138 12:43 04.02.2022
5506 Clear 24 1012 85 10000 3.28 140 11:42 04.02.2022
5507 Clear 24 1012 85 10000 2.77 143 10:36 04.02.2022
5508 Clear 24 1012 85 10000 2.2 148 08:36 04.02.2022
5509 Clear 24 1014 85 10000 3.03 151 06:47 04.02.2022
5510 Clear 24 1013 82 10000 3.63 145 02:44 04.02.2022
5511 Clear 25 1012 79 10000 3.36 148 01:48 04.02.2022
5512 Clouds 28 1009 74 10000 7.72 150 23:29 03.02.2022
5513 Clouds 28 1009 74 10000 4.63 160 22:33 03.02.2022
5514 Clouds 28 1009 74 10000 5.14 140 21:49 03.02.2022
5515 Clouds 28 1010 74 10000 5.14 170 20:36 03.02.2022
5516 Clouds 28 1010 74 10000 5.14 170 20:18 03.02.2022
5517 Clouds 29 1011 70 10000 5.66 190 19:30 03.02.2022
5518 Clouds 28 1011 69 10000 6.17 150 18:34 03.02.2022
5519 Clouds 27 1012 78 10000 5.14 160 17:32 03.02.2022
5520 Clouds 27 1012 74 10000 6.69 170 16:24 03.02.2022
5521 Clouds 24 1013 85 10000 3.71 150 14:28 03.02.2022
5522 Clouds 23 1012 85 10000 3.24 149 12:40 03.02.2022
5523 Clouds 23 1011 85 10000 3.12 152 10:45 03.02.2022
5524 Clouds 23 1011 84 10000 3.71 156 08:35 03.02.2022
5525 Clear 24 1012 85 10000 3.85 149 03:57 03.02.2022
5526 Clouds 24 1009 80 10000 3.66 150 00:30 03.02.2022
5527 Clouds 28 1007 69 10000 6.69 190 22:55 02.02.2022
5528 Clouds 29 1007 65 10000 7.2 170 21:53 02.02.2022
5529 Clouds 29 1007 65 10000 7.2 170 21:30 02.02.2022
5530 Clouds 29 1008 65 10000 6.17 160 20:33 02.02.2022
5531 Clouds 29 1009 70 10000 6.69 180 19:51 02.02.2022
5532 Clouds 29 1009 70 10000 6.69 180 19:20 02.02.2022
5533 Clouds 28 1010 74 10000 6.17 170 18:26 02.02.2022
5534 Clouds 28 1010 74 10000 5.14 150 17:37 02.02.2022
5535 Clouds 28 1010 74 10000 5.14 150 17:18 02.02.2022
5536 Clouds 27 1011 74 10000 6.69 160 16:20 02.02.2022
5537 Clouds 23 1010 87 10000 3.21 123 12:50 02.02.2022
5538 Clouds 23 1010 87 10000 2.74 123 11:51 02.02.2022
5539 Clouds 23 1010 87 10000 2.74 123 11:31 02.02.2022
5540 Clouds 23 1010 87 10000 2.18 129 09:22 02.02.2022
5541 Clouds 24 1012 87 10000 3.04 130 05:29 02.02.2022
5542 Rain 26 1008 83 10000 6.17 160 22:36 01.02.2022
5543 Clouds 28 1009 74 10000 7.2 170 20:58 01.02.2022
5544 Clouds 29 1010 65 10000 7.2 190 19:56 01.02.2022
5545 Clouds 27 1011 74 10000 5.14 150 17:38 01.02.2022
5546 Clouds 26 1011 78 10000 3.09 190 16:31 01.02.2022
5547 Clouds 23 1011 88 10000 1.64 170 13:27 01.02.2022
5548 Rain 23 1011 88 10000 1.95 153 12:28 01.02.2022
5549 Clouds 23 1011 89 10000 1.93 158 08:52 01.02.2022
5550 Clouds 24 1012 85 10000 2.84 144 02:21 01.02.2022
5551 Clouds 27 1009 69 10000 6.17 150 23:38 31.01.2022
5552 Clouds 28 1009 65 10000 4.63 150 22:42 31.01.2022
5553 Clouds 28 1010 65 10000 6.69 160 21:35 31.01.2022
5554 Clouds 28 1011 65 10000 6.17 180 20:35 31.01.2022
5555 Clouds 28 1011 65 10000 7.2 170 19:58 31.01.2022
5556 Clouds 28 1012 65 10000 6.69 160 18:32 31.01.2022
5557 Clouds 28 1012 65 10000 6.69 160 18:32 31.01.2022
5558 Clouds 27 1013 69 10000 4.63 150 17:57 31.01.2022
5559 Clouds 27 1013 69 10000 4.63 150 17:24 31.01.2022
5560 Clouds 26 1013 73 10000 5.14 150 16:23 31.01.2022
5561 Clouds 24 1014 80 10000 2.68 168 14:53 31.01.2022
5562 Clouds 24 1013 82 10000 2.94 182 13:31 31.01.2022
5563 Clouds 24 1013 83 10000 3.17 193 12:37 31.01.2022
5564 Clouds 24 1012 83 10000 2.94 191 11:20 31.01.2022
5565 Clouds 24 1012 83 10000 2.94 191 10:47 31.01.2022
5566 Clouds 24 1012 82 10000 3.18 191 09:36 31.01.2022
5567 Clouds 24 1012 83 10000 3.1 188 08:56 31.01.2022
5568 Clouds 24 1013 83 10000 3.39 182 08:20 31.01.2022
5569 Clouds 24 1013 83 10000 3.39 182 07:37 31.01.2022
5570 Clouds 24 1014 82 10000 4.36 185 05:24 31.01.2022
5571 Clouds 24 1012 78 10000 4.13 180 00:24 31.01.2022
5572 Clouds 27 1010 74 10000 5.14 170 22:33 30.01.2022
5573 Clouds 27 1010 74 10000 6.17 170 21:46 30.01.2022
5574 Clouds 27 1010 74 10000 6.17 170 21:24 30.01.2022
5575 Clouds 27 1011 74 10000 6.69 180 20:51 30.01.2022
5576 Clouds 27 1011 74 10000 6.69 180 20:31 30.01.2022
5577 Clouds 27 1012 74 10000 7.2 190 19:55 30.01.2022
5578 Clouds 27 1013 74 10000 6.17 190 18:51 30.01.2022
5579 Clouds 27 1013 74 10000 6.17 190 18:22 30.01.2022
5580 Clouds 27 1013 74 10000 4.63 160 17:30 30.01.2022
5581 Clouds 26 1013 78 10000 6.69 190 16:42 30.01.2022
5582 Clouds 26 1013 78 10000 6.69 190 16:23 30.01.2022
5583 Clouds 25 1013 83 10000 4.12 180 15:54 30.01.2022
5584 Clouds 25 1013 83 10000 4.12 180 15:32 30.01.2022
5585 Clouds 24 1015 82 10000 5.02 179 14:47 30.01.2022
5586 Clouds 23 1014 82 10000 4.8 180 13:47 30.01.2022
5587 Clouds 23 1013 83 10000 4.6 178 12:46 30.01.2022
5588 Clouds 23 1012 83 10000 4.24 182 10:47 30.01.2022
5589 Clouds 23 1012 84 10000 4.4 176 10:25 30.01.2022
5590 Clouds 23 1013 84 10000 4.65 170 09:22 30.01.2022
5591 Clouds 24 1014 83 10000 4.49 166 07:58 30.01.2022
5592 Clouds 24 1013 83 10000 3.36 150 02:44 30.01.2022
5593 Clouds 24 1012 82 10000 3.39 156 01:52 30.01.2022
5594 Clouds 27 1009 69 10000 5.14 170 23:46 29.01.2022
5595 Clouds 28 1009 65 10000 7.2 170 22:48 29.01.2022
5596 Clouds 28 1010 65 10000 6.17 180 21:28 29.01.2022
5597 Clouds 28 1011 65 10000 7.72 170 20:50 29.01.2022
5598 Clouds 28 1011 65 10000 7.2 170 19:47 29.01.2022
5599 Clouds 28 1011 65 10000 7.2 170 19:29 29.01.2022
5600 Clouds 27 1012 69 10000 4.63 180 18:39 29.01.2022
5601 Clouds 26 1013 78 10000 5.66 160 17:42 29.01.2022
5602 Clouds 25 1013 88 10000 5.14 160 16:42 29.01.2022
5603 Clouds 23 1015 82 10000 4.88 175 14:52 29.01.2022
5604 Clouds 23 1014 83 10000 4.94 172 13:46 29.01.2022
5605 Clouds 23 1013 84 10000 4.76 171 13:25 29.01.2022
5606 Clouds 23 1013 84 10000 4.76 171 12:40 29.01.2022
5607 Clouds 23 1013 84 10000 4.72 173 11:38 29.01.2022
5608 Clouds 23 1012 83 10000 4.31 170 10:21 29.01.2022
5609 Clouds 23 1014 84 10000 4.2 158 06:57 29.01.2022
5610 Clouds 23 1012 84 10000 3.95 166 00:50 29.01.2022
5611 Clouds 23 1012 84 10000 3.95 166 00:31 29.01.2022
5612 Clouds 28 1010 69 10000 4.63 170 22:52 28.01.2022
5613 Clouds 28 1010 69 10000 4.63 170 22:27 28.01.2022
5614 Clouds 28 1010 69 10000 5.14 190 21:52 28.01.2022
5615 Clouds 28 1011 69 10000 6.17 180 20:31 28.01.2022
5616 Clouds 28 1012 69 10000 5.66 170 19:42 28.01.2022
5617 Clouds 27 1012 74 10000 5.14 200 18:47 28.01.2022
5618 Clouds 27 1013 74 10000 4.12 170 17:42 28.01.2022
5619 Clouds 24 1012 88 10000 5.14 160 15:21 28.01.2022
5620 Clouds 24 1013 83 10000 2.65 192 13:59 28.01.2022
5621 Clouds 24 1013 81 10000 3.43 178 12:32 28.01.2022
5622 Clouds 24 1012 80 10000 3.18 181 11:36 28.01.2022
5623 Clouds 24 1012 81 10000 3.05 182 09:59 28.01.2022
5624 Clouds 24 1012 81 10000 3.29 173 08:41 28.01.2022
5625 Clouds 24 1013 82 10000 3.76 169 07:36 28.01.2022
5626 Clouds 24 1014 85 10000 4.33 169 05:23 28.01.2022
5627 Clouds 24 1014 85 10000 4.48 168 03:45 28.01.2022
5628 Clouds 24 1012 84 10000 4.04 170 02:22 28.01.2022
5629 Clouds 25 1010 83 10000 5.14 170 01:33 28.01.2022
5630 Clouds 26 1009 78 10000 5.14 190 23:25 27.01.2022
5631 Clouds 27 1010 74 10000 5.66 180 21:49 27.01.2022
5632 Clouds 27 1010 74 10000 5.66 180 21:29 27.01.2022
5633 Clouds 28 1011 69 10000 5.14 200 20:26 27.01.2022
5634 Clouds 27 1013 74 10000 5.14 180 18:55 27.01.2022
5635 Clouds 27 1013 69 10000 6.17 170 17:56 27.01.2022
5636 Clouds 23 1014 84 10000 3.04 166 14:42 27.01.2022
5637 Clouds 23 1013 85 10000 2.44 163 13:35 27.01.2022
5638 Clouds 23 1013 86 10000 2.14 165 12:40 27.01.2022
5639 Clouds 23 1012 88 10000 2.91 158 10:23 27.01.2022
5640 Clouds 23 1012 88 10000 3.11 151 08:56 27.01.2022
5641 Clouds 23 1012 88 10000 3.11 151 08:30 27.01.2022
5642 Clouds 23 1014 89 10000 3.53 153 05:59 27.01.2022
5643 Clouds 23 1013 88 10000 3.61 153 02:36 27.01.2022
5644 Clouds 28 1009 61 10000 6.17 160 22:44 26.01.2022
5645 Clouds 28 1010 65 10000 6.69 170 21:55 26.01.2022
5646 Clouds 28 1010 65 10000 6.69 170 21:31 26.01.2022
5647 Clouds 28 1010 69 10000 6.69 150 20:35 26.01.2022
5648 Clouds 27 1011 74 10000 7.2 160 19:55 26.01.2022
5649 Clouds 27 1011 74 10000 7.2 160 19:19 26.01.2022
5650 Clouds 27 1012 74 10000 6.69 150 18:26 26.01.2022
5651 Clouds 27 1012 74 10000 4.63 140 17:49 26.01.2022
5652 Clouds 27 1012 74 10000 4.63 140 17:19 26.01.2022
5653 Clouds 26 1012 78 10000 5.14 160 16:26 26.01.2022
5654 Clouds 25 1011 83 10000 5.66 160 15:45 26.01.2022
5655 Clouds 23 1012 88 10000 3.21 130 12:54 26.01.2022
5656 Clouds 23 1011 87 10000 3.01 139 11:40 26.01.2022
5657 Clouds 23 1011 86 10000 3.03 153 10:19 26.01.2022
5658 Clouds 23 1011 86 10000 3.03 153 09:42 26.01.2022
5659 Clouds 23 1012 86 10000 2.9 149 07:31 26.01.2022
5660 Clouds 24 1010 85 10000 2.99 159 00:48 26.01.2022
5661 Clouds 24 1010 84 10000 3.46 146 00:48 26.01.2022
5662 Clouds 27 1007 69 10000 5.66 170 23:48 25.01.2022
5663 Clouds 28 1008 65 10000 6.17 150 22:50 25.01.2022
5664 Clouds 28 1008 65 10000 6.17 150 22:50 25.01.2022
5665 Clouds 28 1008 65 10000 6.17 150 22:50 25.01.2022
5666 Clouds 28 1008 65 10000 6.17 150 22:21 25.01.2022
5667 Clouds 28 1008 65 10000 6.69 160 21:37 25.01.2022
5668 Clouds 28 1009 65 10000 6.17 160 20:46 25.01.2022
5669 Clouds 28 1010 65 10000 6.69 130 19:59 25.01.2022
5670 Clouds 28 1010 65 10000 6.69 130 19:40 25.01.2022
5671 Clouds 27 1011 74 10000 7.2 170 18:20 25.01.2022
5672 Clouds 27 1011 74 10000 6.17 160 17:40 25.01.2022
5673 Clouds 26 1011 83 10000 6.17 150 16:35 25.01.2022
5674 Clouds 25 1011 83 10000 7.72 160 15:43 25.01.2022
5675 Clouds 25 1011 83 10000 7.72 160 15:25 25.01.2022
5676 Clouds 23 1012 90 10000 3.86 185 14:57 25.01.2022
5677 Clouds 23 1011 92 10000 5.02 180 12:32 25.01.2022
5678 Clouds 23 1010 93 10000 5.06 172 09:58 25.01.2022
5679 Clouds 23 1011 92 10000 5.25 180 08:29 25.01.2022
5680 Clouds 23 1012 92 10000 5.26 181 07:28 25.01.2022
5681 Clouds 23 1013 92 10000 4.53 185 05:55 25.01.2022
5682 Clouds 24 1010 91 10000 4.93 192 00:58 25.01.2022
5683 Clouds 25 1007 83 10000 5.66 170 23:36 24.01.2022
5684 Clouds 25 1007 83 10000 5.66 170 23:18 24.01.2022
5685 Clouds 25 1007 88 10000 7.72 160 22:58 24.01.2022
5686 Clouds 25 1007 88 10000 7.72 160 22:40 24.01.2022
5687 Clouds 25 1008 88 10000 6.17 150 21:43 24.01.2022
5688 Clouds 25 1008 88 10000 6.17 150 21:25 24.01.2022
5689 Clouds 26 1009 83 10000 7.72 170 20:28 24.01.2022
5690 Clouds 26 1009 83 10000 6.17 160 19:38 24.01.2022
5691 Clouds 26 1009 83 10000 6.17 160 19:38 24.01.2022
5692 Clouds 26 1010 78 10000 5.66 170 18:50 24.01.2022
5693 Clouds 26 1010 78 10000 7.72 160 17:42 24.01.2022
5694 Clouds 26 1010 78 10000 7.72 160 17:22 24.01.2022
5695 Clouds 26 1010 78 10000 7.72 160 17:22 24.01.2022
5696 Clouds 25 1010 83 10000 7.2 160 16:31 24.01.2022
5697 Clouds 25 1010 83 10000 6.17 150 15:35 24.01.2022
5698 Clouds 23 1012 88 10000 4.79 170 13:59 24.01.2022
5699 Clouds 23 1011 90 10000 5 171 12:34 24.01.2022
5700 Clouds 23 1011 90 10000 4.74 174 11:42 24.01.2022
5701 Clouds 23 1010 89 10000 4.44 173 10:19 24.01.2022
5702 Clouds 23 1010 89 10000 4.44 173 09:45 24.01.2022
5703 Clouds 23 1011 89 10000 5.31 170 08:18 24.01.2022
5704 Clouds 23 1010 88 10000 4.89 169 01:39 24.01.2022
5705 Clouds 24 1010 87 10000 4.95 168 00:55 24.01.2022
5706 Clouds 24 1010 87 10000 4.95 168 00:30 24.01.2022
5707 Clouds 26 1006 73 10000 7.2 160 23:39 23.01.2022
5708 Clouds 27 1008 74 10000 6.17 170 21:53 23.01.2022
5709 Clouds 27 1008 74 10000 6.17 170 21:29 23.01.2022
5710 Clouds 27 1009 69 10000 7.2 150 20:57 23.01.2022
5711 Clouds 27 1009 69 10000 7.2 150 20:21 23.01.2022
5712 Clouds 27 1010 74 10000 7.2 160 18:53 23.01.2022
5713 Clouds 27 1010 74 10000 7.2 160 18:22 23.01.2022
5714 Clouds 26 1010 73 10000 6.69 130 16:55 23.01.2022
5715 Clouds 24 1010 88 10000 6.69 140 15:46 23.01.2022
5716 Clouds 23 1013 86 10000 3.38 148 14:48 23.01.2022
5717 Clouds 23 1012 86 10000 3.26 147 14:18 23.01.2022
5718 Clouds 23 1012 87 10000 2.86 155 12:44 23.01.2022
5719 Clouds 23 1011 87 10000 2.71 164 12:19 23.01.2022
5720 Clouds 23 1011 86 10000 2.71 169 11:25 23.01.2022
5721 Clouds 23 1011 86 10000 2.71 169 10:57 23.01.2022
5722 Clouds 23 1010 87 10000 2.4 172 10:24 23.01.2022
5723 Clouds 23 1010 87 10000 2.31 171 09:26 23.01.2022
5724 Clouds 23 1012 86 10000 2.87 168 06:18 23.01.2022
5725 Clouds 23 1011 85 10000 3.31 173 03:20 23.01.2022
5726 Clouds 24 1010 85 10000 3.71 173 01:36 23.01.2022
5727 Clouds 26 1007 73 10000 5.66 150 00:46 23.01.2022
5728 Clouds 28 1007 65 10000 6.69 170 23:58 22.01.2022
5729 Clouds 28 1007 65 10000 6.69 150 22:48 22.01.2022
5730 Clouds 28 1007 65 10000 6.69 150 22:19 22.01.2022
5731 Clouds 28 1009 61 10000 4.12 180 20:33 22.01.2022
5732 Clouds 27 1010 65 10000 6.69 170 19:41 22.01.2022
5733 Clouds 27 1011 69 10000 5.66 150 18:37 22.01.2022
5734 Clouds 26 1012 73 10000 6.69 160 17:45 22.01.2022
5735 Clouds 26 1012 73 10000 6.69 160 17:19 22.01.2022
5736 Clouds 25 1011 78 10000 6.17 140 16:54 22.01.2022
5737 Clouds 25 1011 83 10000 5.14 150 15:45 22.01.2022
5738 Clouds 23 1013 85 10000 3.06 154 14:42 22.01.2022
5739 Clouds 23 1012 87 10000 3.39 148 13:28 22.01.2022
5740 Clouds 23 1012 87 10000 3.7 149 12:37 22.01.2022
5741 Clouds 23 1011 87 10000 3.4 147 12:18 22.01.2022
5742 Clouds 23 1011 88 10000 3.84 147 10:39 22.01.2022
5743 Clouds 23 1011 89 10000 3.86 148 10:20 22.01.2022
5744 Clouds 23 1011 90 10000 3.2 149 08:55 22.01.2022
5745 Clouds 23 1011 90 10000 3.2 149 08:31 22.01.2022
5746 Clouds 24 1013 89 10000 4.32 147 05:20 22.01.2022
5747 Clouds 24 1010 89 10000 4.76 153 02:27 22.01.2022
5748 Rain 25 1008 88 10000 6.17 160 23:50 21.01.2022
5749 Clouds 28 1008 74 10000 7.72 190 22:59 21.01.2022
5750 Clouds 28 1009 74 10000 5.66 170 20:48 21.01.2022
5751 Clouds 27 1010 78 10000 5.66 170 19:20 21.01.2022
5752 Clouds 26 1011 83 10000 4.12 170 17:48 21.01.2022
5753 Clouds 24 1010 94 10000 5.14 140 15:54 21.01.2022
5754 Clouds 23 1012 91 10000 3.42 174 14:41 21.01.2022
5755 Clouds 23 1011 93 10000 3.84 167 12:43 21.01.2022
5756 Clouds 23 1010 93 10000 4.06 166 11:29 21.01.2022
5757 Clouds 23 1010 93 10000 4.02 162 10:27 21.01.2022
5758 Clouds 23 1010 92 10000 3.87 157 08:50 21.01.2022
5759 Clouds 23 1011 92 10000 3.79 164 07:37 21.01.2022
5760 Clouds 24 1011 90 10000 4.87 178 01:48 21.01.2022
5761 Clouds 27 1008 78 10000 6.17 180 22:47 20.01.2022
5762 Clouds 27 1009 78 10000 6.69 170 21:48 20.01.2022
5763 Clouds 27 1009 78 10000 6.69 170 21:24 20.01.2022
5764 Clouds 25 1010 88 10000 7.2 150 19:46 20.01.2022
5765 Clouds 25 1010 88 10000 7.2 150 19:18 20.01.2022
5766 Rain 24 1012 90 10000 4.39 178 17:36 20.01.2022
5767 Clouds 24 1010 88 10000 5.66 180 15:46 20.01.2022
5768 Clouds 24 1010 88 10000 5.66 180 15:26 20.01.2022
5769 Clouds 23 1011 91 10000 4.11 167 13:54 20.01.2022
5770 Clouds 23 1011 91 10000 4.43 162 12:44 20.01.2022
5771 Clouds 23 1010 91 10000 4.64 163 12:26 20.01.2022
5772 Clouds 23 1010 91 10000 5.14 161 10:58 20.01.2022
5773 Clouds 23 1010 91 10000 5.14 164 09:43 20.01.2022
5774 Clouds 23 1010 91 10000 4.7 167 08:36 20.01.2022
5775 Clouds 23 1013 91 10000 3.8 168 06:19 20.01.2022
5776 Clouds 24 1009 84 10000 3.75 168 23:56 19.01.2022
5777 Clouds 26 1008 73 10000 6.69 140 22:37 19.01.2022
5778 Clouds 27 1009 74 10000 5.14 180 21:26 19.01.2022
5779 Clouds 26 1009 78 10000 6.17 180 20:55 19.01.2022
5780 Clouds 26 1009 78 10000 6.17 180 20:24 19.01.2022
5781 Clouds 25 1011 83 10000 5.14 140 18:49 19.01.2022
5782 Clouds 25 1011 83 10000 5.14 140 18:49 19.01.2022
5783 Clouds 25 1011 83 10000 6.17 150 17:50 19.01.2022
5784 Clouds 25 1011 83 10000 6.17 160 16:59 19.01.2022
5785 Clouds 23 1013 87 10000 3.56 163 14:43 19.01.2022
5786 Clouds 23 1011 90 10000 3.51 165 12:53 19.01.2022
5787 Clouds 23 1011 90 10000 3.75 157 11:43 19.01.2022
5788 Clouds 23 1010 90 10000 3.59 158 10:38 19.01.2022
5789 Clouds 23 1011 90 10000 2.75 164 09:34 19.01.2022
5790 Clouds 23 1012 89 10000 2.22 145 07:18 19.01.2022
5791 Clouds 23 1013 88 10000 2.77 151 05:19 19.01.2022
5792 Clouds 27 1007 69 10000 6.69 160 23:41 18.01.2022
5793 Clouds 27 1007 69 10000 6.69 160 23:18 18.01.2022
5794 Clouds 28 1009 65 10000 6.17 170 21:20 18.01.2022
5795 Clouds 27 1011 69 10000 6.69 170 19:55 18.01.2022
5796 Clouds 27 1011 69 10000 6.69 170 19:37 18.01.2022
5797 Clouds 27 1011 69 10000 7.2 150 18:57 18.01.2022
5798 Clouds 26 1012 78 10000 7.2 130 17:59 18.01.2022
5799 Clouds 26 1012 78 10000 7.2 130 17:27 18.01.2022
5800 Clouds 24 1011 88 10000 5.66 140 15:50 18.01.2022
5801 Clouds 24 1011 88 10000 5.66 140 15:22 18.01.2022
5802 Clouds 23 1013 90 10000 4.07 146 13:26 18.01.2022
5803 Clouds 23 1012 89 10000 3.69 125 10:48 18.01.2022
5804 Clouds 23 1011 87 10000 3.98 161 09:29 18.01.2022
5805 Clouds 23 1012 86 10000 3.84 167 07:56 18.01.2022
5806 Clouds 23 1014 84 10000 3.67 157 05:31 18.01.2022
5807 Clouds 26 1008 78 10000 6.17 170 23:55 17.01.2022
5808 Clouds 26 1009 78 10000 6.17 180 22:29 17.01.2022
5809 Clouds 28 1011 69 10000 7.72 170 21:35 17.01.2022
5810 Clouds 27 1010 74 10000 7.72 160 20:27 17.01.2022
5811 Clouds 27 1011 74 10000 8.75 150 18:31 17.01.2022
5812 Clouds 26 1012 73 10000 8.23 160 17:44 17.01.2022
5813 Clouds 26 1012 78 10000 8.23 170 16:44 17.01.2022
5814 Clouds 25 1011 83 10000 6.69 170 15:22 17.01.2022
5815 Clouds 23 1015 87 10000 2.89 153 14:56 17.01.2022
5816 Clouds 22 1013 88 10000 3.18 164 13:26 17.01.2022
5817 Clouds 23 1013 86 10000 3.19 144 12:56 17.01.2022
5818 Clouds 23 1012 87 10000 3.06 154 11:49 17.01.2022
5819 Clouds 22 1012 89 10000 3.1 169 10:21 17.01.2022
5820 Clouds 22 1012 89 10000 3.1 169 09:34 17.01.2022
5821 Clouds 22 1014 90 10000 3.04 176 07:24 17.01.2022
5822 Clouds 23 1014 90 10000 2.64 173 06:56 17.01.2022
5823 Clouds 23 1012 86 10000 4.88 144 00:55 17.01.2022
5824 Clouds 27 1009 74 10000 7.72 160 22:29 16.01.2022
5825 Clouds 27 1011 74 10000 7.72 150 20:36 16.01.2022
5826 Clouds 26 1013 78 10000 7.2 150 18:51 16.01.2022
5827 Clouds 27 1013 74 10000 7.72 160 17:59 16.01.2022
5828 Clouds 25 1013 83 10000 6.69 150 16:59 16.01.2022
5829 Clouds 25 1013 83 10000 6.69 150 16:31 16.01.2022
5830 Clouds 23 1014 89 10000 4.93 141 14:31 16.01.2022
5831 Clouds 23 1013 90 10000 5.02 146 13:45 16.01.2022
5832 Clouds 23 1013 92 10000 4.31 142 12:44 16.01.2022
5833 Clouds 23 1012 92 10000 4.01 149 11:41 16.01.2022
5834 Clouds 23 1012 91 10000 3.59 154 10:53 16.01.2022
5835 Clouds 23 1012 91 10000 3.56 153 09:59 16.01.2022
5836 Clouds 23 1012 91 10000 3.56 153 09:40 16.01.2022
5837 Clouds 23 1013 91 10000 3.43 162 09:22 16.01.2022
5838 Clouds 23 1014 90 10000 3.51 151 07:25 16.01.2022
5839 Clouds 23 1012 86 10000 4.09 158 00:38 16.01.2022
5840 Clouds 26 1010 78 10000 7.2 180 23:22 15.01.2022
5841 Clouds 27 1011 74 10000 7.72 170 21:23 15.01.2022
5842 Clouds 27 1012 74 10000 8.23 160 20:48 15.01.2022
5843 Clouds 27 1012 74 10000 8.23 160 20:29 15.01.2022
5844 Clouds 26 1013 83 10000 5.66 180 19:27 15.01.2022
5845 Clouds 26 1013 78 10000 5.66 170 18:23 15.01.2022
5846 Clouds 25 1014 83 10000 6.17 150 16:49 15.01.2022
5847 Clouds 23 1015 88 10000 4.29 160 14:48 15.01.2022
5848 Rain 23 1014 88 10000 3.59 145 12:52 15.01.2022
5849 Rain 23 1013 89 10000 3.63 144 11:32 15.01.2022
5850 Clouds 23 1012 89 10000 3.94 144 09:46 15.01.2022
5851 Clouds 23 1014 88 10000 3.35 142 05:18 15.01.2022
5852 Clouds 26 1009 78 10000 7.72 160 23:32 14.01.2022
5853 Clouds 27 1010 74 10000 8.23 170 21:18 14.01.2022
5854 Clouds 26 1011 78 10000 7.2 180 20:25 14.01.2022
5855 Clouds 27 1013 74 10000 6.17 200 19:50 14.01.2022
5856 Clouds 26 1013 78 10000 7.2 180 18:41 14.01.2022
5857 Clouds 26 1014 78 10000 6.69 170 17:39 14.01.2022
5858 Clouds 25 1014 83 10000 6.69 160 16:43 14.01.2022
5859 Clouds 24 1013 88 10000 5.66 170 15:32 14.01.2022
5860 Clouds 23 1014 83 10000 5.26 141 14:26 14.01.2022
5861 Clouds 23 1014 81 10000 5.34 151 12:58 14.01.2022
5862 Clouds 23 1013 81 10000 5.69 150 11:52 14.01.2022
5863 Clouds 23 1012 80 10000 5.35 153 10:39 14.01.2022
5864 Clear 23 1012 79 10000 4.87 158 08:53 14.01.2022
5865 Clear 23 1013 79 10000 4.77 161 07:30 14.01.2022
5866 Clouds 23 1013 79 10000 3.84 149 02:27 14.01.2022
5867 Clouds 26 1009 78 10000 6.17 170 00:21 14.01.2022
5868 Clouds 27 1011 74 10000 6.69 200 21:47 13.01.2022
5869 Clouds 27 1011 74 10000 6.69 200 21:29 13.01.2022
5870 Clouds 27 1013 74 10000 7.2 180 19:45 13.01.2022
5871 Clouds 27 1013 74 10000 7.2 180 19:23 13.01.2022
5872 Clouds 27 1013 74 10000 7.72 190 18:37 13.01.2022
5873 Clouds 25 1014 83 10000 6.69 180 16:52 13.01.2022
5874 Rain 25 1009 88 10000 4.63 180 15:39 13.01.2022
5875 Rain 25 1009 88 10000 4.63 180 15:20 13.01.2022
5876 Clouds 23 1014 84 10000 4.59 141 13:28 13.01.2022
5877 Clouds 23 1013 83 10000 5.64 143 10:39 13.01.2022
5878 Clouds 24 1012 81 10000 5.34 143 09:23 13.01.2022
5879 Clouds 24 1013 80 10000 4.79 146 08:29 13.01.2022
5880 Clouds 24 1013 80 10000 4.79 146 07:58 13.01.2022
5881 Clouds 24 1014 81 10000 4.79 146 07:18 13.01.2022
5882 Clouds 24 1014 81 10000 5 145 05:20 13.01.2022
5883 Clouds 24 1014 81 10000 4.59 141 03:33 13.01.2022
5884 Clouds 24 1013 83 10000 4.45 146 01:38 13.01.2022
5885 Clouds 25 1010 83 10000 8.75 170 23:53 12.01.2022
5886 Clouds 25 1010 83 10000 8.75 170 23:33 12.01.2022
5887 Clouds 27 1011 78 10000 8.23 190 21:58 12.01.2022
5888 Clouds 27 1011 78 10000 8.23 190 21:39 12.01.2022
5889 Clouds 27 1011 78 10000 8.23 190 21:18 12.01.2022
5890 Clouds 28 1011 74 10000 8.75 180 20:41 12.01.2022
5891 Clouds 27 1013 78 10000 8.23 170 18:48 12.01.2022
5892 Clouds 26 1013 83 10000 8.75 170 17:53 12.01.2022
5893 Clouds 26 1013 83 10000 8.75 160 16:42 12.01.2022
5894 Clear 23 1015 87 10000 4.13 143 14:49 12.01.2022
5895 Clear 23 1014 87 10000 4.13 133 13:40 12.01.2022
5896 Clear 23 1013 88 10000 3.24 136 12:56 12.01.2022
5897 Clear 23 1013 88 10000 3.5 134 08:55 12.01.2022
5898 Clear 23 1013 88 10000 3.6 140 07:55 12.01.2022
5899 Clear 23 1013 88 10000 3.6 140 07:32 12.01.2022
5900 Clouds 23 1013 88 10000 4.51 147 01:34 12.01.2022
5901 Clouds 26 1009 78 10000 7.2 170 23:26 11.01.2022
5902 Clouds 24 1011 88 10000 4.72 154 22:25 11.01.2022
5903 Clouds 24 1012 88 10000 4.67 144 21:28 11.01.2022
5904 Clouds 28 1011 69 10000 7.72 170 20:36 11.01.2022
5905 Clouds 27 1012 74 10000 8.75 170 19:23 11.01.2022
5906 Clouds 26 1012 78 10000 7.2 150 17:46 11.01.2022
5907 Clouds 24 1012 88 10000 7.2 160 16:39 11.01.2022
5908 Clouds 24 1012 88 10000 7.2 160 16:18 11.01.2022
5909 Clear 23 1015 91 10000 3.27 143 14:48 11.01.2022
5910 Clear 23 1015 91 10000 3.27 143 14:30 11.01.2022
5911 Clear 23 1014 92 10000 3.31 140 13:46 11.01.2022
5912 Clear 23 1013 92 10000 3.35 149 13:25 11.01.2022
5913 Clouds 23 1012 93 10000 3.25 167 12:24 11.01.2022
5914 Clouds 23 1012 93 10000 3.21 168 10:26 11.01.2022
5915 Clear 23 1013 92 10000 3.04 168 07:38 11.01.2022
5916 Clear 23 1013 90 10000 3.43 157 02:57 11.01.2022
5917 Clouds 23 1012 87 10000 4.49 168 00:24 11.01.2022
5918 Rain 25 1010 88 10000 5.66 170 23:38 10.01.2022
5919 Clouds 26 1010 83 10000 7.2 160 22:20 10.01.2022
5920 Clouds 26 1011 83 10000 7.2 180 21:56 10.01.2022
5921 Clouds 26 1011 83 10000 7.2 180 21:33 10.01.2022
5922 Clouds 26 1012 83 10000 8.23 160 20:58 10.01.2022
5923 Clouds 26 1012 83 10000 8.23 160 20:29 10.01.2022
5924 Clouds 25 1013 88 10000 6.69 150 19:47 10.01.2022
5925 Clouds 25 1013 88 10000 6.69 150 19:23 10.01.2022
5926 Clouds 25 1013 88 10000 7.72 140 18:54 10.01.2022
5927 Clouds 25 1013 88 10000 7.72 140 18:34 10.01.2022
5928 Rain 23 1014 100 10000 4.63 140 16:43 10.01.2022
5929 Drizzle 23 1013 100 8000 4.12 160 15:55 10.01.2022
5930 Clear 23 1015 90 10000 4.47 163 14:39 10.01.2022
5931 Clouds 23 1013 91 10000 4.51 162 12:31 10.01.2022
5932 Clouds 23 1012 91 10000 4.72 157 11:25 10.01.2022
5933 Clouds 23 1012 90 10000 4.67 166 10:21 10.01.2022
5934 Clouds 23 1013 91 10000 4.49 177 08:22 10.01.2022
5935 Clouds 23 1015 89 10000 3.69 170 05:50 10.01.2022
5936 Clouds 23 1013 90 10000 3.04 174 01:33 10.01.2022
5937 Clouds 23 1013 88 10000 3.8 182 00:33 10.01.2022
5938 Clouds 25 1011 83 10000 6.69 170 23:43 09.01.2022
5939 Clouds 27 1011 78 10000 8.23 190 22:42 09.01.2022
5940 Clouds 27 1011 78 10000 6.69 200 21:47 09.01.2022
5941 Clouds 27 1011 78 10000 6.69 200 21:24 09.01.2022
5942 Clouds 27 1012 78 10000 6.17 190 20:54 09.01.2022
5943 Clouds 27 1012 78 10000 6.17 190 20:36 09.01.2022
5944 Clouds 27 1012 78 10000 6.17 190 20:18 09.01.2022
5945 Clouds 25 1013 88 10000 4.63 160 19:37 09.01.2022
5946 Clouds 25 1013 88 10000 4.63 160 19:18 09.01.2022
5947 Rain 25 1014 94 8000 5.14 170 18:37 09.01.2022
5948 Drizzle 23 1014 100 4000 5.66 180 17:48 09.01.2022
5949 Drizzle 23 1014 100 4000 5.66 180 17:25 09.01.2022
5950 Drizzle 23 1014 100 4000 5.14 170 16:34 09.01.2022
5951 Rain 24 1013 94 10000 6.17 160 15:37 09.01.2022
5952 Clouds 23 1015 86 10000 4.31 146 14:41 09.01.2022
5953 Clouds 23 1014 86 10000 4.44 152 13:56 09.01.2022
5954 Clouds 23 1014 86 10000 4.44 152 13:36 09.01.2022
5955 Clouds 22 1013 85 10000 3.38 163 11:56 09.01.2022
5956 Clouds 22 1013 84 10000 2.87 159 11:19 09.01.2022
5957 Clouds 22 1013 84 10000 2.66 184 09:51 09.01.2022
5958 Clear 23 1014 84 10000 2.56 185 08:54 09.01.2022
5959 Clouds 23 1016 84 10000 1.94 182 05:54 09.01.2022
5960 Clouds 23 1013 81 10000 4.11 178 01:26 09.01.2022
5961 Clouds 23 1013 84 10000 3.88 182 00:37 09.01.2022
5962 Clouds 26 1010 78 10000 5.14 210 23:27 08.01.2022
5963 Clouds 26 1011 78 10000 5.66 180 22:35 08.01.2022
5964 Clouds 27 1012 74 10000 5.14 210 21:26 08.01.2022
5965 Clouds 27 1012 78 10000 5.66 190 20:43 08.01.2022
5966 Clouds 27 1012 78 10000 5.66 190 20:21 08.01.2022
5967 Clouds 26 1014 83 10000 3.6 210 18:45 08.01.2022
5968 Clouds 26 1014 83 10000 4.12 210 17:23 08.01.2022
5969 Clouds 24 1013 88 10000 4.63 160 15:58 08.01.2022
5970 Clouds 23 1016 85 10000 3.51 193 14:50 08.01.2022
5971 Clouds 22 1015 85 10000 3.09 198 13:41 08.01.2022
5972 Clouds 22 1014 83 10000 3.7 211 11:30 08.01.2022
5973 Clouds 22 1013 83 10000 3.44 204 10:31 08.01.2022
5974 Clouds 22 1012 83 10000 3.46 198 09:54 08.01.2022
5975 Clouds 22 1012 83 10000 3.39 193 09:28 08.01.2022
5976 Clouds 23 1014 84 10000 3.56 186 03:45 08.01.2022
5977 Clouds 23 1012 80 10000 4.05 189 00:57 08.01.2022
5978 Clouds 26 1010 78 10000 5.14 190 22:54 07.01.2022
5979 Clouds 26 1010 78 10000 4.63 160 21:21 07.01.2022
5980 Clouds 26 1011 73 10000 5.14 180 20:23 07.01.2022
5981 Clouds 27 1011 69 10000 5.66 160 19:26 07.01.2022
5982 Clouds 27 1012 69 10000 6.17 190 18:45 07.01.2022
5983 Clouds 26 1012 73 10000 6.17 160 17:28 07.01.2022
5984 Clouds 25 1012 83 10000 4.63 170 16:41 07.01.2022
5985 Clear 23 1014 82 10000 2.41 180 14:37 07.01.2022
5986 Clear 22 1013 83 10000 2.25 181 13:41 07.01.2022
5987 Clear 22 1012 83 10000 2.64 177 12:50 07.01.2022
5988 Clouds 22 1011 84 10000 3.3 199 09:46 07.01.2022
5989 Clouds 23 1012 83 10000 3.53 152 02:57 07.01.2022
5990 Clear 23 1011 82 10000 3.86 168 01:56 07.01.2022
5991 Clouds 23 1010 81 10000 4.08 178 01:28 07.01.2022
5992 Clouds 23 1010 81 10000 4.08 178 00:59 07.01.2022
5993 Clouds 23 1010 80 10000 4.48 192 00:28 07.01.2022
5994 Clouds 25 1009 83 10000 4.12 190 21:39 06.01.2022
5995 Clouds 26 1010 78 10000 4.63 190 20:25 06.01.2022
5996 Clouds 26 1010 78 10000 3.09 220 19:45 06.01.2022
5997 Rain 24 1011 78 10000 4.12 210 18:59 06.01.2022
5998 Rain 24 1011 78 10000 4.63 170 17:42 06.01.2022
5999 Rain 24 1011 78 10000 4.63 170 17:42 06.01.2022
6000 Clouds 24 1011 83 10000 4.12 200 16:57 06.01.2022
6001 Clouds 24 1011 83 10000 3.09 170 15:49 06.01.2022
6002 Clouds 24 1011 83 10000 3.09 170 15:27 06.01.2022
6003 Clouds 23 1013 81 10000 3.29 178 14:55 06.01.2022
6004 Clouds 22 1012 82 10000 3.47 180 14:18 06.01.2022
6005 Clouds 22 1011 84 10000 3.28 186 12:56 06.01.2022
6006 Clouds 22 1011 84 10000 3.46 186 11:43 06.01.2022
6007 Clouds 22 1011 85 10000 3.77 190 11:23 06.01.2022
6008 Clouds 22 1010 85 10000 4.45 189 08:59 06.01.2022
6009 Clouds 23 1010 83 10000 4.36 180 01:37 06.01.2022
6010 Clouds 26 1007 78 10000 6.69 180 23:38 05.01.2022
6011 Clouds 26 1007 78 10000 7.2 180 22:59 05.01.2022
6012 Clouds 26 1007 78 10000 7.2 180 22:33 05.01.2022
6013 Clouds 27 1008 74 10000 7.2 190 21:49 05.01.2022
6014 Clouds 27 1008 74 10000 7.2 190 21:20 05.01.2022
6015 Clouds 26 1009 78 10000 6.17 190 20:19 05.01.2022
6016 Clouds 25 1010 83 10000 4.63 200 18:50 05.01.2022
6017 Clouds 24 1011 88 10000 4.63 180 17:44 05.01.2022
6018 Rain 23 1011 94 10000 3.6 180 16:51 05.01.2022
6019 Rain 22 1011 100 10000 3.09 210 15:26 05.01.2022
6020 Clouds 22 1013 86 10000 4.39 180 13:52 05.01.2022
6021 Clouds 22 1012 86 10000 4.37 179 13:22 05.01.2022
6022 Clouds 22 1011 86 10000 3.96 178 10:34 05.01.2022
6023 Clouds 22 1012 86 10000 4.53 174 07:47 05.01.2022
6024 Clouds 22 1012 86 10000 4.53 174 07:47 05.01.2022
6025 Clouds 22 1013 86 10000 3.69 172 06:25 05.01.2022
6026 Clouds 23 1008 88 10000 6.69 170 00:58 05.01.2022
6027 Clouds 24 1008 88 10000 7.2 170 23:28 04.01.2022
6028 Clouds 24 1008 88 10000 7.2 170 23:28 04.01.2022
6029 Clouds 25 1008 78 10000 6.69 170 22:46 04.01.2022
6030 Clouds 27 1009 74 10000 7.2 170 21:24 04.01.2022
6031 Clouds 26 1011 78 10000 5.14 170 19:20 04.01.2022
6032 Clouds 24 1012 88 10000 6.69 160 17:51 04.01.2022
6033 Rain 23 1012 94 10000 5.66 180 16:43 04.01.2022
6034 Rain 23 1012 94 10000 5.66 180 16:23 04.01.2022
6035 Clouds 22 1015 90 10000 4.31 175 14:54 04.01.2022
6036 Clouds 22 1015 90 10000 4.31 175 14:34 04.01.2022
6037 Clouds 22 1013 90 10000 4.41 180 13:27 04.01.2022
6038 Clouds 22 1012 89 10000 4.62 180 10:41 04.01.2022
6039 Clouds 22 1012 88 10000 4.49 179 09:20 04.01.2022
6040 Clouds 22 1012 88 10000 4.49 179 08:30 04.01.2022
6041 Clouds 22 1014 86 10000 3.75 179 02:31 04.01.2022
6042 Clouds 22 1012 84 10000 3.82 182 00:41 04.01.2022
6043 Clouds 26 1009 73 10000 6.17 180 23:19 03.01.2022
6044 Clouds 27 1010 69 10000 7.2 190 21:52 03.01.2022
6045 Clouds 27 1010 69 10000 7.2 190 21:32 03.01.2022
6046 Clouds 27 1012 69 10000 8.23 180 19:47 03.01.2022
6047 Clouds 26 1013 73 10000 6.69 160 18:47 03.01.2022
6048 Clouds 26 1013 73 10000 6.69 160 18:24 03.01.2022
6049 Clouds 24 1013 83 10000 6.17 170 16:58 03.01.2022
6050 Clouds 22 1016 87 10000 3.93 178 14:56 03.01.2022
6051 Clouds 22 1016 87 10000 3.93 178 14:30 03.01.2022
6052 Clouds 22 1014 86 10000 3.68 172 12:39 03.01.2022
6053 Clouds 22 1014 86 10000 3.6 171 11:34 03.01.2022
6054 Clouds 22 1013 85 10000 3.55 173 10:25 03.01.2022
6055 Clouds 22 1013 85 10000 3.56 182 08:47 03.01.2022
6056 Clouds 22 1014 86 10000 3.62 183 07:32 03.01.2022
6057 Clouds 25 1010 78 10000 5.66 190 23:55 02.01.2022
6058 Clouds 25 1010 78 10000 5.66 190 23:20 02.01.2022
6059 Clouds 25 1010 78 10000 6.17 180 22:43 02.01.2022
6060 Clouds 26 1011 73 10000 5.14 190 21:39 02.01.2022
6061 Clouds 26 1011 73 10000 5.66 190 20:31 02.01.2022
6062 Clouds 26 1013 78 10000 5.14 180 19:53 02.01.2022
6063 Clouds 26 1013 78 10000 5.14 180 19:26 02.01.2022
6064 Clouds 25 1013 78 10000 4.12 170 18:33 02.01.2022
6065 Clouds 25 1013 78 10000 4.63 170 17:43 02.01.2022
6066 Clouds 25 1013 78 10000 4.63 170 17:21 02.01.2022
6067 Clouds 24 1013 83 10000 5.14 200 16:53 02.01.2022
6068 Clouds 24 1013 83 10000 5.14 200 16:23 02.01.2022
6069 Clouds 21 1015 86 10000 4.63 184 14:19 02.01.2022
6070 Clouds 21 1014 87 10000 4.27 177 12:34 02.01.2022
6071 Clouds 21 1013 86 10000 4.34 181 11:56 02.01.2022
6072 Clouds 21 1013 86 10000 4.33 181 10:59 02.01.2022
6073 Clouds 21 1012 85 10000 4.1 179 10:26 02.01.2022
6074 Clouds 21 1013 84 10000 3.3 186 08:22 02.01.2022
6075 Clouds 22 1013 83 10000 2.89 180 02:58 02.01.2022
6076 Clouds 24 1008 83 10000 5.66 170 23:55 01.01.2022
6077 Clouds 24 1008 83 10000 5.66 170 23:36 01.01.2022
6078 Clouds 24 1009 83 10000 6.69 180 22:44 01.01.2022
6079 Clouds 24 1009 83 10000 6.69 180 22:18 01.01.2022
6080 Clouds 25 1009 78 10000 6.17 190 21:43 01.01.2022
6081 Clouds 25 1010 78 10000 7.2 200 20:51 01.01.2022
6082 Clouds 25 1011 78 10000 6.69 190 19:55 01.01.2022
6083 Clouds 25 1012 78 10000 6.69 190 18:53 01.01.2022
6084 Clouds 24 1012 83 10000 6.17 190 17:46 01.01.2022
6085 Clouds 24 1012 83 10000 6.69 170 16:35 01.01.2022
6086 Clouds 22 1012 88 10000 4.63 170 15:50 01.01.2022
6087 Clouds 22 1014 83 10000 5.52 191 14:40 01.01.2022
6088 Clouds 22 1013 84 10000 5.44 188 13:42 01.01.2022
6089 Clouds 22 1012 84 10000 4.41 186 12:26 01.01.2022
6090 Clouds 22 1012 84 10000 4.41 186 11:46 01.01.2022
6091 Clouds 22 1012 85 10000 4.71 190 11:18 01.01.2022
6092 Clouds 22 1012 85 10000 5.1 190 09:48 01.01.2022
6093 Clouds 22 1012 85 10000 5.14 189 08:49 01.01.2022
6094 Clouds 22 1012 86 10000 4.93 188 08:21 01.01.2022
6095 Clouds 22 1012 86 10000 4.93 188 07:40 01.01.2022
6096 Clouds 22 1013 87 10000 4.97 188 06:44 01.01.2022
6097 Clouds 22 1014 88 10000 4.54 186 05:25 01.01.2022
6098 Clouds 22 1014 88 10000 4.54 186 04:36 01.01.2022
6099 Clouds 22 1010 81 10000 4.7 202 00:25 01.01.2022
6100 Clouds 25 1008 78 10000 6.17 170 22:34 31.12.2021
6101 Clouds 26 1009 73 10000 6.69 160 21:49 31.12.2021
6102 Clouds 26 1010 73 10000 6.69 190 19:56 31.12.2021
6103 Clouds 26 1010 73 10000 6.69 190 19:28 31.12.2021
6104 Clouds 25 1011 78 10000 8.23 180 18:24 31.12.2021
6105 Clouds 24 1011 83 10000 6.17 170 17:37 31.12.2021
6106 Clouds 23 1011 88 10000 6.69 160 16:56 31.12.2021
6107 Clouds 23 1011 88 10000 6.69 160 16:18 31.12.2021
6108 Clouds 23 1011 88 10000 7.72 170 15:50 31.12.2021
6109 Clouds 23 1011 88 10000 7.72 170 15:28 31.12.2021
6110 Clouds 22 1013 85 10000 5.64 174 14:41 31.12.2021
6111 Clouds 21 1012 87 10000 6.17 175 13:56 31.12.2021
6112 Clouds 21 1011 87 10000 6.14 173 12:54 31.12.2021
6113 Clouds 21 1011 87 10000 5.27 171 12:26 31.12.2021
6114 Clouds 21 1011 87 10000 5.27 171 11:42 31.12.2021
6115 Clouds 21 1011 87 10000 4.77 168 10:56 31.12.2021
6116 Clouds 21 1011 86 10000 4.79 171 10:28 31.12.2021
6117 Clouds 21 1011 86 10000 4.79 171 09:35 31.12.2021
6118 Clouds 21 1011 85 10000 4.63 174 08:54 31.12.2021
6119 Clouds 21 1012 84 10000 4.67 173 08:23 31.12.2021
6120 Clouds 21 1013 83 10000 4.92 177 06:24 31.12.2021
6121 Clouds 24 1008 78 10000 7.2 160 23:19 30.12.2021
6122 Clouds 25 1008 73 10000 7.2 170 22:32 30.12.2021
6123 Clouds 25 1009 78 10000 7.72 150 21:40 30.12.2021
6124 Clouds 25 1009 78 10000 7.72 150 21:19 30.12.2021
6125 Clouds 26 1010 73 10000 9.26 160 20:40 30.12.2021
6126 Clouds 26 1011 69 10000 8.23 160 19:58 30.12.2021
6127 Clouds 26 1011 69 10000 8.23 160 19:34 30.12.2021
6128 Clouds 25 1012 78 10000 8.75 160 18:28 30.12.2021
6129 Clouds 23 1012 83 10000 7.2 180 16:53 30.12.2021
6130 Clouds 23 1012 88 10000 6.17 180 15:54 30.12.2021
6131 Clouds 23 1012 88 10000 6.17 180 15:21 30.12.2021
6132 Clouds 21 1015 81 10000 5.4 165 14:36 30.12.2021
6133 Clouds 21 1013 82 10000 5.49 162 13:26 30.12.2021
6134 Clouds 21 1013 84 10000 5.22 163 11:58 30.12.2021
6135 Clouds 21 1012 84 10000 5.24 166 10:40 30.12.2021
6136 Clouds 21 1012 83 10000 4.96 169 09:49 30.12.2021
6137 Clouds 22 1014 80 10000 4.46 180 06:59 30.12.2021
6138 Clouds 22 1015 79 10000 4.4 178 05:27 30.12.2021
6139 Clouds 22 1015 81 10000 4.5 179 03:41 30.12.2021
6140 Clouds 22 1014 82 10000 4.61 178 02:32 30.12.2021
6141 Clouds 24 1010 78 10000 4.63 180 23:39 29.12.2021
6142 Clouds 25 1010 73 10000 7.2 160 22:55 29.12.2021
6143 Clouds 25 1010 73 10000 7.2 160 22:18 29.12.2021
6144 Clouds 26 1012 69 10000 7.72 160 20:59 29.12.2021
6145 Clouds 26 1012 69 10000 7.72 160 20:29 29.12.2021
6146 Clouds 25 1012 73 10000 7.2 150 19:38 29.12.2021
6147 Clouds 25 1013 73 10000 5.66 160 18:43 29.12.2021
6148 Clouds 24 1013 78 10000 6.17 160 17:51 29.12.2021
6149 Clouds 24 1013 78 10000 6.17 160 17:27 29.12.2021
6150 Rain 23 1013 83 10000 5.14 140 16:22 29.12.2021
6151 Drizzle 22 1013 88 10000 4.12 150 15:21 29.12.2021
6152 Clouds 22 1014 83 10000 4.89 173 13:31 29.12.2021
6153 Clouds 22 1013 83 10000 4.58 172 12:35 29.12.2021
6154 Clouds 22 1012 83 10000 4.52 173 11:23 29.12.2021
6155 Clouds 22 1012 82 10000 4.42 179 09:38 29.12.2021
6156 Clouds 22 1013 82 10000 4.11 192 07:47 29.12.2021
6157 Clouds 23 1014 78 10000 4.15 194 06:36 29.12.2021
6158 Clouds 23 1014 78 10000 4.09 191 05:57 29.12.2021
6159 Clouds 23 1014 78 10000 4.12 180 05:27 29.12.2021
6160 Clouds 22 1011 82 10000 4.23 174 01:27 29.12.2021
6161 Clouds 24 1009 78 10000 4.63 170 23:59 28.12.2021
6162 Clouds 24 1009 78 10000 5.14 180 22:57 28.12.2021
6163 Clouds 24 1009 78 10000 5.14 180 22:25 28.12.2021
6164 Clouds 24 1009 78 10000 6.17 180 21:55 28.12.2021
6165 Clouds 24 1009 78 10000 6.17 180 21:35 28.12.2021
6166 Clouds 24 1010 78 10000 5.66 190 20:32 28.12.2021
6167 Clouds 25 1012 73 10000 3.6 200 18:54 28.12.2021
6168 Clouds 25 1012 73 10000 3.6 200 18:28 28.12.2021
6169 Clouds 24 1012 83 10000 4.12 170 17:39 28.12.2021
6170 Clouds 23 1012 88 10000 3.6 180 16:21 28.12.2021
6171 Clouds 22 1011 94 10000 4.12 190 15:41 28.12.2021
6172 Clouds 21 1014 83 10000 4.73 165 14:56 28.12.2021
6173 Clouds 21 1014 83 10000 4.73 165 14:56 28.12.2021
6174 Clouds 21 1014 83 10000 4.73 165 14:38 28.12.2021
6175 Clouds 21 1014 83 10000 4.73 165 14:38 28.12.2021
6176 Clouds 21 1013 82 10000 4.46 168 14:19 28.12.2021
6177 Clouds 21 1013 82 10000 4.46 168 13:37 28.12.2021
6178 Clouds 21 1013 82 10000 4.21 175 12:56 28.12.2021
6179 Clouds 21 1012 82 10000 4.21 177 12:29 28.12.2021
6180 Clouds 21 1012 82 10000 4.2 177 10:51 28.12.2021
6181 Clouds 21 1012 81 10000 4.31 184 07:39 28.12.2021
6182 Clouds 21 1013 80 10000 5.29 173 03:37 28.12.2021
6183 Clouds 23 1008 83 10000 4.63 200 23:41 27.12.2021
6184 Clouds 24 1008 78 10000 5.14 210 22:27 27.12.2021
6185 Clouds 24 1009 78 10000 5.14 200 21:31 27.12.2021
6186 Clouds 24 1010 83 10000 5.66 180 20:40 27.12.2021
6187 Clouds 24 1011 78 10000 5.66 170 19:55 27.12.2021
6188 Clouds 24 1011 78 10000 5.66 170 19:37 27.12.2021
6189 Clouds 22 1013 88 10000 5.14 180 17:55 27.12.2021
6190 Clouds 22 1013 88 10000 5.14 180 17:55 27.12.2021
6191 Clouds 22 1013 88 10000 5.14 180 17:29 27.12.2021
6192 Clouds 22 1013 88 10000 4.63 190 16:26 27.12.2021
6193 Rain 22 1013 88 10000 4.12 180 15:49 27.12.2021
6194 Clouds 22 1014 83 10000 4.9 174 14:26 27.12.2021
6195 Clouds 22 1014 83 10000 4.9 174 13:31 27.12.2021
6196 Clouds 22 1013 84 10000 4.72 182 11:20 27.12.2021
6197 Clouds 22 1013 84 10000 4.96 178 10:27 27.12.2021
6198 Clouds 22 1013 84 10000 5.17 178 09:27 27.12.2021
6199 Clouds 22 1013 85 10000 5.33 183 07:34 27.12.2021
6200 Clouds 22 1014 87 10000 5.09 189 06:29 27.12.2021
6201 Clouds 22 1013 87 10000 4.54 176 01:58 27.12.2021
6202 Clouds 24 1010 83 10000 5.14 190 23:50 26.12.2021
6203 Clouds 24 1010 83 10000 5.14 190 23:20 26.12.2021
6204 Clouds 25 1010 78 10000 6.17 180 21:41 26.12.2021
6205 Clouds 25 1011 78 10000 6.69 190 20:25 26.12.2021
6206 Clouds 23 1013 88 10000 6.17 160 18:53 26.12.2021
6207 Clouds 23 1013 88 10000 6.17 160 18:22 26.12.2021
6208 Clouds 22 1013 94 10000 4.12 160 15:54 26.12.2021
6209 Clouds 22 1014 92 10000 5.65 158 13:51 26.12.2021
6210 Clouds 22 1014 92 10000 5.65 158 13:32 26.12.2021
6211 Clouds 22 1014 90 10000 4.9 162 12:37 26.12.2021
6212 Clouds 22 1014 90 10000 4.9 162 12:37 26.12.2021
6213 Clouds 22 1013 90 10000 4.32 169 11:56 26.12.2021
6214 Clouds 22 1013 90 10000 3.82 177 09:42 26.12.2021
6215 Clouds 22 1013 90 10000 3.58 182 08:50 26.12.2021
6216 Clouds 22 1013 91 10000 3.64 186 08:27 26.12.2021
6217 Clouds 22 1015 92 10000 3.68 185 05:59 26.12.2021
6218 Clouds 22 1012 89 10000 4.89 170 00:44 26.12.2021
6219 Clouds 24 1008 83 10000 8.75 190 23:48 25.12.2021
6220 Clouds 26 1009 73 10000 5.14 180 22:39 25.12.2021
6221 Clouds 26 1009 73 10000 5.14 180 22:20 25.12.2021
6222 Clouds 26 1010 73 10000 7.2 160 20:27 25.12.2021
6223 Clouds 26 1011 73 10000 8.23 160 19:19 25.12.2021
6224 Clouds 25 1012 78 10000 7.2 160 18:39 25.12.2021
6225 Clouds 23 1013 88 10000 7.72 170 16:52 25.12.2021
6226 Clouds 23 1013 88 10000 5.66 160 15:48 25.12.2021
6227 Clouds 22 1014 90 10000 4.2 160 14:24 25.12.2021
6228 Clouds 21 1014 91 10000 4.33 159 12:40 25.12.2021
6229 Clouds 21 1013 91 10000 4.57 165 10:49 25.12.2021
6230 Clouds 21 1013 91 10000 4.62 163 09:49 25.12.2021
6231 Clouds 21 1013 90 10000 4.46 158 07:39 25.12.2021
6232 Clouds 22 1013 89 10000 4.32 163 01:45 25.12.2021
6233 Clouds 22 1012 85 10000 5.19 165 00:23 25.12.2021
6234 Clouds 24 1009 83 10000 7.2 170 22:26 24.12.2021
6235 Clouds 24 1012 83 10000 7.2 170 19:29 24.12.2021
6236 Clouds 24 1013 83 10000 6.69 170 18:57 24.12.2021
6237 Clouds 23 1013 88 10000 4.63 170 16:49 24.12.2021
6238 Clouds 22 1013 94 10000 4.12 150 15:52 24.12.2021
6239 Clouds 22 1013 94 10000 4.12 150 15:32 24.12.2021
6240 Clouds 21 1015 91 10000 4.32 161 14:35 24.12.2021
6241 Clouds 21 1015 91 10000 4.72 158 13:59 24.12.2021
6242 Clouds 21 1015 91 10000 4.72 158 13:32 24.12.2021
6243 Clouds 21 1014 92 10000 4.68 156 12:47 24.12.2021
6244 Clouds 21 1013 91 10000 4.33 158 11:46 24.12.2021
6245 Clouds 21 1013 91 10000 4.46 159 11:24 24.12.2021
6246 Clouds 21 1013 91 10000 4.46 159 10:36 24.12.2021
6247 Clouds 21 1013 92 10000 4.14 161 09:22 24.12.2021
6248 Clouds 21 1013 92 10000 3.91 162 08:19 24.12.2021
6249 Clouds 21 1013 92 10000 3.91 162 07:42 24.12.2021
6250 Clouds 22 1012 86 10000 4 183 00:48 24.12.2021
6251 Clouds 24 1009 83 10000 6.17 180 23:54 23.12.2021
6252 Clouds 25 1010 78 10000 6.69 170 22:54 23.12.2021
6253 Clouds 25 1010 78 10000 6.69 170 22:26 23.12.2021
6254 Clouds 25 1010 78 10000 6.69 170 21:50 23.12.2021
6255 Clouds 25 1011 78 10000 7.2 160 20:53 23.12.2021
6256 Clouds 25 1012 78 10000 6.17 160 19:31 23.12.2021
6257 Clouds 25 1012 78 10000 5.14 170 18:28 23.12.2021
6258 Clouds 23 1013 88 10000 3.6 150 17:46 23.12.2021
6259 Clouds 24 1013 78 10000 4.12 160 16:27 23.12.2021
6260 Clouds 21 1016 89 10000 4.16 156 15:54 23.12.2021
6261 Clouds 21 1016 89 10000 4.16 156 15:30 23.12.2021
6262 Clouds 21 1015 89 10000 4.2 152 14:42 23.12.2021
6263 Clouds 21 1015 90 10000 4.08 151 13:49 23.12.2021
6264 Clouds 21 1014 92 10000 4.12 166 11:59 23.12.2021
6265 Clouds 21 1013 92 10000 3.77 170 10:36 23.12.2021
6266 Clouds 21 1013 90 10000 3.8 165 09:34 23.12.2021
6267 Clouds 21 1013 90 10000 3.67 169 08:41 23.12.2021
6268 Clouds 21 1015 91 10000 3.35 172 06:20 23.12.2021
6269 Clouds 21 1014 90 10000 3.42 170 03:22 23.12.2021
6270 Clouds 22 1011 84 10000 4.43 189 22:54 22.12.2021
6271 Clouds 22 1011 83 10000 3.91 189 22:22 22.12.2021
6272 Clouds 22 1011 83 10000 3.91 189 21:48 22.12.2021
6273 Clouds 22 1012 84 10000 3.9 189 21:25 22.12.2021
6274 Clouds 22 1012 84 10000 3.9 189 20:41 22.12.2021
6275 Clouds 22 1013 84 10000 3.64 193 19:57 22.12.2021
6276 Clouds 22 1014 85 10000 3.2 190 18:56 22.12.2021
6277 Clouds 22 1015 86 10000 3.44 191 17:38 22.12.2021
6278 Clouds 22 1016 87 10000 3.64 187 16:32 22.12.2021
6279 Clouds 22 1015 88 10000 3.78 178 15:21 22.12.2021
6280 Clouds 21 1014 93 10000 3.72 163 12:59 22.12.2021
6281 Clouds 21 1013 93 10000 4.14 169 11:50 22.12.2021
6282 Clouds 21 1012 94 10000 4.12 169 09:53 22.12.2021
6283 Clouds 21 1012 94 10000 3.97 166 08:34 22.12.2021
6284 Clouds 21 1014 91 10000 3.72 178 05:56 22.12.2021
6285 Clouds 21 1014 91 10000 3.72 178 05:37 22.12.2021
6286 Clouds 22 1014 91 10000 3.6 174 05:19 22.12.2021
6287 Clouds 22 1014 91 10000 3.6 174 04:40 22.12.2021
6288 Clouds 22 1014 90 10000 3.44 169 03:52 22.12.2021
6289 Clouds 22 1014 90 10000 3.44 169 03:31 22.12.2021
6290 Clouds 24 1009 78 10000 6.17 160 23:48 21.12.2021
6291 Clouds 25 1009 78 10000 6.69 160 22:41 21.12.2021
6292 Clouds 26 1009 73 10000 7.2 170 21:57 21.12.2021
6293 Clouds 26 1009 73 10000 7.2 170 21:33 21.12.2021
6294 Clouds 26 1010 73 10000 6.69 190 20:39 21.12.2021
6295 Clouds 26 1010 73 10000 6.69 190 20:18 21.12.2021
6296 Clouds 24 1011 83 10000 7.2 200 19:34 21.12.2021
6297 Rain 23 1012 88 10000 7.2 170 18:28 21.12.2021
6298 Drizzle 22 1012 94 8000 6.69 170 17:58 21.12.2021
6299 Drizzle 22 1012 94 8000 6.69 170 17:39 21.12.2021
6300 Clouds 23 1012 88 10000 6.69 160 15:39 21.12.2021
6301 Clouds 21 1013 92 10000 4.15 178 14:21 21.12.2021
6302 Clouds 21 1013 92 10000 4.15 178 13:42 21.12.2021
6303 Clouds 21 1012 93 10000 3.72 183 12:26 21.12.2021
6304 Clouds 21 1011 93 10000 4.14 177 10:38 21.12.2021
6305 Clouds 21 1011 93 10000 4.44 179 09:50 21.12.2021
6306 Clouds 21 1011 93 10000 4.11 178 08:55 21.12.2021
6307 Clouds 21 1012 93 10000 4.35 183 07:43 21.12.2021
6308 Clouds 21 1013 92 10000 3.89 191 07:20 21.12.2021
6309 Clouds 21 1013 92 10000 3.82 179 03:26 21.12.2021
6310 Clouds 22 1011 92 10000 4.24 174 01:25 21.12.2021
6311 Clouds 24 1008 78 10000 8.75 170 23:54 20.12.2021
6312 Clouds 25 1008 73 10000 9.26 160 22:35 20.12.2021
6313 Clouds 25 1009 78 10000 8.23 170 21:51 20.12.2021
6314 Clouds 25 1009 78 10000 8.23 170 21:24 20.12.2021
6315 Clouds 27 1010 69 10000 8.75 160 20:51 20.12.2021
6316 Clouds 27 1010 69 10000 8.75 160 20:19 20.12.2021
6317 Clouds 26 1011 73 10000 8.23 180 19:36 20.12.2021
6318 Clouds 26 1011 73 10000 8.23 180 19:18 20.12.2021
6319 Clouds 25 1012 78 10000 6.69 160 18:28 20.12.2021
6320 Clouds 24 1013 83 10000 6.17 160 17:49 20.12.2021
6321 Clouds 23 1012 88 10000 5.66 160 16:45 20.12.2021
6322 Clouds 23 1012 88 10000 6.17 170 15:55 20.12.2021
6323 Clouds 23 1012 88 10000 6.17 170 15:31 20.12.2021
6324 Clouds 21 1014 92 10000 3.98 176 13:31 20.12.2021
6325 Clouds 21 1012 94 10000 4.2 182 11:36 20.12.2021
6326 Clouds 21 1011 94 10000 4.02 187 10:35 20.12.2021
6327 Clouds 21 1011 94 10000 4.47 186 09:38 20.12.2021
6328 Clouds 21 1011 94 10000 4.49 187 08:44 20.12.2021
6329 Clouds 21 1012 94 10000 4.26 189 07:59 20.12.2021
6330 Clouds 21 1012 94 10000 4.26 189 07:31 20.12.2021
6331 Clouds 21 1015 93 10000 4.37 192 05:25 20.12.2021
6332 Clouds 22 1011 91 10000 3.86 201 00:19 20.12.2021
6333 Rain 22 1009 88 8000 4.63 160 22:55 19.12.2021
6334 Drizzle 23 1010 88 8000 4.12 190 21:55 19.12.2021
6335 Drizzle 23 1010 88 8000 4.12 190 21:31 19.12.2021
6336 Clouds 25 1011 78 10000 6.17 200 20:34 19.12.2021
6337 Clouds 25 1011 78 10000 6.69 190 19:52 19.12.2021
6338 Clouds 25 1011 78 10000 6.69 190 19:32 19.12.2021
6339 Clouds 24 1012 83 10000 4.63 190 18:30 19.12.2021
6340 Clouds 24 1013 83 10000 5.14 190 17:53 19.12.2021
6341 Clouds 24 1013 83 10000 5.14 190 17:21 19.12.2021
6342 Clouds 23 1012 88 10000 4.12 180 16:27 19.12.2021
6343 Clouds 22 1012 94 10000 4.63 190 15:43 19.12.2021
6344 Clouds 22 1012 94 10000 4.63 190 15:21 19.12.2021
6345 Clouds 21 1014 91 10000 2.98 202 14:42 19.12.2021
6346 Clouds 21 1013 93 10000 3.07 199 13:24 19.12.2021
6347 Clouds 21 1013 93 10000 3.07 199 12:46 19.12.2021
6348 Clouds 21 1013 93 10000 3.33 199 12:23 19.12.2021
6349 Clouds 21 1012 94 10000 3.67 198 11:21 19.12.2021
6350 Clouds 21 1012 94 10000 3.75 198 10:26 19.12.2021
6351 Clouds 21 1012 94 10000 3.75 198 09:42 19.12.2021
6352 Clouds 21 1012 94 10000 3.63 194 08:35 19.12.2021
6353 Clouds 21 1014 93 10000 3.76 186 04:45 19.12.2021
6354 Clouds 21 1012 90 10000 4.41 173 01:33 19.12.2021
6355 Clouds 21 1012 89 10000 4.53 187 00:52 19.12.2021
6356 Clouds 24 1009 78 10000 5.14 190 22:37 18.12.2021
6357 Clouds 26 1010 69 10000 6.17 190 21:57 18.12.2021
6358 Clouds 26 1010 69 10000 6.17 190 21:35 18.12.2021
6359 Clouds 26 1010 69 10000 7.2 170 20:44 18.12.2021
6360 Clouds 26 1010 69 10000 7.2 170 20:18 18.12.2021
6361 Clouds 25 1011 78 10000 6.17 180 19:20 18.12.2021
6362 Clouds 25 1012 73 10000 6.69 160 18:21 18.12.2021
6363 Clouds 24 1012 78 10000 7.2 170 17:48 18.12.2021
6364 Clouds 23 1012 83 10000 6.17 180 16:26 18.12.2021
6365 Clouds 23 1012 83 10000 6.17 180 16:26 18.12.2021
6366 Clouds 22 1012 88 10000 6.69 170 15:27 18.12.2021
6367 Clouds 21 1014 89 10000 4.05 182 14:38 18.12.2021
6368 Clouds 21 1013 90 10000 3.9 187 13:21 18.12.2021
6369 Clouds 21 1012 91 10000 3.82 186 11:22 18.12.2021
6370 Clouds 21 1011 91 10000 3.57 182 09:40 18.12.2021
6371 Clouds 21 1012 92 10000 3.81 170 08:47 18.12.2021
6372 Clouds 21 1012 92 10000 3.83 177 08:19 18.12.2021
6373 Clouds 22 1010 88 10000 5.14 160 02:51 18.12.2021
6374 Clouds 21 1011 87 10000 3.42 177 00:28 18.12.2021
6375 Clouds 23 1008 83 10000 6.17 170 23:44 17.12.2021
6376 Clouds 25 1009 73 10000 7.2 180 21:56 17.12.2021
6377 Clouds 25 1009 73 10000 7.2 180 21:56 17.12.2021
6378 Clouds 25 1010 73 10000 7.72 170 20:58 17.12.2021
6379 Clouds 25 1010 73 10000 7.72 170 20:38 17.12.2021
6380 Clouds 25 1011 78 10000 7.2 160 19:18 17.12.2021
6381 Clouds 24 1012 78 10000 6.17 180 18:38 17.12.2021
6382 Clouds 24 1012 78 10000 6.69 190 17:31 17.12.2021
6383 Clouds 23 1012 83 10000 7.2 180 16:44 17.12.2021
6384 Clouds 23 1012 83 10000 7.2 180 16:21 17.12.2021
6385 Clouds 22 1012 88 10000 6.17 160 15:21 17.12.2021
6386 Clouds 22 1012 88 10000 6.17 160 15:21 17.12.2021
6387 Clouds 20 1014 91 10000 4.48 162 14:39 17.12.2021
6388 Clouds 20 1013 92 10000 4.09 160 12:46 17.12.2021
6389 Clouds 20 1012 92 10000 4.16 165 11:34 17.12.2021
6390 Clouds 20 1012 92 10000 3.85 170 10:37 17.12.2021
6391 Clouds 21 1012 91 10000 4.02 178 08:58 17.12.2021
6392 Clouds 21 1012 91 10000 3.82 181 08:29 17.12.2021
6393 Clouds 21 1013 90 10000 4.13 176 05:58 17.12.2021
6394 Clouds 22 1013 86 10000 3.42 185 02:53 17.12.2021
6395 Clouds 24 1008 78 10000 8.23 160 23:23 16.12.2021
6396 Clouds 25 1008 73 10000 7.72 160 22:24 16.12.2021
6397 Clouds 25 1008 73 10000 7.72 160 22:24 16.12.2021
6398 Clouds 25 1008 73 10000 7.72 160 22:24 16.12.2021
6399 Clouds 25 1009 73 10000 7.2 170 21:47 16.12.2021
6400 Clouds 25 1009 73 10000 7.2 170 21:25 16.12.2021
6401 Clouds 25 1010 73 10000 7.2 170 20:28 16.12.2021
6402 Clouds 25 1010 73 10000 6.17 190 19:36 16.12.2021
6403 Clouds 24 1011 78 10000 7.2 190 18:38 16.12.2021
6404 Clouds 24 1011 78 10000 4.63 200 17:49 16.12.2021
6405 Clouds 24 1011 78 10000 4.63 200 17:28 16.12.2021
6406 Clouds 23 1011 83 10000 4.63 180 16:21 16.12.2021
6407 Clouds 21 1013 88 10000 2.28 162 14:50 16.12.2021
6408 Clouds 20 1012 91 10000 2.33 161 12:57 16.12.2021
6409 Clouds 20 1011 93 10000 2.85 163 11:20 16.12.2021
6410 Clouds 20 1011 93 10000 2.85 163 10:48 16.12.2021
6411 Clouds 20 1011 93 10000 2.9 173 09:59 16.12.2021
6412 Clouds 20 1012 92 10000 3.34 169 07:21 16.12.2021
6413 Clouds 20 1013 91 10000 3.44 173 06:19 16.12.2021
6414 Clouds 21 1011 86 10000 3.91 175 00:54 16.12.2021
6415 Clouds 23 1008 78 10000 4.63 170 23:22 15.12.2021
6416 Clouds 24 1009 73 10000 5.14 190 22:29 15.12.2021
6417 Clouds 25 1009 69 10000 5.66 170 21:49 15.12.2021
6418 Clouds 25 1009 69 10000 5.66 170 21:26 15.12.2021
6419 Clouds 25 1011 69 10000 5.66 180 19:55 15.12.2021
6420 Clouds 25 1011 69 10000 5.66 180 19:23 15.12.2021
6421 Clouds 25 1012 65 10000 5.14 160 18:26 15.12.2021
6422 Clouds 24 1012 73 10000 5.66 160 17:49 15.12.2021
6423 Clouds 24 1012 73 10000 5.66 160 17:27 15.12.2021
6424 Clouds 22 1013 83 10000 4.63 180 16:25 15.12.2021
6425 Clouds 22 1012 83 10000 5.14 180 15:42 15.12.2021
6426 Clouds 22 1012 83 10000 5.14 180 15:24 15.12.2021
6427 Clouds 21 1014 87 10000 3.62 155 13:58 15.12.2021
6428 Clouds 20 1013 89 10000 4.21 168 11:57 15.12.2021
6429 Clouds 20 1012 90 10000 4.02 170 10:23 15.12.2021
6430 Clouds 20 1012 90 10000 4 172 08:34 15.12.2021
6431 Clouds 21 1015 89 10000 3.87 162 05:59 15.12.2021
6432 Clouds 21 1013 89 10000 4.46 165 00:47 15.12.2021
6433 Clouds 22 1010 83 10000 6.17 160 23:41 14.12.2021
6434 Drizzle 23 1010 83 8000 7.2 190 22:47 14.12.2021
6435 Clouds 24 1010 78 10000 7.2 170 21:48 14.12.2021
6436 Clouds 24 1011 73 10000 6.17 180 20:24 14.12.2021
6437 Clouds 21 1014 87 10000 4.49 179 19:39 14.12.2021
6438 Clouds 21 1015 86 10000 4.69 179 18:42 14.12.2021
6439 Clouds 24 1013 78 10000 5.14 170 17:57 14.12.2021
6440 Clouds 23 1013 83 10000 4.63 140 16:49 14.12.2021
6441 Clouds 23 1013 83 10000 4.63 140 16:30 14.12.2021
6442 Clouds 21 1016 87 10000 3.83 178 14:32 14.12.2021
6443 Clouds 20 1014 89 10000 4.46 174 13:22 14.12.2021
6444 Clouds 20 1014 89 10000 4.4 178 11:51 14.12.2021
6445 Clouds 20 1013 89 10000 4.49 176 11:22 14.12.2021
6446 Clouds 20 1013 89 10000 4.2 177 09:55 14.12.2021
6447 Clouds 20 1013 89 10000 4.22 181 09:19 14.12.2021
6448 Clouds 20 1014 90 10000 4.32 182 08:22 14.12.2021
6449 Clouds 20 1014 90 10000 4.32 182 07:39 14.12.2021
6450 Clouds 23 1010 78 10000 5.14 140 23:59 13.12.2021
6451 Clouds 25 1011 69 10000 7.2 180 22:26 13.12.2021
6452 Clouds 25 1011 69 10000 7.2 180 21:44 13.12.2021
6453 Clouds 24 1011 73 10000 6.17 140 20:58 13.12.2021
6454 Clouds 24 1011 73 10000 6.17 140 20:26 13.12.2021
6455 Clouds 24 1012 73 10000 7.2 170 19:49 13.12.2021
6456 Clouds 24 1012 73 10000 7.2 170 19:49 13.12.2021
6457 Clouds 23 1012 78 10000 6.69 160 17:28 13.12.2021
6458 Clouds 23 1012 78 10000 5.66 170 16:43 13.12.2021
6459 Clouds 23 1012 83 10000 6.17 180 15:43 13.12.2021
6460 Clouds 21 1015 90 10000 3.83 162 14:42 13.12.2021
6461 Clouds 20 1014 91 10000 4.28 168 13:37 13.12.2021
6462 Clouds 20 1013 91 10000 4.38 159 12:40 13.12.2021
6463 Clouds 20 1012 91 10000 4.55 161 11:52 13.12.2021
6464 Clouds 20 1012 91 10000 4.77 160 11:29 13.12.2021
6465 Clouds 20 1012 91 10000 4.77 160 10:36 13.12.2021
6466 Clouds 20 1012 91 10000 4.6 169 08:43 13.12.2021
6467 Clouds 21 1014 92 10000 3.6 165 06:55 13.12.2021
6468 Clouds 21 1015 92 10000 3.56 166 05:19 13.12.2021
6469 Clouds 23 1009 83 10000 7.2 170 23:55 12.12.2021
6470 Clouds 23 1010 83 10000 7.2 160 21:58 12.12.2021
6471 Clouds 23 1011 83 10000 7.2 160 20:50 12.12.2021
6472 Rain 22 1012 88 10000 6.17 170 19:35 12.12.2021
6473 Clouds 23 1012 78 10000 6.17 180 17:58 12.12.2021
6474 Clouds 22 1012 83 10000 7.72 180 16:29 12.12.2021
6475 Clouds 23 1012 83 10000 5.14 180 15:54 12.12.2021
6476 Clouds 23 1012 83 10000 5.14 180 15:28 12.12.2021
6477 Clouds 21 1015 92 10000 4.23 182 14:42 12.12.2021
6478 Clouds 21 1014 92 10000 4.39 183 13:56 12.12.2021
6479 Clouds 21 1013 93 10000 4.06 183 12:48 12.12.2021
6480 Clouds 21 1013 93 10000 3.98 188 11:45 12.12.2021
6481 Clouds 21 1013 93 10000 3.98 188 11:45 12.12.2021
6482 Clouds 21 1013 93 10000 3.54 191 11:25 12.12.2021
6483 Clouds 21 1013 93 10000 3.54 191 11:25 12.12.2021
6484 Clouds 21 1013 93 10000 3.54 191 10:43 12.12.2021
6485 Clouds 21 1013 93 10000 3.26 187 09:48 12.12.2021
6486 Clouds 21 1013 93 10000 3.65 184 08:42 12.12.2021
6487 Clouds 21 1014 93 10000 4.17 173 06:38 12.12.2021
6488 Clouds 21 1015 92 10000 4.1 175 05:28 12.12.2021
6489 Clouds 21 1014 92 10000 3.93 174 03:58 12.12.2021
6490 Clouds 21 1012 91 10000 3.72 181 00:45 12.12.2021
6491 Clouds 23 1008 83 10000 5.66 180 22:42 11.12.2021
6492 Clouds 23 1008 83 10000 5.66 180 22:20 11.12.2021
6493 Clouds 23 1009 78 10000 6.69 180 21:24 11.12.2021
6494 Clouds 23 1011 78 10000 5.14 180 19:46 11.12.2021
6495 Rain 23 1011 78 10000 5.14 180 19:20 11.12.2021
6496 Rain 23 1012 83 10000 4.63 180 18:38 11.12.2021
6497 Rain 23 1012 83 10000 4.63 160 17:41 11.12.2021
6498 Rain 22 1012 83 10000 5.14 180 15:57 11.12.2021
6499 Rain 22 1012 83 10000 5.14 180 15:35 11.12.2021
6500 Rain 20 1014 93 10000 4.41 193 14:21 11.12.2021
6501 Rain 20 1013 95 10000 5.04 189 11:58 11.12.2021
6502 Rain 20 1012 95 10000 5.19 191 10:24 11.12.2021
6503 Rain 20 1012 95 10000 5.19 191 09:37 11.12.2021
6504 Clouds 21 1013 91 10000 5.31 189 03:25 11.12.2021
6505 Clouds 21 1012 91 10000 5.56 192 00:44 11.12.2021
6506 Clouds 23 1008 78 10000 5.14 150 23:39 10.12.2021
6507 Clouds 23 1008 78 10000 6.17 180 22:26 10.12.2021
6508 Clouds 25 1008 69 10000 6.69 180 21:37 10.12.2021
6509 Clouds 24 1010 78 10000 8.23 180 19:23 10.12.2021
6510 Clouds 21 1013 90 10000 4.23 190 18:57 10.12.2021
6511 Clouds 26 1011 65 10000 5.14 150 17:21 10.12.2021
6512 Clouds 22 1011 78 10000 7.72 180 16:30 10.12.2021
6513 Clouds 22 1011 83 10000 7.2 170 15:42 10.12.2021
6514 Clouds 22 1011 83 10000 7.2 170 15:22 10.12.2021
6515 Clouds 21 1013 89 10000 3.18 182 13:52 10.12.2021
6516 Clouds 21 1012 89 10000 3.1 181 13:27 10.12.2021
6517 Clouds 21 1013 90 10000 3.29 170 12:47 10.12.2021
6518 Clouds 21 1012 91 10000 3.38 167 11:34 10.12.2021
6519 Clouds 21 1011 91 10000 3.24 170 10:38 10.12.2021
6520 Clouds 21 1011 92 10000 3.79 180 09:19 10.12.2021
6521 Clouds 21 1013 92 10000 4.06 188 06:59 10.12.2021
6522 Clouds 21 1013 90 10000 3.66 171 02:51 10.12.2021
6523 Clouds 22 1011 87 10000 3.72 188 00:57 10.12.2021
6524 Clouds 23 1009 78 10000 3.09 180 23:37 09.12.2021
6525 Clouds 23 1009 78 10000 5.14 210 22:40 09.12.2021
6526 Clouds 23 1009 78 10000 5.14 210 22:19 09.12.2021
6527 Clouds 23 1009 78 10000 3.6 180 21:20 09.12.2021
6528 Clouds 24 1010 73 10000 4.63 180 20:29 09.12.2021
6529 Clouds 23 1010 78 10000 6.17 180 19:22 09.12.2021
6530 Clouds 24 1011 73 10000 5.14 180 18:50 09.12.2021
6531 Clouds 24 1011 73 10000 4.63 160 17:57 09.12.2021
6532 Clouds 24 1011 73 10000 4.63 160 17:27 09.12.2021
6533 Clouds 23 1011 78 10000 5.66 180 16:57 09.12.2021
6534 Clouds 22 1010 83 10000 5.14 160 15:59 09.12.2021
6535 Clouds 21 1013 89 10000 4.51 150 14:51 09.12.2021
6536 Clouds 21 1012 88 10000 4.36 148 13:39 09.12.2021
6537 Clouds 21 1012 89 10000 4.25 149 12:47 09.12.2021
6538 Clouds 21 1011 90 10000 4.52 166 11:24 09.12.2021
6539 Clouds 21 1011 90 10000 4.22 170 09:44 09.12.2021
6540 Clouds 21 1013 90 10000 4 167 06:51 09.12.2021
6541 Clouds 21 1013 88 10000 4.03 165 03:43 09.12.2021
6542 Clouds 24 1008 73 10000 6.69 160 23:45 08.12.2021
6543 Clouds 24 1008 73 10000 6.69 160 23:21 08.12.2021
6544 Clouds 25 1008 69 10000 6.17 180 22:49 08.12.2021
6545 Clouds 25 1009 69 10000 7.72 180 21:46 08.12.2021
6546 Clouds 25 1009 69 10000 7.72 180 21:27 08.12.2021
6547 Clouds 24 1011 69 10000 5.14 150 19:59 08.12.2021
6548 Clouds 24 1011 69 10000 5.14 150 19:36 08.12.2021
6549 Clouds 23 1011 78 10000 5.14 150 18:53 08.12.2021
6550 Clouds 23 1012 78 10000 6.17 180 17:47 08.12.2021
6551 Clouds 23 1011 78 10000 6.69 170 15:57 08.12.2021
6552 Clouds 23 1011 78 10000 6.69 170 15:29 08.12.2021
6553 Clouds 21 1014 85 10000 5.07 167 14:40 08.12.2021
6554 Clouds 20 1012 88 10000 4.17 173 11:36 08.12.2021
6555 Clouds 20 1011 88 10000 4.52 180 10:32 08.12.2021
6556 Clouds 20 1011 88 10000 4.72 185 09:25 08.12.2021
6557 Clouds 20 1013 89 10000 5.03 190 07:26 08.12.2021
6558 Clouds 20 1014 88 10000 4 173 04:57 08.12.2021
6559 Clouds 23 1008 78 10000 5.14 180 23:34 07.12.2021
6560 Clouds 24 1009 69 10000 7.2 180 21:51 07.12.2021
6561 Clouds 24 1009 69 10000 7.2 180 21:23 07.12.2021
6562 Clouds 24 1009 69 10000 6.69 150 20:24 07.12.2021
6563 Clouds 25 1011 65 10000 4.63 150 18:47 07.12.2021
6564 Clouds 24 1011 69 10000 6.17 160 17:53 07.12.2021
6565 Clouds 24 1011 69 10000 6.17 160 17:19 07.12.2021
6566 Clouds 23 1011 73 10000 7.72 160 16:31 07.12.2021
6567 Clouds 21 1011 83 10000 6.17 150 15:34 07.12.2021
6568 Clouds 20 1013 87 10000 4.87 158 14:23 07.12.2021
6569 Clouds 20 1013 89 10000 4.23 152 12:55 07.12.2021
6570 Clouds 20 1011 90 10000 4.54 171 11:29 07.12.2021
6571 Clouds 20 1011 90 10000 4.54 171 10:33 07.12.2021
6572 Clouds 20 1012 90 10000 3.95 177 08:26 07.12.2021
6573 Clouds 20 1013 89 10000 3.43 157 06:19 07.12.2021
6574 Clouds 20 1013 89 10000 3.43 157 05:33 07.12.2021
6575 Clouds 24 1008 73 10000 5.14 180 23:47 06.12.2021
6576 Clouds 24 1008 73 10000 5.14 180 23:47 06.12.2021
6577 Clouds 22 1008 83 10000 5.66 180 22:46 06.12.2021
6578 Clouds 22 1008 83 10000 5.66 180 22:23 06.12.2021
6579 Clouds 23 1008 78 10000 6.17 180 21:51 06.12.2021
6580 Clouds 24 1009 73 10000 7.2 180 20:33 06.12.2021
6581 Clouds 24 1010 69 10000 5.14 190 19:55 06.12.2021
6582 Clouds 24 1010 69 10000 5.14 190 19:20 06.12.2021
6583 Clouds 22 1011 78 10000 5.14 180 18:23 06.12.2021
6584 Clouds 22 1012 83 10000 5.66 180 17:40 06.12.2021
6585 Rain 20 1012 94 8000 4.63 180 16:22 06.12.2021
6586 Clouds 20 1011 94 10000 4.63 180 15:38 06.12.2021
6587 Clouds 20 1010 94 10000 4.12 180 13:46 06.12.2021
6588 Clouds 20 1010 94 10000 4.12 180 13:46 06.12.2021
6589 Clouds 20 1013 87 10000 4.08 167 12:39 06.12.2021
6590 Clouds 20 1012 91 10000 4.12 188 10:38 06.12.2021
6591 Clouds 20 1012 91 10000 4.01 172 08:45 06.12.2021
6592 Clouds 20 1015 90 10000 4.72 160 04:56 06.12.2021
6593 Clouds 23 1009 78 10000 4.12 180 22:52 05.12.2021
6594 Clouds 23 1010 78 10000 5.14 160 21:26 05.12.2021
6595 Clouds 21 1011 88 10000 5.19 168 20:59 05.12.2021
6596 Clouds 21 1012 87 10000 5.27 167 20:19 05.12.2021
6597 Clouds 23 1012 78 10000 6.17 180 19:33 05.12.2021
6598 Clouds 22 1012 83 10000 6.69 150 18:41 05.12.2021
6599 Clouds 22 1012 83 10000 6.69 150 18:19 05.12.2021
6600 Clouds 24 1013 73 10000 6.17 150 17:47 05.12.2021
6601 Clouds 23 1013 78 10000 5.14 150 16:45 05.12.2021
6602 Clouds 23 1013 78 10000 5.14 150 16:24 05.12.2021
6603 Clouds 21 1015 88 10000 5.33 164 14:49 05.12.2021
6604</